<?xml version="1.0" encoding="UTF-8" standalone="no" ?>
<gpx xmlns="http://www.topografix.com/GPX/1/1" xmlns:xsi="http://www.w3.org/2001/XMLSchema-instance" xsi:schemaLocation="http://www.topografix.com/GPX/1/1 http://www.topografix.com/GPX/1/1/gpx.xsd" version="1.1" creator="VisuGPX - https://www.visugpx.com">
  <metadata>
    <name>Parcours Rumes Groupe B du 20 mars 2018</name>
    <desc><![CDATA[Parcours du groupe B au départ de Rumes]]></desc>
  </metadata>
  <trk>
    <name><![CDATA[Genech]]></name>
    <trkseg>
      <trkpt lat="50.55569" lon="3.30378">
        <ele>53.696442</ele>
        <time>2018-03-20T13:01:41Z</time>
      </trkpt>
      <trkpt lat="50.55584" lon="3.30375">
        <ele>53.740288</ele>
        <time>2018-03-20T13:01:43Z</time>
      </trkpt>
      <trkpt lat="50.55588" lon="3.30378">
        <ele>53.76297</ele>
        <time>2018-03-20T13:01:45Z</time>
      </trkpt>
      <trkpt lat="50.55591" lon="3.30381">
        <ele>53.808281</ele>
        <time>2018-03-20T13:01:47Z</time>
      </trkpt>
      <trkpt lat="50.55594" lon="3.30384">
        <ele>53.859154</ele>
        <time>2018-03-20T13:01:49Z</time>
      </trkpt>
      <trkpt lat="50.55597" lon="3.30387">
        <ele>53.873493</ele>
        <time>2018-03-20T13:01:51Z</time>
      </trkpt>
      <trkpt lat="50.55602" lon="3.3039">
        <ele>53.956276</ele>
        <time>2018-03-20T13:01:53Z</time>
      </trkpt>
      <trkpt lat="50.55607" lon="3.30388">
        <ele>53.992504</ele>
        <time>2018-03-20T13:01:55Z</time>
      </trkpt>
      <trkpt lat="50.55613" lon="3.30385">
        <ele>53.985901</ele>
        <time>2018-03-20T13:01:57Z</time>
      </trkpt>
      <trkpt lat="50.5562" lon="3.30381">
        <ele>54.088806</ele>
        <time>2018-03-20T13:01:59Z</time>
      </trkpt>
      <trkpt lat="50.55627" lon="3.30377">
        <ele>54.12035</ele>
        <time>2018-03-20T13:02:01Z</time>
      </trkpt>
      <trkpt lat="50.55634" lon="3.30374">
        <ele>54.081757</ele>
        <time>2018-03-20T13:02:03Z</time>
      </trkpt>
      <trkpt lat="50.5564" lon="3.3037">
        <ele>54.725746</ele>
        <time>2018-03-20T13:02:05Z</time>
      </trkpt>
      <trkpt lat="50.55647" lon="3.30367">
        <ele>54.532032</ele>
        <time>2018-03-20T13:02:07Z</time>
      </trkpt>
      <trkpt lat="50.55654" lon="3.30365">
        <ele>54.430462</ele>
        <time>2018-03-20T13:02:09Z</time>
      </trkpt>
      <trkpt lat="50.55661" lon="3.30363">
        <ele>54.351398</ele>
        <time>2018-03-20T13:02:11Z</time>
      </trkpt>
      <trkpt lat="50.55669" lon="3.30359">
        <ele>54.291481</ele>
        <time>2018-03-20T13:02:13Z</time>
      </trkpt>
      <trkpt lat="50.55677" lon="3.30356">
        <ele>54.23568</ele>
        <time>2018-03-20T13:02:15Z</time>
      </trkpt>
      <trkpt lat="50.55685" lon="3.30354">
        <ele>54.154762</ele>
        <time>2018-03-20T13:02:17Z</time>
      </trkpt>
      <trkpt lat="50.55693" lon="3.30354">
        <ele>54.040058</ele>
        <time>2018-03-20T13:02:19Z</time>
      </trkpt>
      <trkpt lat="50.55701" lon="3.30355">
        <ele>53.904957</ele>
        <time>2018-03-20T13:02:21Z</time>
      </trkpt>
      <trkpt lat="50.55709" lon="3.30355">
        <ele>53.807129</ele>
        <time>2018-03-20T13:02:23Z</time>
      </trkpt>
      <trkpt lat="50.55717" lon="3.30353">
        <ele>53.708061</ele>
        <time>2018-03-20T13:02:25Z</time>
      </trkpt>
      <trkpt lat="50.55725" lon="3.3035">
        <ele>53.552834</ele>
        <time>2018-03-20T13:02:27Z</time>
      </trkpt>
      <trkpt lat="50.55732" lon="3.30345">
        <ele>53.371605</ele>
        <time>2018-03-20T13:02:29Z</time>
      </trkpt>
      <trkpt lat="50.55738" lon="3.30339">
        <ele>53.244343</ele>
        <time>2018-03-20T13:02:31Z</time>
      </trkpt>
      <trkpt lat="50.55743" lon="3.30332">
        <ele>53.146477</ele>
        <time>2018-03-20T13:02:33Z</time>
      </trkpt>
      <trkpt lat="50.55748" lon="3.30324">
        <ele>53.052826</ele>
        <time>2018-03-20T13:02:35Z</time>
      </trkpt>
      <trkpt lat="50.55752" lon="3.30316">
        <ele>53.007397</ele>
        <time>2018-03-20T13:02:37Z</time>
      </trkpt>
      <trkpt lat="50.55755" lon="3.30307">
        <ele>52.984386</ele>
        <time>2018-03-20T13:02:39Z</time>
      </trkpt>
      <trkpt lat="50.55758" lon="3.30298">
        <ele>52.866364</ele>
        <time>2018-03-20T13:02:41Z</time>
      </trkpt>
      <trkpt lat="50.5576" lon="3.3029">
        <ele>52.827156</ele>
        <time>2018-03-20T13:02:43Z</time>
      </trkpt>
      <trkpt lat="50.55764" lon="3.30284">
        <ele>52.885754</ele>
        <time>2018-03-20T13:02:45Z</time>
      </trkpt>
      <trkpt lat="50.55769" lon="3.30282">
        <ele>52.869408</ele>
        <time>2018-03-20T13:02:47Z</time>
      </trkpt>
      <trkpt lat="50.55775" lon="3.30283">
        <ele>52.924389</ele>
        <time>2018-03-20T13:02:49Z</time>
      </trkpt>
      <trkpt lat="50.55781" lon="3.30285">
        <ele>52.936543</ele>
        <time>2018-03-20T13:02:51Z</time>
      </trkpt>
      <trkpt lat="50.55787" lon="3.30288">
        <ele>52.963238</ele>
        <time>2018-03-20T13:02:53Z</time>
      </trkpt>
      <trkpt lat="50.55793" lon="3.30291">
        <ele>52.992577</ele>
        <time>2018-03-20T13:02:55Z</time>
      </trkpt>
      <trkpt lat="50.558" lon="3.30293">
        <ele>53.059132</ele>
        <time>2018-03-20T13:02:57Z</time>
      </trkpt>
      <trkpt lat="50.55806" lon="3.30296">
        <ele>53.198372</ele>
        <time>2018-03-20T13:02:59Z</time>
      </trkpt>
      <trkpt lat="50.55812" lon="3.30298">
        <ele>53.291096</ele>
        <time>2018-03-20T13:03:01Z</time>
      </trkpt>
      <trkpt lat="50.55818" lon="3.30301">
        <ele>53.442097</ele>
        <time>2018-03-20T13:03:03Z</time>
      </trkpt>
      <trkpt lat="50.55824" lon="3.30303">
        <ele>53.556</ele>
        <time>2018-03-20T13:03:05Z</time>
      </trkpt>
      <trkpt lat="50.55831" lon="3.30306">
        <ele>53.692951</ele>
        <time>2018-03-20T13:03:07Z</time>
      </trkpt>
      <trkpt lat="50.55838" lon="3.30308">
        <ele>53.820488</ele>
        <time>2018-03-20T13:03:09Z</time>
      </trkpt>
      <trkpt lat="50.55845" lon="3.30311">
        <ele>53.895622</ele>
        <time>2018-03-20T13:03:11Z</time>
      </trkpt>
      <trkpt lat="50.55851" lon="3.30313">
        <ele>53.993347</ele>
        <time>2018-03-20T13:03:13Z</time>
      </trkpt>
      <trkpt lat="50.55857" lon="3.30316">
        <ele>54.150261</ele>
        <time>2018-03-20T13:03:15Z</time>
      </trkpt>
      <trkpt lat="50.55863" lon="3.30318">
        <ele>54.272247</ele>
        <time>2018-03-20T13:03:17Z</time>
      </trkpt>
      <trkpt lat="50.5587" lon="3.30321">
        <ele>54.407166</ele>
        <time>2018-03-20T13:03:19Z</time>
      </trkpt>
      <trkpt lat="50.55876" lon="3.30323">
        <ele>54.551647</ele>
        <time>2018-03-20T13:03:21Z</time>
      </trkpt>
      <trkpt lat="50.55882" lon="3.30326">
        <ele>54.675018</ele>
        <time>2018-03-20T13:03:23Z</time>
      </trkpt>
      <trkpt lat="50.55888" lon="3.30328">
        <ele>54.822735</ele>
        <time>2018-03-20T13:03:25Z</time>
      </trkpt>
      <trkpt lat="50.55894" lon="3.30331">
        <ele>54.980019</ele>
        <time>2018-03-20T13:03:27Z</time>
      </trkpt>
      <trkpt lat="50.55901" lon="3.30333">
        <ele>55.118214</ele>
        <time>2018-03-20T13:03:29Z</time>
      </trkpt>
      <trkpt lat="50.55907" lon="3.30335">
        <ele>55.224834</ele>
        <time>2018-03-20T13:03:31Z</time>
      </trkpt>
      <trkpt lat="50.55912" lon="3.30337">
        <ele>55.387352</ele>
        <time>2018-03-20T13:03:33Z</time>
      </trkpt>
      <trkpt lat="50.55919" lon="3.3034">
        <ele>55.500206</ele>
        <time>2018-03-20T13:03:35Z</time>
      </trkpt>
      <trkpt lat="50.55925" lon="3.30342">
        <ele>55.640533</ele>
        <time>2018-03-20T13:03:37Z</time>
      </trkpt>
      <trkpt lat="50.55932" lon="3.30344">
        <ele>55.744221</ele>
        <time>2018-03-20T13:03:39Z</time>
      </trkpt>
      <trkpt lat="50.55938" lon="3.30347">
        <ele>55.798168</ele>
        <time>2018-03-20T13:03:41Z</time>
      </trkpt>
      <trkpt lat="50.55944" lon="3.30349">
        <ele>55.929298</ele>
        <time>2018-03-20T13:03:43Z</time>
      </trkpt>
      <trkpt lat="50.55951" lon="3.30352">
        <ele>56.031933</ele>
        <time>2018-03-20T13:03:45Z</time>
      </trkpt>
      <trkpt lat="50.55957" lon="3.30354">
        <ele>56.125072</ele>
        <time>2018-03-20T13:03:47Z</time>
      </trkpt>
      <trkpt lat="50.55964" lon="3.30357">
        <ele>56.250324</ele>
        <time>2018-03-20T13:03:49Z</time>
      </trkpt>
      <trkpt lat="50.55971" lon="3.30359">
        <ele>56.37925</ele>
        <time>2018-03-20T13:03:51Z</time>
      </trkpt>
      <trkpt lat="50.55978" lon="3.30362">
        <ele>56.555164</ele>
        <time>2018-03-20T13:03:53Z</time>
      </trkpt>
      <trkpt lat="50.55984" lon="3.30365">
        <ele>56.675659</ele>
        <time>2018-03-20T13:03:55Z</time>
      </trkpt>
      <trkpt lat="50.55991" lon="3.30367">
        <ele>56.782318</ele>
        <time>2018-03-20T13:03:57Z</time>
      </trkpt>
      <trkpt lat="50.55998" lon="3.3037">
        <ele>56.870461</ele>
        <time>2018-03-20T13:03:59Z</time>
      </trkpt>
      <trkpt lat="50.56006" lon="3.30372">
        <ele>56.949352</ele>
        <time>2018-03-20T13:04:01Z</time>
      </trkpt>
      <trkpt lat="50.56012" lon="3.30375">
        <ele>57.077553</ele>
        <time>2018-03-20T13:04:03Z</time>
      </trkpt>
      <trkpt lat="50.56019" lon="3.30378">
        <ele>57.117481</ele>
        <time>2018-03-20T13:04:05Z</time>
      </trkpt>
      <trkpt lat="50.56025" lon="3.3038">
        <ele>57.120918</ele>
        <time>2018-03-20T13:04:07Z</time>
      </trkpt>
      <trkpt lat="50.56032" lon="3.30383">
        <ele>57.184467</ele>
        <time>2018-03-20T13:04:09Z</time>
      </trkpt>
      <trkpt lat="50.56039" lon="3.30385">
        <ele>57.229637</ele>
        <time>2018-03-20T13:04:11Z</time>
      </trkpt>
      <trkpt lat="50.56046" lon="3.30388">
        <ele>57.280937</ele>
        <time>2018-03-20T13:04:13Z</time>
      </trkpt>
      <trkpt lat="50.56053" lon="3.30391">
        <ele>57.280224</ele>
        <time>2018-03-20T13:04:15Z</time>
      </trkpt>
      <trkpt lat="50.5606" lon="3.30393">
        <ele>57.281441</ele>
        <time>2018-03-20T13:04:17Z</time>
      </trkpt>
      <trkpt lat="50.56067" lon="3.30396">
        <ele>57.300499</ele>
        <time>2018-03-20T13:04:19Z</time>
      </trkpt>
      <trkpt lat="50.56074" lon="3.30399">
        <ele>57.311501</ele>
        <time>2018-03-20T13:04:21Z</time>
      </trkpt>
      <trkpt lat="50.56081" lon="3.30401">
        <ele>57.28479</ele>
        <time>2018-03-20T13:04:23Z</time>
      </trkpt>
      <trkpt lat="50.56088" lon="3.30404">
        <ele>57.268379</ele>
        <time>2018-03-20T13:04:25Z</time>
      </trkpt>
      <trkpt lat="50.56095" lon="3.30406">
        <ele>57.273155</ele>
        <time>2018-03-20T13:04:27Z</time>
      </trkpt>
      <trkpt lat="50.56101" lon="3.30409">
        <ele>57.264885</ele>
        <time>2018-03-20T13:04:29Z</time>
      </trkpt>
      <trkpt lat="50.56108" lon="3.30413">
        <ele>57.267265</ele>
        <time>2018-03-20T13:04:31Z</time>
      </trkpt>
      <trkpt lat="50.56115" lon="3.30416">
        <ele>57.285583</ele>
        <time>2018-03-20T13:04:33Z</time>
      </trkpt>
      <trkpt lat="50.56121" lon="3.30421">
        <ele>57.294868</ele>
        <time>2018-03-20T13:04:35Z</time>
      </trkpt>
      <trkpt lat="50.56128" lon="3.30427">
        <ele>57.277809</ele>
        <time>2018-03-20T13:04:37Z</time>
      </trkpt>
      <trkpt lat="50.56134" lon="3.30433">
        <ele>57.246712</ele>
        <time>2018-03-20T13:04:39Z</time>
      </trkpt>
      <trkpt lat="50.56141" lon="3.3044">
        <ele>57.238953</ele>
        <time>2018-03-20T13:04:41Z</time>
      </trkpt>
      <trkpt lat="50.56147" lon="3.30448">
        <ele>57.172363</ele>
        <time>2018-03-20T13:04:43Z</time>
      </trkpt>
      <trkpt lat="50.56153" lon="3.30455">
        <ele>57.171337</ele>
        <time>2018-03-20T13:04:45Z</time>
      </trkpt>
      <trkpt lat="50.56157" lon="3.30463">
        <ele>57.160839</ele>
        <time>2018-03-20T13:04:47Z</time>
      </trkpt>
      <trkpt lat="50.56162" lon="3.3047">
        <ele>57.116371</ele>
        <time>2018-03-20T13:04:49Z</time>
      </trkpt>
      <trkpt lat="50.56168" lon="3.30478">
        <ele>57.004536</ele>
        <time>2018-03-20T13:04:51Z</time>
      </trkpt>
      <trkpt lat="50.56173" lon="3.30486">
        <ele>56.906151</ele>
        <time>2018-03-20T13:04:53Z</time>
      </trkpt>
      <trkpt lat="50.56179" lon="3.30493">
        <ele>56.807056</ele>
        <time>2018-03-20T13:04:55Z</time>
      </trkpt>
      <trkpt lat="50.56185" lon="3.30501">
        <ele>56.725372</ele>
        <time>2018-03-20T13:04:57Z</time>
      </trkpt>
      <trkpt lat="50.5619" lon="3.30509">
        <ele>56.680653</ele>
        <time>2018-03-20T13:04:59Z</time>
      </trkpt>
      <trkpt lat="50.56196" lon="3.30517">
        <ele>56.593945</ele>
        <time>2018-03-20T13:05:01Z</time>
      </trkpt>
      <trkpt lat="50.56202" lon="3.30525">
        <ele>56.516121</ele>
        <time>2018-03-20T13:05:03Z</time>
      </trkpt>
      <trkpt lat="50.56208" lon="3.30532">
        <ele>56.419609</ele>
        <time>2018-03-20T13:05:05Z</time>
      </trkpt>
      <trkpt lat="50.56213" lon="3.30539">
        <ele>56.326008</ele>
        <time>2018-03-20T13:05:07Z</time>
      </trkpt>
      <trkpt lat="50.56219" lon="3.30547">
        <ele>56.199127</ele>
        <time>2018-03-20T13:05:09Z</time>
      </trkpt>
      <trkpt lat="50.56225" lon="3.30554">
        <ele>56.061901</ele>
        <time>2018-03-20T13:05:11Z</time>
      </trkpt>
      <trkpt lat="50.56231" lon="3.3056">
        <ele>55.954327</ele>
        <time>2018-03-20T13:05:13Z</time>
      </trkpt>
      <trkpt lat="50.56237" lon="3.30567">
        <ele>55.80304</ele>
        <time>2018-03-20T13:05:15Z</time>
      </trkpt>
      <trkpt lat="50.56244" lon="3.30573">
        <ele>55.689514</ele>
        <time>2018-03-20T13:05:17Z</time>
      </trkpt>
      <trkpt lat="50.5625" lon="3.30578">
        <ele>55.581501</ele>
        <time>2018-03-20T13:05:19Z</time>
      </trkpt>
      <trkpt lat="50.56257" lon="3.30583">
        <ele>55.465843</ele>
        <time>2018-03-20T13:05:21Z</time>
      </trkpt>
      <trkpt lat="50.56263" lon="3.30588">
        <ele>55.381859</ele>
        <time>2018-03-20T13:05:23Z</time>
      </trkpt>
      <trkpt lat="50.5627" lon="3.30593">
        <ele>55.274101</ele>
        <time>2018-03-20T13:05:25Z</time>
      </trkpt>
      <trkpt lat="50.56276" lon="3.30598">
        <ele>55.153358</ele>
        <time>2018-03-20T13:05:27Z</time>
      </trkpt>
      <trkpt lat="50.56282" lon="3.30602">
        <ele>55.056854</ele>
        <time>2018-03-20T13:05:29Z</time>
      </trkpt>
      <trkpt lat="50.56289" lon="3.30608">
        <ele>54.960396</ele>
        <time>2018-03-20T13:05:31Z</time>
      </trkpt>
      <trkpt lat="50.56295" lon="3.30614">
        <ele>54.948681</ele>
        <time>2018-03-20T13:05:33Z</time>
      </trkpt>
      <trkpt lat="50.563" lon="3.30621">
        <ele>54.870247</ele>
        <time>2018-03-20T13:05:35Z</time>
      </trkpt>
      <trkpt lat="50.56305" lon="3.30629">
        <ele>54.870167</ele>
        <time>2018-03-20T13:05:37Z</time>
      </trkpt>
      <trkpt lat="50.5631" lon="3.30637">
        <ele>54.921276</ele>
        <time>2018-03-20T13:05:39Z</time>
      </trkpt>
      <trkpt lat="50.56315" lon="3.30646">
        <ele>54.862194</ele>
        <time>2018-03-20T13:05:41Z</time>
      </trkpt>
      <trkpt lat="50.56319" lon="3.30657">
        <ele>54.790058</ele>
        <time>2018-03-20T13:05:43Z</time>
      </trkpt>
      <trkpt lat="50.5632" lon="3.30668">
        <ele>54.744514</ele>
        <time>2018-03-20T13:05:45Z</time>
      </trkpt>
      <trkpt lat="50.56319" lon="3.30681">
        <ele>54.728138</ele>
        <time>2018-03-20T13:05:47Z</time>
      </trkpt>
      <trkpt lat="50.56316" lon="3.30694">
        <ele>54.695679</ele>
        <time>2018-03-20T13:05:49Z</time>
      </trkpt>
      <trkpt lat="50.56313" lon="3.30706">
        <ele>54.670643</ele>
        <time>2018-03-20T13:05:51Z</time>
      </trkpt>
      <trkpt lat="50.56309" lon="3.30718">
        <ele>54.584198</ele>
        <time>2018-03-20T13:05:53Z</time>
      </trkpt>
      <trkpt lat="50.56306" lon="3.30731">
        <ele>54.500023</ele>
        <time>2018-03-20T13:05:55Z</time>
      </trkpt>
      <trkpt lat="50.56302" lon="3.30742">
        <ele>54.357655</ele>
        <time>2018-03-20T13:05:57Z</time>
      </trkpt>
      <trkpt lat="50.56299" lon="3.30754">
        <ele>54.301567</ele>
        <time>2018-03-20T13:05:59Z</time>
      </trkpt>
      <trkpt lat="50.56296" lon="3.30767">
        <ele>54.173218</ele>
        <time>2018-03-20T13:06:01Z</time>
      </trkpt>
      <trkpt lat="50.56293" lon="3.30779">
        <ele>54.031628</ele>
        <time>2018-03-20T13:06:03Z</time>
      </trkpt>
      <trkpt lat="50.56291" lon="3.30792">
        <ele>53.942291</ele>
        <time>2018-03-20T13:06:05Z</time>
      </trkpt>
      <trkpt lat="50.56289" lon="3.30805">
        <ele>53.832539</ele>
        <time>2018-03-20T13:06:07Z</time>
      </trkpt>
      <trkpt lat="50.56289" lon="3.30818">
        <ele>53.731701</ele>
        <time>2018-03-20T13:06:09Z</time>
      </trkpt>
      <trkpt lat="50.56288" lon="3.30831">
        <ele>53.659534</ele>
        <time>2018-03-20T13:06:11Z</time>
      </trkpt>
      <trkpt lat="50.56287" lon="3.30844">
        <ele>53.545368</ele>
        <time>2018-03-20T13:06:13Z</time>
      </trkpt>
      <trkpt lat="50.56287" lon="3.30856">
        <ele>53.456352</ele>
        <time>2018-03-20T13:06:15Z</time>
      </trkpt>
      <trkpt lat="50.56287" lon="3.30867">
        <ele>53.329071</ele>
        <time>2018-03-20T13:06:17Z</time>
      </trkpt>
      <trkpt lat="50.56288" lon="3.30879">
        <ele>53.151543</ele>
        <time>2018-03-20T13:06:19Z</time>
      </trkpt>
      <trkpt lat="50.5629" lon="3.30891">
        <ele>53.128929</ele>
        <time>2018-03-20T13:06:21Z</time>
      </trkpt>
      <trkpt lat="50.56294" lon="3.30902">
        <ele>53.074451</ele>
        <time>2018-03-20T13:06:23Z</time>
      </trkpt>
      <trkpt lat="50.56298" lon="3.30912">
        <ele>52.995506</ele>
        <time>2018-03-20T13:06:25Z</time>
      </trkpt>
      <trkpt lat="50.56304" lon="3.3092">
        <ele>52.941307</ele>
        <time>2018-03-20T13:06:27Z</time>
      </trkpt>
      <trkpt lat="50.56309" lon="3.30929">
        <ele>52.812634</ele>
        <time>2018-03-20T13:06:29Z</time>
      </trkpt>
      <trkpt lat="50.56315" lon="3.30937">
        <ele>52.754387</ele>
        <time>2018-03-20T13:06:31Z</time>
      </trkpt>
      <trkpt lat="50.56321" lon="3.30945">
        <ele>52.685802</ele>
        <time>2018-03-20T13:06:33Z</time>
      </trkpt>
      <trkpt lat="50.56326" lon="3.30952">
        <ele>52.619129</ele>
        <time>2018-03-20T13:06:35Z</time>
      </trkpt>
      <trkpt lat="50.56332" lon="3.30957">
        <ele>52.570122</ele>
        <time>2018-03-20T13:06:37Z</time>
      </trkpt>
      <trkpt lat="50.56336" lon="3.30964">
        <ele>52.491631</ele>
        <time>2018-03-20T13:06:39Z</time>
      </trkpt>
      <trkpt lat="50.56338" lon="3.30971">
        <ele>52.464912</ele>
        <time>2018-03-20T13:06:41Z</time>
      </trkpt>
      <trkpt lat="50.56336" lon="3.30981">
        <ele>52.463409</ele>
        <time>2018-03-20T13:06:43Z</time>
      </trkpt>
      <trkpt lat="50.56331" lon="3.30989">
        <ele>52.413799</ele>
        <time>2018-03-20T13:06:45Z</time>
      </trkpt>
      <trkpt lat="50.56324" lon="3.30996">
        <ele>52.365059</ele>
        <time>2018-03-20T13:06:47Z</time>
      </trkpt>
      <trkpt lat="50.56316" lon="3.31002">
        <ele>52.269024</ele>
        <time>2018-03-20T13:06:49Z</time>
      </trkpt>
      <trkpt lat="50.56308" lon="3.31008">
        <ele>52.226208</ele>
        <time>2018-03-20T13:06:51Z</time>
      </trkpt>
      <trkpt lat="50.56301" lon="3.31014">
        <ele>52.200226</ele>
        <time>2018-03-20T13:06:53Z</time>
      </trkpt>
      <trkpt lat="50.56293" lon="3.3102">
        <ele>52.123798</ele>
        <time>2018-03-20T13:06:55Z</time>
      </trkpt>
      <trkpt lat="50.56286" lon="3.31026">
        <ele>52.060936</ele>
        <time>2018-03-20T13:06:57Z</time>
      </trkpt>
      <trkpt lat="50.56278" lon="3.31033">
        <ele>52.039574</ele>
        <time>2018-03-20T13:06:59Z</time>
      </trkpt>
      <trkpt lat="50.5627" lon="3.3104">
        <ele>52.04179</ele>
        <time>2018-03-20T13:07:01Z</time>
      </trkpt>
      <trkpt lat="50.56262" lon="3.31046">
        <ele>51.982155</ele>
        <time>2018-03-20T13:07:03Z</time>
      </trkpt>
      <trkpt lat="50.56254" lon="3.31053">
        <ele>51.923775</ele>
        <time>2018-03-20T13:07:05Z</time>
      </trkpt>
      <trkpt lat="50.56246" lon="3.3106">
        <ele>51.867287</ele>
        <time>2018-03-20T13:07:07Z</time>
      </trkpt>
      <trkpt lat="50.56237" lon="3.31067">
        <ele>51.812164</ele>
        <time>2018-03-20T13:07:09Z</time>
      </trkpt>
      <trkpt lat="50.56229" lon="3.31074">
        <ele>51.739849</ele>
        <time>2018-03-20T13:07:11Z</time>
      </trkpt>
      <trkpt lat="50.5622" lon="3.31082">
        <ele>51.680077</ele>
        <time>2018-03-20T13:07:13Z</time>
      </trkpt>
      <trkpt lat="50.56212" lon="3.31089">
        <ele>51.637779</ele>
        <time>2018-03-20T13:07:15Z</time>
      </trkpt>
      <trkpt lat="50.56203" lon="3.31096">
        <ele>51.630695</ele>
        <time>2018-03-20T13:07:17Z</time>
      </trkpt>
      <trkpt lat="50.56194" lon="3.31104">
        <ele>51.59494</ele>
        <time>2018-03-20T13:07:19Z</time>
      </trkpt>
      <trkpt lat="50.56185" lon="3.31111">
        <ele>51.582439</ele>
        <time>2018-03-20T13:07:21Z</time>
      </trkpt>
      <trkpt lat="50.56176" lon="3.31118">
        <ele>51.571312</ele>
        <time>2018-03-20T13:07:23Z</time>
      </trkpt>
      <trkpt lat="50.56168" lon="3.31126">
        <ele>51.553394</ele>
        <time>2018-03-20T13:07:25Z</time>
      </trkpt>
      <trkpt lat="50.56159" lon="3.31134">
        <ele>51.567188</ele>
        <time>2018-03-20T13:07:27Z</time>
      </trkpt>
      <trkpt lat="50.5615" lon="3.31141">
        <ele>51.619629</ele>
        <time>2018-03-20T13:07:29Z</time>
      </trkpt>
      <trkpt lat="50.56141" lon="3.31149">
        <ele>51.666065</ele>
        <time>2018-03-20T13:07:31Z</time>
      </trkpt>
      <trkpt lat="50.56133" lon="3.31156">
        <ele>51.718506</ele>
        <time>2018-03-20T13:07:33Z</time>
      </trkpt>
      <trkpt lat="50.56123" lon="3.31164">
        <ele>51.752968</ele>
        <time>2018-03-20T13:07:35Z</time>
      </trkpt>
      <trkpt lat="50.56115" lon="3.31171">
        <ele>51.79425</ele>
        <time>2018-03-20T13:07:37Z</time>
      </trkpt>
      <trkpt lat="50.56106" lon="3.31179">
        <ele>51.871895</ele>
        <time>2018-03-20T13:07:39Z</time>
      </trkpt>
      <trkpt lat="50.56097" lon="3.31187">
        <ele>51.903198</ele>
        <time>2018-03-20T13:07:41Z</time>
      </trkpt>
      <trkpt lat="50.56088" lon="3.31194">
        <ele>51.955482</ele>
        <time>2018-03-20T13:07:43Z</time>
      </trkpt>
      <trkpt lat="50.5608" lon="3.31201">
        <ele>51.986244</ele>
        <time>2018-03-20T13:07:45Z</time>
      </trkpt>
      <trkpt lat="50.56071" lon="3.31208">
        <ele>52.085655</ele>
        <time>2018-03-20T13:07:47Z</time>
      </trkpt>
      <trkpt lat="50.56062" lon="3.31216">
        <ele>52.172234</ele>
        <time>2018-03-20T13:07:49Z</time>
      </trkpt>
      <trkpt lat="50.56054" lon="3.31223">
        <ele>52.278515</ele>
        <time>2018-03-20T13:07:51Z</time>
      </trkpt>
      <trkpt lat="50.56046" lon="3.3123">
        <ele>52.403557</ele>
        <time>2018-03-20T13:07:53Z</time>
      </trkpt>
      <trkpt lat="50.56038" lon="3.31237">
        <ele>52.453064</ele>
        <time>2018-03-20T13:07:55Z</time>
      </trkpt>
      <trkpt lat="50.5603" lon="3.31243">
        <ele>52.551552</ele>
        <time>2018-03-20T13:07:57Z</time>
      </trkpt>
      <trkpt lat="50.56024" lon="3.31251">
        <ele>52.695381</ele>
        <time>2018-03-20T13:07:59Z</time>
      </trkpt>
      <trkpt lat="50.5602" lon="3.31261">
        <ele>52.889656</ele>
        <time>2018-03-20T13:08:01Z</time>
      </trkpt>
      <trkpt lat="50.56022" lon="3.31272">
        <ele>53.076397</ele>
        <time>2018-03-20T13:08:03Z</time>
      </trkpt>
      <trkpt lat="50.56027" lon="3.31281">
        <ele>53.223076</ele>
        <time>2018-03-20T13:08:05Z</time>
      </trkpt>
      <trkpt lat="50.56032" lon="3.31292">
        <ele>53.307507</ele>
        <time>2018-03-20T13:08:07Z</time>
      </trkpt>
      <trkpt lat="50.56037" lon="3.31302">
        <ele>53.466724</ele>
        <time>2018-03-20T13:08:09Z</time>
      </trkpt>
      <trkpt lat="50.56043" lon="3.31312">
        <ele>53.597034</ele>
        <time>2018-03-20T13:08:11Z</time>
      </trkpt>
      <trkpt lat="50.56048" lon="3.31323">
        <ele>53.733528</ele>
        <time>2018-03-20T13:08:13Z</time>
      </trkpt>
      <trkpt lat="50.56054" lon="3.31333">
        <ele>53.875786</ele>
        <time>2018-03-20T13:08:15Z</time>
      </trkpt>
      <trkpt lat="50.56059" lon="3.31343">
        <ele>53.99815</ele>
        <time>2018-03-20T13:08:17Z</time>
      </trkpt>
      <trkpt lat="50.56065" lon="3.31354">
        <ele>54.140217</ele>
        <time>2018-03-20T13:08:19Z</time>
      </trkpt>
      <trkpt lat="50.5607" lon="3.31364">
        <ele>54.229744</ele>
        <time>2018-03-20T13:08:21Z</time>
      </trkpt>
      <trkpt lat="50.56075" lon="3.31374">
        <ele>54.387287</ele>
        <time>2018-03-20T13:08:23Z</time>
      </trkpt>
      <trkpt lat="50.5608" lon="3.31384">
        <ele>54.470287</ele>
        <time>2018-03-20T13:08:25Z</time>
      </trkpt>
      <trkpt lat="50.56085" lon="3.31394">
        <ele>54.57682</ele>
        <time>2018-03-20T13:08:27Z</time>
      </trkpt>
      <trkpt lat="50.5609" lon="3.31403">
        <ele>54.678658</ele>
        <time>2018-03-20T13:08:29Z</time>
      </trkpt>
      <trkpt lat="50.56096" lon="3.31413">
        <ele>54.750233</ele>
        <time>2018-03-20T13:08:31Z</time>
      </trkpt>
      <trkpt lat="50.56101" lon="3.31423">
        <ele>54.794952</ele>
        <time>2018-03-20T13:08:33Z</time>
      </trkpt>
      <trkpt lat="50.56106" lon="3.31434">
        <ele>54.883537</ele>
        <time>2018-03-20T13:08:35Z</time>
      </trkpt>
      <trkpt lat="50.56112" lon="3.31444">
        <ele>54.98806</ele>
        <time>2018-03-20T13:08:37Z</time>
      </trkpt>
      <trkpt lat="50.56117" lon="3.31454">
        <ele>55.103882</ele>
        <time>2018-03-20T13:08:39Z</time>
      </trkpt>
      <trkpt lat="50.56122" lon="3.31464">
        <ele>55.114216</ele>
        <time>2018-03-20T13:08:41Z</time>
      </trkpt>
      <trkpt lat="50.56128" lon="3.31475">
        <ele>55.028942</ele>
        <time>2018-03-20T13:08:43Z</time>
      </trkpt>
      <trkpt lat="50.56133" lon="3.31485">
        <ele>54.919292</ele>
        <time>2018-03-20T13:08:45Z</time>
      </trkpt>
      <trkpt lat="50.56138" lon="3.31495">
        <ele>54.875195</ele>
        <time>2018-03-20T13:08:47Z</time>
      </trkpt>
      <trkpt lat="50.56143" lon="3.31505">
        <ele>54.837666</ele>
        <time>2018-03-20T13:08:49Z</time>
      </trkpt>
      <trkpt lat="50.56149" lon="3.31514">
        <ele>54.820446</ele>
        <time>2018-03-20T13:08:51Z</time>
      </trkpt>
      <trkpt lat="50.56154" lon="3.31524">
        <ele>54.8214</ele>
        <time>2018-03-20T13:08:53Z</time>
      </trkpt>
      <trkpt lat="50.56158" lon="3.31533">
        <ele>54.806847</ele>
        <time>2018-03-20T13:08:55Z</time>
      </trkpt>
      <trkpt lat="50.56163" lon="3.31543">
        <ele>54.755455</ele>
        <time>2018-03-20T13:08:57Z</time>
      </trkpt>
      <trkpt lat="50.56168" lon="3.31552">
        <ele>54.76873</ele>
        <time>2018-03-20T13:08:59Z</time>
      </trkpt>
      <trkpt lat="50.56173" lon="3.31562">
        <ele>54.757587</ele>
        <time>2018-03-20T13:09:01Z</time>
      </trkpt>
      <trkpt lat="50.56178" lon="3.31571">
        <ele>54.729382</ele>
        <time>2018-03-20T13:09:03Z</time>
      </trkpt>
      <trkpt lat="50.56183" lon="3.31581">
        <ele>54.72884</ele>
        <time>2018-03-20T13:09:05Z</time>
      </trkpt>
      <trkpt lat="50.56187" lon="3.3159">
        <ele>54.741615</ele>
        <time>2018-03-20T13:09:07Z</time>
      </trkpt>
      <trkpt lat="50.5619" lon="3.31599">
        <ele>54.723961</ele>
        <time>2018-03-20T13:09:09Z</time>
      </trkpt>
      <trkpt lat="50.56191" lon="3.31607">
        <ele>54.719627</ele>
        <time>2018-03-20T13:09:11Z</time>
      </trkpt>
      <trkpt lat="50.56186" lon="3.31613">
        <ele>54.689117</ele>
        <time>2018-03-20T13:09:13Z</time>
      </trkpt>
      <trkpt lat="50.56179" lon="3.3162">
        <ele>54.668121</ele>
        <time>2018-03-20T13:09:15Z</time>
      </trkpt>
      <trkpt lat="50.5617" lon="3.31628">
        <ele>54.602337</ele>
        <time>2018-03-20T13:09:17Z</time>
      </trkpt>
      <trkpt lat="50.56161" lon="3.31635">
        <ele>54.547913</ele>
        <time>2018-03-20T13:09:19Z</time>
      </trkpt>
      <trkpt lat="50.56152" lon="3.31642">
        <ele>54.452026</ele>
        <time>2018-03-20T13:09:21Z</time>
      </trkpt>
      <trkpt lat="50.56144" lon="3.3165">
        <ele>54.415241</ele>
        <time>2018-03-20T13:09:23Z</time>
      </trkpt>
      <trkpt lat="50.56136" lon="3.31656">
        <ele>54.452797</ele>
        <time>2018-03-20T13:09:25Z</time>
      </trkpt>
      <trkpt lat="50.56129" lon="3.31663">
        <ele>54.492546</ele>
        <time>2018-03-20T13:09:27Z</time>
      </trkpt>
      <trkpt lat="50.56121" lon="3.31669">
        <ele>54.490673</ele>
        <time>2018-03-20T13:09:29Z</time>
      </trkpt>
      <trkpt lat="50.56113" lon="3.31677">
        <ele>54.452614</ele>
        <time>2018-03-20T13:09:31Z</time>
      </trkpt>
      <trkpt lat="50.56106" lon="3.31683">
        <ele>54.444832</ele>
        <time>2018-03-20T13:09:33Z</time>
      </trkpt>
      <trkpt lat="50.56098" lon="3.31689">
        <ele>54.413452</ele>
        <time>2018-03-20T13:09:35Z</time>
      </trkpt>
      <trkpt lat="50.56091" lon="3.31696">
        <ele>54.438599</ele>
        <time>2018-03-20T13:09:37Z</time>
      </trkpt>
      <trkpt lat="50.56083" lon="3.31702">
        <ele>54.448067</ele>
        <time>2018-03-20T13:09:39Z</time>
      </trkpt>
      <trkpt lat="50.56076" lon="3.31709">
        <ele>54.455101</ele>
        <time>2018-03-20T13:09:41Z</time>
      </trkpt>
      <trkpt lat="50.56068" lon="3.31716">
        <ele>54.493492</ele>
        <time>2018-03-20T13:09:43Z</time>
      </trkpt>
      <trkpt lat="50.5606" lon="3.31723">
        <ele>54.539471</ele>
        <time>2018-03-20T13:09:45Z</time>
      </trkpt>
      <trkpt lat="50.56051" lon="3.3173">
        <ele>54.529701</ele>
        <time>2018-03-20T13:09:47Z</time>
      </trkpt>
      <trkpt lat="50.56043" lon="3.31737">
        <ele>54.501884</ele>
        <time>2018-03-20T13:09:49Z</time>
      </trkpt>
      <trkpt lat="50.56035" lon="3.31744">
        <ele>54.485565</ele>
        <time>2018-03-20T13:09:51Z</time>
      </trkpt>
      <trkpt lat="50.56027" lon="3.31751">
        <ele>54.502937</ele>
        <time>2018-03-20T13:09:53Z</time>
      </trkpt>
      <trkpt lat="50.56018" lon="3.31758">
        <ele>54.572594</ele>
        <time>2018-03-20T13:09:55Z</time>
      </trkpt>
      <trkpt lat="50.5601" lon="3.31766">
        <ele>54.611549</ele>
        <time>2018-03-20T13:09:57Z</time>
      </trkpt>
      <trkpt lat="50.56001" lon="3.31773">
        <ele>54.61367</ele>
        <time>2018-03-20T13:09:59Z</time>
      </trkpt>
      <trkpt lat="50.55993" lon="3.3178">
        <ele>54.584343</ele>
        <time>2018-03-20T13:10:01Z</time>
      </trkpt>
      <trkpt lat="50.55985" lon="3.31788">
        <ele>54.559223</ele>
        <time>2018-03-20T13:10:03Z</time>
      </trkpt>
      <trkpt lat="50.55978" lon="3.31794">
        <ele>54.559853</ele>
        <time>2018-03-20T13:10:05Z</time>
      </trkpt>
      <trkpt lat="50.5597" lon="3.31801">
        <ele>54.499336</ele>
        <time>2018-03-20T13:10:07Z</time>
      </trkpt>
      <trkpt lat="50.55962" lon="3.31808">
        <ele>54.494415</ele>
        <time>2018-03-20T13:10:09Z</time>
      </trkpt>
      <trkpt lat="50.55955" lon="3.31813">
        <ele>54.433144</ele>
        <time>2018-03-20T13:10:11Z</time>
      </trkpt>
      <trkpt lat="50.55949" lon="3.31819">
        <ele>54.452873</ele>
        <time>2018-03-20T13:10:13Z</time>
      </trkpt>
      <trkpt lat="50.55943" lon="3.31824">
        <ele>54.436028</ele>
        <time>2018-03-20T13:10:15Z</time>
      </trkpt>
      <trkpt lat="50.55937" lon="3.31829">
        <ele>54.379555</ele>
        <time>2018-03-20T13:10:17Z</time>
      </trkpt>
      <trkpt lat="50.55931" lon="3.31834">
        <ele>54.346519</ele>
        <time>2018-03-20T13:10:19Z</time>
      </trkpt>
      <trkpt lat="50.55924" lon="3.31841">
        <ele>54.333069</ele>
        <time>2018-03-20T13:10:21Z</time>
      </trkpt>
      <trkpt lat="50.55918" lon="3.31847">
        <ele>54.283211</ele>
        <time>2018-03-20T13:10:23Z</time>
      </trkpt>
      <trkpt lat="50.55912" lon="3.31854">
        <ele>54.209766</ele>
        <time>2018-03-20T13:10:25Z</time>
      </trkpt>
      <trkpt lat="50.55907" lon="3.31863">
        <ele>54.169945</ele>
        <time>2018-03-20T13:10:27Z</time>
      </trkpt>
      <trkpt lat="50.55904" lon="3.31874">
        <ele>54.143482</ele>
        <time>2018-03-20T13:10:29Z</time>
      </trkpt>
      <trkpt lat="50.55906" lon="3.31886">
        <ele>54.188087</ele>
        <time>2018-03-20T13:10:31Z</time>
      </trkpt>
      <trkpt lat="50.55909" lon="3.31898">
        <ele>54.21389</ele>
        <time>2018-03-20T13:10:33Z</time>
      </trkpt>
      <trkpt lat="50.55913" lon="3.3191">
        <ele>54.19458</ele>
        <time>2018-03-20T13:10:35Z</time>
      </trkpt>
      <trkpt lat="50.55917" lon="3.31922">
        <ele>54.182178</ele>
        <time>2018-03-20T13:10:37Z</time>
      </trkpt>
      <trkpt lat="50.55921" lon="3.31933">
        <ele>54.194592</ele>
        <time>2018-03-20T13:10:39Z</time>
      </trkpt>
      <trkpt lat="50.55925" lon="3.31945">
        <ele>54.275108</ele>
        <time>2018-03-20T13:10:41Z</time>
      </trkpt>
      <trkpt lat="50.55929" lon="3.31956">
        <ele>54.374672</ele>
        <time>2018-03-20T13:10:43Z</time>
      </trkpt>
      <trkpt lat="50.55933" lon="3.31967">
        <ele>54.446705</ele>
        <time>2018-03-20T13:10:45Z</time>
      </trkpt>
      <trkpt lat="50.55937" lon="3.31978">
        <ele>54.562244</ele>
        <time>2018-03-20T13:10:47Z</time>
      </trkpt>
      <trkpt lat="50.55941" lon="3.31989">
        <ele>54.664894</ele>
        <time>2018-03-20T13:10:49Z</time>
      </trkpt>
      <trkpt lat="50.55945" lon="3.31999">
        <ele>54.732033</ele>
        <time>2018-03-20T13:10:51Z</time>
      </trkpt>
      <trkpt lat="50.55949" lon="3.3201">
        <ele>54.825367</ele>
        <time>2018-03-20T13:10:53Z</time>
      </trkpt>
      <trkpt lat="50.55953" lon="3.3202">
        <ele>54.8615</ele>
        <time>2018-03-20T13:10:55Z</time>
      </trkpt>
      <trkpt lat="50.55957" lon="3.3203">
        <ele>55.000145</ele>
        <time>2018-03-20T13:10:57Z</time>
      </trkpt>
      <trkpt lat="50.55961" lon="3.3204">
        <ele>55.067833</ele>
        <time>2018-03-20T13:10:59Z</time>
      </trkpt>
      <trkpt lat="50.55966" lon="3.32051">
        <ele>55.097969</ele>
        <time>2018-03-20T13:11:01Z</time>
      </trkpt>
      <trkpt lat="50.55971" lon="3.3206">
        <ele>55.173492</ele>
        <time>2018-03-20T13:11:03Z</time>
      </trkpt>
      <trkpt lat="50.55976" lon="3.3207">
        <ele>55.256886</ele>
        <time>2018-03-20T13:11:05Z</time>
      </trkpt>
      <trkpt lat="50.55981" lon="3.32079">
        <ele>55.334373</ele>
        <time>2018-03-20T13:11:07Z</time>
      </trkpt>
      <trkpt lat="50.55987" lon="3.32088">
        <ele>55.460716</ele>
        <time>2018-03-20T13:11:09Z</time>
      </trkpt>
      <trkpt lat="50.55993" lon="3.32096">
        <ele>55.543201</ele>
        <time>2018-03-20T13:11:11Z</time>
      </trkpt>
      <trkpt lat="50.55998" lon="3.32104">
        <ele>55.618469</ele>
        <time>2018-03-20T13:11:13Z</time>
      </trkpt>
      <trkpt lat="50.56004" lon="3.32113">
        <ele>55.672119</ele>
        <time>2018-03-20T13:11:15Z</time>
      </trkpt>
      <trkpt lat="50.5601" lon="3.32121">
        <ele>55.677696</ele>
        <time>2018-03-20T13:11:17Z</time>
      </trkpt>
      <trkpt lat="50.56017" lon="3.32129">
        <ele>55.713951</ele>
        <time>2018-03-20T13:11:19Z</time>
      </trkpt>
      <trkpt lat="50.56023" lon="3.32137">
        <ele>55.725014</ele>
        <time>2018-03-20T13:11:21Z</time>
      </trkpt>
      <trkpt lat="50.56029" lon="3.32146">
        <ele>55.710949</ele>
        <time>2018-03-20T13:11:23Z</time>
      </trkpt>
      <trkpt lat="50.56034" lon="3.32153">
        <ele>55.752747</ele>
        <time>2018-03-20T13:11:25Z</time>
      </trkpt>
      <trkpt lat="50.56038" lon="3.32162">
        <ele>55.788857</ele>
        <time>2018-03-20T13:11:27Z</time>
      </trkpt>
      <trkpt lat="50.56037" lon="3.32171">
        <ele>55.764687</ele>
        <time>2018-03-20T13:11:29Z</time>
      </trkpt>
      <trkpt lat="50.56033" lon="3.32182">
        <ele>55.780518</ele>
        <time>2018-03-20T13:11:31Z</time>
      </trkpt>
      <trkpt lat="50.56025" lon="3.3219">
        <ele>55.794933</ele>
        <time>2018-03-20T13:11:33Z</time>
      </trkpt>
      <trkpt lat="50.56017" lon="3.32196">
        <ele>55.775368</ele>
        <time>2018-03-20T13:11:35Z</time>
      </trkpt>
      <trkpt lat="50.56007" lon="3.322">
        <ele>55.779358</ele>
        <time>2018-03-20T13:11:37Z</time>
      </trkpt>
      <trkpt lat="50.55997" lon="3.32202">
        <ele>55.698242</ele>
        <time>2018-03-20T13:11:39Z</time>
      </trkpt>
      <trkpt lat="50.55987" lon="3.32203">
        <ele>55.712952</ele>
        <time>2018-03-20T13:11:41Z</time>
      </trkpt>
      <trkpt lat="50.55977" lon="3.32205">
        <ele>55.682762</ele>
        <time>2018-03-20T13:11:43Z</time>
      </trkpt>
      <trkpt lat="50.55968" lon="3.32208">
        <ele>55.666393</ele>
        <time>2018-03-20T13:11:45Z</time>
      </trkpt>
      <trkpt lat="50.55958" lon="3.32212">
        <ele>55.651207</ele>
        <time>2018-03-20T13:11:47Z</time>
      </trkpt>
      <trkpt lat="50.55949" lon="3.32217">
        <ele>55.622021</ele>
        <time>2018-03-20T13:11:49Z</time>
      </trkpt>
      <trkpt lat="50.55939" lon="3.32223">
        <ele>55.552967</ele>
        <time>2018-03-20T13:11:51Z</time>
      </trkpt>
      <trkpt lat="50.5593" lon="3.3223">
        <ele>55.521568</ele>
        <time>2018-03-20T13:11:53Z</time>
      </trkpt>
      <trkpt lat="50.55922" lon="3.32237">
        <ele>55.527809</ele>
        <time>2018-03-20T13:11:55Z</time>
      </trkpt>
      <trkpt lat="50.55914" lon="3.32246">
        <ele>55.53019</ele>
        <time>2018-03-20T13:11:57Z</time>
      </trkpt>
      <trkpt lat="50.55907" lon="3.32255">
        <ele>55.523521</ele>
        <time>2018-03-20T13:11:59Z</time>
      </trkpt>
      <trkpt lat="50.55899" lon="3.32264">
        <ele>55.548504</ele>
        <time>2018-03-20T13:12:01Z</time>
      </trkpt>
      <trkpt lat="50.55893" lon="3.32273">
        <ele>55.548164</ele>
        <time>2018-03-20T13:12:03Z</time>
      </trkpt>
      <trkpt lat="50.55886" lon="3.32283">
        <ele>55.573814</ele>
        <time>2018-03-20T13:12:05Z</time>
      </trkpt>
      <trkpt lat="50.5588" lon="3.32294">
        <ele>55.535889</ele>
        <time>2018-03-20T13:12:07Z</time>
      </trkpt>
      <trkpt lat="50.55874" lon="3.32305">
        <ele>55.549267</ele>
        <time>2018-03-20T13:12:09Z</time>
      </trkpt>
      <trkpt lat="50.55867" lon="3.32316">
        <ele>55.598156</ele>
        <time>2018-03-20T13:12:11Z</time>
      </trkpt>
      <trkpt lat="50.55861" lon="3.32326">
        <ele>55.677387</ele>
        <time>2018-03-20T13:12:13Z</time>
      </trkpt>
      <trkpt lat="50.55854" lon="3.32337">
        <ele>55.739002</ele>
        <time>2018-03-20T13:12:15Z</time>
      </trkpt>
      <trkpt lat="50.55848" lon="3.32347">
        <ele>55.777142</ele>
        <time>2018-03-20T13:12:17Z</time>
      </trkpt>
      <trkpt lat="50.5584" lon="3.32356">
        <ele>55.83094</ele>
        <time>2018-03-20T13:12:19Z</time>
      </trkpt>
      <trkpt lat="50.55833" lon="3.32365">
        <ele>55.906227</ele>
        <time>2018-03-20T13:12:21Z</time>
      </trkpt>
      <trkpt lat="50.55825" lon="3.32374">
        <ele>55.953087</ele>
        <time>2018-03-20T13:12:23Z</time>
      </trkpt>
      <trkpt lat="50.55817" lon="3.32384">
        <ele>56.004028</ele>
        <time>2018-03-20T13:12:25Z</time>
      </trkpt>
      <trkpt lat="50.5581" lon="3.32393">
        <ele>56.021282</ele>
        <time>2018-03-20T13:12:27Z</time>
      </trkpt>
      <trkpt lat="50.55802" lon="3.32403">
        <ele>56.065033</ele>
        <time>2018-03-20T13:12:29Z</time>
      </trkpt>
      <trkpt lat="50.55795" lon="3.32412">
        <ele>56.092854</ele>
        <time>2018-03-20T13:12:31Z</time>
      </trkpt>
      <trkpt lat="50.55787" lon="3.32421">
        <ele>56.149261</ele>
        <time>2018-03-20T13:12:33Z</time>
      </trkpt>
      <trkpt lat="50.5578" lon="3.3243">
        <ele>56.231171</ele>
        <time>2018-03-20T13:12:35Z</time>
      </trkpt>
      <trkpt lat="50.55773" lon="3.32439">
        <ele>56.2743</ele>
        <time>2018-03-20T13:12:37Z</time>
      </trkpt>
      <trkpt lat="50.55766" lon="3.32447">
        <ele>56.37899</ele>
        <time>2018-03-20T13:12:39Z</time>
      </trkpt>
      <trkpt lat="50.55759" lon="3.32456">
        <ele>56.491016</ele>
        <time>2018-03-20T13:12:41Z</time>
      </trkpt>
      <trkpt lat="50.55752" lon="3.32464">
        <ele>56.604595</ele>
        <time>2018-03-20T13:12:43Z</time>
      </trkpt>
      <trkpt lat="50.55745" lon="3.32473">
        <ele>56.730133</ele>
        <time>2018-03-20T13:12:45Z</time>
      </trkpt>
      <trkpt lat="50.55738" lon="3.32482">
        <ele>56.833607</ele>
        <time>2018-03-20T13:12:47Z</time>
      </trkpt>
      <trkpt lat="50.5573" lon="3.3249">
        <ele>56.975269</ele>
        <time>2018-03-20T13:12:49Z</time>
      </trkpt>
      <trkpt lat="50.55724" lon="3.32499">
        <ele>57.13987</ele>
        <time>2018-03-20T13:12:51Z</time>
      </trkpt>
      <trkpt lat="50.55717" lon="3.32508">
        <ele>57.262104</ele>
        <time>2018-03-20T13:12:53Z</time>
      </trkpt>
      <trkpt lat="50.55711" lon="3.32517">
        <ele>57.411999</ele>
        <time>2018-03-20T13:12:55Z</time>
      </trkpt>
      <trkpt lat="50.55705" lon="3.32527">
        <ele>57.571877</ele>
        <time>2018-03-20T13:12:57Z</time>
      </trkpt>
      <trkpt lat="50.557" lon="3.32538">
        <ele>57.79023</ele>
        <time>2018-03-20T13:12:59Z</time>
      </trkpt>
      <trkpt lat="50.55694" lon="3.32548">
        <ele>58.006584</ele>
        <time>2018-03-20T13:13:01Z</time>
      </trkpt>
      <trkpt lat="50.55689" lon="3.3256">
        <ele>58.251698</ele>
        <time>2018-03-20T13:13:03Z</time>
      </trkpt>
      <trkpt lat="50.55684" lon="3.32571">
        <ele>58.489208</ele>
        <time>2018-03-20T13:13:05Z</time>
      </trkpt>
      <trkpt lat="50.55679" lon="3.32582">
        <ele>58.605965</ele>
        <time>2018-03-20T13:13:07Z</time>
      </trkpt>
      <trkpt lat="50.55674" lon="3.32593">
        <ele>58.862762</ele>
        <time>2018-03-20T13:13:09Z</time>
      </trkpt>
      <trkpt lat="50.55669" lon="3.32605">
        <ele>59.162788</ele>
        <time>2018-03-20T13:13:11Z</time>
      </trkpt>
      <trkpt lat="50.55664" lon="3.32616">
        <ele>59.390766</ele>
        <time>2018-03-20T13:13:13Z</time>
      </trkpt>
      <trkpt lat="50.5566" lon="3.32628">
        <ele>59.640686</ele>
        <time>2018-03-20T13:13:15Z</time>
      </trkpt>
      <trkpt lat="50.55656" lon="3.32642">
        <ele>59.89547</ele>
        <time>2018-03-20T13:13:17Z</time>
      </trkpt>
      <trkpt lat="50.55653" lon="3.32655">
        <ele>60.129444</ele>
        <time>2018-03-20T13:13:19Z</time>
      </trkpt>
      <trkpt lat="50.5565" lon="3.32669">
        <ele>60.297768</ele>
        <time>2018-03-20T13:13:21Z</time>
      </trkpt>
      <trkpt lat="50.55647" lon="3.32682">
        <ele>60.487022</ele>
        <time>2018-03-20T13:13:23Z</time>
      </trkpt>
      <trkpt lat="50.55644" lon="3.32695">
        <ele>60.643665</ele>
        <time>2018-03-20T13:13:25Z</time>
      </trkpt>
      <trkpt lat="50.55641" lon="3.32708">
        <ele>60.811119</ele>
        <time>2018-03-20T13:13:27Z</time>
      </trkpt>
      <trkpt lat="50.55638" lon="3.3272">
        <ele>60.968678</ele>
        <time>2018-03-20T13:13:29Z</time>
      </trkpt>
      <trkpt lat="50.55635" lon="3.32732">
        <ele>61.101341</ele>
        <time>2018-03-20T13:13:31Z</time>
      </trkpt>
      <trkpt lat="50.55632" lon="3.32745">
        <ele>61.251171</ele>
        <time>2018-03-20T13:13:33Z</time>
      </trkpt>
      <trkpt lat="50.55629" lon="3.32757">
        <ele>61.362129</ele>
        <time>2018-03-20T13:13:35Z</time>
      </trkpt>
      <trkpt lat="50.55626" lon="3.32769">
        <ele>61.514671</ele>
        <time>2018-03-20T13:13:37Z</time>
      </trkpt>
      <trkpt lat="50.55621" lon="3.3278">
        <ele>61.569054</ele>
        <time>2018-03-20T13:13:39Z</time>
      </trkpt>
      <trkpt lat="50.55614" lon="3.32789">
        <ele>61.674049</ele>
        <time>2018-03-20T13:13:41Z</time>
      </trkpt>
      <trkpt lat="50.55605" lon="3.32795">
        <ele>61.785713</ele>
        <time>2018-03-20T13:13:43Z</time>
      </trkpt>
      <trkpt lat="50.55597" lon="3.32801">
        <ele>61.853951</ele>
        <time>2018-03-20T13:13:45Z</time>
      </trkpt>
      <trkpt lat="50.55589" lon="3.32808">
        <ele>61.930927</ele>
        <time>2018-03-20T13:13:47Z</time>
      </trkpt>
      <trkpt lat="50.5558" lon="3.32815">
        <ele>61.982155</ele>
        <time>2018-03-20T13:13:49Z</time>
      </trkpt>
      <trkpt lat="50.55571" lon="3.32823">
        <ele>62.053059</ele>
        <time>2018-03-20T13:13:51Z</time>
      </trkpt>
      <trkpt lat="50.55562" lon="3.3283">
        <ele>62.117451</ele>
        <time>2018-03-20T13:13:53Z</time>
      </trkpt>
      <trkpt lat="50.55554" lon="3.32838">
        <ele>62.201099</ele>
        <time>2018-03-20T13:13:55Z</time>
      </trkpt>
      <trkpt lat="50.55545" lon="3.32846">
        <ele>62.286766</ele>
        <time>2018-03-20T13:13:57Z</time>
      </trkpt>
      <trkpt lat="50.55537" lon="3.32854">
        <ele>62.314003</ele>
        <time>2018-03-20T13:13:59Z</time>
      </trkpt>
      <trkpt lat="50.55529" lon="3.32862">
        <ele>62.355446</ele>
        <time>2018-03-20T13:14:01Z</time>
      </trkpt>
      <trkpt lat="50.55521" lon="3.32869">
        <ele>62.474785</ele>
        <time>2018-03-20T13:14:03Z</time>
      </trkpt>
      <trkpt lat="50.55513" lon="3.32877">
        <ele>62.563049</ele>
        <time>2018-03-20T13:14:05Z</time>
      </trkpt>
      <trkpt lat="50.55505" lon="3.32884">
        <ele>62.66103</ele>
        <time>2018-03-20T13:14:07Z</time>
      </trkpt>
      <trkpt lat="50.55498" lon="3.32891">
        <ele>62.765129</ele>
        <time>2018-03-20T13:14:09Z</time>
      </trkpt>
      <trkpt lat="50.55491" lon="3.32898">
        <ele>62.856285</ele>
        <time>2018-03-20T13:14:11Z</time>
      </trkpt>
      <trkpt lat="50.55484" lon="3.32905">
        <ele>62.879932</ele>
        <time>2018-03-20T13:14:13Z</time>
      </trkpt>
      <trkpt lat="50.55476" lon="3.32913">
        <ele>62.949871</ele>
        <time>2018-03-20T13:14:15Z</time>
      </trkpt>
      <trkpt lat="50.55468" lon="3.32921">
        <ele>62.987293</ele>
        <time>2018-03-20T13:14:17Z</time>
      </trkpt>
      <trkpt lat="50.55459" lon="3.32926">
        <ele>63.063953</ele>
        <time>2018-03-20T13:14:19Z</time>
      </trkpt>
      <trkpt lat="50.55448" lon="3.32928">
        <ele>63.127815</ele>
        <time>2018-03-20T13:14:21Z</time>
      </trkpt>
      <trkpt lat="50.55438" lon="3.32928">
        <ele>63.123596</ele>
        <time>2018-03-20T13:14:23Z</time>
      </trkpt>
      <trkpt lat="50.55426" lon="3.32928">
        <ele>63.080151</ele>
        <time>2018-03-20T13:14:25Z</time>
      </trkpt>
      <trkpt lat="50.55415" lon="3.32928">
        <ele>63.092194</ele>
        <time>2018-03-20T13:14:27Z</time>
      </trkpt>
      <trkpt lat="50.55405" lon="3.32931">
        <ele>63.058807</ele>
        <time>2018-03-20T13:14:29Z</time>
      </trkpt>
      <trkpt lat="50.55394" lon="3.32936">
        <ele>63.036621</ele>
        <time>2018-03-20T13:14:31Z</time>
      </trkpt>
      <trkpt lat="50.55384" lon="3.3294">
        <ele>62.986275</ele>
        <time>2018-03-20T13:14:33Z</time>
      </trkpt>
      <trkpt lat="50.55373" lon="3.32945">
        <ele>62.8834</ele>
        <time>2018-03-20T13:14:35Z</time>
      </trkpt>
      <trkpt lat="50.55362" lon="3.32952">
        <ele>62.798683</ele>
        <time>2018-03-20T13:14:37Z</time>
      </trkpt>
      <trkpt lat="50.55352" lon="3.32963">
        <ele>62.677559</ele>
        <time>2018-03-20T13:14:39Z</time>
      </trkpt>
      <trkpt lat="50.55344" lon="3.32977">
        <ele>62.612061</ele>
        <time>2018-03-20T13:14:41Z</time>
      </trkpt>
      <trkpt lat="50.55337" lon="3.32994">
        <ele>62.526142</ele>
        <time>2018-03-20T13:14:43Z</time>
      </trkpt>
      <trkpt lat="50.55329" lon="3.33009">
        <ele>62.449028</ele>
        <time>2018-03-20T13:14:45Z</time>
      </trkpt>
      <trkpt lat="50.5532" lon="3.33024">
        <ele>62.24749</ele>
        <time>2018-03-20T13:14:47Z</time>
      </trkpt>
      <trkpt lat="50.55312" lon="3.33037">
        <ele>62.052834</ele>
        <time>2018-03-20T13:14:49Z</time>
      </trkpt>
      <trkpt lat="50.55302" lon="3.33049">
        <ele>61.888103</ele>
        <time>2018-03-20T13:14:51Z</time>
      </trkpt>
      <trkpt lat="50.55294" lon="3.33062">
        <ele>61.638512</ele>
        <time>2018-03-20T13:14:53Z</time>
      </trkpt>
      <trkpt lat="50.55286" lon="3.33075">
        <ele>61.365669</ele>
        <time>2018-03-20T13:14:55Z</time>
      </trkpt>
      <trkpt lat="50.55281" lon="3.33091">
        <ele>61.163525</ele>
        <time>2018-03-20T13:14:57Z</time>
      </trkpt>
      <trkpt lat="50.55278" lon="3.33109">
        <ele>60.988594</ele>
        <time>2018-03-20T13:14:59Z</time>
      </trkpt>
      <trkpt lat="50.55276" lon="3.33128">
        <ele>60.778576</ele>
        <time>2018-03-20T13:15:01Z</time>
      </trkpt>
      <trkpt lat="50.55275" lon="3.33147">
        <ele>60.617443</ele>
        <time>2018-03-20T13:15:03Z</time>
      </trkpt>
      <trkpt lat="50.55273" lon="3.33166">
        <ele>60.470581</ele>
        <time>2018-03-20T13:15:05Z</time>
      </trkpt>
      <trkpt lat="50.55273" lon="3.33184">
        <ele>60.297741</ele>
        <time>2018-03-20T13:15:07Z</time>
      </trkpt>
      <trkpt lat="50.55271" lon="3.33203">
        <ele>60.118675</ele>
        <time>2018-03-20T13:15:09Z</time>
      </trkpt>
      <trkpt lat="50.5527" lon="3.33221">
        <ele>59.954384</ele>
        <time>2018-03-20T13:15:11Z</time>
      </trkpt>
      <trkpt lat="50.55269" lon="3.33239">
        <ele>59.729591</ele>
        <time>2018-03-20T13:15:13Z</time>
      </trkpt>
      <trkpt lat="50.55268" lon="3.33258">
        <ele>59.672779</ele>
        <time>2018-03-20T13:15:15Z</time>
      </trkpt>
      <trkpt lat="50.55267" lon="3.33275">
        <ele>59.496002</ele>
        <time>2018-03-20T13:15:17Z</time>
      </trkpt>
      <trkpt lat="50.55269" lon="3.33293">
        <ele>59.339844</ele>
        <time>2018-03-20T13:15:19Z</time>
      </trkpt>
      <trkpt lat="50.55274" lon="3.33309">
        <ele>59.192242</ele>
        <time>2018-03-20T13:15:21Z</time>
      </trkpt>
      <trkpt lat="50.55279" lon="3.33323">
        <ele>58.979206</ele>
        <time>2018-03-20T13:15:23Z</time>
      </trkpt>
      <trkpt lat="50.55284" lon="3.33337">
        <ele>58.773487</ele>
        <time>2018-03-20T13:15:25Z</time>
      </trkpt>
      <trkpt lat="50.55288" lon="3.3335">
        <ele>58.62484</ele>
        <time>2018-03-20T13:15:27Z</time>
      </trkpt>
      <trkpt lat="50.55293" lon="3.3336">
        <ele>58.486958</ele>
        <time>2018-03-20T13:15:29Z</time>
      </trkpt>
      <trkpt lat="50.55301" lon="3.33367">
        <ele>58.338188</ele>
        <time>2018-03-20T13:15:31Z</time>
      </trkpt>
      <trkpt lat="50.5531" lon="3.33369">
        <ele>58.195576</ele>
        <time>2018-03-20T13:15:33Z</time>
      </trkpt>
      <trkpt lat="50.55322" lon="3.33369">
        <ele>58.100567</ele>
        <time>2018-03-20T13:15:35Z</time>
      </trkpt>
      <trkpt lat="50.55333" lon="3.33368">
        <ele>58.012665</ele>
        <time>2018-03-20T13:15:37Z</time>
      </trkpt>
      <trkpt lat="50.55343" lon="3.33369">
        <ele>57.905628</ele>
        <time>2018-03-20T13:15:39Z</time>
      </trkpt>
      <trkpt lat="50.55354" lon="3.3337">
        <ele>57.807014</ele>
        <time>2018-03-20T13:15:41Z</time>
      </trkpt>
      <trkpt lat="50.55364" lon="3.33372">
        <ele>57.658363</ele>
        <time>2018-03-20T13:15:43Z</time>
      </trkpt>
      <trkpt lat="50.55373" lon="3.33375">
        <ele>57.512989</ele>
        <time>2018-03-20T13:15:45Z</time>
      </trkpt>
      <trkpt lat="50.55382" lon="3.33378">
        <ele>57.412579</ele>
        <time>2018-03-20T13:15:47Z</time>
      </trkpt>
      <trkpt lat="50.55392" lon="3.33382">
        <ele>57.327675</ele>
        <time>2018-03-20T13:15:49Z</time>
      </trkpt>
      <trkpt lat="50.55401" lon="3.33387">
        <ele>57.295673</ele>
        <time>2018-03-20T13:15:51Z</time>
      </trkpt>
      <trkpt lat="50.55409" lon="3.33391">
        <ele>57.208855</ele>
        <time>2018-03-20T13:15:53Z</time>
      </trkpt>
      <trkpt lat="50.55417" lon="3.33396">
        <ele>57.173676</ele>
        <time>2018-03-20T13:15:55Z</time>
      </trkpt>
      <trkpt lat="50.55426" lon="3.33402">
        <ele>57.079762</ele>
        <time>2018-03-20T13:15:57Z</time>
      </trkpt>
      <trkpt lat="50.55435" lon="3.33407">
        <ele>57.09623</ele>
        <time>2018-03-20T13:15:59Z</time>
      </trkpt>
      <trkpt lat="50.55443" lon="3.33411">
        <ele>57.070824</ele>
        <time>2018-03-20T13:16:01Z</time>
      </trkpt>
      <trkpt lat="50.55452" lon="3.33416">
        <ele>57.046509</ele>
        <time>2018-03-20T13:16:03Z</time>
      </trkpt>
      <trkpt lat="50.5546" lon="3.33421">
        <ele>57.063038</ele>
        <time>2018-03-20T13:16:05Z</time>
      </trkpt>
      <trkpt lat="50.55469" lon="3.33426">
        <ele>57.104877</ele>
        <time>2018-03-20T13:16:07Z</time>
      </trkpt>
      <trkpt lat="50.55478" lon="3.33431">
        <ele>57.114876</ele>
        <time>2018-03-20T13:16:09Z</time>
      </trkpt>
      <trkpt lat="50.55486" lon="3.33437">
        <ele>57.156391</ele>
        <time>2018-03-20T13:16:11Z</time>
      </trkpt>
      <trkpt lat="50.55496" lon="3.33442">
        <ele>57.158195</ele>
        <time>2018-03-20T13:16:13Z</time>
      </trkpt>
      <trkpt lat="50.55504" lon="3.33449">
        <ele>57.205482</ele>
        <time>2018-03-20T13:16:15Z</time>
      </trkpt>
      <trkpt lat="50.55512" lon="3.33457">
        <ele>57.247124</ele>
        <time>2018-03-20T13:16:17Z</time>
      </trkpt>
      <trkpt lat="50.55518" lon="3.33467">
        <ele>57.288982</ele>
        <time>2018-03-20T13:16:19Z</time>
      </trkpt>
      <trkpt lat="50.55524" lon="3.33479">
        <ele>57.272377</ele>
        <time>2018-03-20T13:16:21Z</time>
      </trkpt>
      <trkpt lat="50.55531" lon="3.33491">
        <ele>57.250343</ele>
        <time>2018-03-20T13:16:23Z</time>
      </trkpt>
      <trkpt lat="50.55537" lon="3.33502">
        <ele>57.248554</ele>
        <time>2018-03-20T13:16:25Z</time>
      </trkpt>
      <trkpt lat="50.55542" lon="3.33513">
        <ele>57.262493</ele>
        <time>2018-03-20T13:16:27Z</time>
      </trkpt>
      <trkpt lat="50.55549" lon="3.33522">
        <ele>57.248608</ele>
        <time>2018-03-20T13:16:29Z</time>
      </trkpt>
      <trkpt lat="50.55555" lon="3.33531">
        <ele>57.204174</ele>
        <time>2018-03-20T13:16:31Z</time>
      </trkpt>
      <trkpt lat="50.55561" lon="3.33539">
        <ele>57.200703</ele>
        <time>2018-03-20T13:16:33Z</time>
      </trkpt>
      <trkpt lat="50.55565" lon="3.33548">
        <ele>57.136791</ele>
        <time>2018-03-20T13:16:35Z</time>
      </trkpt>
      <trkpt lat="50.55566" lon="3.33558">
        <ele>57.070793</ele>
        <time>2018-03-20T13:16:37Z</time>
      </trkpt>
      <trkpt lat="50.55563" lon="3.33568">
        <ele>56.937592</ele>
        <time>2018-03-20T13:16:39Z</time>
      </trkpt>
      <trkpt lat="50.55554" lon="3.33576">
        <ele>56.805214</ele>
        <time>2018-03-20T13:16:41Z</time>
      </trkpt>
      <trkpt lat="50.55545" lon="3.33584">
        <ele>56.642811</ele>
        <time>2018-03-20T13:16:43Z</time>
      </trkpt>
      <trkpt lat="50.55537" lon="3.33592">
        <ele>56.502094</ele>
        <time>2018-03-20T13:16:45Z</time>
      </trkpt>
      <trkpt lat="50.55528" lon="3.336">
        <ele>56.351734</ele>
        <time>2018-03-20T13:16:47Z</time>
      </trkpt>
      <trkpt lat="50.5552" lon="3.33608">
        <ele>56.218498</ele>
        <time>2018-03-20T13:16:49Z</time>
      </trkpt>
      <trkpt lat="50.55512" lon="3.33615">
        <ele>56.086823</ele>
        <time>2018-03-20T13:16:51Z</time>
      </trkpt>
      <trkpt lat="50.55504" lon="3.33623">
        <ele>55.935555</ele>
        <time>2018-03-20T13:16:53Z</time>
      </trkpt>
      <trkpt lat="50.55496" lon="3.33631">
        <ele>55.822865</ele>
        <time>2018-03-20T13:16:55Z</time>
      </trkpt>
      <trkpt lat="50.55488" lon="3.3364">
        <ele>55.654076</ele>
        <time>2018-03-20T13:16:57Z</time>
      </trkpt>
      <trkpt lat="50.55479" lon="3.33649">
        <ele>55.477364</ele>
        <time>2018-03-20T13:16:59Z</time>
      </trkpt>
      <trkpt lat="50.5547" lon="3.33658">
        <ele>55.411491</ele>
        <time>2018-03-20T13:17:01Z</time>
      </trkpt>
      <trkpt lat="50.55462" lon="3.33668">
        <ele>55.28344</ele>
        <time>2018-03-20T13:17:03Z</time>
      </trkpt>
      <trkpt lat="50.55452" lon="3.33677">
        <ele>55.106964</ele>
        <time>2018-03-20T13:17:05Z</time>
      </trkpt>
      <trkpt lat="50.55444" lon="3.33686">
        <ele>54.928307</ele>
        <time>2018-03-20T13:17:07Z</time>
      </trkpt>
      <trkpt lat="50.55436" lon="3.33695">
        <ele>54.781158</ele>
        <time>2018-03-20T13:17:09Z</time>
      </trkpt>
      <trkpt lat="50.55427" lon="3.33703">
        <ele>54.624157</ele>
        <time>2018-03-20T13:17:11Z</time>
      </trkpt>
      <trkpt lat="50.5542" lon="3.33712">
        <ele>54.478443</ele>
        <time>2018-03-20T13:17:13Z</time>
      </trkpt>
      <trkpt lat="50.55411" lon="3.33721">
        <ele>54.380684</ele>
        <time>2018-03-20T13:17:15Z</time>
      </trkpt>
      <trkpt lat="50.55403" lon="3.3373">
        <ele>54.218365</ele>
        <time>2018-03-20T13:17:17Z</time>
      </trkpt>
      <trkpt lat="50.55394" lon="3.33739">
        <ele>54.094719</ele>
        <time>2018-03-20T13:17:19Z</time>
      </trkpt>
      <trkpt lat="50.55386" lon="3.33749">
        <ele>53.980156</ele>
        <time>2018-03-20T13:17:21Z</time>
      </trkpt>
      <trkpt lat="50.55377" lon="3.33758">
        <ele>53.842995</ele>
        <time>2018-03-20T13:17:23Z</time>
      </trkpt>
      <trkpt lat="50.55369" lon="3.33767">
        <ele>53.754272</ele>
        <time>2018-03-20T13:17:25Z</time>
      </trkpt>
      <trkpt lat="50.5536" lon="3.33776">
        <ele>53.649895</ele>
        <time>2018-03-20T13:17:27Z</time>
      </trkpt>
      <trkpt lat="50.55351" lon="3.33786">
        <ele>53.511707</ele>
        <time>2018-03-20T13:17:29Z</time>
      </trkpt>
      <trkpt lat="50.55342" lon="3.33795">
        <ele>53.357292</ele>
        <time>2018-03-20T13:17:31Z</time>
      </trkpt>
      <trkpt lat="50.55333" lon="3.33805">
        <ele>53.294518</ele>
        <time>2018-03-20T13:17:33Z</time>
      </trkpt>
      <trkpt lat="50.55325" lon="3.33815">
        <ele>53.146309</ele>
        <time>2018-03-20T13:17:35Z</time>
      </trkpt>
      <trkpt lat="50.55316" lon="3.33825">
        <ele>53.029644</ele>
        <time>2018-03-20T13:17:37Z</time>
      </trkpt>
      <trkpt lat="50.55308" lon="3.33834">
        <ele>52.985687</ele>
        <time>2018-03-20T13:17:39Z</time>
      </trkpt>
      <trkpt lat="50.55299" lon="3.33843">
        <ele>52.93335</ele>
        <time>2018-03-20T13:17:41Z</time>
      </trkpt>
      <trkpt lat="50.5529" lon="3.33852">
        <ele>52.876976</ele>
        <time>2018-03-20T13:17:43Z</time>
      </trkpt>
      <trkpt lat="50.55282" lon="3.33861">
        <ele>52.81945</ele>
        <time>2018-03-20T13:17:45Z</time>
      </trkpt>
      <trkpt lat="50.55273" lon="3.3387">
        <ele>52.830212</ele>
        <time>2018-03-20T13:17:47Z</time>
      </trkpt>
      <trkpt lat="50.55265" lon="3.33879">
        <ele>52.833672</ele>
        <time>2018-03-20T13:17:49Z</time>
      </trkpt>
      <trkpt lat="50.55257" lon="3.33887">
        <ele>52.822418</ele>
        <time>2018-03-20T13:17:51Z</time>
      </trkpt>
      <trkpt lat="50.55249" lon="3.33896">
        <ele>52.821369</ele>
        <time>2018-03-20T13:17:53Z</time>
      </trkpt>
      <trkpt lat="50.55241" lon="3.33905">
        <ele>52.809357</ele>
        <time>2018-03-20T13:17:55Z</time>
      </trkpt>
      <trkpt lat="50.55233" lon="3.33914">
        <ele>52.809166</ele>
        <time>2018-03-20T13:17:57Z</time>
      </trkpt>
      <trkpt lat="50.55224" lon="3.33923">
        <ele>52.912525</ele>
        <time>2018-03-20T13:17:59Z</time>
      </trkpt>
      <trkpt lat="50.55216" lon="3.33933">
        <ele>52.979137</ele>
        <time>2018-03-20T13:18:01Z</time>
      </trkpt>
      <trkpt lat="50.55207" lon="3.33942">
        <ele>53.065838</ele>
        <time>2018-03-20T13:18:03Z</time>
      </trkpt>
      <trkpt lat="50.55198" lon="3.33951">
        <ele>53.182137</ele>
        <time>2018-03-20T13:18:05Z</time>
      </trkpt>
      <trkpt lat="50.5519" lon="3.33961">
        <ele>53.218727</ele>
        <time>2018-03-20T13:18:07Z</time>
      </trkpt>
      <trkpt lat="50.55182" lon="3.3397">
        <ele>53.289204</ele>
        <time>2018-03-20T13:18:09Z</time>
      </trkpt>
      <trkpt lat="50.55173" lon="3.33979">
        <ele>53.473183</ele>
        <time>2018-03-20T13:18:11Z</time>
      </trkpt>
      <trkpt lat="50.55164" lon="3.33988">
        <ele>53.635609</ele>
        <time>2018-03-20T13:18:13Z</time>
      </trkpt>
      <trkpt lat="50.55156" lon="3.33997">
        <ele>53.793907</ele>
        <time>2018-03-20T13:18:15Z</time>
      </trkpt>
      <trkpt lat="50.55148" lon="3.34006">
        <ele>54.034557</ele>
        <time>2018-03-20T13:18:17Z</time>
      </trkpt>
      <trkpt lat="50.5514" lon="3.34014">
        <ele>54.183624</ele>
        <time>2018-03-20T13:18:19Z</time>
      </trkpt>
      <trkpt lat="50.55132" lon="3.34023">
        <ele>54.367199</ele>
        <time>2018-03-20T13:18:21Z</time>
      </trkpt>
      <trkpt lat="50.55124" lon="3.34031">
        <ele>54.495586</ele>
        <time>2018-03-20T13:18:23Z</time>
      </trkpt>
      <trkpt lat="50.55116" lon="3.3404">
        <ele>54.6399</ele>
        <time>2018-03-20T13:18:25Z</time>
      </trkpt>
      <trkpt lat="50.55109" lon="3.34048">
        <ele>54.810284</ele>
        <time>2018-03-20T13:18:27Z</time>
      </trkpt>
      <trkpt lat="50.55101" lon="3.34056">
        <ele>54.909828</ele>
        <time>2018-03-20T13:18:29Z</time>
      </trkpt>
      <trkpt lat="50.55092" lon="3.34065">
        <ele>55.066841</ele>
        <time>2018-03-20T13:18:31Z</time>
      </trkpt>
      <trkpt lat="50.55084" lon="3.34074">
        <ele>55.182526</ele>
        <time>2018-03-20T13:18:33Z</time>
      </trkpt>
      <trkpt lat="50.55076" lon="3.34084">
        <ele>55.256935</ele>
        <time>2018-03-20T13:18:35Z</time>
      </trkpt>
      <trkpt lat="50.55067" lon="3.34093">
        <ele>55.412834</ele>
        <time>2018-03-20T13:18:37Z</time>
      </trkpt>
      <trkpt lat="50.55059" lon="3.34102">
        <ele>55.571735</ele>
        <time>2018-03-20T13:18:39Z</time>
      </trkpt>
      <trkpt lat="50.55051" lon="3.3411">
        <ele>55.659618</ele>
        <time>2018-03-20T13:18:41Z</time>
      </trkpt>
      <trkpt lat="50.55043" lon="3.34118">
        <ele>55.792561</ele>
        <time>2018-03-20T13:18:43Z</time>
      </trkpt>
      <trkpt lat="50.55035" lon="3.34128">
        <ele>55.910065</ele>
        <time>2018-03-20T13:18:45Z</time>
      </trkpt>
      <trkpt lat="50.55027" lon="3.34136">
        <ele>55.948902</ele>
        <time>2018-03-20T13:18:47Z</time>
      </trkpt>
      <trkpt lat="50.5502" lon="3.34144">
        <ele>55.998169</ele>
        <time>2018-03-20T13:18:49Z</time>
      </trkpt>
      <trkpt lat="50.55013" lon="3.34152">
        <ele>56.055195</ele>
        <time>2018-03-20T13:18:51Z</time>
      </trkpt>
      <trkpt lat="50.55005" lon="3.34157">
        <ele>56.111622</ele>
        <time>2018-03-20T13:18:53Z</time>
      </trkpt>
      <trkpt lat="50.54995" lon="3.3416">
        <ele>56.158039</ele>
        <time>2018-03-20T13:18:55Z</time>
      </trkpt>
      <trkpt lat="50.54987" lon="3.34166">
        <ele>56.176678</ele>
        <time>2018-03-20T13:18:57Z</time>
      </trkpt>
      <trkpt lat="50.54979" lon="3.34173">
        <ele>56.149231</ele>
        <time>2018-03-20T13:18:59Z</time>
      </trkpt>
      <trkpt lat="50.54971" lon="3.34176">
        <ele>56.118732</ele>
        <time>2018-03-20T13:19:01Z</time>
      </trkpt>
      <trkpt lat="50.54962" lon="3.34178">
        <ele>56.228741</ele>
        <time>2018-03-20T13:19:03Z</time>
      </trkpt>
      <trkpt lat="50.54953" lon="3.34177">
        <ele>56.246746</ele>
        <time>2018-03-20T13:19:05Z</time>
      </trkpt>
      <trkpt lat="50.54944" lon="3.34174">
        <ele>56.190407</ele>
        <time>2018-03-20T13:19:07Z</time>
      </trkpt>
      <trkpt lat="50.54934" lon="3.3417">
        <ele>56.167034</ele>
        <time>2018-03-20T13:19:09Z</time>
      </trkpt>
      <trkpt lat="50.54925" lon="3.34164">
        <ele>56.145985</ele>
        <time>2018-03-20T13:19:11Z</time>
      </trkpt>
      <trkpt lat="50.54916" lon="3.34159">
        <ele>56.122917</ele>
        <time>2018-03-20T13:19:13Z</time>
      </trkpt>
      <trkpt lat="50.54905" lon="3.34155">
        <ele>56.112007</ele>
        <time>2018-03-20T13:19:15Z</time>
      </trkpt>
      <trkpt lat="50.54895" lon="3.34151">
        <ele>56.086872</ele>
        <time>2018-03-20T13:19:17Z</time>
      </trkpt>
      <trkpt lat="50.54886" lon="3.34147">
        <ele>56.05595</ele>
        <time>2018-03-20T13:19:19Z</time>
      </trkpt>
      <trkpt lat="50.54876" lon="3.34142">
        <ele>55.969482</ele>
        <time>2018-03-20T13:19:21Z</time>
      </trkpt>
      <trkpt lat="50.54866" lon="3.3414">
        <ele>55.949085</ele>
        <time>2018-03-20T13:19:23Z</time>
      </trkpt>
      <trkpt lat="50.54855" lon="3.34137">
        <ele>55.950459</ele>
        <time>2018-03-20T13:19:25Z</time>
      </trkpt>
      <trkpt lat="50.54846" lon="3.34135">
        <ele>55.871727</ele>
        <time>2018-03-20T13:19:27Z</time>
      </trkpt>
      <trkpt lat="50.54837" lon="3.34133">
        <ele>55.932495</ele>
        <time>2018-03-20T13:19:29Z</time>
      </trkpt>
      <trkpt lat="50.54827" lon="3.34131">
        <ele>55.950478</ele>
        <time>2018-03-20T13:19:31Z</time>
      </trkpt>
      <trkpt lat="50.54818" lon="3.34127">
        <ele>55.916618</ele>
        <time>2018-03-20T13:19:33Z</time>
      </trkpt>
      <trkpt lat="50.54808" lon="3.34121">
        <ele>55.908741</ele>
        <time>2018-03-20T13:19:35Z</time>
      </trkpt>
      <trkpt lat="50.54799" lon="3.34114">
        <ele>55.900764</ele>
        <time>2018-03-20T13:19:37Z</time>
      </trkpt>
      <trkpt lat="50.54791" lon="3.34106">
        <ele>55.91748</ele>
        <time>2018-03-20T13:19:39Z</time>
      </trkpt>
      <trkpt lat="50.54782" lon="3.34099">
        <ele>55.88905</ele>
        <time>2018-03-20T13:19:41Z</time>
      </trkpt>
      <trkpt lat="50.54773" lon="3.34093">
        <ele>55.805958</ele>
        <time>2018-03-20T13:19:43Z</time>
      </trkpt>
      <trkpt lat="50.54764" lon="3.34087">
        <ele>55.794392</ele>
        <time>2018-03-20T13:19:45Z</time>
      </trkpt>
      <trkpt lat="50.54756" lon="3.3408">
        <ele>55.812248</ele>
        <time>2018-03-20T13:19:47Z</time>
      </trkpt>
      <trkpt lat="50.54746" lon="3.34074">
        <ele>55.86919</ele>
        <time>2018-03-20T13:19:49Z</time>
      </trkpt>
      <trkpt lat="50.54736" lon="3.34069">
        <ele>55.898201</ele>
        <time>2018-03-20T13:19:51Z</time>
      </trkpt>
      <trkpt lat="50.54726" lon="3.34063">
        <ele>55.923195</ele>
        <time>2018-03-20T13:19:53Z</time>
      </trkpt>
      <trkpt lat="50.54715" lon="3.34058">
        <ele>55.908203</ele>
        <time>2018-03-20T13:19:55Z</time>
      </trkpt>
      <trkpt lat="50.54705" lon="3.34053">
        <ele>55.919903</ele>
        <time>2018-03-20T13:19:57Z</time>
      </trkpt>
      <trkpt lat="50.54695" lon="3.34049">
        <ele>55.88929</ele>
        <time>2018-03-20T13:19:59Z</time>
      </trkpt>
      <trkpt lat="50.54685" lon="3.34045">
        <ele>55.896076</ele>
        <time>2018-03-20T13:20:01Z</time>
      </trkpt>
      <trkpt lat="50.54675" lon="3.34041">
        <ele>55.906319</ele>
        <time>2018-03-20T13:20:03Z</time>
      </trkpt>
      <trkpt lat="50.54665" lon="3.34035">
        <ele>55.830658</ele>
        <time>2018-03-20T13:20:05Z</time>
      </trkpt>
      <trkpt lat="50.54655" lon="3.34028">
        <ele>55.784142</ele>
        <time>2018-03-20T13:20:07Z</time>
      </trkpt>
      <trkpt lat="50.54646" lon="3.34022">
        <ele>55.765392</ele>
        <time>2018-03-20T13:20:09Z</time>
      </trkpt>
      <trkpt lat="50.54636" lon="3.34016">
        <ele>55.757408</ele>
        <time>2018-03-20T13:20:11Z</time>
      </trkpt>
      <trkpt lat="50.54626" lon="3.3401">
        <ele>55.708485</ele>
        <time>2018-03-20T13:20:13Z</time>
      </trkpt>
      <trkpt lat="50.54615" lon="3.34004">
        <ele>55.692181</ele>
        <time>2018-03-20T13:20:15Z</time>
      </trkpt>
      <trkpt lat="50.54606" lon="3.33998">
        <ele>55.640881</ele>
        <time>2018-03-20T13:20:17Z</time>
      </trkpt>
      <trkpt lat="50.54596" lon="3.33991">
        <ele>55.595909</ele>
        <time>2018-03-20T13:20:19Z</time>
      </trkpt>
      <trkpt lat="50.54586" lon="3.33985">
        <ele>55.55584</ele>
        <time>2018-03-20T13:20:21Z</time>
      </trkpt>
      <trkpt lat="50.54577" lon="3.33978">
        <ele>55.510326</ele>
        <time>2018-03-20T13:20:23Z</time>
      </trkpt>
      <trkpt lat="50.54566" lon="3.33972">
        <ele>55.44228</ele>
        <time>2018-03-20T13:20:25Z</time>
      </trkpt>
      <trkpt lat="50.54555" lon="3.33966">
        <ele>55.317921</ele>
        <time>2018-03-20T13:20:27Z</time>
      </trkpt>
      <trkpt lat="50.54543" lon="3.3396">
        <ele>55.227135</ele>
        <time>2018-03-20T13:20:29Z</time>
      </trkpt>
      <trkpt lat="50.54529" lon="3.33957">
        <ele>55.108376</ele>
        <time>2018-03-20T13:20:31Z</time>
      </trkpt>
      <trkpt lat="50.54515" lon="3.33956">
        <ele>54.977741</ele>
        <time>2018-03-20T13:20:33Z</time>
      </trkpt>
      <trkpt lat="50.54501" lon="3.33955">
        <ele>54.878235</ele>
        <time>2018-03-20T13:20:35Z</time>
      </trkpt>
      <trkpt lat="50.54487" lon="3.33954">
        <ele>54.69038</ele>
        <time>2018-03-20T13:20:37Z</time>
      </trkpt>
      <trkpt lat="50.54472" lon="3.33952">
        <ele>54.618324</ele>
        <time>2018-03-20T13:20:39Z</time>
      </trkpt>
      <trkpt lat="50.54458" lon="3.33948">
        <ele>54.500389</ele>
        <time>2018-03-20T13:20:41Z</time>
      </trkpt>
      <trkpt lat="50.54443" lon="3.33941">
        <ele>54.304016</ele>
        <time>2018-03-20T13:20:43Z</time>
      </trkpt>
      <trkpt lat="50.54428" lon="3.33934">
        <ele>54.041046</ele>
        <time>2018-03-20T13:20:45Z</time>
      </trkpt>
      <trkpt lat="50.54414" lon="3.33925">
        <ele>53.841137</ele>
        <time>2018-03-20T13:20:47Z</time>
      </trkpt>
      <trkpt lat="50.54399" lon="3.33916">
        <ele>53.669006</ele>
        <time>2018-03-20T13:20:49Z</time>
      </trkpt>
      <trkpt lat="50.54384" lon="3.33908">
        <ele>53.385212</ele>
        <time>2018-03-20T13:20:51Z</time>
      </trkpt>
      <trkpt lat="50.54368" lon="3.33903">
        <ele>53.100719</ele>
        <time>2018-03-20T13:20:53Z</time>
      </trkpt>
      <trkpt lat="50.54351" lon="3.33901">
        <ele>52.818127</ele>
        <time>2018-03-20T13:20:55Z</time>
      </trkpt>
      <trkpt lat="50.54334" lon="3.339">
        <ele>52.514423</ele>
        <time>2018-03-20T13:20:57Z</time>
      </trkpt>
      <trkpt lat="50.54317" lon="3.33899">
        <ele>52.112946</ele>
        <time>2018-03-20T13:20:59Z</time>
      </trkpt>
      <trkpt lat="50.543" lon="3.339">
        <ele>51.692272</ele>
        <time>2018-03-20T13:21:01Z</time>
      </trkpt>
      <trkpt lat="50.54283" lon="3.33903">
        <ele>51.375702</ele>
        <time>2018-03-20T13:21:03Z</time>
      </trkpt>
      <trkpt lat="50.54265" lon="3.33905">
        <ele>50.950119</ele>
        <time>2018-03-20T13:21:05Z</time>
      </trkpt>
      <trkpt lat="50.54248" lon="3.33905">
        <ele>50.506142</ele>
        <time>2018-03-20T13:21:07Z</time>
      </trkpt>
      <trkpt lat="50.54231" lon="3.33903">
        <ele>50.084618</ele>
        <time>2018-03-20T13:21:09Z</time>
      </trkpt>
      <trkpt lat="50.54214" lon="3.339">
        <ele>49.563026</ele>
        <time>2018-03-20T13:21:11Z</time>
      </trkpt>
      <trkpt lat="50.54196" lon="3.33898">
        <ele>49.33828</ele>
        <time>2018-03-20T13:21:13Z</time>
      </trkpt>
      <trkpt lat="50.54179" lon="3.33896">
        <ele>48.823513</ele>
        <time>2018-03-20T13:21:15Z</time>
      </trkpt>
      <trkpt lat="50.54163" lon="3.33896">
        <ele>48.331379</ele>
        <time>2018-03-20T13:21:17Z</time>
      </trkpt>
      <trkpt lat="50.54147" lon="3.33901">
        <ele>47.814934</ele>
        <time>2018-03-20T13:21:19Z</time>
      </trkpt>
      <trkpt lat="50.54132" lon="3.33907">
        <ele>47.232571</ele>
        <time>2018-03-20T13:21:21Z</time>
      </trkpt>
      <trkpt lat="50.54116" lon="3.33913">
        <ele>46.738331</ele>
        <time>2018-03-20T13:21:23Z</time>
      </trkpt>
      <trkpt lat="50.54102" lon="3.33919">
        <ele>46.316231</ele>
        <time>2018-03-20T13:21:25Z</time>
      </trkpt>
      <trkpt lat="50.54087" lon="3.33921">
        <ele>45.898762</ele>
        <time>2018-03-20T13:21:27Z</time>
      </trkpt>
      <trkpt lat="50.54071" lon="3.33918">
        <ele>45.370594</ele>
        <time>2018-03-20T13:21:29Z</time>
      </trkpt>
      <trkpt lat="50.54057" lon="3.33914">
        <ele>44.862915</ele>
        <time>2018-03-20T13:21:31Z</time>
      </trkpt>
      <trkpt lat="50.54042" lon="3.33908">
        <ele>44.441326</ele>
        <time>2018-03-20T13:21:33Z</time>
      </trkpt>
      <trkpt lat="50.54028" lon="3.33901">
        <ele>43.998085</ele>
        <time>2018-03-20T13:21:35Z</time>
      </trkpt>
      <trkpt lat="50.54014" lon="3.33896">
        <ele>43.565948</ele>
        <time>2018-03-20T13:21:37Z</time>
      </trkpt>
      <trkpt lat="50.54001" lon="3.33889">
        <ele>43.163361</ele>
        <time>2018-03-20T13:21:39Z</time>
      </trkpt>
      <trkpt lat="50.53988" lon="3.33884">
        <ele>42.80072</ele>
        <time>2018-03-20T13:21:41Z</time>
      </trkpt>
      <trkpt lat="50.53974" lon="3.33878">
        <ele>42.376312</ele>
        <time>2018-03-20T13:21:43Z</time>
      </trkpt>
      <trkpt lat="50.53961" lon="3.33871">
        <ele>41.994743</ele>
        <time>2018-03-20T13:21:45Z</time>
      </trkpt>
      <trkpt lat="50.53948" lon="3.33863">
        <ele>41.710472</ele>
        <time>2018-03-20T13:21:47Z</time>
      </trkpt>
      <trkpt lat="50.53936" lon="3.33854">
        <ele>41.366508</ele>
        <time>2018-03-20T13:21:49Z</time>
      </trkpt>
      <trkpt lat="50.53924" lon="3.33845">
        <ele>41.058907</ele>
        <time>2018-03-20T13:21:51Z</time>
      </trkpt>
      <trkpt lat="50.53912" lon="3.3384">
        <ele>40.751068</ele>
        <time>2018-03-20T13:21:53Z</time>
      </trkpt>
      <trkpt lat="50.53899" lon="3.33836">
        <ele>40.486107</ele>
        <time>2018-03-20T13:21:55Z</time>
      </trkpt>
      <trkpt lat="50.53887" lon="3.33832">
        <ele>40.255287</ele>
        <time>2018-03-20T13:21:57Z</time>
      </trkpt>
      <trkpt lat="50.53875" lon="3.3383">
        <ele>40.143379</ele>
        <time>2018-03-20T13:21:59Z</time>
      </trkpt>
      <trkpt lat="50.53863" lon="3.33828">
        <ele>40.015869</ele>
        <time>2018-03-20T13:22:01Z</time>
      </trkpt>
      <trkpt lat="50.53851" lon="3.33825">
        <ele>39.876312</ele>
        <time>2018-03-20T13:22:03Z</time>
      </trkpt>
      <trkpt lat="50.5384" lon="3.33824">
        <ele>39.697178</ele>
        <time>2018-03-20T13:22:05Z</time>
      </trkpt>
      <trkpt lat="50.53828" lon="3.33822">
        <ele>39.493279</ele>
        <time>2018-03-20T13:22:07Z</time>
      </trkpt>
      <trkpt lat="50.53816" lon="3.3382">
        <ele>39.294559</ele>
        <time>2018-03-20T13:22:09Z</time>
      </trkpt>
      <trkpt lat="50.53804" lon="3.33817">
        <ele>39.220272</ele>
        <time>2018-03-20T13:22:11Z</time>
      </trkpt>
      <trkpt lat="50.53792" lon="3.33815">
        <ele>39.106174</ele>
        <time>2018-03-20T13:22:13Z</time>
      </trkpt>
      <trkpt lat="50.53781" lon="3.33814">
        <ele>38.943691</ele>
        <time>2018-03-20T13:22:15Z</time>
      </trkpt>
      <trkpt lat="50.5377" lon="3.33811">
        <ele>38.853672</ele>
        <time>2018-03-20T13:22:17Z</time>
      </trkpt>
      <trkpt lat="50.53759" lon="3.3381">
        <ele>38.693241</ele>
        <time>2018-03-20T13:22:19Z</time>
      </trkpt>
      <trkpt lat="50.53749" lon="3.33807">
        <ele>38.547043</ele>
        <time>2018-03-20T13:22:21Z</time>
      </trkpt>
      <trkpt lat="50.53738" lon="3.33804">
        <ele>38.441189</ele>
        <time>2018-03-20T13:22:23Z</time>
      </trkpt>
      <trkpt lat="50.53728" lon="3.33806">
        <ele>38.322598</ele>
        <time>2018-03-20T13:22:25Z</time>
      </trkpt>
      <trkpt lat="50.53718" lon="3.33813">
        <ele>38.18594</ele>
        <time>2018-03-20T13:22:27Z</time>
      </trkpt>
      <trkpt lat="50.53709" lon="3.33822">
        <ele>38.152443</ele>
        <time>2018-03-20T13:22:29Z</time>
      </trkpt>
      <trkpt lat="50.537" lon="3.3383">
        <ele>38.086491</ele>
        <time>2018-03-20T13:22:31Z</time>
      </trkpt>
      <trkpt lat="50.53691" lon="3.33838">
        <ele>38.0728</ele>
        <time>2018-03-20T13:22:33Z</time>
      </trkpt>
      <trkpt lat="50.53682" lon="3.33846">
        <ele>38.027199</ele>
        <time>2018-03-20T13:22:35Z</time>
      </trkpt>
      <trkpt lat="50.53673" lon="3.33855">
        <ele>38.008797</ele>
        <time>2018-03-20T13:22:37Z</time>
      </trkpt>
      <trkpt lat="50.53664" lon="3.33863">
        <ele>37.971878</ele>
        <time>2018-03-20T13:22:39Z</time>
      </trkpt>
      <trkpt lat="50.53655" lon="3.33872">
        <ele>37.943691</ele>
        <time>2018-03-20T13:22:41Z</time>
      </trkpt>
      <trkpt lat="50.53646" lon="3.3388">
        <ele>38.006744</ele>
        <time>2018-03-20T13:22:43Z</time>
      </trkpt>
      <trkpt lat="50.53638" lon="3.33889">
        <ele>38.042107</ele>
        <time>2018-03-20T13:22:45Z</time>
      </trkpt>
      <trkpt lat="50.5363" lon="3.33895">
        <ele>38.107872</ele>
        <time>2018-03-20T13:22:47Z</time>
      </trkpt>
      <trkpt lat="50.53623" lon="3.33898">
        <ele>38.210968</ele>
        <time>2018-03-20T13:22:49Z</time>
      </trkpt>
      <trkpt lat="50.53616" lon="3.33896">
        <ele>38.33432</ele>
        <time>2018-03-20T13:22:51Z</time>
      </trkpt>
      <trkpt lat="50.5361" lon="3.33889">
        <ele>38.382336</ele>
        <time>2018-03-20T13:22:53Z</time>
      </trkpt>
      <trkpt lat="50.53603" lon="3.33881">
        <ele>38.477581</ele>
        <time>2018-03-20T13:22:55Z</time>
      </trkpt>
      <trkpt lat="50.53597" lon="3.33869">
        <ele>38.580303</ele>
        <time>2018-03-20T13:22:57Z</time>
      </trkpt>
      <trkpt lat="50.5359" lon="3.3386">
        <ele>38.721809</ele>
        <time>2018-03-20T13:22:59Z</time>
      </trkpt>
      <trkpt lat="50.53583" lon="3.33852">
        <ele>38.815235</ele>
        <time>2018-03-20T13:23:01Z</time>
      </trkpt>
      <trkpt lat="50.53577" lon="3.33843">
        <ele>39.02124</ele>
        <time>2018-03-20T13:23:03Z</time>
      </trkpt>
      <trkpt lat="50.53569" lon="3.33836">
        <ele>39.219597</ele>
        <time>2018-03-20T13:23:05Z</time>
      </trkpt>
      <trkpt lat="50.53563" lon="3.33828">
        <ele>39.443623</ele>
        <time>2018-03-20T13:23:07Z</time>
      </trkpt>
      <trkpt lat="50.53556" lon="3.33819">
        <ele>39.740864</ele>
        <time>2018-03-20T13:23:09Z</time>
      </trkpt>
      <trkpt lat="50.53549" lon="3.33811">
        <ele>40.012989</ele>
        <time>2018-03-20T13:23:11Z</time>
      </trkpt>
      <trkpt lat="50.53541" lon="3.33803">
        <ele>40.253742</ele>
        <time>2018-03-20T13:23:13Z</time>
      </trkpt>
      <trkpt lat="50.53534" lon="3.33795">
        <ele>40.53809</ele>
        <time>2018-03-20T13:23:15Z</time>
      </trkpt>
      <trkpt lat="50.53527" lon="3.33786">
        <ele>40.904846</ele>
        <time>2018-03-20T13:23:17Z</time>
      </trkpt>
      <trkpt lat="50.5352" lon="3.33778">
        <ele>41.224846</ele>
        <time>2018-03-20T13:23:19Z</time>
      </trkpt>
      <trkpt lat="50.53512" lon="3.33768">
        <ele>41.535927</ele>
        <time>2018-03-20T13:23:21Z</time>
      </trkpt>
      <trkpt lat="50.53504" lon="3.33759">
        <ele>41.819241</ele>
        <time>2018-03-20T13:23:23Z</time>
      </trkpt>
      <trkpt lat="50.53496" lon="3.3375">
        <ele>42.119404</ele>
        <time>2018-03-20T13:23:25Z</time>
      </trkpt>
      <trkpt lat="50.53488" lon="3.3374">
        <ele>42.406956</ele>
        <time>2018-03-20T13:23:27Z</time>
      </trkpt>
      <trkpt lat="50.53481" lon="3.33729">
        <ele>42.734138</ele>
        <time>2018-03-20T13:23:29Z</time>
      </trkpt>
      <trkpt lat="50.53472" lon="3.3372">
        <ele>42.842934</ele>
        <time>2018-03-20T13:23:31Z</time>
      </trkpt>
      <trkpt lat="50.53464" lon="3.33711">
        <ele>43.100456</ele>
        <time>2018-03-20T13:23:33Z</time>
      </trkpt>
      <trkpt lat="50.53457" lon="3.33702">
        <ele>43.357479</ele>
        <time>2018-03-20T13:23:35Z</time>
      </trkpt>
      <trkpt lat="50.5345" lon="3.33692">
        <ele>43.663052</ele>
        <time>2018-03-20T13:23:37Z</time>
      </trkpt>
      <trkpt lat="50.53442" lon="3.33682">
        <ele>43.916836</ele>
        <time>2018-03-20T13:23:39Z</time>
      </trkpt>
      <trkpt lat="50.53434" lon="3.33673">
        <ele>44.210026</ele>
        <time>2018-03-20T13:23:41Z</time>
      </trkpt>
      <trkpt lat="50.53426" lon="3.33663">
        <ele>44.469749</ele>
        <time>2018-03-20T13:23:43Z</time>
      </trkpt>
      <trkpt lat="50.53419" lon="3.33654">
        <ele>44.689754</ele>
        <time>2018-03-20T13:23:45Z</time>
      </trkpt>
      <trkpt lat="50.53411" lon="3.33644">
        <ele>44.868385</ele>
        <time>2018-03-20T13:23:47Z</time>
      </trkpt>
      <trkpt lat="50.53404" lon="3.33636">
        <ele>45.056786</ele>
        <time>2018-03-20T13:23:49Z</time>
      </trkpt>
      <trkpt lat="50.53396" lon="3.33625">
        <ele>45.156624</ele>
        <time>2018-03-20T13:23:51Z</time>
      </trkpt>
      <trkpt lat="50.53389" lon="3.33615">
        <ele>45.303177</ele>
        <time>2018-03-20T13:23:53Z</time>
      </trkpt>
      <trkpt lat="50.53381" lon="3.33606">
        <ele>45.42577</ele>
        <time>2018-03-20T13:23:55Z</time>
      </trkpt>
      <trkpt lat="50.53373" lon="3.33597">
        <ele>45.50106</ele>
        <time>2018-03-20T13:23:57Z</time>
      </trkpt>
      <trkpt lat="50.53365" lon="3.33588">
        <ele>45.525105</ele>
        <time>2018-03-20T13:23:59Z</time>
      </trkpt>
      <trkpt lat="50.53357" lon="3.33579">
        <ele>45.63575</ele>
        <time>2018-03-20T13:24:01Z</time>
      </trkpt>
      <trkpt lat="50.53349" lon="3.33569">
        <ele>45.701008</ele>
        <time>2018-03-20T13:24:03Z</time>
      </trkpt>
      <trkpt lat="50.53341" lon="3.33559">
        <ele>45.703476</ele>
        <time>2018-03-20T13:24:05Z</time>
      </trkpt>
      <trkpt lat="50.53333" lon="3.33549">
        <ele>45.73682</ele>
        <time>2018-03-20T13:24:07Z</time>
      </trkpt>
      <trkpt lat="50.53325" lon="3.33539">
        <ele>45.747406</ele>
        <time>2018-03-20T13:24:09Z</time>
      </trkpt>
      <trkpt lat="50.53316" lon="3.33529">
        <ele>45.735252</ele>
        <time>2018-03-20T13:24:11Z</time>
      </trkpt>
      <trkpt lat="50.53308" lon="3.33518">
        <ele>45.756538</ele>
        <time>2018-03-20T13:24:13Z</time>
      </trkpt>
      <trkpt lat="50.53299" lon="3.33509">
        <ele>45.793846</ele>
        <time>2018-03-20T13:24:15Z</time>
      </trkpt>
      <trkpt lat="50.53291" lon="3.33499">
        <ele>45.764633</ele>
        <time>2018-03-20T13:24:17Z</time>
      </trkpt>
      <trkpt lat="50.53283" lon="3.33489">
        <ele>45.733055</ele>
        <time>2018-03-20T13:24:19Z</time>
      </trkpt>
      <trkpt lat="50.53275" lon="3.3348">
        <ele>45.697861</ele>
        <time>2018-03-20T13:24:21Z</time>
      </trkpt>
      <trkpt lat="50.53267" lon="3.3347">
        <ele>45.641716</ele>
        <time>2018-03-20T13:24:23Z</time>
      </trkpt>
      <trkpt lat="50.53259" lon="3.33461">
        <ele>45.628792</ele>
        <time>2018-03-20T13:24:25Z</time>
      </trkpt>
      <trkpt lat="50.53251" lon="3.33452">
        <ele>45.618965</ele>
        <time>2018-03-20T13:24:27Z</time>
      </trkpt>
      <trkpt lat="50.53241" lon="3.33443">
        <ele>45.560844</ele>
        <time>2018-03-20T13:24:29Z</time>
      </trkpt>
      <trkpt lat="50.53231" lon="3.33435">
        <ele>45.480522</ele>
        <time>2018-03-20T13:24:31Z</time>
      </trkpt>
      <trkpt lat="50.53222" lon="3.33427">
        <ele>45.432564</ele>
        <time>2018-03-20T13:24:33Z</time>
      </trkpt>
      <trkpt lat="50.53212" lon="3.3342">
        <ele>45.395164</ele>
        <time>2018-03-20T13:24:35Z</time>
      </trkpt>
      <trkpt lat="50.53202" lon="3.33412">
        <ele>45.323189</ele>
        <time>2018-03-20T13:24:37Z</time>
      </trkpt>
      <trkpt lat="50.53193" lon="3.33404">
        <ele>45.269081</ele>
        <time>2018-03-20T13:24:39Z</time>
      </trkpt>
      <trkpt lat="50.53183" lon="3.33396">
        <ele>45.197727</ele>
        <time>2018-03-20T13:24:41Z</time>
      </trkpt>
      <trkpt lat="50.53173" lon="3.33388">
        <ele>45.111156</ele>
        <time>2018-03-20T13:24:43Z</time>
      </trkpt>
      <trkpt lat="50.53163" lon="3.33381">
        <ele>45.073299</ele>
        <time>2018-03-20T13:24:45Z</time>
      </trkpt>
      <trkpt lat="50.53153" lon="3.33373">
        <ele>45.031242</ele>
        <time>2018-03-20T13:24:47Z</time>
      </trkpt>
      <trkpt lat="50.53143" lon="3.33365">
        <ele>44.871792</ele>
        <time>2018-03-20T13:24:49Z</time>
      </trkpt>
      <trkpt lat="50.53133" lon="3.33357">
        <ele>44.770638</ele>
        <time>2018-03-20T13:24:51Z</time>
      </trkpt>
      <trkpt lat="50.53122" lon="3.33348">
        <ele>44.61039</ele>
        <time>2018-03-20T13:24:53Z</time>
      </trkpt>
      <trkpt lat="50.53111" lon="3.33339">
        <ele>44.486477</ele>
        <time>2018-03-20T13:24:55Z</time>
      </trkpt>
      <trkpt lat="50.531" lon="3.33331">
        <ele>44.421791</ele>
        <time>2018-03-20T13:24:57Z</time>
      </trkpt>
      <trkpt lat="50.53088" lon="3.33322">
        <ele>44.291145</ele>
        <time>2018-03-20T13:24:59Z</time>
      </trkpt>
      <trkpt lat="50.53077" lon="3.33313">
        <ele>44.131264</ele>
        <time>2018-03-20T13:25:01Z</time>
      </trkpt>
      <trkpt lat="50.53065" lon="3.33304">
        <ele>43.970699</ele>
        <time>2018-03-20T13:25:03Z</time>
      </trkpt>
      <trkpt lat="50.53053" lon="3.33294">
        <ele>43.857162</ele>
        <time>2018-03-20T13:25:05Z</time>
      </trkpt>
      <trkpt lat="50.53041" lon="3.33285">
        <ele>43.654991</ele>
        <time>2018-03-20T13:25:07Z</time>
      </trkpt>
      <trkpt lat="50.53029" lon="3.33277">
        <ele>43.475349</ele>
        <time>2018-03-20T13:25:09Z</time>
      </trkpt>
      <trkpt lat="50.53017" lon="3.33267">
        <ele>43.289932</ele>
        <time>2018-03-20T13:25:11Z</time>
      </trkpt>
      <trkpt lat="50.53006" lon="3.33258">
        <ele>43.113762</ele>
        <time>2018-03-20T13:25:13Z</time>
      </trkpt>
      <trkpt lat="50.52994" lon="3.33249">
        <ele>42.868629</ele>
        <time>2018-03-20T13:25:15Z</time>
      </trkpt>
      <trkpt lat="50.52982" lon="3.3324">
        <ele>42.668423</ele>
        <time>2018-03-20T13:25:17Z</time>
      </trkpt>
      <trkpt lat="50.52971" lon="3.33231">
        <ele>42.51881</ele>
        <time>2018-03-20T13:25:19Z</time>
      </trkpt>
      <trkpt lat="50.52959" lon="3.33222">
        <ele>42.238213</ele>
        <time>2018-03-20T13:25:21Z</time>
      </trkpt>
      <trkpt lat="50.52948" lon="3.33214">
        <ele>41.858723</ele>
        <time>2018-03-20T13:25:23Z</time>
      </trkpt>
      <trkpt lat="50.52938" lon="3.33205">
        <ele>41.501156</ele>
        <time>2018-03-20T13:25:25Z</time>
      </trkpt>
      <trkpt lat="50.52927" lon="3.33197">
        <ele>41.128609</ele>
        <time>2018-03-20T13:25:27Z</time>
      </trkpt>
      <trkpt lat="50.52919" lon="3.33191">
        <ele>40.794994</ele>
        <time>2018-03-20T13:25:29Z</time>
      </trkpt>
      <trkpt lat="50.52911" lon="3.33185">
        <ele>40.425934</ele>
        <time>2018-03-20T13:25:31Z</time>
      </trkpt>
      <trkpt lat="50.52906" lon="3.33178">
        <ele>40.019073</ele>
        <time>2018-03-20T13:25:33Z</time>
      </trkpt>
      <trkpt lat="50.52904" lon="3.33169">
        <ele>39.680885</ele>
        <time>2018-03-20T13:25:35Z</time>
      </trkpt>
      <trkpt lat="50.52907" lon="3.3316">
        <ele>39.287128</ele>
        <time>2018-03-20T13:25:37Z</time>
      </trkpt>
      <trkpt lat="50.52911" lon="3.33149">
        <ele>38.864056</ele>
        <time>2018-03-20T13:25:39Z</time>
      </trkpt>
      <trkpt lat="50.52917" lon="3.33135">
        <ele>38.50935</ele>
        <time>2018-03-20T13:25:41Z</time>
      </trkpt>
      <trkpt lat="50.52922" lon="3.3312">
        <ele>38.206665</ele>
        <time>2018-03-20T13:25:43Z</time>
      </trkpt>
      <trkpt lat="50.52928" lon="3.33106">
        <ele>37.895741</ele>
        <time>2018-03-20T13:25:45Z</time>
      </trkpt>
      <trkpt lat="50.52933" lon="3.33091">
        <ele>37.511787</ele>
        <time>2018-03-20T13:25:47Z</time>
      </trkpt>
      <trkpt lat="50.52938" lon="3.33077">
        <ele>37.213875</ele>
        <time>2018-03-20T13:25:49Z</time>
      </trkpt>
      <trkpt lat="50.52943" lon="3.33061">
        <ele>37.041344</ele>
        <time>2018-03-20T13:25:51Z</time>
      </trkpt>
      <trkpt lat="50.52948" lon="3.33046">
        <ele>36.742523</ele>
        <time>2018-03-20T13:25:53Z</time>
      </trkpt>
      <trkpt lat="50.52953" lon="3.3303">
        <ele>36.450005</ele>
        <time>2018-03-20T13:25:55Z</time>
      </trkpt>
      <trkpt lat="50.52958" lon="3.33015">
        <ele>36.153637</ele>
        <time>2018-03-20T13:25:57Z</time>
      </trkpt>
      <trkpt lat="50.52963" lon="3.32999">
        <ele>35.795341</ele>
        <time>2018-03-20T13:25:59Z</time>
      </trkpt>
      <trkpt lat="50.52968" lon="3.32984">
        <ele>35.444603</ele>
        <time>2018-03-20T13:26:01Z</time>
      </trkpt>
      <trkpt lat="50.52972" lon="3.3297">
        <ele>35.237537</ele>
        <time>2018-03-20T13:26:03Z</time>
      </trkpt>
      <trkpt lat="50.52976" lon="3.32957">
        <ele>35.079041</ele>
        <time>2018-03-20T13:26:05Z</time>
      </trkpt>
      <trkpt lat="50.52982" lon="3.32944">
        <ele>34.936623</ele>
        <time>2018-03-20T13:26:07Z</time>
      </trkpt>
      <trkpt lat="50.52988" lon="3.32934">
        <ele>34.803917</ele>
        <time>2018-03-20T13:26:09Z</time>
      </trkpt>
      <trkpt lat="50.52996" lon="3.32925">
        <ele>34.655582</ele>
        <time>2018-03-20T13:26:11Z</time>
      </trkpt>
      <trkpt lat="50.53005" lon="3.32915">
        <ele>34.580284</ele>
        <time>2018-03-20T13:26:13Z</time>
      </trkpt>
      <trkpt lat="50.53013" lon="3.32906">
        <ele>34.52697</ele>
        <time>2018-03-20T13:26:15Z</time>
      </trkpt>
      <trkpt lat="50.53021" lon="3.32898">
        <ele>34.489231</ele>
        <time>2018-03-20T13:26:17Z</time>
      </trkpt>
      <trkpt lat="50.53029" lon="3.32889">
        <ele>34.498051</ele>
        <time>2018-03-20T13:26:19Z</time>
      </trkpt>
      <trkpt lat="50.53037" lon="3.3288">
        <ele>34.478203</ele>
        <time>2018-03-20T13:26:21Z</time>
      </trkpt>
      <trkpt lat="50.53044" lon="3.32871">
        <ele>34.44035</ele>
        <time>2018-03-20T13:26:23Z</time>
      </trkpt>
      <trkpt lat="50.53052" lon="3.32863">
        <ele>34.444187</ele>
        <time>2018-03-20T13:26:25Z</time>
      </trkpt>
      <trkpt lat="50.53059" lon="3.32855">
        <ele>34.511204</ele>
        <time>2018-03-20T13:26:27Z</time>
      </trkpt>
      <trkpt lat="50.53067" lon="3.32846">
        <ele>34.594418</ele>
        <time>2018-03-20T13:26:29Z</time>
      </trkpt>
      <trkpt lat="50.53075" lon="3.32838">
        <ele>34.682381</ele>
        <time>2018-03-20T13:26:31Z</time>
      </trkpt>
      <trkpt lat="50.53082" lon="3.3283">
        <ele>34.786297</ele>
        <time>2018-03-20T13:26:33Z</time>
      </trkpt>
      <trkpt lat="50.5309" lon="3.32821">
        <ele>34.877411</ele>
        <time>2018-03-20T13:26:35Z</time>
      </trkpt>
      <trkpt lat="50.53097" lon="3.32813">
        <ele>34.993687</ele>
        <time>2018-03-20T13:26:37Z</time>
      </trkpt>
      <trkpt lat="50.53104" lon="3.32805">
        <ele>35.23497</ele>
        <time>2018-03-20T13:26:39Z</time>
      </trkpt>
      <trkpt lat="50.53111" lon="3.32797">
        <ele>35.537796</ele>
        <time>2018-03-20T13:26:41Z</time>
      </trkpt>
      <trkpt lat="50.53118" lon="3.32788">
        <ele>35.841873</ele>
        <time>2018-03-20T13:26:43Z</time>
      </trkpt>
      <trkpt lat="50.53125" lon="3.3278">
        <ele>36.097885</ele>
        <time>2018-03-20T13:26:45Z</time>
      </trkpt>
      <trkpt lat="50.53132" lon="3.32772">
        <ele>36.356815</ele>
        <time>2018-03-20T13:26:47Z</time>
      </trkpt>
      <trkpt lat="50.53139" lon="3.32764">
        <ele>36.670326</ele>
        <time>2018-03-20T13:26:49Z</time>
      </trkpt>
      <trkpt lat="50.53146" lon="3.32756">
        <ele>37.069939</ele>
        <time>2018-03-20T13:26:51Z</time>
      </trkpt>
      <trkpt lat="50.53154" lon="3.32748">
        <ele>37.438629</ele>
        <time>2018-03-20T13:26:53Z</time>
      </trkpt>
      <trkpt lat="50.53161" lon="3.3274">
        <ele>37.77367</ele>
        <time>2018-03-20T13:26:55Z</time>
      </trkpt>
      <trkpt lat="50.53169" lon="3.32732">
        <ele>38.113914</ele>
        <time>2018-03-20T13:26:57Z</time>
      </trkpt>
      <trkpt lat="50.53176" lon="3.32723">
        <ele>38.489803</ele>
        <time>2018-03-20T13:26:59Z</time>
      </trkpt>
      <trkpt lat="50.53184" lon="3.32714">
        <ele>38.839352</ele>
        <time>2018-03-20T13:27:01Z</time>
      </trkpt>
      <trkpt lat="50.53191" lon="3.32706">
        <ele>39.015038</ele>
        <time>2018-03-20T13:27:03Z</time>
      </trkpt>
      <trkpt lat="50.53198" lon="3.32699">
        <ele>39.431801</ele>
        <time>2018-03-20T13:27:05Z</time>
      </trkpt>
      <trkpt lat="50.53204" lon="3.32692">
        <ele>39.811333</ele>
        <time>2018-03-20T13:27:07Z</time>
      </trkpt>
      <trkpt lat="50.53209" lon="3.32686">
        <ele>40.065872</ele>
        <time>2018-03-20T13:27:09Z</time>
      </trkpt>
      <trkpt lat="50.53215" lon="3.32681">
        <ele>40.352272</ele>
        <time>2018-03-20T13:27:11Z</time>
      </trkpt>
      <trkpt lat="50.5322" lon="3.32675">
        <ele>40.686378</ele>
        <time>2018-03-20T13:27:13Z</time>
      </trkpt>
      <trkpt lat="50.53225" lon="3.32668">
        <ele>41.045776</ele>
        <time>2018-03-20T13:27:15Z</time>
      </trkpt>
      <trkpt lat="50.53227" lon="3.32658">
        <ele>41.320045</ele>
        <time>2018-03-20T13:27:17Z</time>
      </trkpt>
      <trkpt lat="50.53225" lon="3.32646">
        <ele>41.455345</ele>
        <time>2018-03-20T13:27:19Z</time>
      </trkpt>
      <trkpt lat="50.53221" lon="3.32633">
        <ele>41.531101</ele>
        <time>2018-03-20T13:27:21Z</time>
      </trkpt>
      <trkpt lat="50.53214" lon="3.3262">
        <ele>41.710472</ele>
        <time>2018-03-20T13:27:23Z</time>
      </trkpt>
      <trkpt lat="50.53207" lon="3.32605">
        <ele>41.712132</ele>
        <time>2018-03-20T13:27:25Z</time>
      </trkpt>
      <trkpt lat="50.532" lon="3.32591">
        <ele>41.689262</ele>
        <time>2018-03-20T13:27:27Z</time>
      </trkpt>
      <trkpt lat="50.53193" lon="3.32576">
        <ele>41.618462</ele>
        <time>2018-03-20T13:27:29Z</time>
      </trkpt>
      <trkpt lat="50.53186" lon="3.3256">
        <ele>41.480244</ele>
        <time>2018-03-20T13:27:31Z</time>
      </trkpt>
      <trkpt lat="50.53179" lon="3.32545">
        <ele>41.309326</ele>
        <time>2018-03-20T13:27:33Z</time>
      </trkpt>
      <trkpt lat="50.53173" lon="3.32531">
        <ele>41.188232</ele>
        <time>2018-03-20T13:27:35Z</time>
      </trkpt>
      <trkpt lat="50.53168" lon="3.32517">
        <ele>40.977707</ele>
        <time>2018-03-20T13:27:37Z</time>
      </trkpt>
      <trkpt lat="50.53162" lon="3.32504">
        <ele>40.73896</ele>
        <time>2018-03-20T13:27:39Z</time>
      </trkpt>
      <trkpt lat="50.53157" lon="3.32492">
        <ele>40.459064</ele>
        <time>2018-03-20T13:27:41Z</time>
      </trkpt>
      <trkpt lat="50.53153" lon="3.32481">
        <ele>40.07877</ele>
        <time>2018-03-20T13:27:43Z</time>
      </trkpt>
      <trkpt lat="50.53147" lon="3.32469">
        <ele>39.731873</ele>
        <time>2018-03-20T13:27:45Z</time>
      </trkpt>
      <trkpt lat="50.53141" lon="3.32457">
        <ele>39.245708</ele>
        <time>2018-03-20T13:27:47Z</time>
      </trkpt>
      <trkpt lat="50.53135" lon="3.32444">
        <ele>38.849419</ele>
        <time>2018-03-20T13:27:49Z</time>
      </trkpt>
      <trkpt lat="50.5313" lon="3.32432">
        <ele>38.460106</ele>
        <time>2018-03-20T13:27:51Z</time>
      </trkpt>
      <trkpt lat="50.53125" lon="3.3242">
        <ele>38.004314</ele>
        <time>2018-03-20T13:27:53Z</time>
      </trkpt>
      <trkpt lat="50.53124" lon="3.32407">
        <ele>37.558769</ele>
        <time>2018-03-20T13:27:55Z</time>
      </trkpt>
      <trkpt lat="50.53127" lon="3.32394">
        <ele>37.210781</ele>
        <time>2018-03-20T13:27:57Z</time>
      </trkpt>
      <trkpt lat="50.53134" lon="3.32384">
        <ele>36.92939</ele>
        <time>2018-03-20T13:27:59Z</time>
      </trkpt>
      <trkpt lat="50.53143" lon="3.32376">
        <ele>36.693272</ele>
        <time>2018-03-20T13:28:01Z</time>
      </trkpt>
      <trkpt lat="50.53151" lon="3.32367">
        <ele>36.39106</ele>
        <time>2018-03-20T13:28:03Z</time>
      </trkpt>
      <trkpt lat="50.5316" lon="3.32359">
        <ele>36.228809</ele>
        <time>2018-03-20T13:28:05Z</time>
      </trkpt>
      <trkpt lat="50.53167" lon="3.3235">
        <ele>36.057327</ele>
        <time>2018-03-20T13:28:07Z</time>
      </trkpt>
      <trkpt lat="50.53175" lon="3.3234">
        <ele>35.929062</ele>
        <time>2018-03-20T13:28:09Z</time>
      </trkpt>
      <trkpt lat="50.53183" lon="3.32331">
        <ele>35.82682</ele>
        <time>2018-03-20T13:28:11Z</time>
      </trkpt>
      <trkpt lat="50.5319" lon="3.32322">
        <ele>35.771435</ele>
        <time>2018-03-20T13:28:13Z</time>
      </trkpt>
      <trkpt lat="50.53198" lon="3.32314">
        <ele>35.614506</ele>
        <time>2018-03-20T13:28:15Z</time>
      </trkpt>
      <trkpt lat="50.53205" lon="3.32305">
        <ele>35.519978</ele>
        <time>2018-03-20T13:28:17Z</time>
      </trkpt>
      <trkpt lat="50.53212" lon="3.32297">
        <ele>35.433651</ele>
        <time>2018-03-20T13:28:19Z</time>
      </trkpt>
      <trkpt lat="50.5322" lon="3.32288">
        <ele>35.405113</ele>
        <time>2018-03-20T13:28:21Z</time>
      </trkpt>
      <trkpt lat="50.53227" lon="3.3228">
        <ele>35.443222</ele>
        <time>2018-03-20T13:28:23Z</time>
      </trkpt>
      <trkpt lat="50.53234" lon="3.32272">
        <ele>35.518394</ele>
        <time>2018-03-20T13:28:25Z</time>
      </trkpt>
      <trkpt lat="50.5324" lon="3.32265">
        <ele>35.516502</ele>
        <time>2018-03-20T13:28:27Z</time>
      </trkpt>
      <trkpt lat="50.53244" lon="3.32256">
        <ele>35.55064</ele>
        <time>2018-03-20T13:28:29Z</time>
      </trkpt>
      <trkpt lat="50.53246" lon="3.32243">
        <ele>35.48616</ele>
        <time>2018-03-20T13:28:31Z</time>
      </trkpt>
      <trkpt lat="50.53244" lon="3.3223">
        <ele>35.432716</ele>
        <time>2018-03-20T13:28:33Z</time>
      </trkpt>
      <trkpt lat="50.53238" lon="3.32216">
        <ele>35.334648</ele>
        <time>2018-03-20T13:28:35Z</time>
      </trkpt>
      <trkpt lat="50.53232" lon="3.32203">
        <ele>35.250519</ele>
        <time>2018-03-20T13:28:37Z</time>
      </trkpt>
      <trkpt lat="50.53225" lon="3.32188">
        <ele>35.115181</ele>
        <time>2018-03-20T13:28:39Z</time>
      </trkpt>
      <trkpt lat="50.53219" lon="3.32173">
        <ele>34.958519</ele>
        <time>2018-03-20T13:28:41Z</time>
      </trkpt>
      <trkpt lat="50.53212" lon="3.32157">
        <ele>34.880283</ele>
        <time>2018-03-20T13:28:43Z</time>
      </trkpt>
      <trkpt lat="50.53205" lon="3.32142">
        <ele>34.744339</ele>
        <time>2018-03-20T13:28:45Z</time>
      </trkpt>
      <trkpt lat="50.53198" lon="3.32126">
        <ele>34.610916</ele>
        <time>2018-03-20T13:28:47Z</time>
      </trkpt>
      <trkpt lat="50.5319" lon="3.3211">
        <ele>34.385372</ele>
        <time>2018-03-20T13:28:49Z</time>
      </trkpt>
      <trkpt lat="50.53183" lon="3.32093">
        <ele>34.107899</ele>
        <time>2018-03-20T13:28:51Z</time>
      </trkpt>
      <trkpt lat="50.53176" lon="3.32077">
        <ele>33.786644</ele>
        <time>2018-03-20T13:28:53Z</time>
      </trkpt>
      <trkpt lat="50.53169" lon="3.32062">
        <ele>33.513855</ele>
        <time>2018-03-20T13:28:55Z</time>
      </trkpt>
      <trkpt lat="50.53162" lon="3.32046">
        <ele>33.26622</ele>
        <time>2018-03-20T13:28:57Z</time>
      </trkpt>
      <trkpt lat="50.53156" lon="3.32031">
        <ele>32.992847</ele>
        <time>2018-03-20T13:28:59Z</time>
      </trkpt>
      <trkpt lat="50.53149" lon="3.32016">
        <ele>32.712826</ele>
        <time>2018-03-20T13:29:01Z</time>
      </trkpt>
      <trkpt lat="50.53141" lon="3.32002">
        <ele>32.427147</ele>
        <time>2018-03-20T13:29:03Z</time>
      </trkpt>
      <trkpt lat="50.53134" lon="3.31989">
        <ele>32.207127</ele>
        <time>2018-03-20T13:29:05Z</time>
      </trkpt>
      <trkpt lat="50.53126" lon="3.31978">
        <ele>31.931753</ele>
        <time>2018-03-20T13:29:07Z</time>
      </trkpt>
      <trkpt lat="50.53117" lon="3.3197">
        <ele>31.749226</ele>
        <time>2018-03-20T13:29:09Z</time>
      </trkpt>
      <trkpt lat="50.53108" lon="3.31962">
        <ele>31.561869</ele>
        <time>2018-03-20T13:29:11Z</time>
      </trkpt>
      <trkpt lat="50.53099" lon="3.31953">
        <ele>31.452988</ele>
        <time>2018-03-20T13:29:13Z</time>
      </trkpt>
      <trkpt lat="50.5309" lon="3.31945">
        <ele>31.384375</ele>
        <time>2018-03-20T13:29:15Z</time>
      </trkpt>
      <trkpt lat="50.53082" lon="3.31936">
        <ele>31.319595</ele>
        <time>2018-03-20T13:29:17Z</time>
      </trkpt>
      <trkpt lat="50.53074" lon="3.31928">
        <ele>31.324173</ele>
        <time>2018-03-20T13:29:19Z</time>
      </trkpt>
      <trkpt lat="50.53066" lon="3.31919">
        <ele>31.284094</ele>
        <time>2018-03-20T13:29:21Z</time>
      </trkpt>
      <trkpt lat="50.53058" lon="3.3191">
        <ele>31.246765</ele>
        <time>2018-03-20T13:29:23Z</time>
      </trkpt>
      <trkpt lat="50.5305" lon="3.31902">
        <ele>31.231937</ele>
        <time>2018-03-20T13:29:25Z</time>
      </trkpt>
      <trkpt lat="50.53041" lon="3.31893">
        <ele>31.229259</ele>
        <time>2018-03-20T13:29:27Z</time>
      </trkpt>
      <trkpt lat="50.53032" lon="3.31885">
        <ele>31.180927</ele>
        <time>2018-03-20T13:29:29Z</time>
      </trkpt>
      <trkpt lat="50.53022" lon="3.31877">
        <ele>31.244434</ele>
        <time>2018-03-20T13:29:31Z</time>
      </trkpt>
      <trkpt lat="50.53013" lon="3.31868">
        <ele>31.345139</ele>
        <time>2018-03-20T13:29:33Z</time>
      </trkpt>
      <trkpt lat="50.53003" lon="3.31859">
        <ele>31.438946</ele>
        <time>2018-03-20T13:29:35Z</time>
      </trkpt>
      <trkpt lat="50.52993" lon="3.31849">
        <ele>31.475262</ele>
        <time>2018-03-20T13:29:37Z</time>
      </trkpt>
      <trkpt lat="50.52984" lon="3.3184">
        <ele>31.589838</ele>
        <time>2018-03-20T13:29:39Z</time>
      </trkpt>
      <trkpt lat="50.52974" lon="3.3183">
        <ele>31.643366</ele>
        <time>2018-03-20T13:29:41Z</time>
      </trkpt>
      <trkpt lat="50.52965" lon="3.31821">
        <ele>31.665569</ele>
        <time>2018-03-20T13:29:43Z</time>
      </trkpt>
      <trkpt lat="50.52955" lon="3.31813">
        <ele>31.623623</ele>
        <time>2018-03-20T13:29:45Z</time>
      </trkpt>
      <trkpt lat="50.52946" lon="3.31803">
        <ele>31.662811</ele>
        <time>2018-03-20T13:29:47Z</time>
      </trkpt>
      <trkpt lat="50.52936" lon="3.31794">
        <ele>31.676062</ele>
        <time>2018-03-20T13:29:49Z</time>
      </trkpt>
      <trkpt lat="50.52927" lon="3.31785">
        <ele>31.662771</ele>
        <time>2018-03-20T13:29:51Z</time>
      </trkpt>
      <trkpt lat="50.52918" lon="3.31776">
        <ele>31.652847</ele>
        <time>2018-03-20T13:29:53Z</time>
      </trkpt>
      <trkpt lat="50.52911" lon="3.31768">
        <ele>31.629435</ele>
        <time>2018-03-20T13:29:55Z</time>
      </trkpt>
      <trkpt lat="50.52903" lon="3.31753">
        <ele>31.615467</ele>
        <time>2018-03-20T13:29:58Z</time>
      </trkpt>
      <trkpt lat="50.52903" lon="3.3174">
        <ele>31.518738</ele>
        <time>2018-03-20T13:30:00Z</time>
      </trkpt>
      <trkpt lat="50.52907" lon="3.31728">
        <ele>31.541798</ele>
        <time>2018-03-20T13:30:02Z</time>
      </trkpt>
      <trkpt lat="50.52912" lon="3.31715">
        <ele>31.518291</ele>
        <time>2018-03-20T13:30:04Z</time>
      </trkpt>
      <trkpt lat="50.52918" lon="3.31701">
        <ele>31.526941</ele>
        <time>2018-03-20T13:30:06Z</time>
      </trkpt>
      <trkpt lat="50.52923" lon="3.31687">
        <ele>31.499912</ele>
        <time>2018-03-20T13:30:08Z</time>
      </trkpt>
      <trkpt lat="50.52929" lon="3.31674">
        <ele>31.531376</ele>
        <time>2018-03-20T13:30:10Z</time>
      </trkpt>
      <trkpt lat="50.52934" lon="3.3166">
        <ele>31.596079</ele>
        <time>2018-03-20T13:30:12Z</time>
      </trkpt>
      <trkpt lat="50.5294" lon="3.31646">
        <ele>31.608358</ele>
        <time>2018-03-20T13:30:14Z</time>
      </trkpt>
      <trkpt lat="50.52945" lon="3.31632">
        <ele>31.668894</ele>
        <time>2018-03-20T13:30:16Z</time>
      </trkpt>
      <trkpt lat="50.5295" lon="3.31619">
        <ele>31.761307</ele>
        <time>2018-03-20T13:30:18Z</time>
      </trkpt>
      <trkpt lat="50.52955" lon="3.31606">
        <ele>31.878845</ele>
        <time>2018-03-20T13:30:20Z</time>
      </trkpt>
      <trkpt lat="50.5296" lon="3.31593">
        <ele>32.023972</ele>
        <time>2018-03-20T13:30:22Z</time>
      </trkpt>
      <trkpt lat="50.52965" lon="3.3158">
        <ele>32.229984</ele>
        <time>2018-03-20T13:30:24Z</time>
      </trkpt>
      <trkpt lat="50.5297" lon="3.31568">
        <ele>32.381554</ele>
        <time>2018-03-20T13:30:26Z</time>
      </trkpt>
      <trkpt lat="50.52976" lon="3.31555">
        <ele>32.48534</ele>
        <time>2018-03-20T13:30:28Z</time>
      </trkpt>
      <trkpt lat="50.52981" lon="3.31543">
        <ele>32.575836</ele>
        <time>2018-03-20T13:30:30Z</time>
      </trkpt>
      <trkpt lat="50.52986" lon="3.31531">
        <ele>32.765976</ele>
        <time>2018-03-20T13:30:32Z</time>
      </trkpt>
      <trkpt lat="50.52992" lon="3.31518">
        <ele>32.981377</ele>
        <time>2018-03-20T13:30:34Z</time>
      </trkpt>
      <trkpt lat="50.52996" lon="3.31506">
        <ele>33.189701</ele>
        <time>2018-03-20T13:30:36Z</time>
      </trkpt>
      <trkpt lat="50.53001" lon="3.31494">
        <ele>33.296631</ele>
        <time>2018-03-20T13:30:38Z</time>
      </trkpt>
      <trkpt lat="50.53006" lon="3.31482">
        <ele>33.498787</ele>
        <time>2018-03-20T13:30:40Z</time>
      </trkpt>
      <trkpt lat="50.53011" lon="3.3147">
        <ele>33.660015</ele>
        <time>2018-03-20T13:30:42Z</time>
      </trkpt>
      <trkpt lat="50.53017" lon="3.31459">
        <ele>33.901028</ele>
        <time>2018-03-20T13:30:44Z</time>
      </trkpt>
      <trkpt lat="50.53023" lon="3.31448">
        <ele>34.075607</ele>
        <time>2018-03-20T13:30:46Z</time>
      </trkpt>
      <trkpt lat="50.53029" lon="3.31436">
        <ele>34.270184</ele>
        <time>2018-03-20T13:30:48Z</time>
      </trkpt>
      <trkpt lat="50.53036" lon="3.31424">
        <ele>34.452187</ele>
        <time>2018-03-20T13:30:50Z</time>
      </trkpt>
      <trkpt lat="50.53042" lon="3.31412">
        <ele>34.599571</ele>
        <time>2018-03-20T13:30:52Z</time>
      </trkpt>
      <trkpt lat="50.53047" lon="3.31399">
        <ele>34.751965</ele>
        <time>2018-03-20T13:30:54Z</time>
      </trkpt>
      <trkpt lat="50.53052" lon="3.31386">
        <ele>34.916691</ele>
        <time>2018-03-20T13:30:56Z</time>
      </trkpt>
      <trkpt lat="50.53055" lon="3.31373">
        <ele>35.005287</ele>
        <time>2018-03-20T13:30:58Z</time>
      </trkpt>
      <trkpt lat="50.53058" lon="3.3136">
        <ele>35.084621</ele>
        <time>2018-03-20T13:31:00Z</time>
      </trkpt>
      <trkpt lat="50.53061" lon="3.31347">
        <ele>35.1353</ele>
        <time>2018-03-20T13:31:02Z</time>
      </trkpt>
      <trkpt lat="50.5306" lon="3.31335">
        <ele>35.14452</ele>
        <time>2018-03-20T13:31:04Z</time>
      </trkpt>
      <trkpt lat="50.53054" lon="3.31327">
        <ele>35.178047</ele>
        <time>2018-03-20T13:31:06Z</time>
      </trkpt>
      <trkpt lat="50.53044" lon="3.31324">
        <ele>35.259529</ele>
        <time>2018-03-20T13:31:08Z</time>
      </trkpt>
      <trkpt lat="50.53033" lon="3.31322">
        <ele>35.318462</ele>
        <time>2018-03-20T13:31:10Z</time>
      </trkpt>
      <trkpt lat="50.53022" lon="3.31317">
        <ele>35.416233</ele>
        <time>2018-03-20T13:31:12Z</time>
      </trkpt>
      <trkpt lat="50.53012" lon="3.3131">
        <ele>35.395939</ele>
        <time>2018-03-20T13:31:14Z</time>
      </trkpt>
      <trkpt lat="50.53002" lon="3.31303">
        <ele>35.415737</ele>
        <time>2018-03-20T13:31:16Z</time>
      </trkpt>
      <trkpt lat="50.52992" lon="3.31295">
        <ele>35.445042</ele>
        <time>2018-03-20T13:31:18Z</time>
      </trkpt>
      <trkpt lat="50.52982" lon="3.31288">
        <ele>35.434753</ele>
        <time>2018-03-20T13:31:20Z</time>
      </trkpt>
      <trkpt lat="50.52972" lon="3.3128">
        <ele>35.275227</ele>
        <time>2018-03-20T13:31:22Z</time>
      </trkpt>
      <trkpt lat="50.52962" lon="3.31273">
        <ele>35.182442</ele>
        <time>2018-03-20T13:31:24Z</time>
      </trkpt>
      <trkpt lat="50.52951" lon="3.31266">
        <ele>35.095665</ele>
        <time>2018-03-20T13:31:26Z</time>
      </trkpt>
      <trkpt lat="50.5294" lon="3.3126">
        <ele>34.93856</ele>
        <time>2018-03-20T13:31:28Z</time>
      </trkpt>
      <trkpt lat="50.52929" lon="3.31252">
        <ele>34.74572</ele>
        <time>2018-03-20T13:31:30Z</time>
      </trkpt>
      <trkpt lat="50.52918" lon="3.31245">
        <ele>34.56826</ele>
        <time>2018-03-20T13:31:32Z</time>
      </trkpt>
      <trkpt lat="50.52906" lon="3.31237">
        <ele>34.399372</ele>
        <time>2018-03-20T13:31:34Z</time>
      </trkpt>
      <trkpt lat="50.52894" lon="3.31229">
        <ele>34.174564</ele>
        <time>2018-03-20T13:31:36Z</time>
      </trkpt>
      <trkpt lat="50.52882" lon="3.31222">
        <ele>33.948952</ele>
        <time>2018-03-20T13:31:38Z</time>
      </trkpt>
      <trkpt lat="50.52871" lon="3.31213">
        <ele>33.791912</ele>
        <time>2018-03-20T13:31:40Z</time>
      </trkpt>
      <trkpt lat="50.5286" lon="3.31202">
        <ele>33.643047</ele>
        <time>2018-03-20T13:31:42Z</time>
      </trkpt>
      <trkpt lat="50.52852" lon="3.31189">
        <ele>33.504784</ele>
        <time>2018-03-20T13:31:44Z</time>
      </trkpt>
      <trkpt lat="50.52845" lon="3.31175">
        <ele>33.387451</ele>
        <time>2018-03-20T13:31:46Z</time>
      </trkpt>
      <trkpt lat="50.52838" lon="3.31162">
        <ele>33.230762</ele>
        <time>2018-03-20T13:31:48Z</time>
      </trkpt>
      <trkpt lat="50.52831" lon="3.31148">
        <ele>33.097088</ele>
        <time>2018-03-20T13:31:50Z</time>
      </trkpt>
      <trkpt lat="50.52825" lon="3.31136">
        <ele>32.990562</ele>
        <time>2018-03-20T13:31:52Z</time>
      </trkpt>
      <trkpt lat="50.52818" lon="3.31123">
        <ele>32.77248</ele>
        <time>2018-03-20T13:31:54Z</time>
      </trkpt>
      <trkpt lat="50.5281" lon="3.31112">
        <ele>32.636589</ele>
        <time>2018-03-20T13:31:56Z</time>
      </trkpt>
      <trkpt lat="50.52803" lon="3.311">
        <ele>32.443672</ele>
        <time>2018-03-20T13:31:58Z</time>
      </trkpt>
      <trkpt lat="50.52795" lon="3.31089">
        <ele>32.274544</ele>
        <time>2018-03-20T13:32:00Z</time>
      </trkpt>
      <trkpt lat="50.52787" lon="3.31079">
        <ele>32.183483</ele>
        <time>2018-03-20T13:32:02Z</time>
      </trkpt>
      <trkpt lat="50.5278" lon="3.31067">
        <ele>32.142414</ele>
        <time>2018-03-20T13:32:04Z</time>
      </trkpt>
      <trkpt lat="50.52773" lon="3.31056">
        <ele>32.036003</ele>
        <time>2018-03-20T13:32:06Z</time>
      </trkpt>
      <trkpt lat="50.52764" lon="3.31044">
        <ele>31.974468</ele>
        <time>2018-03-20T13:32:08Z</time>
      </trkpt>
      <trkpt lat="50.52757" lon="3.31032">
        <ele>31.881519</ele>
        <time>2018-03-20T13:32:10Z</time>
      </trkpt>
      <trkpt lat="50.52749" lon="3.31019">
        <ele>31.754211</ele>
        <time>2018-03-20T13:32:12Z</time>
      </trkpt>
      <trkpt lat="50.52742" lon="3.31006">
        <ele>31.688736</ele>
        <time>2018-03-20T13:32:14Z</time>
      </trkpt>
      <trkpt lat="50.52734" lon="3.30993">
        <ele>31.669445</ele>
        <time>2018-03-20T13:32:16Z</time>
      </trkpt>
      <trkpt lat="50.52728" lon="3.3098">
        <ele>31.665771</ele>
        <time>2018-03-20T13:32:18Z</time>
      </trkpt>
      <trkpt lat="50.52721" lon="3.30968">
        <ele>31.757116</ele>
        <time>2018-03-20T13:32:20Z</time>
      </trkpt>
      <trkpt lat="50.52713" lon="3.30956">
        <ele>31.766979</ele>
        <time>2018-03-20T13:32:22Z</time>
      </trkpt>
      <trkpt lat="50.52707" lon="3.30943">
        <ele>31.770863</ele>
        <time>2018-03-20T13:32:24Z</time>
      </trkpt>
      <trkpt lat="50.527" lon="3.3093">
        <ele>31.805817</ele>
        <time>2018-03-20T13:32:26Z</time>
      </trkpt>
      <trkpt lat="50.52693" lon="3.30916">
        <ele>31.847784</ele>
        <time>2018-03-20T13:32:28Z</time>
      </trkpt>
      <trkpt lat="50.52686" lon="3.30901">
        <ele>31.884449</ele>
        <time>2018-03-20T13:32:30Z</time>
      </trkpt>
      <trkpt lat="50.52679" lon="3.30886">
        <ele>31.892853</ele>
        <time>2018-03-20T13:32:32Z</time>
      </trkpt>
      <trkpt lat="50.52673" lon="3.30871">
        <ele>31.978851</ele>
        <time>2018-03-20T13:32:34Z</time>
      </trkpt>
      <trkpt lat="50.52667" lon="3.30856">
        <ele>31.990778</ele>
        <time>2018-03-20T13:32:36Z</time>
      </trkpt>
      <trkpt lat="50.5266" lon="3.30841">
        <ele>32.011681</ele>
        <time>2018-03-20T13:32:38Z</time>
      </trkpt>
      <trkpt lat="50.52654" lon="3.30826">
        <ele>32.082695</ele>
        <time>2018-03-20T13:32:40Z</time>
      </trkpt>
      <trkpt lat="50.52647" lon="3.3081">
        <ele>32.031841</ele>
        <time>2018-03-20T13:32:42Z</time>
      </trkpt>
      <trkpt lat="50.52641" lon="3.30794">
        <ele>31.97785</ele>
        <time>2018-03-20T13:32:44Z</time>
      </trkpt>
      <trkpt lat="50.52631" lon="3.30771">
        <ele>31.968994</ele>
        <time>2018-03-20T13:32:47Z</time>
      </trkpt>
      <trkpt lat="50.52625" lon="3.30755">
        <ele>31.927662</ele>
        <time>2018-03-20T13:32:49Z</time>
      </trkpt>
      <trkpt lat="50.52618" lon="3.3074">
        <ele>31.871227</ele>
        <time>2018-03-20T13:32:51Z</time>
      </trkpt>
      <trkpt lat="50.52615" lon="3.30723">
        <ele>31.872198</ele>
        <time>2018-03-20T13:32:53Z</time>
      </trkpt>
      <trkpt lat="50.52618" lon="3.30708">
        <ele>31.927032</ele>
        <time>2018-03-20T13:32:55Z</time>
      </trkpt>
      <trkpt lat="50.52624" lon="3.30696">
        <ele>31.988928</ele>
        <time>2018-03-20T13:32:57Z</time>
      </trkpt>
      <trkpt lat="50.5263" lon="3.30683">
        <ele>32.013199</ele>
        <time>2018-03-20T13:32:59Z</time>
      </trkpt>
      <trkpt lat="50.52635" lon="3.3067">
        <ele>32.007263</ele>
        <time>2018-03-20T13:33:01Z</time>
      </trkpt>
      <trkpt lat="50.5264" lon="3.30659">
        <ele>31.931528</ele>
        <time>2018-03-20T13:33:03Z</time>
      </trkpt>
      <trkpt lat="50.52646" lon="3.3065">
        <ele>31.91391</ele>
        <time>2018-03-20T13:33:05Z</time>
      </trkpt>
      <trkpt lat="50.52649" lon="3.30639">
        <ele>31.895428</ele>
        <time>2018-03-20T13:33:07Z</time>
      </trkpt>
      <trkpt lat="50.52648" lon="3.30627">
        <ele>31.790579</ele>
        <time>2018-03-20T13:33:09Z</time>
      </trkpt>
      <trkpt lat="50.52643" lon="3.30617">
        <ele>31.751755</ele>
        <time>2018-03-20T13:33:11Z</time>
      </trkpt>
      <trkpt lat="50.52637" lon="3.30606">
        <ele>31.731705</ele>
        <time>2018-03-20T13:33:13Z</time>
      </trkpt>
      <trkpt lat="50.5263" lon="3.30596">
        <ele>31.643122</ele>
        <time>2018-03-20T13:33:15Z</time>
      </trkpt>
      <trkpt lat="50.52623" lon="3.30585">
        <ele>31.564571</ele>
        <time>2018-03-20T13:33:17Z</time>
      </trkpt>
      <trkpt lat="50.52616" lon="3.30573">
        <ele>31.499874</ele>
        <time>2018-03-20T13:33:19Z</time>
      </trkpt>
      <trkpt lat="50.52609" lon="3.30561">
        <ele>31.488043</ele>
        <time>2018-03-20T13:33:21Z</time>
      </trkpt>
      <trkpt lat="50.52602" lon="3.30549">
        <ele>31.411175</ele>
        <time>2018-03-20T13:33:23Z</time>
      </trkpt>
      <trkpt lat="50.52594" lon="3.30537">
        <ele>31.393351</ele>
        <time>2018-03-20T13:33:25Z</time>
      </trkpt>
      <trkpt lat="50.52585" lon="3.30525">
        <ele>31.381348</ele>
        <time>2018-03-20T13:33:27Z</time>
      </trkpt>
      <trkpt lat="50.52576" lon="3.30514">
        <ele>31.322214</ele>
        <time>2018-03-20T13:33:29Z</time>
      </trkpt>
      <trkpt lat="50.52567" lon="3.30505">
        <ele>31.287018</ele>
        <time>2018-03-20T13:33:31Z</time>
      </trkpt>
      <trkpt lat="50.52557" lon="3.30495">
        <ele>31.311884</ele>
        <time>2018-03-20T13:33:33Z</time>
      </trkpt>
      <trkpt lat="50.52548" lon="3.30486">
        <ele>31.244705</ele>
        <time>2018-03-20T13:33:35Z</time>
      </trkpt>
      <trkpt lat="50.52537" lon="3.30477">
        <ele>31.211475</ele>
        <time>2018-03-20T13:33:37Z</time>
      </trkpt>
      <trkpt lat="50.52527" lon="3.30468">
        <ele>31.117441</ele>
        <time>2018-03-20T13:33:39Z</time>
      </trkpt>
      <trkpt lat="50.52517" lon="3.3046">
        <ele>30.999456</ele>
        <time>2018-03-20T13:33:41Z</time>
      </trkpt>
      <trkpt lat="50.52506" lon="3.30451">
        <ele>30.927973</ele>
        <time>2018-03-20T13:33:43Z</time>
      </trkpt>
      <trkpt lat="50.52496" lon="3.30442">
        <ele>30.784262</ele>
        <time>2018-03-20T13:33:45Z</time>
      </trkpt>
      <trkpt lat="50.52486" lon="3.30434">
        <ele>30.619873</ele>
        <time>2018-03-20T13:33:47Z</time>
      </trkpt>
      <trkpt lat="50.52476" lon="3.30425">
        <ele>30.486729</ele>
        <time>2018-03-20T13:33:49Z</time>
      </trkpt>
      <trkpt lat="50.52466" lon="3.30416">
        <ele>30.392456</ele>
        <time>2018-03-20T13:33:51Z</time>
      </trkpt>
      <trkpt lat="50.52457" lon="3.30406">
        <ele>30.329355</ele>
        <time>2018-03-20T13:33:53Z</time>
      </trkpt>
      <trkpt lat="50.52448" lon="3.30394">
        <ele>30.209957</ele>
        <time>2018-03-20T13:33:55Z</time>
      </trkpt>
      <trkpt lat="50.5244" lon="3.30383">
        <ele>30.146763</ele>
        <time>2018-03-20T13:33:57Z</time>
      </trkpt>
      <trkpt lat="50.5243" lon="3.30371">
        <ele>30.011124</ele>
        <time>2018-03-20T13:33:59Z</time>
      </trkpt>
      <trkpt lat="50.52421" lon="3.3036">
        <ele>29.930801</ele>
        <time>2018-03-20T13:34:01Z</time>
      </trkpt>
      <trkpt lat="50.52411" lon="3.30349">
        <ele>29.714901</ele>
        <time>2018-03-20T13:34:03Z</time>
      </trkpt>
      <trkpt lat="50.524" lon="3.30339">
        <ele>29.595118</ele>
        <time>2018-03-20T13:34:05Z</time>
      </trkpt>
      <trkpt lat="50.5239" lon="3.30331">
        <ele>29.538273</ele>
        <time>2018-03-20T13:34:07Z</time>
      </trkpt>
      <trkpt lat="50.52379" lon="3.30324">
        <ele>29.444468</ele>
        <time>2018-03-20T13:34:09Z</time>
      </trkpt>
      <trkpt lat="50.52367" lon="3.30319">
        <ele>29.373402</ele>
        <time>2018-03-20T13:34:11Z</time>
      </trkpt>
      <trkpt lat="50.52356" lon="3.30313">
        <ele>29.212692</ele>
        <time>2018-03-20T13:34:13Z</time>
      </trkpt>
      <trkpt lat="50.52344" lon="3.30308">
        <ele>29.078541</ele>
        <time>2018-03-20T13:34:15Z</time>
      </trkpt>
      <trkpt lat="50.5233" lon="3.30305">
        <ele>28.968632</ele>
        <time>2018-03-20T13:34:17Z</time>
      </trkpt>
      <trkpt lat="50.52317" lon="3.30301">
        <ele>28.782343</ele>
        <time>2018-03-20T13:34:19Z</time>
      </trkpt>
      <trkpt lat="50.52305" lon="3.30299">
        <ele>28.581539</ele>
        <time>2018-03-20T13:34:21Z</time>
      </trkpt>
      <trkpt lat="50.52292" lon="3.30297">
        <ele>28.344889</ele>
        <time>2018-03-20T13:34:23Z</time>
      </trkpt>
      <trkpt lat="50.52279" lon="3.30294">
        <ele>28.16048</ele>
        <time>2018-03-20T13:34:25Z</time>
      </trkpt>
      <trkpt lat="50.52265" lon="3.3029">
        <ele>27.980433</ele>
        <time>2018-03-20T13:34:27Z</time>
      </trkpt>
      <trkpt lat="50.52253" lon="3.30281">
        <ele>27.910715</ele>
        <time>2018-03-20T13:34:29Z</time>
      </trkpt>
      <trkpt lat="50.52241" lon="3.30271">
        <ele>27.677799</ele>
        <time>2018-03-20T13:34:31Z</time>
      </trkpt>
      <trkpt lat="50.52229" lon="3.30262">
        <ele>27.47077</ele>
        <time>2018-03-20T13:34:33Z</time>
      </trkpt>
      <trkpt lat="50.52217" lon="3.30252">
        <ele>27.228474</ele>
        <time>2018-03-20T13:34:35Z</time>
      </trkpt>
      <trkpt lat="50.52205" lon="3.30242">
        <ele>26.992382</ele>
        <time>2018-03-20T13:34:37Z</time>
      </trkpt>
      <trkpt lat="50.52195" lon="3.30233">
        <ele>26.81365</ele>
        <time>2018-03-20T13:34:39Z</time>
      </trkpt>
      <trkpt lat="50.52184" lon="3.30224">
        <ele>26.603352</ele>
        <time>2018-03-20T13:34:41Z</time>
      </trkpt>
      <trkpt lat="50.52174" lon="3.30216">
        <ele>26.441235</ele>
        <time>2018-03-20T13:34:43Z</time>
      </trkpt>
      <trkpt lat="50.52165" lon="3.30207">
        <ele>26.248966</ele>
        <time>2018-03-20T13:34:45Z</time>
      </trkpt>
      <trkpt lat="50.52154" lon="3.302">
        <ele>26.01453</ele>
        <time>2018-03-20T13:34:47Z</time>
      </trkpt>
      <trkpt lat="50.52144" lon="3.3019">
        <ele>25.80653</ele>
        <time>2018-03-20T13:34:49Z</time>
      </trkpt>
      <trkpt lat="50.52134" lon="3.30179">
        <ele>25.564154</ele>
        <time>2018-03-20T13:34:51Z</time>
      </trkpt>
      <trkpt lat="50.52126" lon="3.30167">
        <ele>25.420834</ele>
        <time>2018-03-20T13:34:53Z</time>
      </trkpt>
      <trkpt lat="50.52116" lon="3.30157">
        <ele>25.215998</ele>
        <time>2018-03-20T13:34:55Z</time>
      </trkpt>
      <trkpt lat="50.52108" lon="3.30146">
        <ele>25.076513</ele>
        <time>2018-03-20T13:34:57Z</time>
      </trkpt>
      <trkpt lat="50.52103" lon="3.30133">
        <ele>24.945744</ele>
        <time>2018-03-20T13:34:59Z</time>
      </trkpt>
      <trkpt lat="50.52096" lon="3.30122">
        <ele>24.83075</ele>
        <time>2018-03-20T13:35:01Z</time>
      </trkpt>
      <trkpt lat="50.5209" lon="3.30112">
        <ele>24.841778</ele>
        <time>2018-03-20T13:35:03Z</time>
      </trkpt>
      <trkpt lat="50.52091" lon="3.301">
        <ele>24.83041</ele>
        <time>2018-03-20T13:35:05Z</time>
      </trkpt>
      <trkpt lat="50.52095" lon="3.30087">
        <ele>24.795107</ele>
        <time>2018-03-20T13:35:07Z</time>
      </trkpt>
      <trkpt lat="50.52101" lon="3.30074">
        <ele>24.739531</ele>
        <time>2018-03-20T13:35:09Z</time>
      </trkpt>
      <trkpt lat="50.52106" lon="3.30059">
        <ele>24.733585</ele>
        <time>2018-03-20T13:35:11Z</time>
      </trkpt>
      <trkpt lat="50.52111" lon="3.30044">
        <ele>24.708979</ele>
        <time>2018-03-20T13:35:13Z</time>
      </trkpt>
      <trkpt lat="50.52115" lon="3.30029">
        <ele>24.694796</ele>
        <time>2018-03-20T13:35:15Z</time>
      </trkpt>
      <trkpt lat="50.52119" lon="3.30014">
        <ele>24.668627</ele>
        <time>2018-03-20T13:35:17Z</time>
      </trkpt>
      <trkpt lat="50.52123" lon="3.3">
        <ele>24.66647</ele>
        <time>2018-03-20T13:35:19Z</time>
      </trkpt>
      <trkpt lat="50.52128" lon="3.29984">
        <ele>24.645542</ele>
        <time>2018-03-20T13:35:21Z</time>
      </trkpt>
      <trkpt lat="50.52128" lon="3.29969">
        <ele>24.67503</ele>
        <time>2018-03-20T13:35:23Z</time>
      </trkpt>
      <trkpt lat="50.52123" lon="3.29955">
        <ele>24.65485</ele>
        <time>2018-03-20T13:35:25Z</time>
      </trkpt>
      <trkpt lat="50.52115" lon="3.29945">
        <ele>24.698849</ele>
        <time>2018-03-20T13:35:27Z</time>
      </trkpt>
      <trkpt lat="50.52107" lon="3.29935">
        <ele>24.717117</ele>
        <time>2018-03-20T13:35:29Z</time>
      </trkpt>
      <trkpt lat="50.52098" lon="3.29925">
        <ele>24.800508</ele>
        <time>2018-03-20T13:35:31Z</time>
      </trkpt>
      <trkpt lat="50.52089" lon="3.29915">
        <ele>24.874302</ele>
        <time>2018-03-20T13:35:33Z</time>
      </trkpt>
      <trkpt lat="50.52081" lon="3.29905">
        <ele>24.884224</ele>
        <time>2018-03-20T13:35:35Z</time>
      </trkpt>
      <trkpt lat="50.52073" lon="3.29895">
        <ele>24.99638</ele>
        <time>2018-03-20T13:35:37Z</time>
      </trkpt>
      <trkpt lat="50.52064" lon="3.29885">
        <ele>25.062977</ele>
        <time>2018-03-20T13:35:39Z</time>
      </trkpt>
      <trkpt lat="50.52055" lon="3.29876">
        <ele>25.159021</ele>
        <time>2018-03-20T13:35:41Z</time>
      </trkpt>
      <trkpt lat="50.52047" lon="3.29866">
        <ele>25.211868</ele>
        <time>2018-03-20T13:35:43Z</time>
      </trkpt>
      <trkpt lat="50.52039" lon="3.29856">
        <ele>25.258577</ele>
        <time>2018-03-20T13:35:45Z</time>
      </trkpt>
      <trkpt lat="50.52031" lon="3.29847">
        <ele>25.351667</ele>
        <time>2018-03-20T13:35:47Z</time>
      </trkpt>
      <trkpt lat="50.52023" lon="3.29837">
        <ele>25.455034</ele>
        <time>2018-03-20T13:35:49Z</time>
      </trkpt>
      <trkpt lat="50.52014" lon="3.29827">
        <ele>25.564413</ele>
        <time>2018-03-20T13:35:51Z</time>
      </trkpt>
      <trkpt lat="50.52006" lon="3.29817">
        <ele>25.665073</ele>
        <time>2018-03-20T13:35:53Z</time>
      </trkpt>
      <trkpt lat="50.51998" lon="3.29807">
        <ele>25.740788</ele>
        <time>2018-03-20T13:35:55Z</time>
      </trkpt>
      <trkpt lat="50.51989" lon="3.29796">
        <ele>25.867786</ele>
        <time>2018-03-20T13:35:57Z</time>
      </trkpt>
      <trkpt lat="50.51981" lon="3.29786">
        <ele>25.975647</ele>
        <time>2018-03-20T13:35:59Z</time>
      </trkpt>
      <trkpt lat="50.51972" lon="3.29777">
        <ele>26.084461</ele>
        <time>2018-03-20T13:36:01Z</time>
      </trkpt>
      <trkpt lat="50.51965" lon="3.29766">
        <ele>26.204147</ele>
        <time>2018-03-20T13:36:03Z</time>
      </trkpt>
      <trkpt lat="50.51958" lon="3.29756">
        <ele>26.353342</ele>
        <time>2018-03-20T13:36:05Z</time>
      </trkpt>
      <trkpt lat="50.5195" lon="3.29746">
        <ele>26.493729</ele>
        <time>2018-03-20T13:36:07Z</time>
      </trkpt>
      <trkpt lat="50.51942" lon="3.29737">
        <ele>26.579884</ele>
        <time>2018-03-20T13:36:09Z</time>
      </trkpt>
      <trkpt lat="50.51934" lon="3.29727">
        <ele>26.648205</ele>
        <time>2018-03-20T13:36:11Z</time>
      </trkpt>
      <trkpt lat="50.51926" lon="3.29716">
        <ele>26.746674</ele>
        <time>2018-03-20T13:36:13Z</time>
      </trkpt>
      <trkpt lat="50.51919" lon="3.29706">
        <ele>26.814789</ele>
        <time>2018-03-20T13:36:15Z</time>
      </trkpt>
      <trkpt lat="50.51912" lon="3.29694">
        <ele>26.905172</ele>
        <time>2018-03-20T13:36:17Z</time>
      </trkpt>
      <trkpt lat="50.51905" lon="3.29681">
        <ele>26.940887</ele>
        <time>2018-03-20T13:36:19Z</time>
      </trkpt>
      <trkpt lat="50.519" lon="3.29667">
        <ele>27.032604</ele>
        <time>2018-03-20T13:36:21Z</time>
      </trkpt>
      <trkpt lat="50.51896" lon="3.29652">
        <ele>27.122772</ele>
        <time>2018-03-20T13:36:23Z</time>
      </trkpt>
      <trkpt lat="50.51891" lon="3.29637">
        <ele>27.255016</ele>
        <time>2018-03-20T13:36:25Z</time>
      </trkpt>
      <trkpt lat="50.51887" lon="3.29622">
        <ele>27.369839</ele>
        <time>2018-03-20T13:36:27Z</time>
      </trkpt>
      <trkpt lat="50.51882" lon="3.29607">
        <ele>27.445047</ele>
        <time>2018-03-20T13:36:29Z</time>
      </trkpt>
      <trkpt lat="50.51878" lon="3.29593">
        <ele>27.497147</ele>
        <time>2018-03-20T13:36:31Z</time>
      </trkpt>
      <trkpt lat="50.51876" lon="3.29577">
        <ele>27.616144</ele>
        <time>2018-03-20T13:36:33Z</time>
      </trkpt>
      <trkpt lat="50.51875" lon="3.2956">
        <ele>27.762445</ele>
        <time>2018-03-20T13:36:35Z</time>
      </trkpt>
      <trkpt lat="50.51873" lon="3.29545">
        <ele>27.881433</ele>
        <time>2018-03-20T13:36:37Z</time>
      </trkpt>
      <trkpt lat="50.51871" lon="3.29529">
        <ele>28.013357</ele>
        <time>2018-03-20T13:36:39Z</time>
      </trkpt>
      <trkpt lat="50.51869" lon="3.29515">
        <ele>28.149296</ele>
        <time>2018-03-20T13:36:41Z</time>
      </trkpt>
      <trkpt lat="50.51866" lon="3.29499">
        <ele>28.30303</ele>
        <time>2018-03-20T13:36:43Z</time>
      </trkpt>
      <trkpt lat="50.51864" lon="3.29484">
        <ele>28.431599</ele>
        <time>2018-03-20T13:36:45Z</time>
      </trkpt>
      <trkpt lat="50.51861" lon="3.29469">
        <ele>28.515121</ele>
        <time>2018-03-20T13:36:47Z</time>
      </trkpt>
      <trkpt lat="50.51859" lon="3.29454">
        <ele>28.680191</ele>
        <time>2018-03-20T13:36:49Z</time>
      </trkpt>
      <trkpt lat="50.51856" lon="3.29439">
        <ele>28.871267</ele>
        <time>2018-03-20T13:36:51Z</time>
      </trkpt>
      <trkpt lat="50.51852" lon="3.29425">
        <ele>29.085901</ele>
        <time>2018-03-20T13:36:53Z</time>
      </trkpt>
      <trkpt lat="50.51848" lon="3.2941">
        <ele>29.267139</ele>
        <time>2018-03-20T13:36:55Z</time>
      </trkpt>
      <trkpt lat="50.51843" lon="3.29396">
        <ele>29.497379</ele>
        <time>2018-03-20T13:36:57Z</time>
      </trkpt>
      <trkpt lat="50.51838" lon="3.29383">
        <ele>29.673115</ele>
        <time>2018-03-20T13:36:59Z</time>
      </trkpt>
      <trkpt lat="50.51833" lon="3.29369">
        <ele>29.860895</ele>
        <time>2018-03-20T13:37:01Z</time>
      </trkpt>
      <trkpt lat="50.51828" lon="3.29355">
        <ele>30.072794</ele>
        <time>2018-03-20T13:37:03Z</time>
      </trkpt>
      <trkpt lat="50.51824" lon="3.29341">
        <ele>30.295633</ele>
        <time>2018-03-20T13:37:05Z</time>
      </trkpt>
      <trkpt lat="50.5182" lon="3.29326">
        <ele>30.462997</ele>
        <time>2018-03-20T13:37:07Z</time>
      </trkpt>
      <trkpt lat="50.51817" lon="3.29314">
        <ele>30.652615</ele>
        <time>2018-03-20T13:37:09Z</time>
      </trkpt>
      <trkpt lat="50.51814" lon="3.29303">
        <ele>30.844559</ele>
        <time>2018-03-20T13:37:11Z</time>
      </trkpt>
      <trkpt lat="50.5181" lon="3.29292">
        <ele>31.045645</ele>
        <time>2018-03-20T13:37:13Z</time>
      </trkpt>
      <trkpt lat="50.51806" lon="3.29281">
        <ele>31.243473</ele>
        <time>2018-03-20T13:37:15Z</time>
      </trkpt>
      <trkpt lat="50.51802" lon="3.29269">
        <ele>31.446894</ele>
        <time>2018-03-20T13:37:17Z</time>
      </trkpt>
      <trkpt lat="50.51798" lon="3.29257">
        <ele>31.637197</ele>
        <time>2018-03-20T13:37:19Z</time>
      </trkpt>
      <trkpt lat="50.51795" lon="3.29244">
        <ele>31.825451</ele>
        <time>2018-03-20T13:37:21Z</time>
      </trkpt>
      <trkpt lat="50.51793" lon="3.29231">
        <ele>31.929422</ele>
        <time>2018-03-20T13:37:23Z</time>
      </trkpt>
      <trkpt lat="50.51792" lon="3.29217">
        <ele>32.098019</ele>
        <time>2018-03-20T13:37:25Z</time>
      </trkpt>
      <trkpt lat="50.51793" lon="3.29203">
        <ele>32.257469</ele>
        <time>2018-03-20T13:37:27Z</time>
      </trkpt>
      <trkpt lat="50.51796" lon="3.29189">
        <ele>32.382763</ele>
        <time>2018-03-20T13:37:29Z</time>
      </trkpt>
      <trkpt lat="50.518" lon="3.29177">
        <ele>32.510754</ele>
        <time>2018-03-20T13:37:31Z</time>
      </trkpt>
      <trkpt lat="50.51805" lon="3.29165">
        <ele>32.638184</ele>
        <time>2018-03-20T13:37:33Z</time>
      </trkpt>
      <trkpt lat="50.5181" lon="3.29154">
        <ele>32.721252</ele>
        <time>2018-03-20T13:37:35Z</time>
      </trkpt>
      <trkpt lat="50.51815" lon="3.29142">
        <ele>32.784206</ele>
        <time>2018-03-20T13:37:37Z</time>
      </trkpt>
      <trkpt lat="50.5182" lon="3.29129">
        <ele>32.889072</ele>
        <time>2018-03-20T13:37:39Z</time>
      </trkpt>
      <trkpt lat="50.51825" lon="3.29117">
        <ele>32.99789</ele>
        <time>2018-03-20T13:37:41Z</time>
      </trkpt>
      <trkpt lat="50.5183" lon="3.29104">
        <ele>33.003937</ele>
        <time>2018-03-20T13:37:43Z</time>
      </trkpt>
      <trkpt lat="50.51835" lon="3.2909">
        <ele>33.068436</ele>
        <time>2018-03-20T13:37:45Z</time>
      </trkpt>
      <trkpt lat="50.51839" lon="3.29077">
        <ele>33.127346</ele>
        <time>2018-03-20T13:37:47Z</time>
      </trkpt>
      <trkpt lat="50.51844" lon="3.29063">
        <ele>33.192589</ele>
        <time>2018-03-20T13:37:49Z</time>
      </trkpt>
      <trkpt lat="50.51849" lon="3.29049">
        <ele>33.273216</ele>
        <time>2018-03-20T13:37:51Z</time>
      </trkpt>
      <trkpt lat="50.51854" lon="3.29035">
        <ele>33.313423</ele>
        <time>2018-03-20T13:37:53Z</time>
      </trkpt>
      <trkpt lat="50.51859" lon="3.2902">
        <ele>33.324974</ele>
        <time>2018-03-20T13:37:55Z</time>
      </trkpt>
      <trkpt lat="50.51864" lon="3.29005">
        <ele>33.319813</ele>
        <time>2018-03-20T13:37:57Z</time>
      </trkpt>
      <trkpt lat="50.51869" lon="3.28991">
        <ele>33.32621</ele>
        <time>2018-03-20T13:37:59Z</time>
      </trkpt>
      <trkpt lat="50.51873" lon="3.28977">
        <ele>33.352692</ele>
        <time>2018-03-20T13:38:01Z</time>
      </trkpt>
      <trkpt lat="50.51878" lon="3.28964">
        <ele>33.309772</ele>
        <time>2018-03-20T13:38:03Z</time>
      </trkpt>
      <trkpt lat="50.51882" lon="3.28951">
        <ele>33.329651</ele>
        <time>2018-03-20T13:38:05Z</time>
      </trkpt>
      <trkpt lat="50.51886" lon="3.28939">
        <ele>33.307442</ele>
        <time>2018-03-20T13:38:07Z</time>
      </trkpt>
      <trkpt lat="50.5189" lon="3.28928">
        <ele>33.327553</ele>
        <time>2018-03-20T13:38:09Z</time>
      </trkpt>
      <trkpt lat="50.51895" lon="3.28916">
        <ele>33.287926</ele>
        <time>2018-03-20T13:38:11Z</time>
      </trkpt>
      <trkpt lat="50.51899" lon="3.28906">
        <ele>33.23996</ele>
        <time>2018-03-20T13:38:13Z</time>
      </trkpt>
      <trkpt lat="50.51905" lon="3.28895">
        <ele>33.195686</ele>
        <time>2018-03-20T13:38:15Z</time>
      </trkpt>
      <trkpt lat="50.5191" lon="3.28884">
        <ele>33.184689</ele>
        <time>2018-03-20T13:38:17Z</time>
      </trkpt>
      <trkpt lat="50.51917" lon="3.28875">
        <ele>33.134186</ele>
        <time>2018-03-20T13:38:19Z</time>
      </trkpt>
      <trkpt lat="50.51923" lon="3.28866">
        <ele>33.11274</ele>
        <time>2018-03-20T13:38:21Z</time>
      </trkpt>
      <trkpt lat="50.5193" lon="3.28857">
        <ele>33.101067</ele>
        <time>2018-03-20T13:38:23Z</time>
      </trkpt>
      <trkpt lat="50.51936" lon="3.28848">
        <ele>33.108173</ele>
        <time>2018-03-20T13:38:25Z</time>
      </trkpt>
      <trkpt lat="50.51943" lon="3.2884">
        <ele>33.113869</ele>
        <time>2018-03-20T13:38:27Z</time>
      </trkpt>
      <trkpt lat="50.5195" lon="3.28831">
        <ele>33.120956</ele>
        <time>2018-03-20T13:38:29Z</time>
      </trkpt>
      <trkpt lat="50.51957" lon="3.28822">
        <ele>33.096214</ele>
        <time>2018-03-20T13:38:31Z</time>
      </trkpt>
      <trkpt lat="50.51965" lon="3.28812">
        <ele>33.096626</ele>
        <time>2018-03-20T13:38:33Z</time>
      </trkpt>
      <trkpt lat="50.51972" lon="3.28802">
        <ele>33.102703</ele>
        <time>2018-03-20T13:38:35Z</time>
      </trkpt>
      <trkpt lat="50.51978" lon="3.28789">
        <ele>33.106976</ele>
        <time>2018-03-20T13:38:37Z</time>
      </trkpt>
      <trkpt lat="50.51985" lon="3.28776">
        <ele>33.149136</ele>
        <time>2018-03-20T13:38:39Z</time>
      </trkpt>
      <trkpt lat="50.51991" lon="3.28763">
        <ele>33.137943</ele>
        <time>2018-03-20T13:38:41Z</time>
      </trkpt>
      <trkpt lat="50.51997" lon="3.28751">
        <ele>33.136635</ele>
        <time>2018-03-20T13:38:43Z</time>
      </trkpt>
      <trkpt lat="50.52003" lon="3.28738">
        <ele>33.115227</ele>
        <time>2018-03-20T13:38:45Z</time>
      </trkpt>
      <trkpt lat="50.52009" lon="3.28725">
        <ele>33.071037</ele>
        <time>2018-03-20T13:38:47Z</time>
      </trkpt>
      <trkpt lat="50.52015" lon="3.28711">
        <ele>33.049759</ele>
        <time>2018-03-20T13:38:49Z</time>
      </trkpt>
      <trkpt lat="50.52021" lon="3.28697">
        <ele>33.01263</ele>
        <time>2018-03-20T13:38:51Z</time>
      </trkpt>
      <trkpt lat="50.52027" lon="3.28683">
        <ele>32.954098</ele>
        <time>2018-03-20T13:38:53Z</time>
      </trkpt>
      <trkpt lat="50.52032" lon="3.28668">
        <ele>32.920612</ele>
        <time>2018-03-20T13:38:55Z</time>
      </trkpt>
      <trkpt lat="50.52037" lon="3.28654">
        <ele>32.914364</ele>
        <time>2018-03-20T13:38:57Z</time>
      </trkpt>
      <trkpt lat="50.52042" lon="3.28639">
        <ele>32.884953</ele>
        <time>2018-03-20T13:38:59Z</time>
      </trkpt>
      <trkpt lat="50.52046" lon="3.28626">
        <ele>32.813019</ele>
        <time>2018-03-20T13:39:01Z</time>
      </trkpt>
      <trkpt lat="50.5205" lon="3.28611">
        <ele>32.72332</ele>
        <time>2018-03-20T13:39:03Z</time>
      </trkpt>
      <trkpt lat="50.52054" lon="3.28597">
        <ele>32.627674</ele>
        <time>2018-03-20T13:39:05Z</time>
      </trkpt>
      <trkpt lat="50.52059" lon="3.28582">
        <ele>32.522663</ele>
        <time>2018-03-20T13:39:07Z</time>
      </trkpt>
      <trkpt lat="50.52063" lon="3.28567">
        <ele>32.468651</ele>
        <time>2018-03-20T13:39:09Z</time>
      </trkpt>
      <trkpt lat="50.52068" lon="3.28553">
        <ele>32.331169</ele>
        <time>2018-03-20T13:39:11Z</time>
      </trkpt>
      <trkpt lat="50.52073" lon="3.28538">
        <ele>32.208286</ele>
        <time>2018-03-20T13:39:13Z</time>
      </trkpt>
      <trkpt lat="50.52079" lon="3.28524">
        <ele>32.058239</ele>
        <time>2018-03-20T13:39:15Z</time>
      </trkpt>
      <trkpt lat="50.52085" lon="3.28511">
        <ele>31.94047</ele>
        <time>2018-03-20T13:39:17Z</time>
      </trkpt>
      <trkpt lat="50.52091" lon="3.28498">
        <ele>31.784357</ele>
        <time>2018-03-20T13:39:19Z</time>
      </trkpt>
      <trkpt lat="50.52097" lon="3.28485">
        <ele>31.619511</ele>
        <time>2018-03-20T13:39:21Z</time>
      </trkpt>
      <trkpt lat="50.52103" lon="3.28471">
        <ele>31.511618</ele>
        <time>2018-03-20T13:39:23Z</time>
      </trkpt>
      <trkpt lat="50.52108" lon="3.28459">
        <ele>31.426208</ele>
        <time>2018-03-20T13:39:25Z</time>
      </trkpt>
      <trkpt lat="50.52114" lon="3.28447">
        <ele>31.322819</ele>
        <time>2018-03-20T13:39:27Z</time>
      </trkpt>
      <trkpt lat="50.52117" lon="3.28436">
        <ele>31.169607</ele>
        <time>2018-03-20T13:39:29Z</time>
      </trkpt>
      <trkpt lat="50.52118" lon="3.28424">
        <ele>31.07872</ele>
        <time>2018-03-20T13:39:31Z</time>
      </trkpt>
      <trkpt lat="50.52116" lon="3.2841">
        <ele>30.92564</ele>
        <time>2018-03-20T13:39:33Z</time>
      </trkpt>
      <trkpt lat="50.52113" lon="3.28394">
        <ele>30.804596</ele>
        <time>2018-03-20T13:39:35Z</time>
      </trkpt>
      <trkpt lat="50.52112" lon="3.28379">
        <ele>30.75079</ele>
        <time>2018-03-20T13:39:37Z</time>
      </trkpt>
      <trkpt lat="50.52111" lon="3.28364">
        <ele>30.610394</ele>
        <time>2018-03-20T13:39:39Z</time>
      </trkpt>
      <trkpt lat="50.5211" lon="3.28349">
        <ele>30.583935</ele>
        <time>2018-03-20T13:39:41Z</time>
      </trkpt>
      <trkpt lat="50.52109" lon="3.28334">
        <ele>30.5991</ele>
        <time>2018-03-20T13:39:43Z</time>
      </trkpt>
      <trkpt lat="50.52108" lon="3.28319">
        <ele>30.582775</ele>
        <time>2018-03-20T13:39:45Z</time>
      </trkpt>
      <trkpt lat="50.52107" lon="3.28304">
        <ele>30.574688</ele>
        <time>2018-03-20T13:39:47Z</time>
      </trkpt>
      <trkpt lat="50.52105" lon="3.2829">
        <ele>30.541897</ele>
        <time>2018-03-20T13:39:49Z</time>
      </trkpt>
      <trkpt lat="50.52101" lon="3.28276">
        <ele>30.525555</ele>
        <time>2018-03-20T13:39:51Z</time>
      </trkpt>
      <trkpt lat="50.52096" lon="3.28262">
        <ele>30.526388</ele>
        <time>2018-03-20T13:39:53Z</time>
      </trkpt>
      <trkpt lat="50.52091" lon="3.28249">
        <ele>30.523376</ele>
        <time>2018-03-20T13:39:55Z</time>
      </trkpt>
      <trkpt lat="50.52086" lon="3.28235">
        <ele>30.535305</ele>
        <time>2018-03-20T13:39:57Z</time>
      </trkpt>
      <trkpt lat="50.52082" lon="3.28222">
        <ele>30.546488</ele>
        <time>2018-03-20T13:39:59Z</time>
      </trkpt>
      <trkpt lat="50.52077" lon="3.28208">
        <ele>30.576008</ele>
        <time>2018-03-20T13:40:01Z</time>
      </trkpt>
      <trkpt lat="50.52073" lon="3.28194">
        <ele>30.625698</ele>
        <time>2018-03-20T13:40:03Z</time>
      </trkpt>
      <trkpt lat="50.52069" lon="3.2818">
        <ele>30.648407</ele>
        <time>2018-03-20T13:40:05Z</time>
      </trkpt>
      <trkpt lat="50.52066" lon="3.28166">
        <ele>30.671274</ele>
        <time>2018-03-20T13:40:07Z</time>
      </trkpt>
      <trkpt lat="50.52062" lon="3.28152">
        <ele>30.761816</ele>
        <time>2018-03-20T13:40:09Z</time>
      </trkpt>
      <trkpt lat="50.52059" lon="3.28138">
        <ele>30.836756</ele>
        <time>2018-03-20T13:40:11Z</time>
      </trkpt>
      <trkpt lat="50.52055" lon="3.28124">
        <ele>30.936565</ele>
        <time>2018-03-20T13:40:13Z</time>
      </trkpt>
      <trkpt lat="50.5205" lon="3.28111">
        <ele>31.008106</ele>
        <time>2018-03-20T13:40:15Z</time>
      </trkpt>
      <trkpt lat="50.52044" lon="3.28098">
        <ele>31.065664</ele>
        <time>2018-03-20T13:40:17Z</time>
      </trkpt>
      <trkpt lat="50.52038" lon="3.28086">
        <ele>31.187647</ele>
        <time>2018-03-20T13:40:19Z</time>
      </trkpt>
      <trkpt lat="50.52031" lon="3.28073">
        <ele>31.334866</ele>
        <time>2018-03-20T13:40:21Z</time>
      </trkpt>
      <trkpt lat="50.52026" lon="3.2806">
        <ele>31.492117</ele>
        <time>2018-03-20T13:40:23Z</time>
      </trkpt>
      <trkpt lat="50.5202" lon="3.28048">
        <ele>31.659267</ele>
        <time>2018-03-20T13:40:25Z</time>
      </trkpt>
      <trkpt lat="50.52014" lon="3.28035">
        <ele>31.815243</ele>
        <time>2018-03-20T13:40:27Z</time>
      </trkpt>
      <trkpt lat="50.52008" lon="3.28023">
        <ele>31.923466</ele>
        <time>2018-03-20T13:40:29Z</time>
      </trkpt>
      <trkpt lat="50.52002" lon="3.28011">
        <ele>32.103321</ele>
        <time>2018-03-20T13:40:31Z</time>
      </trkpt>
      <trkpt lat="50.51997" lon="3.27999">
        <ele>32.287788</ele>
        <time>2018-03-20T13:40:33Z</time>
      </trkpt>
      <trkpt lat="50.51991" lon="3.27986">
        <ele>32.452072</ele>
        <time>2018-03-20T13:40:35Z</time>
      </trkpt>
      <trkpt lat="50.51984" lon="3.27974">
        <ele>32.610069</ele>
        <time>2018-03-20T13:40:37Z</time>
      </trkpt>
      <trkpt lat="50.51976" lon="3.27963">
        <ele>32.840649</ele>
        <time>2018-03-20T13:40:39Z</time>
      </trkpt>
      <trkpt lat="50.51969" lon="3.27953">
        <ele>32.970913</ele>
        <time>2018-03-20T13:40:41Z</time>
      </trkpt>
      <trkpt lat="50.51962" lon="3.27942">
        <ele>33.090435</ele>
        <time>2018-03-20T13:40:43Z</time>
      </trkpt>
      <trkpt lat="50.51954" lon="3.27932">
        <ele>33.271244</ele>
        <time>2018-03-20T13:40:45Z</time>
      </trkpt>
      <trkpt lat="50.51946" lon="3.27922">
        <ele>33.395107</ele>
        <time>2018-03-20T13:40:47Z</time>
      </trkpt>
      <trkpt lat="50.51938" lon="3.27912">
        <ele>33.512455</ele>
        <time>2018-03-20T13:40:49Z</time>
      </trkpt>
      <trkpt lat="50.51933" lon="3.27899">
        <ele>33.69603</ele>
        <time>2018-03-20T13:40:51Z</time>
      </trkpt>
      <trkpt lat="50.51932" lon="3.27883">
        <ele>33.835587</ele>
        <time>2018-03-20T13:40:53Z</time>
      </trkpt>
      <trkpt lat="50.51935" lon="3.27868">
        <ele>34.014851</ele>
        <time>2018-03-20T13:40:55Z</time>
      </trkpt>
      <trkpt lat="50.5194" lon="3.27854">
        <ele>34.258934</ele>
        <time>2018-03-20T13:40:57Z</time>
      </trkpt>
      <trkpt lat="50.51945" lon="3.2784">
        <ele>34.417549</ele>
        <time>2018-03-20T13:40:59Z</time>
      </trkpt>
      <trkpt lat="50.51949" lon="3.27826">
        <ele>34.523079</ele>
        <time>2018-03-20T13:41:01Z</time>
      </trkpt>
      <trkpt lat="50.51955" lon="3.27812">
        <ele>34.57476</ele>
        <time>2018-03-20T13:41:03Z</time>
      </trkpt>
      <trkpt lat="50.5196" lon="3.27799">
        <ele>34.620644</ele>
        <time>2018-03-20T13:41:05Z</time>
      </trkpt>
      <trkpt lat="50.51965" lon="3.27785">
        <ele>34.634895</ele>
        <time>2018-03-20T13:41:07Z</time>
      </trkpt>
      <trkpt lat="50.51971" lon="3.27771">
        <ele>34.664764</ele>
        <time>2018-03-20T13:41:09Z</time>
      </trkpt>
      <trkpt lat="50.51976" lon="3.27759">
        <ele>34.714535</ele>
        <time>2018-03-20T13:41:11Z</time>
      </trkpt>
      <trkpt lat="50.51981" lon="3.27747">
        <ele>34.798347</ele>
        <time>2018-03-20T13:41:13Z</time>
      </trkpt>
      <trkpt lat="50.51986" lon="3.27736">
        <ele>34.917641</ele>
        <time>2018-03-20T13:41:15Z</time>
      </trkpt>
      <trkpt lat="50.51991" lon="3.27725">
        <ele>35.018284</ele>
        <time>2018-03-20T13:41:17Z</time>
      </trkpt>
      <trkpt lat="50.51995" lon="3.27714">
        <ele>35.135872</ele>
        <time>2018-03-20T13:41:19Z</time>
      </trkpt>
      <trkpt lat="50.51999" lon="3.27704">
        <ele>35.171799</ele>
        <time>2018-03-20T13:41:21Z</time>
      </trkpt>
      <trkpt lat="50.52002" lon="3.27695">
        <ele>35.249363</ele>
        <time>2018-03-20T13:41:23Z</time>
      </trkpt>
      <trkpt lat="50.52005" lon="3.27687">
        <ele>35.326824</ele>
        <time>2018-03-20T13:41:25Z</time>
      </trkpt>
      <trkpt lat="50.52008" lon="3.27682">
        <ele>35.417084</ele>
        <time>2018-03-20T13:41:27Z</time>
      </trkpt>
      <trkpt lat="50.5201" lon="3.27678">
        <ele>35.507809</ele>
        <time>2018-03-20T13:41:29Z</time>
      </trkpt>
      <trkpt lat="50.52015" lon="3.27675">
        <ele>35.609341</ele>
        <time>2018-03-20T13:41:31Z</time>
      </trkpt>
      <trkpt lat="50.52021" lon="3.27676">
        <ele>35.725483</ele>
        <time>2018-03-20T13:41:33Z</time>
      </trkpt>
      <trkpt lat="50.52029" lon="3.27678">
        <ele>35.827263</ele>
        <time>2018-03-20T13:41:35Z</time>
      </trkpt>
      <trkpt lat="50.52036" lon="3.27679">
        <ele>36.008827</ele>
        <time>2018-03-20T13:41:37Z</time>
      </trkpt>
      <trkpt lat="50.52043" lon="3.27682">
        <ele>36.153877</ele>
        <time>2018-03-20T13:41:39Z</time>
      </trkpt>
      <trkpt lat="50.52051" lon="3.27683">
        <ele>36.223362</ele>
        <time>2018-03-20T13:41:41Z</time>
      </trkpt>
      <trkpt lat="50.52058" lon="3.27682">
        <ele>36.273178</ele>
        <time>2018-03-20T13:41:43Z</time>
      </trkpt>
      <trkpt lat="50.52063" lon="3.27674">
        <ele>36.367363</ele>
        <time>2018-03-20T13:41:45Z</time>
      </trkpt>
      <trkpt lat="50.52066" lon="3.27662">
        <ele>36.42878</ele>
        <time>2018-03-20T13:41:47Z</time>
      </trkpt>
      <trkpt lat="50.52067" lon="3.27649">
        <ele>36.503952</ele>
        <time>2018-03-20T13:41:49Z</time>
      </trkpt>
      <trkpt lat="50.52067" lon="3.27636">
        <ele>36.549065</ele>
        <time>2018-03-20T13:41:51Z</time>
      </trkpt>
      <trkpt lat="50.52068" lon="3.27622">
        <ele>36.586613</ele>
        <time>2018-03-20T13:41:53Z</time>
      </trkpt>
      <trkpt lat="50.5207" lon="3.27609">
        <ele>36.616535</ele>
        <time>2018-03-20T13:41:55Z</time>
      </trkpt>
      <trkpt lat="50.52071" lon="3.27596">
        <ele>36.72118</ele>
        <time>2018-03-20T13:41:57Z</time>
      </trkpt>
      <trkpt lat="50.52073" lon="3.27583">
        <ele>36.764244</ele>
        <time>2018-03-20T13:41:59Z</time>
      </trkpt>
      <trkpt lat="50.52075" lon="3.27569">
        <ele>36.726521</ele>
        <time>2018-03-20T13:42:01Z</time>
      </trkpt>
      <trkpt lat="50.52077" lon="3.27556">
        <ele>36.80088</ele>
        <time>2018-03-20T13:42:03Z</time>
      </trkpt>
      <trkpt lat="50.52079" lon="3.27542">
        <ele>36.818161</ele>
        <time>2018-03-20T13:42:05Z</time>
      </trkpt>
      <trkpt lat="50.52081" lon="3.27528">
        <ele>36.830803</ele>
        <time>2018-03-20T13:42:07Z</time>
      </trkpt>
      <trkpt lat="50.52083" lon="3.27514">
        <ele>36.864624</ele>
        <time>2018-03-20T13:42:09Z</time>
      </trkpt>
      <trkpt lat="50.52085" lon="3.275">
        <ele>36.924767</ele>
        <time>2018-03-20T13:42:11Z</time>
      </trkpt>
      <trkpt lat="50.52086" lon="3.27488">
        <ele>36.949593</ele>
        <time>2018-03-20T13:42:13Z</time>
      </trkpt>
      <trkpt lat="50.52088" lon="3.27475">
        <ele>37.008736</ele>
        <time>2018-03-20T13:42:15Z</time>
      </trkpt>
      <trkpt lat="50.5209" lon="3.27462">
        <ele>36.96949</ele>
        <time>2018-03-20T13:42:17Z</time>
      </trkpt>
      <trkpt lat="50.52092" lon="3.27448">
        <ele>36.911037</ele>
        <time>2018-03-20T13:42:19Z</time>
      </trkpt>
      <trkpt lat="50.52094" lon="3.27434">
        <ele>36.908066</ele>
        <time>2018-03-20T13:42:21Z</time>
      </trkpt>
      <trkpt lat="50.52096" lon="3.27421">
        <ele>36.939533</ele>
        <time>2018-03-20T13:42:23Z</time>
      </trkpt>
      <trkpt lat="50.52098" lon="3.27407">
        <ele>36.981068</ele>
        <time>2018-03-20T13:42:25Z</time>
      </trkpt>
      <trkpt lat="50.521" lon="3.27393">
        <ele>37.000885</ele>
        <time>2018-03-20T13:42:27Z</time>
      </trkpt>
      <trkpt lat="50.52102" lon="3.2738">
        <ele>37.128624</ele>
        <time>2018-03-20T13:42:29Z</time>
      </trkpt>
      <trkpt lat="50.52104" lon="3.27366">
        <ele>37.258976</ele>
        <time>2018-03-20T13:42:31Z</time>
      </trkpt>
      <trkpt lat="50.52107" lon="3.27352">
        <ele>37.371605</ele>
        <time>2018-03-20T13:42:33Z</time>
      </trkpt>
      <trkpt lat="50.52108" lon="3.27337">
        <ele>37.476101</ele>
        <time>2018-03-20T13:42:35Z</time>
      </trkpt>
      <trkpt lat="50.52111" lon="3.27323">
        <ele>37.517525</ele>
        <time>2018-03-20T13:42:37Z</time>
      </trkpt>
      <trkpt lat="50.52113" lon="3.27309">
        <ele>37.498341</ele>
        <time>2018-03-20T13:42:39Z</time>
      </trkpt>
      <trkpt lat="50.52115" lon="3.27294">
        <ele>37.574776</ele>
        <time>2018-03-20T13:42:41Z</time>
      </trkpt>
      <trkpt lat="50.52117" lon="3.2728">
        <ele>37.66658</ele>
        <time>2018-03-20T13:42:43Z</time>
      </trkpt>
      <trkpt lat="50.52119" lon="3.27266">
        <ele>37.801289</ele>
        <time>2018-03-20T13:42:45Z</time>
      </trkpt>
      <trkpt lat="50.52122" lon="3.27251">
        <ele>38.009861</ele>
        <time>2018-03-20T13:42:47Z</time>
      </trkpt>
      <trkpt lat="50.52124" lon="3.27237">
        <ele>38.163704</ele>
        <time>2018-03-20T13:42:49Z</time>
      </trkpt>
      <trkpt lat="50.52126" lon="3.27222">
        <ele>38.285252</ele>
        <time>2018-03-20T13:42:51Z</time>
      </trkpt>
      <trkpt lat="50.52128" lon="3.27208">
        <ele>38.377781</ele>
        <time>2018-03-20T13:42:53Z</time>
      </trkpt>
      <trkpt lat="50.5213" lon="3.27194">
        <ele>38.431377</ele>
        <time>2018-03-20T13:42:55Z</time>
      </trkpt>
      <trkpt lat="50.52132" lon="3.27179">
        <ele>38.449326</ele>
        <time>2018-03-20T13:42:57Z</time>
      </trkpt>
      <trkpt lat="50.52135" lon="3.27163">
        <ele>38.543407</ele>
        <time>2018-03-20T13:42:59Z</time>
      </trkpt>
      <trkpt lat="50.52137" lon="3.27148">
        <ele>38.654591</ele>
        <time>2018-03-20T13:43:01Z</time>
      </trkpt>
      <trkpt lat="50.5214" lon="3.27132">
        <ele>38.771431</ele>
        <time>2018-03-20T13:43:03Z</time>
      </trkpt>
      <trkpt lat="50.52142" lon="3.27116">
        <ele>38.854759</ele>
        <time>2018-03-20T13:43:05Z</time>
      </trkpt>
      <trkpt lat="50.52144" lon="3.27101">
        <ele>38.921448</ele>
        <time>2018-03-20T13:43:07Z</time>
      </trkpt>
      <trkpt lat="50.52146" lon="3.27086">
        <ele>38.974358</ele>
        <time>2018-03-20T13:43:09Z</time>
      </trkpt>
      <trkpt lat="50.52149" lon="3.27071">
        <ele>39.000553</ele>
        <time>2018-03-20T13:43:11Z</time>
      </trkpt>
      <trkpt lat="50.52151" lon="3.27056">
        <ele>39.050674</ele>
        <time>2018-03-20T13:43:13Z</time>
      </trkpt>
      <trkpt lat="50.52153" lon="3.27041">
        <ele>39.096943</ele>
        <time>2018-03-20T13:43:15Z</time>
      </trkpt>
      <trkpt lat="50.52155" lon="3.27026">
        <ele>39.206448</ele>
        <time>2018-03-20T13:43:17Z</time>
      </trkpt>
      <trkpt lat="50.52158" lon="3.2701">
        <ele>39.362953</ele>
        <time>2018-03-20T13:43:19Z</time>
      </trkpt>
      <trkpt lat="50.5216" lon="3.26995">
        <ele>39.510349</ele>
        <time>2018-03-20T13:43:21Z</time>
      </trkpt>
      <trkpt lat="50.52162" lon="3.26979">
        <ele>39.641029</ele>
        <time>2018-03-20T13:43:23Z</time>
      </trkpt>
      <trkpt lat="50.52164" lon="3.26964">
        <ele>39.768318</ele>
        <time>2018-03-20T13:43:25Z</time>
      </trkpt>
      <trkpt lat="50.52166" lon="3.26949">
        <ele>39.866299</ele>
        <time>2018-03-20T13:43:27Z</time>
      </trkpt>
      <trkpt lat="50.52168" lon="3.26933">
        <ele>39.887718</ele>
        <time>2018-03-20T13:43:29Z</time>
      </trkpt>
      <trkpt lat="50.52171" lon="3.26917">
        <ele>39.953861</ele>
        <time>2018-03-20T13:43:31Z</time>
      </trkpt>
      <trkpt lat="50.52173" lon="3.26902">
        <ele>40.053192</ele>
        <time>2018-03-20T13:43:33Z</time>
      </trkpt>
      <trkpt lat="50.52176" lon="3.26886">
        <ele>40.152142</ele>
        <time>2018-03-20T13:43:35Z</time>
      </trkpt>
      <trkpt lat="50.52178" lon="3.26871">
        <ele>40.204174</ele>
        <time>2018-03-20T13:43:37Z</time>
      </trkpt>
      <trkpt lat="50.5218" lon="3.26855">
        <ele>40.279053</ele>
        <time>2018-03-20T13:43:39Z</time>
      </trkpt>
      <trkpt lat="50.52183" lon="3.2684">
        <ele>40.362209</ele>
        <time>2018-03-20T13:43:41Z</time>
      </trkpt>
      <trkpt lat="50.52185" lon="3.26824">
        <ele>40.408566</ele>
        <time>2018-03-20T13:43:43Z</time>
      </trkpt>
      <trkpt lat="50.52187" lon="3.26808">
        <ele>40.425098</ele>
        <time>2018-03-20T13:43:45Z</time>
      </trkpt>
      <trkpt lat="50.5219" lon="3.26793">
        <ele>40.511192</ele>
        <time>2018-03-20T13:43:47Z</time>
      </trkpt>
      <trkpt lat="50.52193" lon="3.26777">
        <ele>40.596748</ele>
        <time>2018-03-20T13:43:49Z</time>
      </trkpt>
      <trkpt lat="50.52195" lon="3.26761">
        <ele>40.593231</ele>
        <time>2018-03-20T13:43:51Z</time>
      </trkpt>
      <trkpt lat="50.52197" lon="3.26745">
        <ele>40.635971</ele>
        <time>2018-03-20T13:43:53Z</time>
      </trkpt>
      <trkpt lat="50.52199" lon="3.26729">
        <ele>40.65625</ele>
        <time>2018-03-20T13:43:55Z</time>
      </trkpt>
      <trkpt lat="50.52202" lon="3.26714">
        <ele>40.660305</ele>
        <time>2018-03-20T13:43:57Z</time>
      </trkpt>
      <trkpt lat="50.52204" lon="3.26698">
        <ele>40.625561</ele>
        <time>2018-03-20T13:43:59Z</time>
      </trkpt>
      <trkpt lat="50.52206" lon="3.26682">
        <ele>40.602333</ele>
        <time>2018-03-20T13:44:01Z</time>
      </trkpt>
      <trkpt lat="50.52209" lon="3.26666">
        <ele>40.602844</ele>
        <time>2018-03-20T13:44:03Z</time>
      </trkpt>
      <trkpt lat="50.52211" lon="3.2665">
        <ele>40.639687</ele>
        <time>2018-03-20T13:44:05Z</time>
      </trkpt>
      <trkpt lat="50.52213" lon="3.26635">
        <ele>40.633827</ele>
        <time>2018-03-20T13:44:07Z</time>
      </trkpt>
      <trkpt lat="50.52215" lon="3.26619">
        <ele>40.634724</ele>
        <time>2018-03-20T13:44:09Z</time>
      </trkpt>
      <trkpt lat="50.52218" lon="3.26604">
        <ele>40.630787</ele>
        <time>2018-03-20T13:44:11Z</time>
      </trkpt>
      <trkpt lat="50.5222" lon="3.26589">
        <ele>40.69701</ele>
        <time>2018-03-20T13:44:13Z</time>
      </trkpt>
      <trkpt lat="50.52222" lon="3.26574">
        <ele>40.77766</ele>
        <time>2018-03-20T13:44:15Z</time>
      </trkpt>
      <trkpt lat="50.52224" lon="3.26559">
        <ele>40.82856</ele>
        <time>2018-03-20T13:44:17Z</time>
      </trkpt>
      <trkpt lat="50.52227" lon="3.26544">
        <ele>40.908257</ele>
        <time>2018-03-20T13:44:19Z</time>
      </trkpt>
      <trkpt lat="50.52229" lon="3.26528">
        <ele>40.954693</ele>
        <time>2018-03-20T13:44:21Z</time>
      </trkpt>
      <trkpt lat="50.52231" lon="3.26513">
        <ele>41.023396</ele>
        <time>2018-03-20T13:44:23Z</time>
      </trkpt>
      <trkpt lat="50.52233" lon="3.26498">
        <ele>41.088673</ele>
        <time>2018-03-20T13:44:25Z</time>
      </trkpt>
      <trkpt lat="50.52235" lon="3.26482">
        <ele>41.186256</ele>
        <time>2018-03-20T13:44:27Z</time>
      </trkpt>
      <trkpt lat="50.52238" lon="3.26467">
        <ele>41.17437</ele>
        <time>2018-03-20T13:44:29Z</time>
      </trkpt>
      <trkpt lat="50.5224" lon="3.26451">
        <ele>41.257942</ele>
        <time>2018-03-20T13:44:31Z</time>
      </trkpt>
      <trkpt lat="50.52243" lon="3.26436">
        <ele>41.394341</ele>
        <time>2018-03-20T13:44:33Z</time>
      </trkpt>
      <trkpt lat="50.52245" lon="3.2642">
        <ele>41.453568</ele>
        <time>2018-03-20T13:44:35Z</time>
      </trkpt>
      <trkpt lat="50.52247" lon="3.26405">
        <ele>41.511482</ele>
        <time>2018-03-20T13:44:37Z</time>
      </trkpt>
      <trkpt lat="50.52249" lon="3.26389">
        <ele>41.554459</ele>
        <time>2018-03-20T13:44:39Z</time>
      </trkpt>
      <trkpt lat="50.52251" lon="3.26374">
        <ele>41.676064</ele>
        <time>2018-03-20T13:44:41Z</time>
      </trkpt>
      <trkpt lat="50.52254" lon="3.26358">
        <ele>41.760303</ele>
        <time>2018-03-20T13:44:43Z</time>
      </trkpt>
      <trkpt lat="50.52256" lon="3.26342">
        <ele>41.786179</ele>
        <time>2018-03-20T13:44:45Z</time>
      </trkpt>
      <trkpt lat="50.52258" lon="3.26326">
        <ele>41.777336</ele>
        <time>2018-03-20T13:44:47Z</time>
      </trkpt>
      <trkpt lat="50.52261" lon="3.26311">
        <ele>41.833492</ele>
        <time>2018-03-20T13:44:49Z</time>
      </trkpt>
      <trkpt lat="50.52263" lon="3.26296">
        <ele>41.901405</ele>
        <time>2018-03-20T13:44:51Z</time>
      </trkpt>
      <trkpt lat="50.52265" lon="3.2628">
        <ele>42.019127</ele>
        <time>2018-03-20T13:44:53Z</time>
      </trkpt>
      <trkpt lat="50.52268" lon="3.26265">
        <ele>42.058487</ele>
        <time>2018-03-20T13:44:55Z</time>
      </trkpt>
      <trkpt lat="50.5227" lon="3.2625">
        <ele>42.102089</ele>
        <time>2018-03-20T13:44:57Z</time>
      </trkpt>
      <trkpt lat="50.52272" lon="3.26235">
        <ele>42.203484</ele>
        <time>2018-03-20T13:44:59Z</time>
      </trkpt>
      <trkpt lat="50.52274" lon="3.2622">
        <ele>42.255608</ele>
        <time>2018-03-20T13:45:01Z</time>
      </trkpt>
      <trkpt lat="50.52277" lon="3.26204">
        <ele>42.323704</ele>
        <time>2018-03-20T13:45:03Z</time>
      </trkpt>
      <trkpt lat="50.52279" lon="3.26189">
        <ele>42.305264</ele>
        <time>2018-03-20T13:45:05Z</time>
      </trkpt>
      <trkpt lat="50.52282" lon="3.26173">
        <ele>42.383999</ele>
        <time>2018-03-20T13:45:07Z</time>
      </trkpt>
      <trkpt lat="50.52284" lon="3.26157">
        <ele>42.408249</ele>
        <time>2018-03-20T13:45:09Z</time>
      </trkpt>
      <trkpt lat="50.52286" lon="3.26141">
        <ele>42.445602</ele>
        <time>2018-03-20T13:45:11Z</time>
      </trkpt>
      <trkpt lat="50.52288" lon="3.26125">
        <ele>42.386318</ele>
        <time>2018-03-20T13:45:13Z</time>
      </trkpt>
      <trkpt lat="50.52291" lon="3.2611">
        <ele>42.375633</ele>
        <time>2018-03-20T13:45:15Z</time>
      </trkpt>
      <trkpt lat="50.52293" lon="3.26094">
        <ele>42.399429</ele>
        <time>2018-03-20T13:45:17Z</time>
      </trkpt>
      <trkpt lat="50.52295" lon="3.26078">
        <ele>42.434868</ele>
        <time>2018-03-20T13:45:19Z</time>
      </trkpt>
      <trkpt lat="50.52298" lon="3.26063">
        <ele>42.429817</ele>
        <time>2018-03-20T13:45:21Z</time>
      </trkpt>
      <trkpt lat="50.523" lon="3.26047">
        <ele>42.451546</ele>
        <time>2018-03-20T13:45:23Z</time>
      </trkpt>
      <trkpt lat="50.52302" lon="3.26031">
        <ele>42.476559</ele>
        <time>2018-03-20T13:45:25Z</time>
      </trkpt>
      <trkpt lat="50.52305" lon="3.26016">
        <ele>42.504025</ele>
        <time>2018-03-20T13:45:27Z</time>
      </trkpt>
      <trkpt lat="50.52307" lon="3.26001">
        <ele>42.504784</ele>
        <time>2018-03-20T13:45:29Z</time>
      </trkpt>
      <trkpt lat="50.52309" lon="3.25985">
        <ele>42.493393</ele>
        <time>2018-03-20T13:45:31Z</time>
      </trkpt>
      <trkpt lat="50.52312" lon="3.2597">
        <ele>42.480534</ele>
        <time>2018-03-20T13:45:33Z</time>
      </trkpt>
      <trkpt lat="50.52314" lon="3.25954">
        <ele>42.419468</ele>
        <time>2018-03-20T13:45:35Z</time>
      </trkpt>
      <trkpt lat="50.52317" lon="3.2594">
        <ele>42.356514</ele>
        <time>2018-03-20T13:45:37Z</time>
      </trkpt>
      <trkpt lat="50.52319" lon="3.25924">
        <ele>42.318111</ele>
        <time>2018-03-20T13:45:39Z</time>
      </trkpt>
      <trkpt lat="50.52321" lon="3.25909">
        <ele>42.301559</ele>
        <time>2018-03-20T13:45:41Z</time>
      </trkpt>
      <trkpt lat="50.52323" lon="3.25894">
        <ele>42.329582</ele>
        <time>2018-03-20T13:45:43Z</time>
      </trkpt>
      <trkpt lat="50.52325" lon="3.25878">
        <ele>42.386265</ele>
        <time>2018-03-20T13:45:45Z</time>
      </trkpt>
      <trkpt lat="50.52328" lon="3.25863">
        <ele>42.477062</ele>
        <time>2018-03-20T13:45:47Z</time>
      </trkpt>
      <trkpt lat="50.5233" lon="3.25848">
        <ele>42.501549</ele>
        <time>2018-03-20T13:45:49Z</time>
      </trkpt>
      <trkpt lat="50.52332" lon="3.25832">
        <ele>42.540054</ele>
        <time>2018-03-20T13:45:51Z</time>
      </trkpt>
      <trkpt lat="50.52334" lon="3.25817">
        <ele>42.647171</ele>
        <time>2018-03-20T13:45:53Z</time>
      </trkpt>
      <trkpt lat="50.52337" lon="3.25801">
        <ele>42.783993</ele>
        <time>2018-03-20T13:45:55Z</time>
      </trkpt>
      <trkpt lat="50.52339" lon="3.25785">
        <ele>42.849232</ele>
        <time>2018-03-20T13:45:57Z</time>
      </trkpt>
      <trkpt lat="50.52342" lon="3.25769">
        <ele>42.959072</ele>
        <time>2018-03-20T13:45:59Z</time>
      </trkpt>
      <trkpt lat="50.52344" lon="3.25753">
        <ele>43.101494</ele>
        <time>2018-03-20T13:46:01Z</time>
      </trkpt>
      <trkpt lat="50.52346" lon="3.25738">
        <ele>43.205696</ele>
        <time>2018-03-20T13:46:03Z</time>
      </trkpt>
      <trkpt lat="50.5235" lon="3.25722">
        <ele>43.290947</ele>
        <time>2018-03-20T13:46:05Z</time>
      </trkpt>
      <trkpt lat="50.52352" lon="3.25707">
        <ele>43.375587</ele>
        <time>2018-03-20T13:46:07Z</time>
      </trkpt>
      <trkpt lat="50.52356" lon="3.25692">
        <ele>43.464325</ele>
        <time>2018-03-20T13:46:09Z</time>
      </trkpt>
      <trkpt lat="50.52359" lon="3.25677">
        <ele>43.620476</ele>
        <time>2018-03-20T13:46:11Z</time>
      </trkpt>
      <trkpt lat="50.52364" lon="3.25662">
        <ele>43.658772</ele>
        <time>2018-03-20T13:46:13Z</time>
      </trkpt>
      <trkpt lat="50.52368" lon="3.25647">
        <ele>43.735523</ele>
        <time>2018-03-20T13:46:15Z</time>
      </trkpt>
      <trkpt lat="50.52373" lon="3.25633">
        <ele>43.85244</ele>
        <time>2018-03-20T13:46:17Z</time>
      </trkpt>
      <trkpt lat="50.52377" lon="3.25619">
        <ele>43.968391</ele>
        <time>2018-03-20T13:46:19Z</time>
      </trkpt>
      <trkpt lat="50.52382" lon="3.25605">
        <ele>44.064964</ele>
        <time>2018-03-20T13:46:21Z</time>
      </trkpt>
      <trkpt lat="50.52386" lon="3.25591">
        <ele>44.104221</ele>
        <time>2018-03-20T13:46:23Z</time>
      </trkpt>
      <trkpt lat="50.5239" lon="3.25577">
        <ele>44.120247</ele>
        <time>2018-03-20T13:46:25Z</time>
      </trkpt>
      <trkpt lat="50.52395" lon="3.25564">
        <ele>44.172363</ele>
        <time>2018-03-20T13:46:27Z</time>
      </trkpt>
      <trkpt lat="50.52399" lon="3.25549">
        <ele>44.202274</ele>
        <time>2018-03-20T13:46:29Z</time>
      </trkpt>
      <trkpt lat="50.52404" lon="3.25534">
        <ele>44.209328</ele>
        <time>2018-03-20T13:46:31Z</time>
      </trkpt>
      <trkpt lat="50.52408" lon="3.2552">
        <ele>44.222507</ele>
        <time>2018-03-20T13:46:33Z</time>
      </trkpt>
      <trkpt lat="50.52412" lon="3.25506">
        <ele>44.241318</ele>
        <time>2018-03-20T13:46:35Z</time>
      </trkpt>
      <trkpt lat="50.52417" lon="3.25492">
        <ele>44.30022</ele>
        <time>2018-03-20T13:46:37Z</time>
      </trkpt>
      <trkpt lat="50.52421" lon="3.25478">
        <ele>44.372063</ele>
        <time>2018-03-20T13:46:39Z</time>
      </trkpt>
      <trkpt lat="50.52425" lon="3.25463">
        <ele>44.349319</ele>
        <time>2018-03-20T13:46:41Z</time>
      </trkpt>
      <trkpt lat="50.5243" lon="3.25449">
        <ele>44.394756</ele>
        <time>2018-03-20T13:46:43Z</time>
      </trkpt>
      <trkpt lat="50.52434" lon="3.25434">
        <ele>44.448353</ele>
        <time>2018-03-20T13:46:45Z</time>
      </trkpt>
      <trkpt lat="50.52438" lon="3.2542">
        <ele>44.526436</ele>
        <time>2018-03-20T13:46:47Z</time>
      </trkpt>
      <trkpt lat="50.52443" lon="3.25407">
        <ele>44.646008</ele>
        <time>2018-03-20T13:46:49Z</time>
      </trkpt>
      <trkpt lat="50.52446" lon="3.25393">
        <ele>44.722401</ele>
        <time>2018-03-20T13:46:51Z</time>
      </trkpt>
      <trkpt lat="50.5245" lon="3.2538">
        <ele>44.812248</ele>
        <time>2018-03-20T13:46:53Z</time>
      </trkpt>
      <trkpt lat="50.52454" lon="3.25366">
        <ele>44.971363</ele>
        <time>2018-03-20T13:46:55Z</time>
      </trkpt>
      <trkpt lat="50.52458" lon="3.25352">
        <ele>45.117737</ele>
        <time>2018-03-20T13:46:57Z</time>
      </trkpt>
      <trkpt lat="50.52462" lon="3.25338">
        <ele>45.214912</ele>
        <time>2018-03-20T13:46:59Z</time>
      </trkpt>
      <trkpt lat="50.52466" lon="3.25324">
        <ele>45.29266</ele>
        <time>2018-03-20T13:47:01Z</time>
      </trkpt>
      <trkpt lat="50.5247" lon="3.2531">
        <ele>45.481743</ele>
        <time>2018-03-20T13:47:03Z</time>
      </trkpt>
      <trkpt lat="50.52473" lon="3.25296">
        <ele>45.655342</ele>
        <time>2018-03-20T13:47:05Z</time>
      </trkpt>
      <trkpt lat="50.52476" lon="3.25282">
        <ele>45.80027</ele>
        <time>2018-03-20T13:47:07Z</time>
      </trkpt>
      <trkpt lat="50.52479" lon="3.25268">
        <ele>45.967903</ele>
        <time>2018-03-20T13:47:09Z</time>
      </trkpt>
      <trkpt lat="50.52483" lon="3.25254">
        <ele>46.131905</ele>
        <time>2018-03-20T13:47:11Z</time>
      </trkpt>
      <trkpt lat="50.52486" lon="3.2524">
        <ele>46.304607</ele>
        <time>2018-03-20T13:47:13Z</time>
      </trkpt>
      <trkpt lat="50.5249" lon="3.25226">
        <ele>46.492226</ele>
        <time>2018-03-20T13:47:15Z</time>
      </trkpt>
      <trkpt lat="50.52493" lon="3.25211">
        <ele>46.683388</ele>
        <time>2018-03-20T13:47:17Z</time>
      </trkpt>
      <trkpt lat="50.52495" lon="3.25197">
        <ele>46.827763</ele>
        <time>2018-03-20T13:47:19Z</time>
      </trkpt>
      <trkpt lat="50.52498" lon="3.25182">
        <ele>46.915504</ele>
        <time>2018-03-20T13:47:21Z</time>
      </trkpt>
      <trkpt lat="50.52502" lon="3.25167">
        <ele>47.115444</ele>
        <time>2018-03-20T13:47:23Z</time>
      </trkpt>
      <trkpt lat="50.52505" lon="3.25153">
        <ele>47.230999</ele>
        <time>2018-03-20T13:47:25Z</time>
      </trkpt>
      <trkpt lat="50.52508" lon="3.25138">
        <ele>47.317772</ele>
        <time>2018-03-20T13:47:27Z</time>
      </trkpt>
      <trkpt lat="50.52511" lon="3.25123">
        <ele>47.442909</ele>
        <time>2018-03-20T13:47:29Z</time>
      </trkpt>
      <trkpt lat="50.52515" lon="3.25108">
        <ele>47.463722</ele>
        <time>2018-03-20T13:47:31Z</time>
      </trkpt>
      <trkpt lat="50.52517" lon="3.25093">
        <ele>47.532871</ele>
        <time>2018-03-20T13:47:33Z</time>
      </trkpt>
      <trkpt lat="50.5252" lon="3.25077">
        <ele>47.557793</ele>
        <time>2018-03-20T13:47:35Z</time>
      </trkpt>
      <trkpt lat="50.52523" lon="3.25062">
        <ele>47.603054</ele>
        <time>2018-03-20T13:47:37Z</time>
      </trkpt>
      <trkpt lat="50.52527" lon="3.25047">
        <ele>47.612614</ele>
        <time>2018-03-20T13:47:39Z</time>
      </trkpt>
      <trkpt lat="50.5253" lon="3.25032">
        <ele>47.684128</ele>
        <time>2018-03-20T13:47:41Z</time>
      </trkpt>
      <trkpt lat="50.52533" lon="3.25018">
        <ele>47.765251</ele>
        <time>2018-03-20T13:47:43Z</time>
      </trkpt>
      <trkpt lat="50.52537" lon="3.25003">
        <ele>47.793369</ele>
        <time>2018-03-20T13:47:45Z</time>
      </trkpt>
      <trkpt lat="50.5254" lon="3.24989">
        <ele>47.863533</ele>
        <time>2018-03-20T13:47:47Z</time>
      </trkpt>
      <trkpt lat="50.52544" lon="3.24974">
        <ele>47.916702</ele>
        <time>2018-03-20T13:47:49Z</time>
      </trkpt>
      <trkpt lat="50.52547" lon="3.2496">
        <ele>47.967239</ele>
        <time>2018-03-20T13:47:51Z</time>
      </trkpt>
      <trkpt lat="50.52551" lon="3.24946">
        <ele>48.080032</ele>
        <time>2018-03-20T13:47:53Z</time>
      </trkpt>
      <trkpt lat="50.52554" lon="3.24932">
        <ele>48.21323</ele>
        <time>2018-03-20T13:47:55Z</time>
      </trkpt>
      <trkpt lat="50.52558" lon="3.24919">
        <ele>48.312519</ele>
        <time>2018-03-20T13:47:57Z</time>
      </trkpt>
      <trkpt lat="50.52561" lon="3.24905">
        <ele>48.418785</ele>
        <time>2018-03-20T13:47:59Z</time>
      </trkpt>
      <trkpt lat="50.52565" lon="3.24891">
        <ele>48.560154</ele>
        <time>2018-03-20T13:48:01Z</time>
      </trkpt>
      <trkpt lat="50.52568" lon="3.24877">
        <ele>48.660057</ele>
        <time>2018-03-20T13:48:03Z</time>
      </trkpt>
      <trkpt lat="50.52572" lon="3.24862">
        <ele>48.827541</ele>
        <time>2018-03-20T13:48:05Z</time>
      </trkpt>
      <trkpt lat="50.52575" lon="3.24848">
        <ele>48.988197</ele>
        <time>2018-03-20T13:48:07Z</time>
      </trkpt>
      <trkpt lat="50.52578" lon="3.24834">
        <ele>49.164993</ele>
        <time>2018-03-20T13:48:09Z</time>
      </trkpt>
      <trkpt lat="50.52581" lon="3.2482">
        <ele>49.329521</ele>
        <time>2018-03-20T13:48:11Z</time>
      </trkpt>
      <trkpt lat="50.52585" lon="3.24806">
        <ele>49.555618</ele>
        <time>2018-03-20T13:48:13Z</time>
      </trkpt>
      <trkpt lat="50.52588" lon="3.24792">
        <ele>49.758064</ele>
        <time>2018-03-20T13:48:15Z</time>
      </trkpt>
      <trkpt lat="50.52591" lon="3.24778">
        <ele>49.970108</ele>
        <time>2018-03-20T13:48:17Z</time>
      </trkpt>
      <trkpt lat="50.52595" lon="3.24764">
        <ele>50.071426</ele>
        <time>2018-03-20T13:48:19Z</time>
      </trkpt>
      <trkpt lat="50.52598" lon="3.2475">
        <ele>50.259281</ele>
        <time>2018-03-20T13:48:21Z</time>
      </trkpt>
      <trkpt lat="50.52602" lon="3.24736">
        <ele>50.446926</ele>
        <time>2018-03-20T13:48:23Z</time>
      </trkpt>
      <trkpt lat="50.52605" lon="3.24722">
        <ele>50.558445</ele>
        <time>2018-03-20T13:48:25Z</time>
      </trkpt>
      <trkpt lat="50.52608" lon="3.24708">
        <ele>50.695278</ele>
        <time>2018-03-20T13:48:27Z</time>
      </trkpt>
      <trkpt lat="50.52611" lon="3.24694">
        <ele>50.866562</ele>
        <time>2018-03-20T13:48:29Z</time>
      </trkpt>
      <trkpt lat="50.52614" lon="3.24681">
        <ele>51.011269</ele>
        <time>2018-03-20T13:48:31Z</time>
      </trkpt>
      <trkpt lat="50.52618" lon="3.24667">
        <ele>51.171036</ele>
        <time>2018-03-20T13:48:33Z</time>
      </trkpt>
      <trkpt lat="50.5262" lon="3.24653">
        <ele>51.262829</ele>
        <time>2018-03-20T13:48:35Z</time>
      </trkpt>
      <trkpt lat="50.52623" lon="3.24639">
        <ele>51.39024</ele>
        <time>2018-03-20T13:48:37Z</time>
      </trkpt>
      <trkpt lat="50.52626" lon="3.24625">
        <ele>51.505695</ele>
        <time>2018-03-20T13:48:39Z</time>
      </trkpt>
      <trkpt lat="50.52629" lon="3.24611">
        <ele>51.617443</ele>
        <time>2018-03-20T13:48:41Z</time>
      </trkpt>
      <trkpt lat="50.52632" lon="3.24597">
        <ele>51.771515</ele>
        <time>2018-03-20T13:48:43Z</time>
      </trkpt>
      <trkpt lat="50.52634" lon="3.24584">
        <ele>51.920845</ele>
        <time>2018-03-20T13:48:45Z</time>
      </trkpt>
      <trkpt lat="50.52637" lon="3.2457">
        <ele>51.992348</ele>
        <time>2018-03-20T13:48:47Z</time>
      </trkpt>
      <trkpt lat="50.52639" lon="3.24555">
        <ele>52.14204</ele>
        <time>2018-03-20T13:48:49Z</time>
      </trkpt>
      <trkpt lat="50.5264" lon="3.24542">
        <ele>52.258667</ele>
        <time>2018-03-20T13:48:51Z</time>
      </trkpt>
      <trkpt lat="50.52641" lon="3.24528">
        <ele>52.327301</ele>
        <time>2018-03-20T13:48:53Z</time>
      </trkpt>
      <trkpt lat="50.52642" lon="3.24514">
        <ele>52.410358</ele>
        <time>2018-03-20T13:48:55Z</time>
      </trkpt>
      <trkpt lat="50.52644" lon="3.245">
        <ele>52.497864</ele>
        <time>2018-03-20T13:48:57Z</time>
      </trkpt>
      <trkpt lat="50.52644" lon="3.24486">
        <ele>52.451607</ele>
        <time>2018-03-20T13:48:59Z</time>
      </trkpt>
      <trkpt lat="50.52644" lon="3.24473">
        <ele>52.480774</ele>
        <time>2018-03-20T13:49:01Z</time>
      </trkpt>
      <trkpt lat="50.52645" lon="3.2446">
        <ele>52.512646</ele>
        <time>2018-03-20T13:49:03Z</time>
      </trkpt>
      <trkpt lat="50.52646" lon="3.24447">
        <ele>52.567253</ele>
        <time>2018-03-20T13:49:05Z</time>
      </trkpt>
      <trkpt lat="50.52646" lon="3.24435">
        <ele>52.573181</ele>
        <time>2018-03-20T13:49:07Z</time>
      </trkpt>
      <trkpt lat="50.52648" lon="3.24423">
        <ele>52.533447</ele>
        <time>2018-03-20T13:49:09Z</time>
      </trkpt>
      <trkpt lat="50.52651" lon="3.24413">
        <ele>52.568714</ele>
        <time>2018-03-20T13:49:11Z</time>
      </trkpt>
      <trkpt lat="50.52654" lon="3.24403">
        <ele>52.578094</ele>
        <time>2018-03-20T13:49:13Z</time>
      </trkpt>
      <trkpt lat="50.52657" lon="3.24392">
        <ele>52.594749</ele>
        <time>2018-03-20T13:49:15Z</time>
      </trkpt>
      <trkpt lat="50.52662" lon="3.24382">
        <ele>52.59914</ele>
        <time>2018-03-20T13:49:17Z</time>
      </trkpt>
      <trkpt lat="50.52666" lon="3.2437">
        <ele>52.54406</ele>
        <time>2018-03-20T13:49:19Z</time>
      </trkpt>
      <trkpt lat="50.5267" lon="3.24357">
        <ele>52.542198</ele>
        <time>2018-03-20T13:49:21Z</time>
      </trkpt>
      <trkpt lat="50.52675" lon="3.24345">
        <ele>52.502495</ele>
        <time>2018-03-20T13:49:23Z</time>
      </trkpt>
      <trkpt lat="50.52679" lon="3.24332">
        <ele>52.458942</ele>
        <time>2018-03-20T13:49:25Z</time>
      </trkpt>
      <trkpt lat="50.52684" lon="3.24318">
        <ele>52.408043</ele>
        <time>2018-03-20T13:49:27Z</time>
      </trkpt>
      <trkpt lat="50.52689" lon="3.24305">
        <ele>52.334633</ele>
        <time>2018-03-20T13:49:29Z</time>
      </trkpt>
      <trkpt lat="50.52694" lon="3.24292">
        <ele>52.277576</ele>
        <time>2018-03-20T13:49:31Z</time>
      </trkpt>
      <trkpt lat="50.52698" lon="3.24278">
        <ele>52.223011</ele>
        <time>2018-03-20T13:49:33Z</time>
      </trkpt>
      <trkpt lat="50.52703" lon="3.24265">
        <ele>52.225475</ele>
        <time>2018-03-20T13:49:35Z</time>
      </trkpt>
      <trkpt lat="50.52707" lon="3.24251">
        <ele>52.150856</ele>
        <time>2018-03-20T13:49:37Z</time>
      </trkpt>
      <trkpt lat="50.52712" lon="3.24238">
        <ele>52.071472</ele>
        <time>2018-03-20T13:49:39Z</time>
      </trkpt>
      <trkpt lat="50.52716" lon="3.24224">
        <ele>52.079365</ele>
        <time>2018-03-20T13:49:41Z</time>
      </trkpt>
      <trkpt lat="50.52719" lon="3.2421">
        <ele>52.064617</ele>
        <time>2018-03-20T13:49:43Z</time>
      </trkpt>
      <trkpt lat="50.52722" lon="3.24195">
        <ele>52.000038</ele>
        <time>2018-03-20T13:49:45Z</time>
      </trkpt>
      <trkpt lat="50.52723" lon="3.2418">
        <ele>51.917183</ele>
        <time>2018-03-20T13:49:47Z</time>
      </trkpt>
      <trkpt lat="50.52724" lon="3.24165">
        <ele>51.878059</ele>
        <time>2018-03-20T13:49:49Z</time>
      </trkpt>
      <trkpt lat="50.52723" lon="3.2415">
        <ele>51.823822</ele>
        <time>2018-03-20T13:49:51Z</time>
      </trkpt>
      <trkpt lat="50.52722" lon="3.24135">
        <ele>51.706963</ele>
        <time>2018-03-20T13:49:53Z</time>
      </trkpt>
      <trkpt lat="50.5272" lon="3.24119">
        <ele>51.547249</ele>
        <time>2018-03-20T13:49:55Z</time>
      </trkpt>
      <trkpt lat="50.52718" lon="3.24103">
        <ele>51.397514</ele>
        <time>2018-03-20T13:49:57Z</time>
      </trkpt>
      <trkpt lat="50.52715" lon="3.24088">
        <ele>51.330559</ele>
        <time>2018-03-20T13:49:59Z</time>
      </trkpt>
      <trkpt lat="50.52713" lon="3.24073">
        <ele>51.227898</ele>
        <time>2018-03-20T13:50:01Z</time>
      </trkpt>
      <trkpt lat="50.5271" lon="3.24057">
        <ele>51.046333</ele>
        <time>2018-03-20T13:50:03Z</time>
      </trkpt>
      <trkpt lat="50.52708" lon="3.24041">
        <ele>50.901134</ele>
        <time>2018-03-20T13:50:05Z</time>
      </trkpt>
      <trkpt lat="50.52705" lon="3.24026">
        <ele>50.700119</ele>
        <time>2018-03-20T13:50:07Z</time>
      </trkpt>
      <trkpt lat="50.52702" lon="3.2401">
        <ele>50.542942</ele>
        <time>2018-03-20T13:50:09Z</time>
      </trkpt>
      <trkpt lat="50.527" lon="3.23995">
        <ele>50.328102</ele>
        <time>2018-03-20T13:50:11Z</time>
      </trkpt>
      <trkpt lat="50.52698" lon="3.23981">
        <ele>50.169216</ele>
        <time>2018-03-20T13:50:13Z</time>
      </trkpt>
      <trkpt lat="50.52696" lon="3.23966">
        <ele>50.036594</ele>
        <time>2018-03-20T13:50:15Z</time>
      </trkpt>
      <trkpt lat="50.52693" lon="3.23951">
        <ele>49.895988</ele>
        <time>2018-03-20T13:50:17Z</time>
      </trkpt>
      <trkpt lat="50.52691" lon="3.23936">
        <ele>49.75872</ele>
        <time>2018-03-20T13:50:19Z</time>
      </trkpt>
      <trkpt lat="50.52688" lon="3.23921">
        <ele>49.684525</ele>
        <time>2018-03-20T13:50:21Z</time>
      </trkpt>
      <trkpt lat="50.52685" lon="3.23906">
        <ele>49.585331</ele>
        <time>2018-03-20T13:50:23Z</time>
      </trkpt>
      <trkpt lat="50.52683" lon="3.23891">
        <ele>49.528374</ele>
        <time>2018-03-20T13:50:25Z</time>
      </trkpt>
      <trkpt lat="50.52681" lon="3.23876">
        <ele>49.489937</ele>
        <time>2018-03-20T13:50:27Z</time>
      </trkpt>
      <trkpt lat="50.52678" lon="3.23862">
        <ele>49.409996</ele>
        <time>2018-03-20T13:50:29Z</time>
      </trkpt>
      <trkpt lat="50.52676" lon="3.23846">
        <ele>49.370171</ele>
        <time>2018-03-20T13:50:31Z</time>
      </trkpt>
      <trkpt lat="50.52674" lon="3.23832">
        <ele>49.292458</ele>
        <time>2018-03-20T13:50:33Z</time>
      </trkpt>
      <trkpt lat="50.52671" lon="3.23817">
        <ele>49.2855</ele>
        <time>2018-03-20T13:50:35Z</time>
      </trkpt>
      <trkpt lat="50.52669" lon="3.23803">
        <ele>49.3158</ele>
        <time>2018-03-20T13:50:37Z</time>
      </trkpt>
      <trkpt lat="50.52667" lon="3.2379">
        <ele>49.342247</ele>
        <time>2018-03-20T13:50:39Z</time>
      </trkpt>
      <trkpt lat="50.52664" lon="3.23778">
        <ele>49.354214</ele>
        <time>2018-03-20T13:50:41Z</time>
      </trkpt>
      <trkpt lat="50.52662" lon="3.23764">
        <ele>49.385521</ele>
        <time>2018-03-20T13:50:43Z</time>
      </trkpt>
      <trkpt lat="50.52659" lon="3.2375">
        <ele>49.446194</ele>
        <time>2018-03-20T13:50:45Z</time>
      </trkpt>
      <trkpt lat="50.52657" lon="3.23735">
        <ele>49.467247</ele>
        <time>2018-03-20T13:50:47Z</time>
      </trkpt>
      <trkpt lat="50.52656" lon="3.23719">
        <ele>49.522732</ele>
        <time>2018-03-20T13:50:49Z</time>
      </trkpt>
      <trkpt lat="50.52655" lon="3.23704">
        <ele>49.535099</ele>
        <time>2018-03-20T13:50:51Z</time>
      </trkpt>
      <trkpt lat="50.52655" lon="3.23689">
        <ele>49.574448</ele>
        <time>2018-03-20T13:50:53Z</time>
      </trkpt>
      <trkpt lat="50.52655" lon="3.23673">
        <ele>49.61628</ele>
        <time>2018-03-20T13:50:55Z</time>
      </trkpt>
      <trkpt lat="50.52655" lon="3.23658">
        <ele>49.563515</ele>
        <time>2018-03-20T13:50:57Z</time>
      </trkpt>
      <trkpt lat="50.52656" lon="3.23643">
        <ele>49.543739</ele>
        <time>2018-03-20T13:50:59Z</time>
      </trkpt>
      <trkpt lat="50.52656" lon="3.23628">
        <ele>49.516945</ele>
        <time>2018-03-20T13:51:01Z</time>
      </trkpt>
      <trkpt lat="50.52655" lon="3.23613">
        <ele>49.437092</ele>
        <time>2018-03-20T13:51:03Z</time>
      </trkpt>
      <trkpt lat="50.52655" lon="3.23598">
        <ele>49.37513</ele>
        <time>2018-03-20T13:51:05Z</time>
      </trkpt>
      <trkpt lat="50.52656" lon="3.23583">
        <ele>49.296886</ele>
        <time>2018-03-20T13:51:07Z</time>
      </trkpt>
      <trkpt lat="50.52657" lon="3.23567">
        <ele>49.253056</ele>
        <time>2018-03-20T13:51:09Z</time>
      </trkpt>
      <trkpt lat="50.52659" lon="3.23552">
        <ele>49.203621</ele>
        <time>2018-03-20T13:51:11Z</time>
      </trkpt>
      <trkpt lat="50.52661" lon="3.23537">
        <ele>49.178459</ele>
        <time>2018-03-20T13:51:13Z</time>
      </trkpt>
      <trkpt lat="50.52664" lon="3.23522">
        <ele>49.104927</ele>
        <time>2018-03-20T13:51:15Z</time>
      </trkpt>
      <trkpt lat="50.52668" lon="3.23508">
        <ele>49.040306</ele>
        <time>2018-03-20T13:51:17Z</time>
      </trkpt>
      <trkpt lat="50.52671" lon="3.23494">
        <ele>48.947716</ele>
        <time>2018-03-20T13:51:19Z</time>
      </trkpt>
      <trkpt lat="50.52676" lon="3.23479">
        <ele>48.80394</ele>
        <time>2018-03-20T13:51:21Z</time>
      </trkpt>
      <trkpt lat="50.5268" lon="3.23465">
        <ele>48.674</ele>
        <time>2018-03-20T13:51:23Z</time>
      </trkpt>
      <trkpt lat="50.52685" lon="3.23451">
        <ele>48.554924</ele>
        <time>2018-03-20T13:51:25Z</time>
      </trkpt>
      <trkpt lat="50.5269" lon="3.23437">
        <ele>48.431816</ele>
        <time>2018-03-20T13:51:27Z</time>
      </trkpt>
      <trkpt lat="50.52694" lon="3.23423">
        <ele>48.309284</ele>
        <time>2018-03-20T13:51:29Z</time>
      </trkpt>
      <trkpt lat="50.52698" lon="3.2341">
        <ele>48.174801</ele>
        <time>2018-03-20T13:51:31Z</time>
      </trkpt>
      <trkpt lat="50.52702" lon="3.23397">
        <ele>48.059212</ele>
        <time>2018-03-20T13:51:33Z</time>
      </trkpt>
      <trkpt lat="50.52706" lon="3.23384">
        <ele>47.902187</ele>
        <time>2018-03-20T13:51:35Z</time>
      </trkpt>
      <trkpt lat="50.5271" lon="3.2337">
        <ele>47.732933</ele>
        <time>2018-03-20T13:51:37Z</time>
      </trkpt>
      <trkpt lat="50.52715" lon="3.23358">
        <ele>47.588676</ele>
        <time>2018-03-20T13:51:39Z</time>
      </trkpt>
      <trkpt lat="50.52721" lon="3.23348">
        <ele>47.435558</ele>
        <time>2018-03-20T13:51:41Z</time>
      </trkpt>
      <trkpt lat="50.52728" lon="3.23338">
        <ele>47.274223</ele>
        <time>2018-03-20T13:51:43Z</time>
      </trkpt>
      <trkpt lat="50.52734" lon="3.23326">
        <ele>47.145058</ele>
        <time>2018-03-20T13:51:45Z</time>
      </trkpt>
      <trkpt lat="50.5274" lon="3.23313">
        <ele>46.922375</ele>
        <time>2018-03-20T13:51:47Z</time>
      </trkpt>
      <trkpt lat="50.52744" lon="3.23298">
        <ele>46.848045</ele>
        <time>2018-03-20T13:51:49Z</time>
      </trkpt>
      <trkpt lat="50.52747" lon="3.23284">
        <ele>46.716225</ele>
        <time>2018-03-20T13:51:51Z</time>
      </trkpt>
      <trkpt lat="50.5275" lon="3.23269">
        <ele>46.533367</ele>
        <time>2018-03-20T13:51:53Z</time>
      </trkpt>
      <trkpt lat="50.52752" lon="3.23254">
        <ele>46.340508</ele>
        <time>2018-03-20T13:51:55Z</time>
      </trkpt>
      <trkpt lat="50.52755" lon="3.2324">
        <ele>46.211281</ele>
        <time>2018-03-20T13:51:57Z</time>
      </trkpt>
      <trkpt lat="50.52758" lon="3.23226">
        <ele>46.06572</ele>
        <time>2018-03-20T13:51:59Z</time>
      </trkpt>
      <trkpt lat="50.52761" lon="3.23212">
        <ele>45.974949</ele>
        <time>2018-03-20T13:52:01Z</time>
      </trkpt>
      <trkpt lat="50.52763" lon="3.23198">
        <ele>45.90168</ele>
        <time>2018-03-20T13:52:03Z</time>
      </trkpt>
      <trkpt lat="50.52766" lon="3.23184">
        <ele>45.814575</ele>
        <time>2018-03-20T13:52:05Z</time>
      </trkpt>
      <trkpt lat="50.5277" lon="3.2317">
        <ele>45.765759</ele>
        <time>2018-03-20T13:52:07Z</time>
      </trkpt>
      <trkpt lat="50.52772" lon="3.23155">
        <ele>45.693176</ele>
        <time>2018-03-20T13:52:09Z</time>
      </trkpt>
      <trkpt lat="50.52775" lon="3.2314">
        <ele>45.629402</ele>
        <time>2018-03-20T13:52:11Z</time>
      </trkpt>
      <trkpt lat="50.52778" lon="3.23126">
        <ele>45.628834</ele>
        <time>2018-03-20T13:52:13Z</time>
      </trkpt>
      <trkpt lat="50.52781" lon="3.23112">
        <ele>45.706409</ele>
        <time>2018-03-20T13:52:15Z</time>
      </trkpt>
      <trkpt lat="50.52784" lon="3.23097">
        <ele>45.715851</ele>
        <time>2018-03-20T13:52:17Z</time>
      </trkpt>
      <trkpt lat="50.52788" lon="3.23083">
        <ele>45.769348</ele>
        <time>2018-03-20T13:52:19Z</time>
      </trkpt>
      <trkpt lat="50.52792" lon="3.2307">
        <ele>45.815296</ele>
        <time>2018-03-20T13:52:21Z</time>
      </trkpt>
      <trkpt lat="50.52797" lon="3.23057">
        <ele>45.882946</ele>
        <time>2018-03-20T13:52:23Z</time>
      </trkpt>
      <trkpt lat="50.52803" lon="3.23045">
        <ele>45.964531</ele>
        <time>2018-03-20T13:52:25Z</time>
      </trkpt>
      <trkpt lat="50.52809" lon="3.23032">
        <ele>46.034405</ele>
        <time>2018-03-20T13:52:27Z</time>
      </trkpt>
      <trkpt lat="50.52815" lon="3.2302">
        <ele>46.187519</ele>
        <time>2018-03-20T13:52:29Z</time>
      </trkpt>
      <trkpt lat="50.52821" lon="3.23006">
        <ele>46.24995</ele>
        <time>2018-03-20T13:52:31Z</time>
      </trkpt>
      <trkpt lat="50.52827" lon="3.22993">
        <ele>46.378162</ele>
        <time>2018-03-20T13:52:33Z</time>
      </trkpt>
      <trkpt lat="50.52833" lon="3.2298">
        <ele>46.523964</ele>
        <time>2018-03-20T13:52:35Z</time>
      </trkpt>
      <trkpt lat="50.52839" lon="3.22967">
        <ele>46.648449</ele>
        <time>2018-03-20T13:52:37Z</time>
      </trkpt>
      <trkpt lat="50.52844" lon="3.22954">
        <ele>46.770103</ele>
        <time>2018-03-20T13:52:39Z</time>
      </trkpt>
      <trkpt lat="50.5285" lon="3.22941">
        <ele>46.890907</ele>
        <time>2018-03-20T13:52:41Z</time>
      </trkpt>
      <trkpt lat="50.52855" lon="3.22929">
        <ele>46.973854</ele>
        <time>2018-03-20T13:52:43Z</time>
      </trkpt>
      <trkpt lat="50.52861" lon="3.22916">
        <ele>46.971119</ele>
        <time>2018-03-20T13:52:45Z</time>
      </trkpt>
      <trkpt lat="50.52866" lon="3.22903">
        <ele>46.965172</ele>
        <time>2018-03-20T13:52:47Z</time>
      </trkpt>
      <trkpt lat="50.52872" lon="3.2289">
        <ele>47.003052</ele>
        <time>2018-03-20T13:52:49Z</time>
      </trkpt>
      <trkpt lat="50.52878" lon="3.22876">
        <ele>47.052227</ele>
        <time>2018-03-20T13:52:51Z</time>
      </trkpt>
      <trkpt lat="50.52884" lon="3.22864">
        <ele>47.012806</ele>
        <time>2018-03-20T13:52:53Z</time>
      </trkpt>
      <trkpt lat="50.52889" lon="3.22851">
        <ele>47.02998</ele>
        <time>2018-03-20T13:52:55Z</time>
      </trkpt>
      <trkpt lat="50.52895" lon="3.22838">
        <ele>46.974403</ele>
        <time>2018-03-20T13:52:57Z</time>
      </trkpt>
      <trkpt lat="50.529" lon="3.22825">
        <ele>46.961845</ele>
        <time>2018-03-20T13:52:59Z</time>
      </trkpt>
      <trkpt lat="50.52906" lon="3.22812">
        <ele>46.881004</ele>
        <time>2018-03-20T13:53:01Z</time>
      </trkpt>
      <trkpt lat="50.52912" lon="3.22799">
        <ele>46.778164</ele>
        <time>2018-03-20T13:53:03Z</time>
      </trkpt>
      <trkpt lat="50.52918" lon="3.22786">
        <ele>46.707241</ele>
        <time>2018-03-20T13:53:05Z</time>
      </trkpt>
      <trkpt lat="50.52924" lon="3.22773">
        <ele>46.660698</ele>
        <time>2018-03-20T13:53:07Z</time>
      </trkpt>
      <trkpt lat="50.5293" lon="3.2276">
        <ele>46.549618</ele>
        <time>2018-03-20T13:53:09Z</time>
      </trkpt>
      <trkpt lat="50.52936" lon="3.22746">
        <ele>46.467056</ele>
        <time>2018-03-20T13:53:11Z</time>
      </trkpt>
      <trkpt lat="50.52942" lon="3.22732">
        <ele>46.351688</ele>
        <time>2018-03-20T13:53:13Z</time>
      </trkpt>
      <trkpt lat="50.52947" lon="3.22718">
        <ele>46.233284</ele>
        <time>2018-03-20T13:53:15Z</time>
      </trkpt>
      <trkpt lat="50.52953" lon="3.22704">
        <ele>46.112404</ele>
        <time>2018-03-20T13:53:17Z</time>
      </trkpt>
      <trkpt lat="50.52957" lon="3.22691">
        <ele>46.005875</ele>
        <time>2018-03-20T13:53:19Z</time>
      </trkpt>
      <trkpt lat="50.52962" lon="3.22677">
        <ele>45.917534</ele>
        <time>2018-03-20T13:53:21Z</time>
      </trkpt>
      <trkpt lat="50.52966" lon="3.22663">
        <ele>45.827675</ele>
        <time>2018-03-20T13:53:23Z</time>
      </trkpt>
      <trkpt lat="50.52971" lon="3.22648">
        <ele>45.783962</ele>
        <time>2018-03-20T13:53:25Z</time>
      </trkpt>
      <trkpt lat="50.52976" lon="3.22634">
        <ele>45.806248</ele>
        <time>2018-03-20T13:53:27Z</time>
      </trkpt>
      <trkpt lat="50.5298" lon="3.2262">
        <ele>45.784107</ele>
        <time>2018-03-20T13:53:29Z</time>
      </trkpt>
      <trkpt lat="50.52985" lon="3.22606">
        <ele>45.720879</ele>
        <time>2018-03-20T13:53:31Z</time>
      </trkpt>
      <trkpt lat="50.52989" lon="3.22591">
        <ele>45.71347</ele>
        <time>2018-03-20T13:53:33Z</time>
      </trkpt>
      <trkpt lat="50.52993" lon="3.22576">
        <ele>45.697853</ele>
        <time>2018-03-20T13:53:35Z</time>
      </trkpt>
      <trkpt lat="50.52996" lon="3.22561">
        <ele>45.665031</ele>
        <time>2018-03-20T13:53:37Z</time>
      </trkpt>
      <trkpt lat="50.52999" lon="3.22546">
        <ele>45.614079</ele>
        <time>2018-03-20T13:53:39Z</time>
      </trkpt>
      <trkpt lat="50.53002" lon="3.2253">
        <ele>45.55513</ele>
        <time>2018-03-20T13:53:41Z</time>
      </trkpt>
      <trkpt lat="50.53005" lon="3.22515">
        <ele>45.548069</ele>
        <time>2018-03-20T13:53:43Z</time>
      </trkpt>
      <trkpt lat="50.53008" lon="3.22499">
        <ele>45.554985</ele>
        <time>2018-03-20T13:53:45Z</time>
      </trkpt>
      <trkpt lat="50.53011" lon="3.22484">
        <ele>45.437599</ele>
        <time>2018-03-20T13:53:47Z</time>
      </trkpt>
      <trkpt lat="50.53014" lon="3.22468">
        <ele>45.413078</ele>
        <time>2018-03-20T13:53:49Z</time>
      </trkpt>
      <trkpt lat="50.53018" lon="3.22453">
        <ele>45.377995</ele>
        <time>2018-03-20T13:53:51Z</time>
      </trkpt>
      <trkpt lat="50.53022" lon="3.22438">
        <ele>45.307171</ele>
        <time>2018-03-20T13:53:53Z</time>
      </trkpt>
      <trkpt lat="50.53025" lon="3.22423">
        <ele>45.275063</ele>
        <time>2018-03-20T13:53:55Z</time>
      </trkpt>
      <trkpt lat="50.5303" lon="3.22408">
        <ele>45.206215</ele>
        <time>2018-03-20T13:53:57Z</time>
      </trkpt>
      <trkpt lat="50.53035" lon="3.22394">
        <ele>45.12989</ele>
        <time>2018-03-20T13:53:59Z</time>
      </trkpt>
      <trkpt lat="50.53039" lon="3.22379">
        <ele>45.003212</ele>
        <time>2018-03-20T13:54:01Z</time>
      </trkpt>
      <trkpt lat="50.53044" lon="3.22365">
        <ele>44.860725</ele>
        <time>2018-03-20T13:54:03Z</time>
      </trkpt>
      <trkpt lat="50.53048" lon="3.2235">
        <ele>44.723507</ele>
        <time>2018-03-20T13:54:05Z</time>
      </trkpt>
      <trkpt lat="50.53053" lon="3.22336">
        <ele>44.615749</ele>
        <time>2018-03-20T13:54:07Z</time>
      </trkpt>
      <trkpt lat="50.53057" lon="3.22322">
        <ele>44.38427</ele>
        <time>2018-03-20T13:54:09Z</time>
      </trkpt>
      <trkpt lat="50.53061" lon="3.22307">
        <ele>44.188347</ele>
        <time>2018-03-20T13:54:11Z</time>
      </trkpt>
      <trkpt lat="50.53065" lon="3.22294">
        <ele>43.946495</ele>
        <time>2018-03-20T13:54:13Z</time>
      </trkpt>
      <trkpt lat="50.53069" lon="3.22281">
        <ele>43.757385</ele>
        <time>2018-03-20T13:54:15Z</time>
      </trkpt>
      <trkpt lat="50.53073" lon="3.22269">
        <ele>43.655174</ele>
        <time>2018-03-20T13:54:17Z</time>
      </trkpt>
      <trkpt lat="50.53078" lon="3.2226">
        <ele>43.41658</ele>
        <time>2018-03-20T13:54:19Z</time>
      </trkpt>
      <trkpt lat="50.53084" lon="3.22256">
        <ele>43.216629</ele>
        <time>2018-03-20T13:54:21Z</time>
      </trkpt>
      <trkpt lat="50.53091" lon="3.22251">
        <ele>43.074913</ele>
        <time>2018-03-20T13:54:23Z</time>
      </trkpt>
      <trkpt lat="50.531" lon="3.22246">
        <ele>42.828846</ele>
        <time>2018-03-20T13:54:25Z</time>
      </trkpt>
      <trkpt lat="50.5311" lon="3.22246">
        <ele>42.578449</ele>
        <time>2018-03-20T13:54:27Z</time>
      </trkpt>
      <trkpt lat="50.53121" lon="3.22248">
        <ele>42.434944</ele>
        <time>2018-03-20T13:54:29Z</time>
      </trkpt>
      <trkpt lat="50.53132" lon="3.22248">
        <ele>42.226398</ele>
        <time>2018-03-20T13:54:31Z</time>
      </trkpt>
      <trkpt lat="50.53142" lon="3.22249">
        <ele>42.038216</ele>
        <time>2018-03-20T13:54:33Z</time>
      </trkpt>
      <trkpt lat="50.53152" lon="3.2225">
        <ele>41.838913</ele>
        <time>2018-03-20T13:54:35Z</time>
      </trkpt>
      <trkpt lat="50.53162" lon="3.22252">
        <ele>41.605427</ele>
        <time>2018-03-20T13:54:37Z</time>
      </trkpt>
      <trkpt lat="50.53172" lon="3.22253">
        <ele>41.385201</ele>
        <time>2018-03-20T13:54:39Z</time>
      </trkpt>
      <trkpt lat="50.53183" lon="3.22253">
        <ele>41.178757</ele>
        <time>2018-03-20T13:54:41Z</time>
      </trkpt>
      <trkpt lat="50.53194" lon="3.22254">
        <ele>40.93198</ele>
        <time>2018-03-20T13:54:43Z</time>
      </trkpt>
      <trkpt lat="50.53206" lon="3.22255">
        <ele>40.69239</ele>
        <time>2018-03-20T13:54:45Z</time>
      </trkpt>
      <trkpt lat="50.53216" lon="3.22254">
        <ele>40.457363</ele>
        <time>2018-03-20T13:54:47Z</time>
      </trkpt>
      <trkpt lat="50.53226" lon="3.22252">
        <ele>40.1856</ele>
        <time>2018-03-20T13:54:49Z</time>
      </trkpt>
      <trkpt lat="50.53236" lon="3.2225">
        <ele>39.944862</ele>
        <time>2018-03-20T13:54:51Z</time>
      </trkpt>
      <trkpt lat="50.53246" lon="3.22247">
        <ele>39.830788</ele>
        <time>2018-03-20T13:54:53Z</time>
      </trkpt>
      <trkpt lat="50.53256" lon="3.22244">
        <ele>39.646202</ele>
        <time>2018-03-20T13:54:55Z</time>
      </trkpt>
      <trkpt lat="50.53266" lon="3.22241">
        <ele>39.455029</ele>
        <time>2018-03-20T13:54:57Z</time>
      </trkpt>
      <trkpt lat="50.53276" lon="3.22239">
        <ele>39.249352</ele>
        <time>2018-03-20T13:54:59Z</time>
      </trkpt>
      <trkpt lat="50.53286" lon="3.22236">
        <ele>38.976559</ele>
        <time>2018-03-20T13:55:01Z</time>
      </trkpt>
      <trkpt lat="50.53297" lon="3.22233">
        <ele>38.737423</ele>
        <time>2018-03-20T13:55:03Z</time>
      </trkpt>
      <trkpt lat="50.53307" lon="3.2223">
        <ele>38.449402</ele>
        <time>2018-03-20T13:55:05Z</time>
      </trkpt>
      <trkpt lat="50.53318" lon="3.22225">
        <ele>38.234287</ele>
        <time>2018-03-20T13:55:07Z</time>
      </trkpt>
      <trkpt lat="50.53328" lon="3.2222">
        <ele>38.007599</ele>
        <time>2018-03-20T13:55:09Z</time>
      </trkpt>
      <trkpt lat="50.53338" lon="3.22213">
        <ele>37.812962</ele>
        <time>2018-03-20T13:55:11Z</time>
      </trkpt>
      <trkpt lat="50.53347" lon="3.22205">
        <ele>37.565136</ele>
        <time>2018-03-20T13:55:13Z</time>
      </trkpt>
      <trkpt lat="50.53355" lon="3.22195">
        <ele>37.35038</ele>
        <time>2018-03-20T13:55:15Z</time>
      </trkpt>
      <trkpt lat="50.53365" lon="3.22184">
        <ele>37.087059</ele>
        <time>2018-03-20T13:55:17Z</time>
      </trkpt>
      <trkpt lat="50.53373" lon="3.22173">
        <ele>36.868523</ele>
        <time>2018-03-20T13:55:19Z</time>
      </trkpt>
      <trkpt lat="50.5338" lon="3.22162">
        <ele>36.628929</ele>
        <time>2018-03-20T13:55:21Z</time>
      </trkpt>
      <trkpt lat="50.53388" lon="3.22152">
        <ele>36.417076</ele>
        <time>2018-03-20T13:55:23Z</time>
      </trkpt>
      <trkpt lat="50.53396" lon="3.22143">
        <ele>36.213696</ele>
        <time>2018-03-20T13:55:25Z</time>
      </trkpt>
      <trkpt lat="50.53405" lon="3.22135">
        <ele>36.050671</ele>
        <time>2018-03-20T13:55:27Z</time>
      </trkpt>
      <trkpt lat="50.53414" lon="3.22129">
        <ele>35.864861</ele>
        <time>2018-03-20T13:55:29Z</time>
      </trkpt>
      <trkpt lat="50.53423" lon="3.22122">
        <ele>35.805656</ele>
        <time>2018-03-20T13:55:31Z</time>
      </trkpt>
      <trkpt lat="50.53433" lon="3.22117">
        <ele>35.653625</ele>
        <time>2018-03-20T13:55:33Z</time>
      </trkpt>
      <trkpt lat="50.53442" lon="3.2211">
        <ele>35.417397</ele>
        <time>2018-03-20T13:55:35Z</time>
      </trkpt>
      <trkpt lat="50.53452" lon="3.22103">
        <ele>35.231709</ele>
        <time>2018-03-20T13:55:37Z</time>
      </trkpt>
      <trkpt lat="50.5346" lon="3.22096">
        <ele>35.077442</ele>
        <time>2018-03-20T13:55:39Z</time>
      </trkpt>
      <trkpt lat="50.53467" lon="3.22088">
        <ele>34.92894</ele>
        <time>2018-03-20T13:55:41Z</time>
      </trkpt>
      <trkpt lat="50.53474" lon="3.22081">
        <ele>34.826195</ele>
        <time>2018-03-20T13:55:43Z</time>
      </trkpt>
      <trkpt lat="50.53482" lon="3.22072">
        <ele>34.750191</ele>
        <time>2018-03-20T13:55:45Z</time>
      </trkpt>
      <trkpt lat="50.53488" lon="3.22063">
        <ele>34.593567</ele>
        <time>2018-03-20T13:55:47Z</time>
      </trkpt>
      <trkpt lat="50.53494" lon="3.22053">
        <ele>34.457439</ele>
        <time>2018-03-20T13:55:49Z</time>
      </trkpt>
      <trkpt lat="50.53499" lon="3.22044">
        <ele>34.280506</ele>
        <time>2018-03-20T13:55:51Z</time>
      </trkpt>
      <trkpt lat="50.53504" lon="3.22035">
        <ele>34.119926</ele>
        <time>2018-03-20T13:55:53Z</time>
      </trkpt>
      <trkpt lat="50.53508" lon="3.22026">
        <ele>33.964046</ele>
        <time>2018-03-20T13:55:55Z</time>
      </trkpt>
      <trkpt lat="50.53513" lon="3.2202">
        <ele>33.836559</ele>
        <time>2018-03-20T13:55:57Z</time>
      </trkpt>
      <trkpt lat="50.53517" lon="3.22015">
        <ele>33.841507</ele>
        <time>2018-03-20T13:55:59Z</time>
      </trkpt>
      <trkpt lat="50.53521" lon="3.22012">
        <ele>33.716103</ele>
        <time>2018-03-20T13:56:01Z</time>
      </trkpt>
      <trkpt lat="50.53523" lon="3.22007">
        <ele>33.58736</ele>
        <time>2018-03-20T13:56:03Z</time>
      </trkpt>
      <trkpt lat="50.53524" lon="3.22003">
        <ele>33.480736</ele>
        <time>2018-03-20T13:56:05Z</time>
      </trkpt>
      <trkpt lat="50.53524" lon="3.22">
        <ele>33.329346</ele>
        <time>2018-03-20T13:56:07Z</time>
      </trkpt>
      <trkpt lat="50.53522" lon="3.21998">
        <ele>31.344614</ele>
        <time>2018-03-20T14:04:04Z</time>
      </trkpt>
      <trkpt lat="50.53524" lon="3.21999">
        <ele>31.373867</ele>
        <time>2018-03-20T14:04:06Z</time>
      </trkpt>
      <trkpt lat="50.53526" lon="3.21999">
        <ele>31.395544</ele>
        <time>2018-03-20T14:04:08Z</time>
      </trkpt>
      <trkpt lat="50.53528" lon="3.21998">
        <ele>31.422522</ele>
        <time>2018-03-20T14:04:10Z</time>
      </trkpt>
      <trkpt lat="50.53529" lon="3.21998">
        <ele>31.435574</ele>
        <time>2018-03-20T14:04:12Z</time>
      </trkpt>
      <trkpt lat="50.53531" lon="3.21999">
        <ele>31.605368</ele>
        <time>2018-03-20T14:05:13Z</time>
      </trkpt>
      <trkpt lat="50.53532" lon="3.22003">
        <ele>31.597534</ele>
        <time>2018-03-20T14:05:15Z</time>
      </trkpt>
      <trkpt lat="50.53534" lon="3.22009">
        <ele>31.599625</ele>
        <time>2018-03-20T14:05:17Z</time>
      </trkpt>
      <trkpt lat="50.53534" lon="3.22011">
        <ele>31.551357</ele>
        <time>2018-03-20T14:05:19Z</time>
      </trkpt>
      <trkpt lat="50.53536" lon="3.22014">
        <ele>31.728617</ele>
        <time>2018-03-20T14:05:23Z</time>
      </trkpt>
      <trkpt lat="50.53537" lon="3.22015">
        <ele>31.489212</ele>
        <time>2018-03-20T14:05:29Z</time>
      </trkpt>
      <trkpt lat="50.53541" lon="3.22016">
        <ele>31.478815</ele>
        <time>2018-03-20T14:05:31Z</time>
      </trkpt>
      <trkpt lat="50.53545" lon="3.22016">
        <ele>31.472452</ele>
        <time>2018-03-20T14:05:33Z</time>
      </trkpt>
      <trkpt lat="50.53551" lon="3.22016">
        <ele>31.4419</ele>
        <time>2018-03-20T14:05:35Z</time>
      </trkpt>
      <trkpt lat="50.53558" lon="3.22017">
        <ele>31.418844</ele>
        <time>2018-03-20T14:05:37Z</time>
      </trkpt>
      <trkpt lat="50.53566" lon="3.22016">
        <ele>31.389822</ele>
        <time>2018-03-20T14:05:39Z</time>
      </trkpt>
      <trkpt lat="50.53574" lon="3.22014">
        <ele>31.352329</ele>
        <time>2018-03-20T14:05:41Z</time>
      </trkpt>
      <trkpt lat="50.53583" lon="3.22014">
        <ele>31.291315</ele>
        <time>2018-03-20T14:05:43Z</time>
      </trkpt>
      <trkpt lat="50.53592" lon="3.22016">
        <ele>31.22027</ele>
        <time>2018-03-20T14:05:45Z</time>
      </trkpt>
      <trkpt lat="50.53601" lon="3.22021">
        <ele>31.117687</ele>
        <time>2018-03-20T14:05:47Z</time>
      </trkpt>
      <trkpt lat="50.53608" lon="3.22029">
        <ele>31.075195</ele>
        <time>2018-03-20T14:05:49Z</time>
      </trkpt>
      <trkpt lat="50.53616" lon="3.22038">
        <ele>31.035473</ele>
        <time>2018-03-20T14:05:51Z</time>
      </trkpt>
      <trkpt lat="50.53623" lon="3.22048">
        <ele>30.977787</ele>
        <time>2018-03-20T14:05:53Z</time>
      </trkpt>
      <trkpt lat="50.53629" lon="3.22057">
        <ele>30.874966</ele>
        <time>2018-03-20T14:05:55Z</time>
      </trkpt>
      <trkpt lat="50.53635" lon="3.22068">
        <ele>30.741125</ele>
        <time>2018-03-20T14:05:57Z</time>
      </trkpt>
      <trkpt lat="50.53642" lon="3.22077">
        <ele>30.614115</ele>
        <time>2018-03-20T14:05:59Z</time>
      </trkpt>
      <trkpt lat="50.53649" lon="3.22087">
        <ele>30.506281</ele>
        <time>2018-03-20T14:06:01Z</time>
      </trkpt>
      <trkpt lat="50.53656" lon="3.22096">
        <ele>30.441427</ele>
        <time>2018-03-20T14:06:03Z</time>
      </trkpt>
      <trkpt lat="50.53663" lon="3.22106">
        <ele>30.291183</ele>
        <time>2018-03-20T14:06:05Z</time>
      </trkpt>
      <trkpt lat="50.53669" lon="3.22115">
        <ele>30.148014</ele>
        <time>2018-03-20T14:06:07Z</time>
      </trkpt>
      <trkpt lat="50.53674" lon="3.22124">
        <ele>30.057674</ele>
        <time>2018-03-20T14:06:09Z</time>
      </trkpt>
      <trkpt lat="50.53681" lon="3.22132">
        <ele>29.934362</ele>
        <time>2018-03-20T14:06:11Z</time>
      </trkpt>
      <trkpt lat="50.53688" lon="3.2214">
        <ele>29.821316</ele>
        <time>2018-03-20T14:06:13Z</time>
      </trkpt>
      <trkpt lat="50.53695" lon="3.22145">
        <ele>29.727818</ele>
        <time>2018-03-20T14:06:15Z</time>
      </trkpt>
      <trkpt lat="50.53703" lon="3.22148">
        <ele>29.630474</ele>
        <time>2018-03-20T14:06:17Z</time>
      </trkpt>
      <trkpt lat="50.53711" lon="3.22147">
        <ele>29.521872</ele>
        <time>2018-03-20T14:06:19Z</time>
      </trkpt>
      <trkpt lat="50.53719" lon="3.22142">
        <ele>29.369974</ele>
        <time>2018-03-20T14:06:21Z</time>
      </trkpt>
      <trkpt lat="50.53727" lon="3.22136">
        <ele>29.222132</ele>
        <time>2018-03-20T14:06:23Z</time>
      </trkpt>
      <trkpt lat="50.53735" lon="3.22128">
        <ele>29.115101</ele>
        <time>2018-03-20T14:06:25Z</time>
      </trkpt>
      <trkpt lat="50.53743" lon="3.22122">
        <ele>28.979889</ele>
        <time>2018-03-20T14:06:27Z</time>
      </trkpt>
      <trkpt lat="50.53751" lon="3.22119">
        <ele>28.847076</ele>
        <time>2018-03-20T14:06:29Z</time>
      </trkpt>
      <trkpt lat="50.53759" lon="3.22118">
        <ele>28.791235</ele>
        <time>2018-03-20T14:06:31Z</time>
      </trkpt>
      <trkpt lat="50.53769" lon="3.2212">
        <ele>28.657278</ele>
        <time>2018-03-20T14:06:33Z</time>
      </trkpt>
      <trkpt lat="50.53777" lon="3.22123">
        <ele>28.485867</ele>
        <time>2018-03-20T14:06:35Z</time>
      </trkpt>
      <trkpt lat="50.53785" lon="3.22128">
        <ele>28.358942</ele>
        <time>2018-03-20T14:06:37Z</time>
      </trkpt>
      <trkpt lat="50.53793" lon="3.22134">
        <ele>28.272705</ele>
        <time>2018-03-20T14:06:39Z</time>
      </trkpt>
      <trkpt lat="50.53801" lon="3.2214">
        <ele>28.108557</ele>
        <time>2018-03-20T14:06:41Z</time>
      </trkpt>
      <trkpt lat="50.53809" lon="3.22147">
        <ele>27.967762</ele>
        <time>2018-03-20T14:06:43Z</time>
      </trkpt>
      <trkpt lat="50.53816" lon="3.22153">
        <ele>27.843678</ele>
        <time>2018-03-20T14:06:45Z</time>
      </trkpt>
      <trkpt lat="50.53824" lon="3.22157">
        <ele>27.764404</ele>
        <time>2018-03-20T14:06:47Z</time>
      </trkpt>
      <trkpt lat="50.53831" lon="3.22154">
        <ele>27.68428</ele>
        <time>2018-03-20T14:06:49Z</time>
      </trkpt>
      <trkpt lat="50.53836" lon="3.22145">
        <ele>27.537424</ele>
        <time>2018-03-20T14:06:51Z</time>
      </trkpt>
      <trkpt lat="50.53841" lon="3.22134">
        <ele>27.411716</ele>
        <time>2018-03-20T14:06:53Z</time>
      </trkpt>
      <trkpt lat="50.53845" lon="3.22121">
        <ele>27.274099</ele>
        <time>2018-03-20T14:06:55Z</time>
      </trkpt>
      <trkpt lat="50.53849" lon="3.22108">
        <ele>27.161022</ele>
        <time>2018-03-20T14:06:57Z</time>
      </trkpt>
      <trkpt lat="50.53853" lon="3.22095">
        <ele>26.995798</ele>
        <time>2018-03-20T14:06:59Z</time>
      </trkpt>
      <trkpt lat="50.53857" lon="3.22082">
        <ele>26.869919</ele>
        <time>2018-03-20T14:07:01Z</time>
      </trkpt>
      <trkpt lat="50.53862" lon="3.22069">
        <ele>26.707541</ele>
        <time>2018-03-20T14:07:03Z</time>
      </trkpt>
      <trkpt lat="50.53866" lon="3.22057">
        <ele>26.536551</ele>
        <time>2018-03-20T14:07:05Z</time>
      </trkpt>
      <trkpt lat="50.53871" lon="3.22045">
        <ele>26.381739</ele>
        <time>2018-03-20T14:07:07Z</time>
      </trkpt>
      <trkpt lat="50.53876" lon="3.22034">
        <ele>26.332708</ele>
        <time>2018-03-20T14:07:09Z</time>
      </trkpt>
      <trkpt lat="50.53881" lon="3.22023">
        <ele>26.240376</ele>
        <time>2018-03-20T14:07:11Z</time>
      </trkpt>
      <trkpt lat="50.53887" lon="3.22014">
        <ele>26.083105</ele>
        <time>2018-03-20T14:07:13Z</time>
      </trkpt>
      <trkpt lat="50.53894" lon="3.22008">
        <ele>25.975143</ele>
        <time>2018-03-20T14:07:15Z</time>
      </trkpt>
      <trkpt lat="50.53903" lon="3.22006">
        <ele>25.882259</ele>
        <time>2018-03-20T14:07:17Z</time>
      </trkpt>
      <trkpt lat="50.53912" lon="3.22007">
        <ele>25.804962</ele>
        <time>2018-03-20T14:07:19Z</time>
      </trkpt>
      <trkpt lat="50.5392" lon="3.22009">
        <ele>25.711847</ele>
        <time>2018-03-20T14:07:21Z</time>
      </trkpt>
      <trkpt lat="50.53928" lon="3.22013">
        <ele>25.654739</ele>
        <time>2018-03-20T14:07:23Z</time>
      </trkpt>
      <trkpt lat="50.53936" lon="3.22017">
        <ele>25.662678</ele>
        <time>2018-03-20T14:07:25Z</time>
      </trkpt>
      <trkpt lat="50.53945" lon="3.22021">
        <ele>25.613012</ele>
        <time>2018-03-20T14:07:27Z</time>
      </trkpt>
      <trkpt lat="50.53953" lon="3.22026">
        <ele>25.516525</ele>
        <time>2018-03-20T14:07:29Z</time>
      </trkpt>
      <trkpt lat="50.53962" lon="3.2203">
        <ele>25.458614</ele>
        <time>2018-03-20T14:07:31Z</time>
      </trkpt>
      <trkpt lat="50.5397" lon="3.22034">
        <ele>25.360643</ele>
        <time>2018-03-20T14:07:33Z</time>
      </trkpt>
      <trkpt lat="50.5398" lon="3.22037">
        <ele>25.282747</ele>
        <time>2018-03-20T14:07:35Z</time>
      </trkpt>
      <trkpt lat="50.53988" lon="3.2204">
        <ele>25.175343</ele>
        <time>2018-03-20T14:07:37Z</time>
      </trkpt>
      <trkpt lat="50.53997" lon="3.22043">
        <ele>25.08572</ele>
        <time>2018-03-20T14:07:39Z</time>
      </trkpt>
      <trkpt lat="50.54007" lon="3.22045">
        <ele>25.000969</ele>
        <time>2018-03-20T14:07:41Z</time>
      </trkpt>
      <trkpt lat="50.54016" lon="3.22048">
        <ele>24.979164</ele>
        <time>2018-03-20T14:07:43Z</time>
      </trkpt>
      <trkpt lat="50.54025" lon="3.2205">
        <ele>24.978619</ele>
        <time>2018-03-20T14:07:45Z</time>
      </trkpt>
      <trkpt lat="50.54033" lon="3.22054">
        <ele>24.966002</ele>
        <time>2018-03-20T14:07:47Z</time>
      </trkpt>
      <trkpt lat="50.54042" lon="3.22061">
        <ele>24.916058</ele>
        <time>2018-03-20T14:07:49Z</time>
      </trkpt>
      <trkpt lat="50.5405" lon="3.2207">
        <ele>24.902185</ele>
        <time>2018-03-20T14:07:51Z</time>
      </trkpt>
      <trkpt lat="50.54058" lon="3.22078">
        <ele>24.893333</ele>
        <time>2018-03-20T14:07:53Z</time>
      </trkpt>
      <trkpt lat="50.54066" lon="3.22086">
        <ele>24.919651</ele>
        <time>2018-03-20T14:07:55Z</time>
      </trkpt>
      <trkpt lat="50.54073" lon="3.22095">
        <ele>24.909237</ele>
        <time>2018-03-20T14:07:57Z</time>
      </trkpt>
      <trkpt lat="50.5408" lon="3.22104">
        <ele>24.881323</ele>
        <time>2018-03-20T14:07:59Z</time>
      </trkpt>
      <trkpt lat="50.54087" lon="3.22113">
        <ele>24.87196</ele>
        <time>2018-03-20T14:08:01Z</time>
      </trkpt>
      <trkpt lat="50.54094" lon="3.22121">
        <ele>24.785259</ele>
        <time>2018-03-20T14:08:03Z</time>
      </trkpt>
      <trkpt lat="50.54101" lon="3.22129">
        <ele>24.736393</ele>
        <time>2018-03-20T14:08:05Z</time>
      </trkpt>
      <trkpt lat="50.54109" lon="3.22138">
        <ele>24.678097</ele>
        <time>2018-03-20T14:08:07Z</time>
      </trkpt>
      <trkpt lat="50.54117" lon="3.22146">
        <ele>24.630613</ele>
        <time>2018-03-20T14:08:09Z</time>
      </trkpt>
      <trkpt lat="50.54125" lon="3.22154">
        <ele>24.597263</ele>
        <time>2018-03-20T14:08:11Z</time>
      </trkpt>
      <trkpt lat="50.54134" lon="3.22161">
        <ele>24.531643</ele>
        <time>2018-03-20T14:08:13Z</time>
      </trkpt>
      <trkpt lat="50.54143" lon="3.22167">
        <ele>24.484419</ele>
        <time>2018-03-20T14:08:15Z</time>
      </trkpt>
      <trkpt lat="50.54152" lon="3.22171">
        <ele>24.459141</ele>
        <time>2018-03-20T14:08:17Z</time>
      </trkpt>
      <trkpt lat="50.54161" lon="3.22176">
        <ele>24.417143</ele>
        <time>2018-03-20T14:08:19Z</time>
      </trkpt>
      <trkpt lat="50.5417" lon="3.22181">
        <ele>24.356602</ele>
        <time>2018-03-20T14:08:21Z</time>
      </trkpt>
      <trkpt lat="50.54178" lon="3.22189">
        <ele>24.332445</ele>
        <time>2018-03-20T14:08:23Z</time>
      </trkpt>
      <trkpt lat="50.54185" lon="3.22198">
        <ele>24.276524</ele>
        <time>2018-03-20T14:08:25Z</time>
      </trkpt>
      <trkpt lat="50.54189" lon="3.22211">
        <ele>24.238016</ele>
        <time>2018-03-20T14:08:27Z</time>
      </trkpt>
      <trkpt lat="50.54189" lon="3.22226">
        <ele>24.160202</ele>
        <time>2018-03-20T14:08:29Z</time>
      </trkpt>
      <trkpt lat="50.54188" lon="3.22242">
        <ele>24.079689</ele>
        <time>2018-03-20T14:08:31Z</time>
      </trkpt>
      <trkpt lat="50.54187" lon="3.22257">
        <ele>24.013992</ele>
        <time>2018-03-20T14:08:33Z</time>
      </trkpt>
      <trkpt lat="50.54186" lon="3.22273">
        <ele>23.939957</ele>
        <time>2018-03-20T14:08:35Z</time>
      </trkpt>
      <trkpt lat="50.54186" lon="3.22288">
        <ele>23.863602</ele>
        <time>2018-03-20T14:08:37Z</time>
      </trkpt>
      <trkpt lat="50.54187" lon="3.22303">
        <ele>23.81605</ele>
        <time>2018-03-20T14:08:39Z</time>
      </trkpt>
      <trkpt lat="50.54187" lon="3.22318">
        <ele>23.809704</ele>
        <time>2018-03-20T14:08:41Z</time>
      </trkpt>
      <trkpt lat="50.54188" lon="3.22332">
        <ele>23.789526</ele>
        <time>2018-03-20T14:08:43Z</time>
      </trkpt>
      <trkpt lat="50.54189" lon="3.22346">
        <ele>23.757236</ele>
        <time>2018-03-20T14:08:45Z</time>
      </trkpt>
      <trkpt lat="50.54189" lon="3.22359">
        <ele>23.704067</ele>
        <time>2018-03-20T14:08:47Z</time>
      </trkpt>
      <trkpt lat="50.54187" lon="3.22372">
        <ele>23.705633</ele>
        <time>2018-03-20T14:08:49Z</time>
      </trkpt>
      <trkpt lat="50.54186" lon="3.22386">
        <ele>23.754944</ele>
        <time>2018-03-20T14:08:51Z</time>
      </trkpt>
      <trkpt lat="50.54183" lon="3.224">
        <ele>23.829266</ele>
        <time>2018-03-20T14:08:53Z</time>
      </trkpt>
      <trkpt lat="50.5418" lon="3.22413">
        <ele>23.918034</ele>
        <time>2018-03-20T14:08:55Z</time>
      </trkpt>
      <trkpt lat="50.54177" lon="3.22427">
        <ele>23.96726</ele>
        <time>2018-03-20T14:08:57Z</time>
      </trkpt>
      <trkpt lat="50.54174" lon="3.2244">
        <ele>24.036335</ele>
        <time>2018-03-20T14:08:59Z</time>
      </trkpt>
      <trkpt lat="50.54171" lon="3.22455">
        <ele>24.107056</ele>
        <time>2018-03-20T14:09:01Z</time>
      </trkpt>
      <trkpt lat="50.5417" lon="3.2247">
        <ele>24.233917</ele>
        <time>2018-03-20T14:09:03Z</time>
      </trkpt>
      <trkpt lat="50.54168" lon="3.22485">
        <ele>24.27235</ele>
        <time>2018-03-20T14:09:05Z</time>
      </trkpt>
      <trkpt lat="50.54167" lon="3.225">
        <ele>24.32247</ele>
        <time>2018-03-20T14:09:07Z</time>
      </trkpt>
      <trkpt lat="50.54165" lon="3.22515">
        <ele>24.380411</ele>
        <time>2018-03-20T14:09:09Z</time>
      </trkpt>
      <trkpt lat="50.54164" lon="3.2253">
        <ele>24.487309</ele>
        <time>2018-03-20T14:09:11Z</time>
      </trkpt>
      <trkpt lat="50.54162" lon="3.22545">
        <ele>24.62291</ele>
        <time>2018-03-20T14:09:13Z</time>
      </trkpt>
      <trkpt lat="50.54162" lon="3.22559">
        <ele>24.625372</ele>
        <time>2018-03-20T14:09:15Z</time>
      </trkpt>
      <trkpt lat="50.54162" lon="3.22573">
        <ele>24.67103</ele>
        <time>2018-03-20T14:09:17Z</time>
      </trkpt>
      <trkpt lat="50.54166" lon="3.22587">
        <ele>24.689465</ele>
        <time>2018-03-20T14:09:19Z</time>
      </trkpt>
      <trkpt lat="50.54171" lon="3.226">
        <ele>24.725971</ele>
        <time>2018-03-20T14:09:21Z</time>
      </trkpt>
      <trkpt lat="50.54178" lon="3.22611">
        <ele>24.781979</ele>
        <time>2018-03-20T14:09:23Z</time>
      </trkpt>
      <trkpt lat="50.54184" lon="3.22621">
        <ele>24.808737</ele>
        <time>2018-03-20T14:09:25Z</time>
      </trkpt>
      <trkpt lat="50.5419" lon="3.22631">
        <ele>24.818579</ele>
        <time>2018-03-20T14:09:27Z</time>
      </trkpt>
      <trkpt lat="50.54197" lon="3.22641">
        <ele>24.852978</ele>
        <time>2018-03-20T14:09:29Z</time>
      </trkpt>
      <trkpt lat="50.54203" lon="3.22651">
        <ele>24.871799</ele>
        <time>2018-03-20T14:09:31Z</time>
      </trkpt>
      <trkpt lat="50.54209" lon="3.22661">
        <ele>24.858913</ele>
        <time>2018-03-20T14:09:33Z</time>
      </trkpt>
      <trkpt lat="50.54215" lon="3.22672">
        <ele>24.84067</ele>
        <time>2018-03-20T14:09:35Z</time>
      </trkpt>
      <trkpt lat="50.54221" lon="3.22682">
        <ele>24.760052</ele>
        <time>2018-03-20T14:09:37Z</time>
      </trkpt>
      <trkpt lat="50.54228" lon="3.22692">
        <ele>24.750698</ele>
        <time>2018-03-20T14:09:39Z</time>
      </trkpt>
      <trkpt lat="50.54234" lon="3.22701">
        <ele>24.786396</ele>
        <time>2018-03-20T14:09:41Z</time>
      </trkpt>
      <trkpt lat="50.5424" lon="3.22711">
        <ele>24.711529</ele>
        <time>2018-03-20T14:09:43Z</time>
      </trkpt>
      <trkpt lat="50.54245" lon="3.2272">
        <ele>24.69418</ele>
        <time>2018-03-20T14:09:45Z</time>
      </trkpt>
      <trkpt lat="50.54252" lon="3.22729">
        <ele>24.751707</ele>
        <time>2018-03-20T14:09:47Z</time>
      </trkpt>
      <trkpt lat="50.54258" lon="3.2274">
        <ele>24.760628</ele>
        <time>2018-03-20T14:09:49Z</time>
      </trkpt>
      <trkpt lat="50.54264" lon="3.2275">
        <ele>24.77533</ele>
        <time>2018-03-20T14:09:51Z</time>
      </trkpt>
      <trkpt lat="50.54269" lon="3.2276">
        <ele>24.786402</ele>
        <time>2018-03-20T14:09:53Z</time>
      </trkpt>
      <trkpt lat="50.54276" lon="3.22769">
        <ele>24.791296</ele>
        <time>2018-03-20T14:09:55Z</time>
      </trkpt>
      <trkpt lat="50.54282" lon="3.22779">
        <ele>24.884649</ele>
        <time>2018-03-20T14:09:57Z</time>
      </trkpt>
      <trkpt lat="50.54288" lon="3.22789">
        <ele>24.963022</ele>
        <time>2018-03-20T14:09:59Z</time>
      </trkpt>
      <trkpt lat="50.54294" lon="3.22799">
        <ele>24.99087</ele>
        <time>2018-03-20T14:10:01Z</time>
      </trkpt>
      <trkpt lat="50.543" lon="3.22809">
        <ele>25.022593</ele>
        <time>2018-03-20T14:10:03Z</time>
      </trkpt>
      <trkpt lat="50.54306" lon="3.22818">
        <ele>25.066128</ele>
        <time>2018-03-20T14:10:05Z</time>
      </trkpt>
      <trkpt lat="50.54313" lon="3.22828">
        <ele>25.164778</ele>
        <time>2018-03-20T14:10:07Z</time>
      </trkpt>
      <trkpt lat="50.54319" lon="3.22838">
        <ele>25.295824</ele>
        <time>2018-03-20T14:10:09Z</time>
      </trkpt>
      <trkpt lat="50.54325" lon="3.22848">
        <ele>25.373655</ele>
        <time>2018-03-20T14:10:11Z</time>
      </trkpt>
      <trkpt lat="50.54331" lon="3.22858">
        <ele>25.434528</ele>
        <time>2018-03-20T14:10:13Z</time>
      </trkpt>
      <trkpt lat="50.54337" lon="3.22869">
        <ele>25.495296</ele>
        <time>2018-03-20T14:10:15Z</time>
      </trkpt>
      <trkpt lat="50.54343" lon="3.2288">
        <ele>25.591915</ele>
        <time>2018-03-20T14:10:17Z</time>
      </trkpt>
      <trkpt lat="50.54348" lon="3.22891">
        <ele>25.686087</ele>
        <time>2018-03-20T14:10:19Z</time>
      </trkpt>
      <trkpt lat="50.54353" lon="3.22903">
        <ele>25.736303</ele>
        <time>2018-03-20T14:10:21Z</time>
      </trkpt>
      <trkpt lat="50.54358" lon="3.22915">
        <ele>25.870188</ele>
        <time>2018-03-20T14:10:23Z</time>
      </trkpt>
      <trkpt lat="50.54362" lon="3.22927">
        <ele>25.913166</ele>
        <time>2018-03-20T14:10:25Z</time>
      </trkpt>
      <trkpt lat="50.54367" lon="3.2294">
        <ele>25.945297</ele>
        <time>2018-03-20T14:10:27Z</time>
      </trkpt>
      <trkpt lat="50.54371" lon="3.22954">
        <ele>25.934879</ele>
        <time>2018-03-20T14:10:29Z</time>
      </trkpt>
      <trkpt lat="50.54375" lon="3.22967">
        <ele>26.014832</ele>
        <time>2018-03-20T14:10:31Z</time>
      </trkpt>
      <trkpt lat="50.54381" lon="3.22986">
        <ele>26.086187</ele>
        <time>2018-03-20T14:10:34Z</time>
      </trkpt>
      <trkpt lat="50.54385" lon="3.22998">
        <ele>26.129599</ele>
        <time>2018-03-20T14:10:36Z</time>
      </trkpt>
      <trkpt lat="50.5439" lon="3.2301">
        <ele>26.20339</ele>
        <time>2018-03-20T14:10:38Z</time>
      </trkpt>
      <trkpt lat="50.54395" lon="3.23022">
        <ele>26.251408</ele>
        <time>2018-03-20T14:10:40Z</time>
      </trkpt>
      <trkpt lat="50.544" lon="3.23033">
        <ele>26.334049</ele>
        <time>2018-03-20T14:10:42Z</time>
      </trkpt>
      <trkpt lat="50.54404" lon="3.23045">
        <ele>26.407873</ele>
        <time>2018-03-20T14:10:44Z</time>
      </trkpt>
      <trkpt lat="50.5441" lon="3.23057">
        <ele>26.490078</ele>
        <time>2018-03-20T14:10:46Z</time>
      </trkpt>
      <trkpt lat="50.54416" lon="3.23068">
        <ele>26.506313</ele>
        <time>2018-03-20T14:10:48Z</time>
      </trkpt>
      <trkpt lat="50.54422" lon="3.23079">
        <ele>26.583939</ele>
        <time>2018-03-20T14:10:50Z</time>
      </trkpt>
      <trkpt lat="50.54428" lon="3.23089">
        <ele>26.622381</ele>
        <time>2018-03-20T14:10:52Z</time>
      </trkpt>
      <trkpt lat="50.54435" lon="3.23099">
        <ele>26.68475</ele>
        <time>2018-03-20T14:10:54Z</time>
      </trkpt>
      <trkpt lat="50.54441" lon="3.23109">
        <ele>26.722122</ele>
        <time>2018-03-20T14:10:56Z</time>
      </trkpt>
      <trkpt lat="50.54448" lon="3.23119">
        <ele>26.80163</ele>
        <time>2018-03-20T14:10:58Z</time>
      </trkpt>
      <trkpt lat="50.54454" lon="3.23128">
        <ele>26.888727</ele>
        <time>2018-03-20T14:11:00Z</time>
      </trkpt>
      <trkpt lat="50.54459" lon="3.23137">
        <ele>26.915903</ele>
        <time>2018-03-20T14:11:02Z</time>
      </trkpt>
      <trkpt lat="50.54464" lon="3.23145">
        <ele>26.935541</ele>
        <time>2018-03-20T14:11:04Z</time>
      </trkpt>
      <trkpt lat="50.5447" lon="3.23151">
        <ele>27.039265</ele>
        <time>2018-03-20T14:11:06Z</time>
      </trkpt>
      <trkpt lat="50.54475" lon="3.23156">
        <ele>27.160915</ele>
        <time>2018-03-20T14:11:08Z</time>
      </trkpt>
      <trkpt lat="50.54482" lon="3.23162">
        <ele>27.263943</ele>
        <time>2018-03-20T14:11:10Z</time>
      </trkpt>
      <trkpt lat="50.54488" lon="3.23169">
        <ele>27.356924</ele>
        <time>2018-03-20T14:11:12Z</time>
      </trkpt>
      <trkpt lat="50.54495" lon="3.23176">
        <ele>27.405787</ele>
        <time>2018-03-20T14:11:14Z</time>
      </trkpt>
      <trkpt lat="50.54501" lon="3.23183">
        <ele>27.511164</ele>
        <time>2018-03-20T14:11:16Z</time>
      </trkpt>
      <trkpt lat="50.54507" lon="3.23191">
        <ele>27.625122</ele>
        <time>2018-03-20T14:11:18Z</time>
      </trkpt>
      <trkpt lat="50.54514" lon="3.23199">
        <ele>27.70405</ele>
        <time>2018-03-20T14:11:20Z</time>
      </trkpt>
      <trkpt lat="50.54521" lon="3.23208">
        <ele>27.825577</ele>
        <time>2018-03-20T14:11:22Z</time>
      </trkpt>
      <trkpt lat="50.54528" lon="3.23216">
        <ele>27.985733</ele>
        <time>2018-03-20T14:11:24Z</time>
      </trkpt>
      <trkpt lat="50.54534" lon="3.23224">
        <ele>28.088253</ele>
        <time>2018-03-20T14:11:26Z</time>
      </trkpt>
      <trkpt lat="50.5454" lon="3.23232">
        <ele>28.220829</ele>
        <time>2018-03-20T14:11:28Z</time>
      </trkpt>
      <trkpt lat="50.54546" lon="3.2324">
        <ele>28.349842</ele>
        <time>2018-03-20T14:11:30Z</time>
      </trkpt>
      <trkpt lat="50.54551" lon="3.23249">
        <ele>28.518988</ele>
        <time>2018-03-20T14:11:32Z</time>
      </trkpt>
      <trkpt lat="50.54556" lon="3.23258">
        <ele>28.681814</ele>
        <time>2018-03-20T14:11:34Z</time>
      </trkpt>
      <trkpt lat="50.54562" lon="3.23268">
        <ele>28.825098</ele>
        <time>2018-03-20T14:11:36Z</time>
      </trkpt>
      <trkpt lat="50.54568" lon="3.23278">
        <ele>28.989029</ele>
        <time>2018-03-20T14:11:38Z</time>
      </trkpt>
      <trkpt lat="50.54575" lon="3.23286">
        <ele>29.112635</ele>
        <time>2018-03-20T14:11:40Z</time>
      </trkpt>
      <trkpt lat="50.54581" lon="3.23295">
        <ele>29.198828</ele>
        <time>2018-03-20T14:11:42Z</time>
      </trkpt>
      <trkpt lat="50.54588" lon="3.23304">
        <ele>29.380222</ele>
        <time>2018-03-20T14:11:44Z</time>
      </trkpt>
      <trkpt lat="50.54595" lon="3.23313">
        <ele>29.552622</ele>
        <time>2018-03-20T14:11:46Z</time>
      </trkpt>
      <trkpt lat="50.54603" lon="3.2332">
        <ele>29.640833</ele>
        <time>2018-03-20T14:11:48Z</time>
      </trkpt>
      <trkpt lat="50.54611" lon="3.23327">
        <ele>29.78298</ele>
        <time>2018-03-20T14:11:50Z</time>
      </trkpt>
      <trkpt lat="50.54619" lon="3.23336">
        <ele>29.899883</ele>
        <time>2018-03-20T14:11:52Z</time>
      </trkpt>
      <trkpt lat="50.54626" lon="3.23344">
        <ele>29.942801</ele>
        <time>2018-03-20T14:11:54Z</time>
      </trkpt>
      <trkpt lat="50.54633" lon="3.23353">
        <ele>30.052715</ele>
        <time>2018-03-20T14:11:56Z</time>
      </trkpt>
      <trkpt lat="50.54639" lon="3.23362">
        <ele>30.089626</ele>
        <time>2018-03-20T14:11:58Z</time>
      </trkpt>
      <trkpt lat="50.54646" lon="3.23371">
        <ele>30.160391</ele>
        <time>2018-03-20T14:12:00Z</time>
      </trkpt>
      <trkpt lat="50.54651" lon="3.23382">
        <ele>30.247656</ele>
        <time>2018-03-20T14:12:02Z</time>
      </trkpt>
      <trkpt lat="50.54656" lon="3.23393">
        <ele>30.295544</ele>
        <time>2018-03-20T14:12:04Z</time>
      </trkpt>
      <trkpt lat="50.54658" lon="3.23405">
        <ele>30.288794</ele>
        <time>2018-03-20T14:12:06Z</time>
      </trkpt>
      <trkpt lat="50.54659" lon="3.23418">
        <ele>30.287115</ele>
        <time>2018-03-20T14:12:08Z</time>
      </trkpt>
      <trkpt lat="50.54661" lon="3.23431">
        <ele>30.309998</ele>
        <time>2018-03-20T14:12:10Z</time>
      </trkpt>
      <trkpt lat="50.54662" lon="3.23443">
        <ele>30.279217</ele>
        <time>2018-03-20T14:12:12Z</time>
      </trkpt>
      <trkpt lat="50.54664" lon="3.23457">
        <ele>30.280346</ele>
        <time>2018-03-20T14:12:14Z</time>
      </trkpt>
      <trkpt lat="50.54666" lon="3.23469">
        <ele>30.292187</ele>
        <time>2018-03-20T14:12:16Z</time>
      </trkpt>
      <trkpt lat="50.54668" lon="3.23482">
        <ele>30.333599</ele>
        <time>2018-03-20T14:12:18Z</time>
      </trkpt>
      <trkpt lat="50.54671" lon="3.23493">
        <ele>30.354126</ele>
        <time>2018-03-20T14:12:20Z</time>
      </trkpt>
      <trkpt lat="50.54674" lon="3.23505">
        <ele>30.431829</ele>
        <time>2018-03-20T14:12:22Z</time>
      </trkpt>
      <trkpt lat="50.54678" lon="3.23516">
        <ele>30.461939</ele>
        <time>2018-03-20T14:12:24Z</time>
      </trkpt>
      <trkpt lat="50.54684" lon="3.23525">
        <ele>30.451452</ele>
        <time>2018-03-20T14:12:26Z</time>
      </trkpt>
      <trkpt lat="50.54691" lon="3.23533">
        <ele>30.429041</ele>
        <time>2018-03-20T14:12:28Z</time>
      </trkpt>
      <trkpt lat="50.54699" lon="3.23538">
        <ele>30.457342</ele>
        <time>2018-03-20T14:12:30Z</time>
      </trkpt>
      <trkpt lat="50.54707" lon="3.23543">
        <ele>30.480804</ele>
        <time>2018-03-20T14:12:32Z</time>
      </trkpt>
      <trkpt lat="50.54714" lon="3.23545">
        <ele>30.514288</ele>
        <time>2018-03-20T14:12:34Z</time>
      </trkpt>
      <trkpt lat="50.54721" lon="3.23549">
        <ele>30.551794</ele>
        <time>2018-03-20T14:12:36Z</time>
      </trkpt>
      <trkpt lat="50.5473" lon="3.23553">
        <ele>30.621876</ele>
        <time>2018-03-20T14:12:38Z</time>
      </trkpt>
      <trkpt lat="50.54738" lon="3.23558">
        <ele>30.693018</ele>
        <time>2018-03-20T14:12:40Z</time>
      </trkpt>
      <trkpt lat="50.54746" lon="3.23563">
        <ele>30.759985</ele>
        <time>2018-03-20T14:12:42Z</time>
      </trkpt>
      <trkpt lat="50.54754" lon="3.2357">
        <ele>30.742304</ele>
        <time>2018-03-20T14:12:44Z</time>
      </trkpt>
      <trkpt lat="50.54762" lon="3.23577">
        <ele>30.783398</ele>
        <time>2018-03-20T14:12:46Z</time>
      </trkpt>
      <trkpt lat="50.5477" lon="3.23584">
        <ele>30.86622</ele>
        <time>2018-03-20T14:12:48Z</time>
      </trkpt>
      <trkpt lat="50.54778" lon="3.2359">
        <ele>30.943354</ele>
        <time>2018-03-20T14:12:50Z</time>
      </trkpt>
      <trkpt lat="50.54786" lon="3.23594">
        <ele>30.984745</ele>
        <time>2018-03-20T14:12:52Z</time>
      </trkpt>
      <trkpt lat="50.54794" lon="3.23598">
        <ele>31.084457</ele>
        <time>2018-03-20T14:12:54Z</time>
      </trkpt>
      <trkpt lat="50.54803" lon="3.23603">
        <ele>31.145514</ele>
        <time>2018-03-20T14:12:56Z</time>
      </trkpt>
      <trkpt lat="50.54811" lon="3.23607">
        <ele>31.185604</ele>
        <time>2018-03-20T14:12:58Z</time>
      </trkpt>
      <trkpt lat="50.5482" lon="3.2361">
        <ele>31.248419</ele>
        <time>2018-03-20T14:13:00Z</time>
      </trkpt>
      <trkpt lat="50.54828" lon="3.23613">
        <ele>31.264826</ele>
        <time>2018-03-20T14:13:02Z</time>
      </trkpt>
      <trkpt lat="50.54835" lon="3.23616">
        <ele>31.301937</ele>
        <time>2018-03-20T14:13:04Z</time>
      </trkpt>
      <trkpt lat="50.54842" lon="3.23617">
        <ele>31.292774</ele>
        <time>2018-03-20T14:13:06Z</time>
      </trkpt>
      <trkpt lat="50.54849" lon="3.23621">
        <ele>31.38448</ele>
        <time>2018-03-20T14:13:08Z</time>
      </trkpt>
      <trkpt lat="50.54856" lon="3.23626">
        <ele>31.452524</ele>
        <time>2018-03-20T14:13:10Z</time>
      </trkpt>
      <trkpt lat="50.54862" lon="3.23631">
        <ele>31.524189</ele>
        <time>2018-03-20T14:13:12Z</time>
      </trkpt>
      <trkpt lat="50.54869" lon="3.23637">
        <ele>31.523502</ele>
        <time>2018-03-20T14:13:14Z</time>
      </trkpt>
      <trkpt lat="50.54876" lon="3.23642">
        <ele>31.532833</ele>
        <time>2018-03-20T14:13:16Z</time>
      </trkpt>
      <trkpt lat="50.54882" lon="3.23647">
        <ele>31.525518</ele>
        <time>2018-03-20T14:13:18Z</time>
      </trkpt>
      <trkpt lat="50.54889" lon="3.23653">
        <ele>31.484421</ele>
        <time>2018-03-20T14:13:20Z</time>
      </trkpt>
      <trkpt lat="50.54895" lon="3.23658">
        <ele>31.511765</ele>
        <time>2018-03-20T14:13:22Z</time>
      </trkpt>
      <trkpt lat="50.54902" lon="3.23663">
        <ele>31.547779</ele>
        <time>2018-03-20T14:13:24Z</time>
      </trkpt>
      <trkpt lat="50.54909" lon="3.23668">
        <ele>31.568851</ele>
        <time>2018-03-20T14:13:26Z</time>
      </trkpt>
      <trkpt lat="50.54915" lon="3.23674">
        <ele>31.595341</ele>
        <time>2018-03-20T14:13:28Z</time>
      </trkpt>
      <trkpt lat="50.54922" lon="3.23678">
        <ele>31.607162</ele>
        <time>2018-03-20T14:13:30Z</time>
      </trkpt>
      <trkpt lat="50.54928" lon="3.23683">
        <ele>31.63619</ele>
        <time>2018-03-20T14:13:32Z</time>
      </trkpt>
      <trkpt lat="50.54935" lon="3.23689">
        <ele>31.631969</ele>
        <time>2018-03-20T14:13:34Z</time>
      </trkpt>
      <trkpt lat="50.54942" lon="3.23693">
        <ele>31.605001</ele>
        <time>2018-03-20T14:13:36Z</time>
      </trkpt>
      <trkpt lat="50.54948" lon="3.23699">
        <ele>31.616638</ele>
        <time>2018-03-20T14:13:38Z</time>
      </trkpt>
      <trkpt lat="50.54955" lon="3.23704">
        <ele>31.607967</ele>
        <time>2018-03-20T14:13:40Z</time>
      </trkpt>
      <trkpt lat="50.54962" lon="3.23709">
        <ele>31.601345</ele>
        <time>2018-03-20T14:13:42Z</time>
      </trkpt>
      <trkpt lat="50.54969" lon="3.23713">
        <ele>31.618587</ele>
        <time>2018-03-20T14:13:44Z</time>
      </trkpt>
      <trkpt lat="50.54976" lon="3.23717">
        <ele>31.630489</ele>
        <time>2018-03-20T14:13:46Z</time>
      </trkpt>
      <trkpt lat="50.54985" lon="3.2372">
        <ele>31.683573</ele>
        <time>2018-03-20T14:13:48Z</time>
      </trkpt>
      <trkpt lat="50.54993" lon="3.23722">
        <ele>31.690845</ele>
        <time>2018-03-20T14:13:50Z</time>
      </trkpt>
      <trkpt lat="50.55001" lon="3.23724">
        <ele>31.720448</ele>
        <time>2018-03-20T14:13:52Z</time>
      </trkpt>
      <trkpt lat="50.5501" lon="3.23724">
        <ele>31.690271</ele>
        <time>2018-03-20T14:13:54Z</time>
      </trkpt>
      <trkpt lat="50.55019" lon="3.23724">
        <ele>31.718527</ele>
        <time>2018-03-20T14:13:56Z</time>
      </trkpt>
      <trkpt lat="50.55028" lon="3.23722">
        <ele>31.734629</ele>
        <time>2018-03-20T14:13:58Z</time>
      </trkpt>
      <trkpt lat="50.55037" lon="3.23721">
        <ele>31.773672</ele>
        <time>2018-03-20T14:14:00Z</time>
      </trkpt>
      <trkpt lat="50.55046" lon="3.2372">
        <ele>31.740932</ele>
        <time>2018-03-20T14:14:02Z</time>
      </trkpt>
      <trkpt lat="50.55055" lon="3.23719">
        <ele>31.705252</ele>
        <time>2018-03-20T14:14:04Z</time>
      </trkpt>
      <trkpt lat="50.55064" lon="3.23718">
        <ele>31.669849</ele>
        <time>2018-03-20T14:14:06Z</time>
      </trkpt>
      <trkpt lat="50.55072" lon="3.23718">
        <ele>31.603775</ele>
        <time>2018-03-20T14:14:08Z</time>
      </trkpt>
      <trkpt lat="50.55081" lon="3.23718">
        <ele>31.59848</ele>
        <time>2018-03-20T14:14:10Z</time>
      </trkpt>
      <trkpt lat="50.5509" lon="3.23719">
        <ele>31.534601</ele>
        <time>2018-03-20T14:14:12Z</time>
      </trkpt>
      <trkpt lat="50.55098" lon="3.23722">
        <ele>31.448254</ele>
        <time>2018-03-20T14:14:14Z</time>
      </trkpt>
      <trkpt lat="50.55106" lon="3.23725">
        <ele>31.419666</ele>
        <time>2018-03-20T14:14:16Z</time>
      </trkpt>
      <trkpt lat="50.55114" lon="3.23729">
        <ele>31.421366</ele>
        <time>2018-03-20T14:14:18Z</time>
      </trkpt>
      <trkpt lat="50.55122" lon="3.23733">
        <ele>31.363419</ele>
        <time>2018-03-20T14:14:20Z</time>
      </trkpt>
      <trkpt lat="50.5513" lon="3.23736">
        <ele>31.345753</ele>
        <time>2018-03-20T14:14:22Z</time>
      </trkpt>
      <trkpt lat="50.55138" lon="3.2374">
        <ele>31.295492</ele>
        <time>2018-03-20T14:14:24Z</time>
      </trkpt>
      <trkpt lat="50.55145" lon="3.23744">
        <ele>31.231083</ele>
        <time>2018-03-20T14:14:26Z</time>
      </trkpt>
      <trkpt lat="50.55153" lon="3.23748">
        <ele>31.188848</ele>
        <time>2018-03-20T14:14:28Z</time>
      </trkpt>
      <trkpt lat="50.5516" lon="3.23751">
        <ele>31.145206</ele>
        <time>2018-03-20T14:14:30Z</time>
      </trkpt>
      <trkpt lat="50.55167" lon="3.23755">
        <ele>31.04752</ele>
        <time>2018-03-20T14:14:32Z</time>
      </trkpt>
      <trkpt lat="50.55175" lon="3.23759">
        <ele>31.004532</ele>
        <time>2018-03-20T14:14:34Z</time>
      </trkpt>
      <trkpt lat="50.55183" lon="3.23763">
        <ele>30.922598</ele>
        <time>2018-03-20T14:14:36Z</time>
      </trkpt>
      <trkpt lat="50.55191" lon="3.23767">
        <ele>30.843983</ele>
        <time>2018-03-20T14:14:38Z</time>
      </trkpt>
      <trkpt lat="50.55199" lon="3.23771">
        <ele>30.792624</ele>
        <time>2018-03-20T14:14:40Z</time>
      </trkpt>
      <trkpt lat="50.55207" lon="3.23775">
        <ele>30.76243</ele>
        <time>2018-03-20T14:14:42Z</time>
      </trkpt>
      <trkpt lat="50.55214" lon="3.23779">
        <ele>30.800442</ele>
        <time>2018-03-20T14:14:44Z</time>
      </trkpt>
      <trkpt lat="50.55222" lon="3.23784">
        <ele>30.758678</ele>
        <time>2018-03-20T14:14:46Z</time>
      </trkpt>
      <trkpt lat="50.5523" lon="3.23788">
        <ele>30.755116</ele>
        <time>2018-03-20T14:14:48Z</time>
      </trkpt>
      <trkpt lat="50.55238" lon="3.23793">
        <ele>30.765453</ele>
        <time>2018-03-20T14:14:50Z</time>
      </trkpt>
      <trkpt lat="50.55245" lon="3.23798">
        <ele>30.753729</ele>
        <time>2018-03-20T14:14:52Z</time>
      </trkpt>
      <trkpt lat="50.55253" lon="3.23802">
        <ele>30.802917</ele>
        <time>2018-03-20T14:14:54Z</time>
      </trkpt>
      <trkpt lat="50.55259" lon="3.23807">
        <ele>30.816868</ele>
        <time>2018-03-20T14:14:56Z</time>
      </trkpt>
      <trkpt lat="50.55266" lon="3.23812">
        <ele>30.790995</ele>
        <time>2018-03-20T14:14:58Z</time>
      </trkpt>
      <trkpt lat="50.55273" lon="3.23817">
        <ele>30.776331</ele>
        <time>2018-03-20T14:15:00Z</time>
      </trkpt>
      <trkpt lat="50.5528" lon="3.23822">
        <ele>30.791739</ele>
        <time>2018-03-20T14:15:02Z</time>
      </trkpt>
      <trkpt lat="50.55287" lon="3.23827">
        <ele>30.844563</ele>
        <time>2018-03-20T14:15:04Z</time>
      </trkpt>
      <trkpt lat="50.55294" lon="3.23833">
        <ele>30.830561</ele>
        <time>2018-03-20T14:15:06Z</time>
      </trkpt>
      <trkpt lat="50.55301" lon="3.23838">
        <ele>30.859852</ele>
        <time>2018-03-20T14:15:08Z</time>
      </trkpt>
      <trkpt lat="50.55309" lon="3.23843">
        <ele>30.861267</ele>
        <time>2018-03-20T14:15:10Z</time>
      </trkpt>
      <trkpt lat="50.55316" lon="3.23849">
        <ele>30.90065</ele>
        <time>2018-03-20T14:15:12Z</time>
      </trkpt>
      <trkpt lat="50.55323" lon="3.23855">
        <ele>30.920406</ele>
        <time>2018-03-20T14:15:14Z</time>
      </trkpt>
      <trkpt lat="50.55331" lon="3.2386">
        <ele>30.944666</ele>
        <time>2018-03-20T14:15:16Z</time>
      </trkpt>
      <trkpt lat="50.55338" lon="3.23865">
        <ele>30.948246</ele>
        <time>2018-03-20T14:15:18Z</time>
      </trkpt>
      <trkpt lat="50.55346" lon="3.2387">
        <ele>31.028555</ele>
        <time>2018-03-20T14:15:20Z</time>
      </trkpt>
      <trkpt lat="50.55354" lon="3.23875">
        <ele>31.07313</ele>
        <time>2018-03-20T14:15:22Z</time>
      </trkpt>
      <trkpt lat="50.55362" lon="3.23879">
        <ele>31.083889</ele>
        <time>2018-03-20T14:15:24Z</time>
      </trkpt>
      <trkpt lat="50.55369" lon="3.23883">
        <ele>31.136562</ele>
        <time>2018-03-20T14:15:26Z</time>
      </trkpt>
      <trkpt lat="50.55377" lon="3.23887">
        <ele>31.20549</ele>
        <time>2018-03-20T14:15:28Z</time>
      </trkpt>
      <trkpt lat="50.55384" lon="3.23891">
        <ele>31.264868</ele>
        <time>2018-03-20T14:15:30Z</time>
      </trkpt>
      <trkpt lat="50.55392" lon="3.23895">
        <ele>31.321064</ele>
        <time>2018-03-20T14:15:32Z</time>
      </trkpt>
      <trkpt lat="50.554" lon="3.23899">
        <ele>31.398922</ele>
        <time>2018-03-20T14:15:34Z</time>
      </trkpt>
      <trkpt lat="50.55407" lon="3.23903">
        <ele>31.455856</ele>
        <time>2018-03-20T14:15:36Z</time>
      </trkpt>
      <trkpt lat="50.55415" lon="3.23907">
        <ele>31.504416</ele>
        <time>2018-03-20T14:15:38Z</time>
      </trkpt>
      <trkpt lat="50.55423" lon="3.23911">
        <ele>31.536337</ele>
        <time>2018-03-20T14:15:40Z</time>
      </trkpt>
      <trkpt lat="50.55432" lon="3.23914">
        <ele>31.612896</ele>
        <time>2018-03-20T14:15:42Z</time>
      </trkpt>
      <trkpt lat="50.55439" lon="3.23917">
        <ele>31.684956</ele>
        <time>2018-03-20T14:15:44Z</time>
      </trkpt>
      <trkpt lat="50.55447" lon="3.2392">
        <ele>31.764582</ele>
        <time>2018-03-20T14:15:46Z</time>
      </trkpt>
      <trkpt lat="50.55455" lon="3.23924">
        <ele>31.839682</ele>
        <time>2018-03-20T14:15:48Z</time>
      </trkpt>
      <trkpt lat="50.55464" lon="3.23926">
        <ele>31.875538</ele>
        <time>2018-03-20T14:15:50Z</time>
      </trkpt>
      <trkpt lat="50.55472" lon="3.23929">
        <ele>31.962078</ele>
        <time>2018-03-20T14:15:52Z</time>
      </trkpt>
      <trkpt lat="50.55481" lon="3.23931">
        <ele>32.022076</ele>
        <time>2018-03-20T14:15:54Z</time>
      </trkpt>
      <trkpt lat="50.55489" lon="3.23933">
        <ele>32.083523</ele>
        <time>2018-03-20T14:15:56Z</time>
      </trkpt>
      <trkpt lat="50.55498" lon="3.23932">
        <ele>32.174595</ele>
        <time>2018-03-20T14:15:58Z</time>
      </trkpt>
      <trkpt lat="50.55507" lon="3.23929">
        <ele>32.182144</ele>
        <time>2018-03-20T14:16:00Z</time>
      </trkpt>
      <trkpt lat="50.55515" lon="3.23925">
        <ele>32.226124</ele>
        <time>2018-03-20T14:16:02Z</time>
      </trkpt>
      <trkpt lat="50.55524" lon="3.23921">
        <ele>32.264282</ele>
        <time>2018-03-20T14:16:04Z</time>
      </trkpt>
      <trkpt lat="50.55534" lon="3.23917">
        <ele>32.26503</ele>
        <time>2018-03-20T14:16:06Z</time>
      </trkpt>
      <trkpt lat="50.55543" lon="3.23913">
        <ele>32.232399</ele>
        <time>2018-03-20T14:16:08Z</time>
      </trkpt>
      <trkpt lat="50.55552" lon="3.23908">
        <ele>32.249367</ele>
        <time>2018-03-20T14:16:10Z</time>
      </trkpt>
      <trkpt lat="50.55561" lon="3.23904">
        <ele>32.11491</ele>
        <time>2018-03-20T14:16:12Z</time>
      </trkpt>
      <trkpt lat="50.55571" lon="3.239">
        <ele>32.06675</ele>
        <time>2018-03-20T14:16:14Z</time>
      </trkpt>
      <trkpt lat="50.55581" lon="3.23896">
        <ele>31.964075</ele>
        <time>2018-03-20T14:16:16Z</time>
      </trkpt>
      <trkpt lat="50.55591" lon="3.23891">
        <ele>31.805557</ele>
        <time>2018-03-20T14:16:18Z</time>
      </trkpt>
      <trkpt lat="50.55601" lon="3.23887">
        <ele>31.657871</ele>
        <time>2018-03-20T14:16:20Z</time>
      </trkpt>
      <trkpt lat="50.55611" lon="3.23883">
        <ele>31.426966</ele>
        <time>2018-03-20T14:16:22Z</time>
      </trkpt>
      <trkpt lat="50.55622" lon="3.23879">
        <ele>31.241186</ele>
        <time>2018-03-20T14:16:24Z</time>
      </trkpt>
      <trkpt lat="50.55633" lon="3.23874">
        <ele>30.974131</ele>
        <time>2018-03-20T14:16:26Z</time>
      </trkpt>
      <trkpt lat="50.55644" lon="3.23869">
        <ele>30.695791</ele>
        <time>2018-03-20T14:16:28Z</time>
      </trkpt>
      <trkpt lat="50.55653" lon="3.23864">
        <ele>30.595785</ele>
        <time>2018-03-20T14:16:30Z</time>
      </trkpt>
      <trkpt lat="50.55664" lon="3.2386">
        <ele>30.275183</ele>
        <time>2018-03-20T14:16:32Z</time>
      </trkpt>
      <trkpt lat="50.55672" lon="3.23857">
        <ele>29.994196</ele>
        <time>2018-03-20T14:16:34Z</time>
      </trkpt>
      <trkpt lat="50.55679" lon="3.23854">
        <ele>29.710348</ele>
        <time>2018-03-20T14:16:36Z</time>
      </trkpt>
      <trkpt lat="50.55684" lon="3.23854">
        <ele>29.386786</ele>
        <time>2018-03-20T14:16:38Z</time>
      </trkpt>
      <trkpt lat="50.55687" lon="3.23858">
        <ele>29.09226</ele>
        <time>2018-03-20T14:16:40Z</time>
      </trkpt>
      <trkpt lat="50.55692" lon="3.23861">
        <ele>28.77911</ele>
        <time>2018-03-20T14:16:42Z</time>
      </trkpt>
      <trkpt lat="50.55698" lon="3.23863">
        <ele>28.480026</ele>
        <time>2018-03-20T14:16:44Z</time>
      </trkpt>
      <trkpt lat="50.55705" lon="3.23862">
        <ele>28.218082</ele>
        <time>2018-03-20T14:16:46Z</time>
      </trkpt>
      <trkpt lat="50.55712" lon="3.2386">
        <ele>27.94692</ele>
        <time>2018-03-20T14:16:48Z</time>
      </trkpt>
      <trkpt lat="50.5572" lon="3.23858">
        <ele>27.620966</ele>
        <time>2018-03-20T14:16:50Z</time>
      </trkpt>
      <trkpt lat="50.55729" lon="3.23855">
        <ele>27.374691</ele>
        <time>2018-03-20T14:16:52Z</time>
      </trkpt>
      <trkpt lat="50.55738" lon="3.23852">
        <ele>27.197689</ele>
        <time>2018-03-20T14:16:54Z</time>
      </trkpt>
      <trkpt lat="50.55747" lon="3.23849">
        <ele>26.953135</ele>
        <time>2018-03-20T14:16:56Z</time>
      </trkpt>
      <trkpt lat="50.55756" lon="3.23845">
        <ele>26.773487</ele>
        <time>2018-03-20T14:16:58Z</time>
      </trkpt>
      <trkpt lat="50.55765" lon="3.2384">
        <ele>26.549749</ele>
        <time>2018-03-20T14:17:00Z</time>
      </trkpt>
      <trkpt lat="50.55775" lon="3.23836">
        <ele>26.447628</ele>
        <time>2018-03-20T14:17:02Z</time>
      </trkpt>
      <trkpt lat="50.55784" lon="3.23835">
        <ele>26.344824</ele>
        <time>2018-03-20T14:17:04Z</time>
      </trkpt>
      <trkpt lat="50.55793" lon="3.23833">
        <ele>26.254528</ele>
        <time>2018-03-20T14:17:06Z</time>
      </trkpt>
      <trkpt lat="50.55802" lon="3.23832">
        <ele>26.144053</ele>
        <time>2018-03-20T14:17:08Z</time>
      </trkpt>
      <trkpt lat="50.55811" lon="3.2383">
        <ele>26.045246</ele>
        <time>2018-03-20T14:17:10Z</time>
      </trkpt>
      <trkpt lat="50.5582" lon="3.23828">
        <ele>25.885517</ele>
        <time>2018-03-20T14:17:12Z</time>
      </trkpt>
      <trkpt lat="50.55829" lon="3.23827">
        <ele>25.764776</ele>
        <time>2018-03-20T14:17:14Z</time>
      </trkpt>
      <trkpt lat="50.55838" lon="3.23825">
        <ele>25.660046</ele>
        <time>2018-03-20T14:17:16Z</time>
      </trkpt>
      <trkpt lat="50.55847" lon="3.23824">
        <ele>25.585861</ele>
        <time>2018-03-20T14:17:18Z</time>
      </trkpt>
      <trkpt lat="50.55855" lon="3.23823">
        <ele>25.582287</ele>
        <time>2018-03-20T14:17:20Z</time>
      </trkpt>
      <trkpt lat="50.55863" lon="3.23823">
        <ele>25.502285</ele>
        <time>2018-03-20T14:17:22Z</time>
      </trkpt>
      <trkpt lat="50.55871" lon="3.23824">
        <ele>25.479126</ele>
        <time>2018-03-20T14:17:24Z</time>
      </trkpt>
      <trkpt lat="50.5588" lon="3.23825">
        <ele>25.41893</ele>
        <time>2018-03-20T14:17:26Z</time>
      </trkpt>
      <trkpt lat="50.55887" lon="3.23826">
        <ele>25.338467</ele>
        <time>2018-03-20T14:17:28Z</time>
      </trkpt>
      <trkpt lat="50.55894" lon="3.23828">
        <ele>25.283001</ele>
        <time>2018-03-20T14:17:30Z</time>
      </trkpt>
      <trkpt lat="50.559" lon="3.23831">
        <ele>25.240732</ele>
        <time>2018-03-20T14:17:32Z</time>
      </trkpt>
      <trkpt lat="50.55904" lon="3.23835">
        <ele>25.121012</ele>
        <time>2018-03-20T14:17:34Z</time>
      </trkpt>
      <trkpt lat="50.55908" lon="3.2384">
        <ele>25.065601</ele>
        <time>2018-03-20T14:17:36Z</time>
      </trkpt>
      <trkpt lat="50.55911" lon="3.23845">
        <ele>25.024578</ele>
        <time>2018-03-20T14:17:38Z</time>
      </trkpt>
      <trkpt lat="50.55913" lon="3.23851">
        <ele>24.949741</ele>
        <time>2018-03-20T14:17:40Z</time>
      </trkpt>
      <trkpt lat="50.55919" lon="3.23854">
        <ele>24.889355</ele>
        <time>2018-03-20T14:17:42Z</time>
      </trkpt>
      <trkpt lat="50.55927" lon="3.23854">
        <ele>24.847853</ele>
        <time>2018-03-20T14:17:44Z</time>
      </trkpt>
      <trkpt lat="50.55934" lon="3.23853">
        <ele>24.781277</ele>
        <time>2018-03-20T14:17:46Z</time>
      </trkpt>
      <trkpt lat="50.55942" lon="3.23851">
        <ele>24.729036</ele>
        <time>2018-03-20T14:17:48Z</time>
      </trkpt>
      <trkpt lat="50.55949" lon="3.2385">
        <ele>24.699154</ele>
        <time>2018-03-20T14:17:50Z</time>
      </trkpt>
      <trkpt lat="50.55957" lon="3.2385">
        <ele>24.710407</ele>
        <time>2018-03-20T14:17:52Z</time>
      </trkpt>
      <trkpt lat="50.55965" lon="3.23851">
        <ele>24.726093</ele>
        <time>2018-03-20T14:17:54Z</time>
      </trkpt>
      <trkpt lat="50.55973" lon="3.23854">
        <ele>24.696947</ele>
        <time>2018-03-20T14:17:56Z</time>
      </trkpt>
      <trkpt lat="50.55981" lon="3.23857">
        <ele>24.650377</ele>
        <time>2018-03-20T14:17:58Z</time>
      </trkpt>
      <trkpt lat="50.55988" lon="3.2386">
        <ele>24.633564</ele>
        <time>2018-03-20T14:18:00Z</time>
      </trkpt>
      <trkpt lat="50.55996" lon="3.23864">
        <ele>24.529371</ele>
        <time>2018-03-20T14:18:02Z</time>
      </trkpt>
      <trkpt lat="50.56004" lon="3.23867">
        <ele>24.497578</ele>
        <time>2018-03-20T14:18:04Z</time>
      </trkpt>
      <trkpt lat="50.56012" lon="3.23869">
        <ele>24.434353</ele>
        <time>2018-03-20T14:18:06Z</time>
      </trkpt>
      <trkpt lat="50.5602" lon="3.23872">
        <ele>24.375715</ele>
        <time>2018-03-20T14:18:08Z</time>
      </trkpt>
      <trkpt lat="50.56028" lon="3.23875">
        <ele>24.325539</ele>
        <time>2018-03-20T14:18:10Z</time>
      </trkpt>
      <trkpt lat="50.56036" lon="3.23878">
        <ele>24.285244</ele>
        <time>2018-03-20T14:18:12Z</time>
      </trkpt>
      <trkpt lat="50.56044" lon="3.23881">
        <ele>24.267683</ele>
        <time>2018-03-20T14:18:14Z</time>
      </trkpt>
      <trkpt lat="50.56052" lon="3.23883">
        <ele>24.26639</ele>
        <time>2018-03-20T14:18:16Z</time>
      </trkpt>
      <trkpt lat="50.5606" lon="3.23884">
        <ele>24.240328</ele>
        <time>2018-03-20T14:18:18Z</time>
      </trkpt>
      <trkpt lat="50.56068" lon="3.23885">
        <ele>24.334637</ele>
        <time>2018-03-20T14:18:20Z</time>
      </trkpt>
      <trkpt lat="50.56076" lon="3.23884">
        <ele>24.399817</ele>
        <time>2018-03-20T14:18:22Z</time>
      </trkpt>
      <trkpt lat="50.56085" lon="3.23883">
        <ele>24.416565</ele>
        <time>2018-03-20T14:18:24Z</time>
      </trkpt>
      <trkpt lat="50.56093" lon="3.23881">
        <ele>24.427185</ele>
        <time>2018-03-20T14:18:26Z</time>
      </trkpt>
      <trkpt lat="50.56101" lon="3.23877">
        <ele>24.497433</ele>
        <time>2018-03-20T14:18:28Z</time>
      </trkpt>
      <trkpt lat="50.56108" lon="3.23874">
        <ele>24.608799</ele>
        <time>2018-03-20T14:18:30Z</time>
      </trkpt>
      <trkpt lat="50.56115" lon="3.23869">
        <ele>24.701426</ele>
        <time>2018-03-20T14:18:32Z</time>
      </trkpt>
      <trkpt lat="50.56122" lon="3.23864">
        <ele>24.806067</ele>
        <time>2018-03-20T14:18:34Z</time>
      </trkpt>
      <trkpt lat="50.56129" lon="3.23858">
        <ele>24.914221</ele>
        <time>2018-03-20T14:18:36Z</time>
      </trkpt>
      <trkpt lat="50.56135" lon="3.23852">
        <ele>25.043026</ele>
        <time>2018-03-20T14:18:38Z</time>
      </trkpt>
      <trkpt lat="50.56141" lon="3.23846">
        <ele>25.208281</ele>
        <time>2018-03-20T14:18:40Z</time>
      </trkpt>
      <trkpt lat="50.56149" lon="3.2384">
        <ele>25.371662</ele>
        <time>2018-03-20T14:18:42Z</time>
      </trkpt>
      <trkpt lat="50.56155" lon="3.23835">
        <ele>25.612101</ele>
        <time>2018-03-20T14:18:44Z</time>
      </trkpt>
      <trkpt lat="50.5616" lon="3.23831">
        <ele>25.908417</ele>
        <time>2018-03-20T14:18:46Z</time>
      </trkpt>
      <trkpt lat="50.56165" lon="3.23828">
        <ele>26.152914</ele>
        <time>2018-03-20T14:18:48Z</time>
      </trkpt>
      <trkpt lat="50.5617" lon="3.23824">
        <ele>26.453949</ele>
        <time>2018-03-20T14:18:50Z</time>
      </trkpt>
      <trkpt lat="50.56175" lon="3.23821">
        <ele>26.774326</ele>
        <time>2018-03-20T14:18:52Z</time>
      </trkpt>
      <trkpt lat="50.5618" lon="3.23818">
        <ele>27.067959</ele>
        <time>2018-03-20T14:18:54Z</time>
      </trkpt>
      <trkpt lat="50.56185" lon="3.23814">
        <ele>27.36565</ele>
        <time>2018-03-20T14:18:56Z</time>
      </trkpt>
      <trkpt lat="50.56191" lon="3.23811">
        <ele>27.652287</ele>
        <time>2018-03-20T14:18:58Z</time>
      </trkpt>
      <trkpt lat="50.56196" lon="3.23808">
        <ele>27.888926</ele>
        <time>2018-03-20T14:19:00Z</time>
      </trkpt>
      <trkpt lat="50.56202" lon="3.23806">
        <ele>28.192272</ele>
        <time>2018-03-20T14:19:02Z</time>
      </trkpt>
      <trkpt lat="50.56208" lon="3.23803">
        <ele>28.525318</ele>
        <time>2018-03-20T14:19:04Z</time>
      </trkpt>
      <trkpt lat="50.56215" lon="3.23801">
        <ele>28.6908</ele>
        <time>2018-03-20T14:19:06Z</time>
      </trkpt>
      <trkpt lat="50.56221" lon="3.23799">
        <ele>29.020428</ele>
        <time>2018-03-20T14:19:08Z</time>
      </trkpt>
      <trkpt lat="50.56227" lon="3.23796">
        <ele>29.332592</ele>
        <time>2018-03-20T14:19:10Z</time>
      </trkpt>
      <trkpt lat="50.56233" lon="3.23793">
        <ele>29.645039</ele>
        <time>2018-03-20T14:19:12Z</time>
      </trkpt>
      <trkpt lat="50.56238" lon="3.23791">
        <ele>29.982702</ele>
        <time>2018-03-20T14:19:14Z</time>
      </trkpt>
      <trkpt lat="50.56244" lon="3.23788">
        <ele>30.331518</ele>
        <time>2018-03-20T14:19:16Z</time>
      </trkpt>
      <trkpt lat="50.56249" lon="3.23785">
        <ele>30.69367</ele>
        <time>2018-03-20T14:19:18Z</time>
      </trkpt>
      <trkpt lat="50.56255" lon="3.23782">
        <ele>30.955072</ele>
        <time>2018-03-20T14:19:20Z</time>
      </trkpt>
      <trkpt lat="50.56261" lon="3.23778">
        <ele>31.278803</ele>
        <time>2018-03-20T14:19:22Z</time>
      </trkpt>
      <trkpt lat="50.56267" lon="3.23775">
        <ele>31.551525</ele>
        <time>2018-03-20T14:19:24Z</time>
      </trkpt>
      <trkpt lat="50.56273" lon="3.23772">
        <ele>31.710962</ele>
        <time>2018-03-20T14:19:26Z</time>
      </trkpt>
      <trkpt lat="50.56278" lon="3.23768">
        <ele>31.893024</ele>
        <time>2018-03-20T14:19:28Z</time>
      </trkpt>
      <trkpt lat="50.56284" lon="3.23764">
        <ele>32.10907</ele>
        <time>2018-03-20T14:19:30Z</time>
      </trkpt>
      <trkpt lat="50.56289" lon="3.23761">
        <ele>32.32616</ele>
        <time>2018-03-20T14:19:32Z</time>
      </trkpt>
      <trkpt lat="50.56294" lon="3.23757">
        <ele>32.54583</ele>
        <time>2018-03-20T14:19:34Z</time>
      </trkpt>
      <trkpt lat="50.56297" lon="3.23754">
        <ele>32.776783</ele>
        <time>2018-03-20T14:19:36Z</time>
      </trkpt>
      <trkpt lat="50.56301" lon="3.23752">
        <ele>32.890598</ele>
        <time>2018-03-20T14:19:38Z</time>
      </trkpt>
      <trkpt lat="50.56304" lon="3.23749">
        <ele>33.106564</ele>
        <time>2018-03-20T14:19:40Z</time>
      </trkpt>
      <trkpt lat="50.56306" lon="3.23748">
        <ele>33.284691</ele>
        <time>2018-03-20T14:19:42Z</time>
      </trkpt>
      <trkpt lat="50.56309" lon="3.23746">
        <ele>33.414791</ele>
        <time>2018-03-20T14:19:44Z</time>
      </trkpt>
      <trkpt lat="50.56311" lon="3.23744">
        <ele>33.522354</ele>
        <time>2018-03-20T14:19:46Z</time>
      </trkpt>
      <trkpt lat="50.56312" lon="3.23742">
        <ele>34.054848</ele>
        <time>2018-03-20T14:20:05Z</time>
      </trkpt>
      <trkpt lat="50.56315" lon="3.2374">
        <ele>34.140366</ele>
        <time>2018-03-20T14:20:07Z</time>
      </trkpt>
      <trkpt lat="50.56319" lon="3.23736">
        <ele>34.227039</ele>
        <time>2018-03-20T14:20:09Z</time>
      </trkpt>
      <trkpt lat="50.56324" lon="3.23732">
        <ele>34.261467</ele>
        <time>2018-03-20T14:20:11Z</time>
      </trkpt>
      <trkpt lat="50.56329" lon="3.23728">
        <ele>34.331844</ele>
        <time>2018-03-20T14:20:13Z</time>
      </trkpt>
      <trkpt lat="50.56334" lon="3.23724">
        <ele>34.340309</ele>
        <time>2018-03-20T14:20:15Z</time>
      </trkpt>
      <trkpt lat="50.56339" lon="3.23727">
        <ele>34.382011</ele>
        <time>2018-03-20T14:20:17Z</time>
      </trkpt>
      <trkpt lat="50.56343" lon="3.23736">
        <ele>34.377182</ele>
        <time>2018-03-20T14:20:19Z</time>
      </trkpt>
      <trkpt lat="50.56345" lon="3.23747">
        <ele>34.410515</ele>
        <time>2018-03-20T14:20:21Z</time>
      </trkpt>
      <trkpt lat="50.56347" lon="3.23759">
        <ele>34.491508</ele>
        <time>2018-03-20T14:20:23Z</time>
      </trkpt>
      <trkpt lat="50.5635" lon="3.2377">
        <ele>34.508766</ele>
        <time>2018-03-20T14:20:25Z</time>
      </trkpt>
      <trkpt lat="50.56352" lon="3.2378">
        <ele>34.638454</ele>
        <time>2018-03-20T14:20:27Z</time>
      </trkpt>
      <trkpt lat="50.56354" lon="3.23791">
        <ele>34.667526</ele>
        <time>2018-03-20T14:20:29Z</time>
      </trkpt>
      <trkpt lat="50.56356" lon="3.23803">
        <ele>34.778427</ele>
        <time>2018-03-20T14:20:31Z</time>
      </trkpt>
      <trkpt lat="50.56359" lon="3.23814">
        <ele>34.886162</ele>
        <time>2018-03-20T14:20:33Z</time>
      </trkpt>
      <trkpt lat="50.56361" lon="3.23826">
        <ele>35.033928</ele>
        <time>2018-03-20T14:20:35Z</time>
      </trkpt>
      <trkpt lat="50.56363" lon="3.23838">
        <ele>35.134178</ele>
        <time>2018-03-20T14:20:37Z</time>
      </trkpt>
      <trkpt lat="50.56363" lon="3.23849">
        <ele>35.27647</ele>
        <time>2018-03-20T14:20:39Z</time>
      </trkpt>
      <trkpt lat="50.56361" lon="3.2386">
        <ele>35.458424</ele>
        <time>2018-03-20T14:20:41Z</time>
      </trkpt>
      <trkpt lat="50.56359" lon="3.23871">
        <ele>35.639507</ele>
        <time>2018-03-20T14:20:43Z</time>
      </trkpt>
      <trkpt lat="50.56355" lon="3.2388">
        <ele>35.735085</ele>
        <time>2018-03-20T14:20:45Z</time>
      </trkpt>
      <trkpt lat="50.56352" lon="3.2389">
        <ele>35.916718</ele>
        <time>2018-03-20T14:20:47Z</time>
      </trkpt>
      <trkpt lat="50.56348" lon="3.239">
        <ele>36.121284</ele>
        <time>2018-03-20T14:20:49Z</time>
      </trkpt>
      <trkpt lat="50.56344" lon="3.23909">
        <ele>36.329277</ele>
        <time>2018-03-20T14:20:51Z</time>
      </trkpt>
      <trkpt lat="50.56344" lon="3.23921">
        <ele>36.524998</ele>
        <time>2018-03-20T14:20:53Z</time>
      </trkpt>
      <trkpt lat="50.56344" lon="3.23932">
        <ele>36.686729</ele>
        <time>2018-03-20T14:20:55Z</time>
      </trkpt>
      <trkpt lat="50.56346" lon="3.23943">
        <ele>36.877289</ele>
        <time>2018-03-20T14:20:57Z</time>
      </trkpt>
      <trkpt lat="50.56348" lon="3.23954">
        <ele>37.10215</ele>
        <time>2018-03-20T14:20:59Z</time>
      </trkpt>
      <trkpt lat="50.5635" lon="3.23964">
        <ele>37.33176</ele>
        <time>2018-03-20T14:21:01Z</time>
      </trkpt>
      <trkpt lat="50.56353" lon="3.23975">
        <ele>37.527992</ele>
        <time>2018-03-20T14:21:03Z</time>
      </trkpt>
      <trkpt lat="50.56356" lon="3.23985">
        <ele>37.745056</ele>
        <time>2018-03-20T14:21:05Z</time>
      </trkpt>
      <trkpt lat="50.56358" lon="3.23995">
        <ele>37.957726</ele>
        <time>2018-03-20T14:21:07Z</time>
      </trkpt>
      <trkpt lat="50.56361" lon="3.24005">
        <ele>38.13435</ele>
        <time>2018-03-20T14:21:09Z</time>
      </trkpt>
      <trkpt lat="50.56364" lon="3.24015">
        <ele>38.391693</ele>
        <time>2018-03-20T14:21:11Z</time>
      </trkpt>
      <trkpt lat="50.56365" lon="3.24025">
        <ele>38.588726</ele>
        <time>2018-03-20T14:21:13Z</time>
      </trkpt>
      <trkpt lat="50.56367" lon="3.24034">
        <ele>38.757671</ele>
        <time>2018-03-20T14:21:15Z</time>
      </trkpt>
      <trkpt lat="50.56368" lon="3.2404">
        <ele>38.872478</ele>
        <time>2018-03-20T14:21:17Z</time>
      </trkpt>
      <trkpt lat="50.56369" lon="3.24048">
        <ele>39.029472</ele>
        <time>2018-03-20T14:21:19Z</time>
      </trkpt>
      <trkpt lat="50.5637" lon="3.24055">
        <ele>39.201241</ele>
        <time>2018-03-20T14:21:21Z</time>
      </trkpt>
      <trkpt lat="50.56373" lon="3.24064">
        <ele>39.338886</ele>
        <time>2018-03-20T14:21:23Z</time>
      </trkpt>
      <trkpt lat="50.56376" lon="3.24071">
        <ele>39.512756</ele>
        <time>2018-03-20T14:21:25Z</time>
      </trkpt>
      <trkpt lat="50.56381" lon="3.24078">
        <ele>39.693459</ele>
        <time>2018-03-20T14:21:27Z</time>
      </trkpt>
      <trkpt lat="50.56385" lon="3.24085">
        <ele>39.854816</ele>
        <time>2018-03-20T14:21:29Z</time>
      </trkpt>
      <trkpt lat="50.56389" lon="3.24093">
        <ele>39.977486</ele>
        <time>2018-03-20T14:21:31Z</time>
      </trkpt>
      <trkpt lat="50.56393" lon="3.24101">
        <ele>40.091747</ele>
        <time>2018-03-20T14:21:33Z</time>
      </trkpt>
      <trkpt lat="50.56397" lon="3.24108">
        <ele>40.149178</ele>
        <time>2018-03-20T14:21:35Z</time>
      </trkpt>
      <trkpt lat="50.56402" lon="3.24116">
        <ele>40.221558</ele>
        <time>2018-03-20T14:21:37Z</time>
      </trkpt>
      <trkpt lat="50.56406" lon="3.24124">
        <ele>40.332634</ele>
        <time>2018-03-20T14:21:39Z</time>
      </trkpt>
      <trkpt lat="50.5641" lon="3.24132">
        <ele>40.384815</ele>
        <time>2018-03-20T14:21:41Z</time>
      </trkpt>
      <trkpt lat="50.56414" lon="3.24139">
        <ele>40.504601</ele>
        <time>2018-03-20T14:21:43Z</time>
      </trkpt>
      <trkpt lat="50.56419" lon="3.24148">
        <ele>40.602562</ele>
        <time>2018-03-20T14:21:45Z</time>
      </trkpt>
      <trkpt lat="50.56423" lon="3.24158">
        <ele>40.689461</ele>
        <time>2018-03-20T14:21:47Z</time>
      </trkpt>
      <trkpt lat="50.56428" lon="3.24167">
        <ele>40.724705</ele>
        <time>2018-03-20T14:21:49Z</time>
      </trkpt>
      <trkpt lat="50.56433" lon="3.24177">
        <ele>40.82016</ele>
        <time>2018-03-20T14:21:51Z</time>
      </trkpt>
      <trkpt lat="50.56438" lon="3.24186">
        <ele>40.840385</ele>
        <time>2018-03-20T14:21:53Z</time>
      </trkpt>
      <trkpt lat="50.56443" lon="3.24195">
        <ele>40.895847</ele>
        <time>2018-03-20T14:21:55Z</time>
      </trkpt>
      <trkpt lat="50.56448" lon="3.24204">
        <ele>40.929863</ele>
        <time>2018-03-20T14:21:57Z</time>
      </trkpt>
      <trkpt lat="50.56454" lon="3.24214">
        <ele>40.905483</ele>
        <time>2018-03-20T14:21:59Z</time>
      </trkpt>
      <trkpt lat="50.5646" lon="3.24224">
        <ele>40.901188</ele>
        <time>2018-03-20T14:22:01Z</time>
      </trkpt>
      <trkpt lat="50.56466" lon="3.24234">
        <ele>40.885105</ele>
        <time>2018-03-20T14:22:03Z</time>
      </trkpt>
      <trkpt lat="50.56472" lon="3.24244">
        <ele>40.892429</ele>
        <time>2018-03-20T14:22:05Z</time>
      </trkpt>
      <trkpt lat="50.56479" lon="3.24254">
        <ele>40.81863</ele>
        <time>2018-03-20T14:22:07Z</time>
      </trkpt>
      <trkpt lat="50.56485" lon="3.24263">
        <ele>40.778786</ele>
        <time>2018-03-20T14:22:09Z</time>
      </trkpt>
      <trkpt lat="50.56491" lon="3.24272">
        <ele>40.777473</ele>
        <time>2018-03-20T14:22:11Z</time>
      </trkpt>
      <trkpt lat="50.56497" lon="3.2428">
        <ele>40.771584</ele>
        <time>2018-03-20T14:22:13Z</time>
      </trkpt>
      <trkpt lat="50.56504" lon="3.24288">
        <ele>40.76226</ele>
        <time>2018-03-20T14:22:15Z</time>
      </trkpt>
      <trkpt lat="50.56511" lon="3.24297">
        <ele>40.802052</ele>
        <time>2018-03-20T14:22:17Z</time>
      </trkpt>
      <trkpt lat="50.56518" lon="3.24306">
        <ele>40.817772</ele>
        <time>2018-03-20T14:22:19Z</time>
      </trkpt>
      <trkpt lat="50.56525" lon="3.24315">
        <ele>40.786137</ele>
        <time>2018-03-20T14:22:21Z</time>
      </trkpt>
      <trkpt lat="50.56533" lon="3.24324">
        <ele>40.703362</ele>
        <time>2018-03-20T14:22:23Z</time>
      </trkpt>
      <trkpt lat="50.56539" lon="3.24333">
        <ele>40.645405</ele>
        <time>2018-03-20T14:22:25Z</time>
      </trkpt>
      <trkpt lat="50.56546" lon="3.24342">
        <ele>40.579941</ele>
        <time>2018-03-20T14:22:27Z</time>
      </trkpt>
      <trkpt lat="50.56553" lon="3.24351">
        <ele>40.516186</ele>
        <time>2018-03-20T14:22:29Z</time>
      </trkpt>
      <trkpt lat="50.56559" lon="3.2436">
        <ele>40.466038</ele>
        <time>2018-03-20T14:22:31Z</time>
      </trkpt>
      <trkpt lat="50.56567" lon="3.24369">
        <ele>40.340145</ele>
        <time>2018-03-20T14:22:33Z</time>
      </trkpt>
      <trkpt lat="50.56575" lon="3.24379">
        <ele>40.277943</ele>
        <time>2018-03-20T14:22:35Z</time>
      </trkpt>
      <trkpt lat="50.56583" lon="3.24389">
        <ele>40.139015</ele>
        <time>2018-03-20T14:22:37Z</time>
      </trkpt>
      <trkpt lat="50.56591" lon="3.24399">
        <ele>39.999088</ele>
        <time>2018-03-20T14:22:39Z</time>
      </trkpt>
      <trkpt lat="50.56599" lon="3.2441">
        <ele>39.901505</ele>
        <time>2018-03-20T14:22:41Z</time>
      </trkpt>
      <trkpt lat="50.56607" lon="3.2442">
        <ele>39.809292</ele>
        <time>2018-03-20T14:22:43Z</time>
      </trkpt>
      <trkpt lat="50.56615" lon="3.2443">
        <ele>39.713329</ele>
        <time>2018-03-20T14:22:45Z</time>
      </trkpt>
      <trkpt lat="50.56622" lon="3.2444">
        <ele>39.568569</ele>
        <time>2018-03-20T14:22:47Z</time>
      </trkpt>
      <trkpt lat="50.56629" lon="3.24449">
        <ele>39.436993</ele>
        <time>2018-03-20T14:22:49Z</time>
      </trkpt>
      <trkpt lat="50.56636" lon="3.24459">
        <ele>39.305485</ele>
        <time>2018-03-20T14:22:51Z</time>
      </trkpt>
      <trkpt lat="50.56643" lon="3.2447">
        <ele>39.069893</ele>
        <time>2018-03-20T14:22:53Z</time>
      </trkpt>
      <trkpt lat="50.56648" lon="3.24482">
        <ele>38.92382</ele>
        <time>2018-03-20T14:22:55Z</time>
      </trkpt>
      <trkpt lat="50.56654" lon="3.24493">
        <ele>38.693413</ele>
        <time>2018-03-20T14:22:57Z</time>
      </trkpt>
      <trkpt lat="50.5666" lon="3.24505">
        <ele>38.473072</ele>
        <time>2018-03-20T14:22:59Z</time>
      </trkpt>
      <trkpt lat="50.56666" lon="3.24517">
        <ele>38.328621</ele>
        <time>2018-03-20T14:23:01Z</time>
      </trkpt>
      <trkpt lat="50.56672" lon="3.24529">
        <ele>38.128166</ele>
        <time>2018-03-20T14:23:03Z</time>
      </trkpt>
      <trkpt lat="50.56677" lon="3.24542">
        <ele>37.89278</ele>
        <time>2018-03-20T14:23:05Z</time>
      </trkpt>
      <trkpt lat="50.56681" lon="3.24556">
        <ele>37.69714</ele>
        <time>2018-03-20T14:23:07Z</time>
      </trkpt>
      <trkpt lat="50.56685" lon="3.2457">
        <ele>37.634045</ele>
        <time>2018-03-20T14:23:09Z</time>
      </trkpt>
      <trkpt lat="50.56686" lon="3.24585">
        <ele>37.503437</ele>
        <time>2018-03-20T14:23:11Z</time>
      </trkpt>
      <trkpt lat="50.56688" lon="3.24599">
        <ele>37.313023</ele>
        <time>2018-03-20T14:23:13Z</time>
      </trkpt>
      <trkpt lat="50.5669" lon="3.24614">
        <ele>37.119507</ele>
        <time>2018-03-20T14:23:15Z</time>
      </trkpt>
      <trkpt lat="50.56693" lon="3.2463">
        <ele>36.948334</ele>
        <time>2018-03-20T14:23:17Z</time>
      </trkpt>
      <trkpt lat="50.56695" lon="3.24646">
        <ele>36.828327</ele>
        <time>2018-03-20T14:23:19Z</time>
      </trkpt>
      <trkpt lat="50.56698" lon="3.24662">
        <ele>36.761028</ele>
        <time>2018-03-20T14:23:21Z</time>
      </trkpt>
      <trkpt lat="50.56701" lon="3.24677">
        <ele>36.633671</ele>
        <time>2018-03-20T14:23:23Z</time>
      </trkpt>
      <trkpt lat="50.56703" lon="3.24691">
        <ele>36.476776</ele>
        <time>2018-03-20T14:23:25Z</time>
      </trkpt>
      <trkpt lat="50.56706" lon="3.24704">
        <ele>36.306892</ele>
        <time>2018-03-20T14:23:27Z</time>
      </trkpt>
      <trkpt lat="50.56711" lon="3.24717">
        <ele>36.115429</ele>
        <time>2018-03-20T14:23:29Z</time>
      </trkpt>
      <trkpt lat="50.56716" lon="3.24729">
        <ele>35.954834</ele>
        <time>2018-03-20T14:23:31Z</time>
      </trkpt>
      <trkpt lat="50.56722" lon="3.24741">
        <ele>35.849846</ele>
        <time>2018-03-20T14:23:33Z</time>
      </trkpt>
      <trkpt lat="50.56728" lon="3.24752">
        <ele>35.753262</ele>
        <time>2018-03-20T14:23:35Z</time>
      </trkpt>
      <trkpt lat="50.56734" lon="3.24761">
        <ele>35.688541</ele>
        <time>2018-03-20T14:23:37Z</time>
      </trkpt>
      <trkpt lat="50.56741" lon="3.2477">
        <ele>35.594093</ele>
        <time>2018-03-20T14:23:39Z</time>
      </trkpt>
      <trkpt lat="50.56747" lon="3.2478">
        <ele>35.487003</ele>
        <time>2018-03-20T14:23:41Z</time>
      </trkpt>
      <trkpt lat="50.56754" lon="3.2479">
        <ele>35.363636</ele>
        <time>2018-03-20T14:23:43Z</time>
      </trkpt>
      <trkpt lat="50.5676" lon="3.24799">
        <ele>35.306355</ele>
        <time>2018-03-20T14:23:45Z</time>
      </trkpt>
      <trkpt lat="50.56767" lon="3.24809">
        <ele>35.296535</ele>
        <time>2018-03-20T14:23:47Z</time>
      </trkpt>
      <trkpt lat="50.56774" lon="3.24818">
        <ele>35.24229</ele>
        <time>2018-03-20T14:23:49Z</time>
      </trkpt>
      <trkpt lat="50.56781" lon="3.24828">
        <ele>35.138214</ele>
        <time>2018-03-20T14:23:51Z</time>
      </trkpt>
      <trkpt lat="50.56788" lon="3.24837">
        <ele>35.063866</ele>
        <time>2018-03-20T14:23:53Z</time>
      </trkpt>
      <trkpt lat="50.56796" lon="3.24844">
        <ele>35.01133</ele>
        <time>2018-03-20T14:23:55Z</time>
      </trkpt>
      <trkpt lat="50.56805" lon="3.24849">
        <ele>34.998642</ele>
        <time>2018-03-20T14:23:57Z</time>
      </trkpt>
      <trkpt lat="50.56813" lon="3.24853">
        <ele>34.925491</ele>
        <time>2018-03-20T14:23:59Z</time>
      </trkpt>
      <trkpt lat="50.56821" lon="3.24857">
        <ele>34.897034</ele>
        <time>2018-03-20T14:24:01Z</time>
      </trkpt>
      <trkpt lat="50.56828" lon="3.24864">
        <ele>34.790188</ele>
        <time>2018-03-20T14:24:03Z</time>
      </trkpt>
      <trkpt lat="50.56836" lon="3.24869">
        <ele>34.752808</ele>
        <time>2018-03-20T14:24:05Z</time>
      </trkpt>
      <trkpt lat="50.56843" lon="3.24874">
        <ele>34.710072</ele>
        <time>2018-03-20T14:24:07Z</time>
      </trkpt>
      <trkpt lat="50.5685" lon="3.24878">
        <ele>34.716198</ele>
        <time>2018-03-20T14:24:09Z</time>
      </trkpt>
      <trkpt lat="50.56857" lon="3.24882">
        <ele>34.753777</ele>
        <time>2018-03-20T14:24:11Z</time>
      </trkpt>
      <trkpt lat="50.56864" lon="3.24886">
        <ele>34.801186</ele>
        <time>2018-03-20T14:24:13Z</time>
      </trkpt>
      <trkpt lat="50.56871" lon="3.24891">
        <ele>34.835552</ele>
        <time>2018-03-20T14:24:15Z</time>
      </trkpt>
      <trkpt lat="50.56878" lon="3.24894">
        <ele>34.864704</ele>
        <time>2018-03-20T14:24:17Z</time>
      </trkpt>
      <trkpt lat="50.56885" lon="3.24899">
        <ele>34.911915</ele>
        <time>2018-03-20T14:24:19Z</time>
      </trkpt>
      <trkpt lat="50.56892" lon="3.24903">
        <ele>35.011841</ele>
        <time>2018-03-20T14:24:21Z</time>
      </trkpt>
      <trkpt lat="50.56899" lon="3.24907">
        <ele>35.078529</ele>
        <time>2018-03-20T14:24:23Z</time>
      </trkpt>
      <trkpt lat="50.56905" lon="3.24911">
        <ele>35.125378</ele>
        <time>2018-03-20T14:24:25Z</time>
      </trkpt>
      <trkpt lat="50.56912" lon="3.24915">
        <ele>35.15575</ele>
        <time>2018-03-20T14:24:27Z</time>
      </trkpt>
      <trkpt lat="50.56919" lon="3.24919">
        <ele>35.140575</ele>
        <time>2018-03-20T14:24:29Z</time>
      </trkpt>
      <trkpt lat="50.56926" lon="3.24923">
        <ele>35.237282</ele>
        <time>2018-03-20T14:24:31Z</time>
      </trkpt>
      <trkpt lat="50.56932" lon="3.24928">
        <ele>35.311054</ele>
        <time>2018-03-20T14:24:33Z</time>
      </trkpt>
      <trkpt lat="50.56939" lon="3.24932">
        <ele>35.369122</ele>
        <time>2018-03-20T14:24:35Z</time>
      </trkpt>
      <trkpt lat="50.56946" lon="3.24937">
        <ele>35.46212</ele>
        <time>2018-03-20T14:24:37Z</time>
      </trkpt>
      <trkpt lat="50.56953" lon="3.24941">
        <ele>35.5588</ele>
        <time>2018-03-20T14:24:39Z</time>
      </trkpt>
      <trkpt lat="50.5696" lon="3.24945">
        <ele>35.621361</ele>
        <time>2018-03-20T14:24:41Z</time>
      </trkpt>
      <trkpt lat="50.56967" lon="3.24949">
        <ele>35.708717</ele>
        <time>2018-03-20T14:24:43Z</time>
      </trkpt>
      <trkpt lat="50.56974" lon="3.24952">
        <ele>35.880501</ele>
        <time>2018-03-20T14:24:45Z</time>
      </trkpt>
      <trkpt lat="50.56981" lon="3.24955">
        <ele>35.964581</ele>
        <time>2018-03-20T14:24:47Z</time>
      </trkpt>
      <trkpt lat="50.56987" lon="3.24959">
        <ele>35.983421</ele>
        <time>2018-03-20T14:24:49Z</time>
      </trkpt>
      <trkpt lat="50.56994" lon="3.24963">
        <ele>36.083179</ele>
        <time>2018-03-20T14:24:51Z</time>
      </trkpt>
      <trkpt lat="50.57001" lon="3.24969">
        <ele>36.163734</ele>
        <time>2018-03-20T14:24:53Z</time>
      </trkpt>
      <trkpt lat="50.57007" lon="3.24974">
        <ele>36.234917</ele>
        <time>2018-03-20T14:24:55Z</time>
      </trkpt>
      <trkpt lat="50.57014" lon="3.2498">
        <ele>36.300621</ele>
        <time>2018-03-20T14:24:57Z</time>
      </trkpt>
      <trkpt lat="50.57021" lon="3.24985">
        <ele>36.310249</ele>
        <time>2018-03-20T14:24:59Z</time>
      </trkpt>
      <trkpt lat="50.57029" lon="3.24991">
        <ele>36.313862</ele>
        <time>2018-03-20T14:25:01Z</time>
      </trkpt>
      <trkpt lat="50.57037" lon="3.24997">
        <ele>36.381969</ele>
        <time>2018-03-20T14:25:03Z</time>
      </trkpt>
      <trkpt lat="50.57044" lon="3.25004">
        <ele>36.467724</ele>
        <time>2018-03-20T14:25:05Z</time>
      </trkpt>
      <trkpt lat="50.57051" lon="3.2501">
        <ele>36.571678</ele>
        <time>2018-03-20T14:25:07Z</time>
      </trkpt>
      <trkpt lat="50.57058" lon="3.25016">
        <ele>36.659595</ele>
        <time>2018-03-20T14:25:09Z</time>
      </trkpt>
      <trkpt lat="50.57065" lon="3.25023">
        <ele>36.765057</ele>
        <time>2018-03-20T14:25:11Z</time>
      </trkpt>
      <trkpt lat="50.57072" lon="3.2503">
        <ele>36.834881</ele>
        <time>2018-03-20T14:25:13Z</time>
      </trkpt>
      <trkpt lat="50.5708" lon="3.25037">
        <ele>36.929005</ele>
        <time>2018-03-20T14:25:15Z</time>
      </trkpt>
      <trkpt lat="50.57086" lon="3.25045">
        <ele>36.976971</ele>
        <time>2018-03-20T14:25:17Z</time>
      </trkpt>
      <trkpt lat="50.57092" lon="3.25053">
        <ele>37.049171</ele>
        <time>2018-03-20T14:25:19Z</time>
      </trkpt>
      <trkpt lat="50.57097" lon="3.25063">
        <ele>37.162197</ele>
        <time>2018-03-20T14:25:21Z</time>
      </trkpt>
      <trkpt lat="50.57101" lon="3.25074">
        <ele>37.268425</ele>
        <time>2018-03-20T14:25:23Z</time>
      </trkpt>
      <trkpt lat="50.57105" lon="3.25086">
        <ele>37.312218</ele>
        <time>2018-03-20T14:25:25Z</time>
      </trkpt>
      <trkpt lat="50.57108" lon="3.25098">
        <ele>37.358261</ele>
        <time>2018-03-20T14:25:27Z</time>
      </trkpt>
      <trkpt lat="50.5711" lon="3.25111">
        <ele>37.442066</ele>
        <time>2018-03-20T14:25:29Z</time>
      </trkpt>
      <trkpt lat="50.5711" lon="3.25124">
        <ele>37.556713</ele>
        <time>2018-03-20T14:25:31Z</time>
      </trkpt>
      <trkpt lat="50.5711" lon="3.25137">
        <ele>37.620041</ele>
        <time>2018-03-20T14:25:33Z</time>
      </trkpt>
      <trkpt lat="50.57108" lon="3.25151">
        <ele>37.684319</ele>
        <time>2018-03-20T14:25:35Z</time>
      </trkpt>
      <trkpt lat="50.57106" lon="3.25165">
        <ele>37.749084</ele>
        <time>2018-03-20T14:25:37Z</time>
      </trkpt>
      <trkpt lat="50.57103" lon="3.25178">
        <ele>37.832687</ele>
        <time>2018-03-20T14:25:39Z</time>
      </trkpt>
      <trkpt lat="50.571" lon="3.25191">
        <ele>37.970947</ele>
        <time>2018-03-20T14:25:41Z</time>
      </trkpt>
      <trkpt lat="50.57097" lon="3.25204">
        <ele>38.14357</ele>
        <time>2018-03-20T14:25:43Z</time>
      </trkpt>
      <trkpt lat="50.57093" lon="3.25217">
        <ele>38.202171</ele>
        <time>2018-03-20T14:25:45Z</time>
      </trkpt>
      <trkpt lat="50.57091" lon="3.2523">
        <ele>38.30407</ele>
        <time>2018-03-20T14:25:47Z</time>
      </trkpt>
      <trkpt lat="50.57088" lon="3.25243">
        <ele>38.406033</ele>
        <time>2018-03-20T14:25:49Z</time>
      </trkpt>
      <trkpt lat="50.57085" lon="3.25256">
        <ele>38.52179</ele>
        <time>2018-03-20T14:25:51Z</time>
      </trkpt>
      <trkpt lat="50.57081" lon="3.25269">
        <ele>38.594711</ele>
        <time>2018-03-20T14:25:53Z</time>
      </trkpt>
      <trkpt lat="50.57079" lon="3.25283">
        <ele>38.641575</ele>
        <time>2018-03-20T14:25:55Z</time>
      </trkpt>
      <trkpt lat="50.57076" lon="3.25296">
        <ele>38.72496</ele>
        <time>2018-03-20T14:25:57Z</time>
      </trkpt>
      <trkpt lat="50.57072" lon="3.25309">
        <ele>38.822922</ele>
        <time>2018-03-20T14:25:59Z</time>
      </trkpt>
      <trkpt lat="50.57069" lon="3.25322">
        <ele>38.909843</ele>
        <time>2018-03-20T14:26:01Z</time>
      </trkpt>
      <trkpt lat="50.57065" lon="3.25334">
        <ele>39.012836</ele>
        <time>2018-03-20T14:26:03Z</time>
      </trkpt>
      <trkpt lat="50.5706" lon="3.25347">
        <ele>39.138435</ele>
        <time>2018-03-20T14:26:05Z</time>
      </trkpt>
      <trkpt lat="50.57055" lon="3.2536">
        <ele>39.181091</ele>
        <time>2018-03-20T14:26:07Z</time>
      </trkpt>
      <trkpt lat="50.5705" lon="3.25372">
        <ele>39.254177</ele>
        <time>2018-03-20T14:26:09Z</time>
      </trkpt>
      <trkpt lat="50.57045" lon="3.25385">
        <ele>39.239197</ele>
        <time>2018-03-20T14:26:11Z</time>
      </trkpt>
      <trkpt lat="50.5704" lon="3.25399">
        <ele>39.221581</ele>
        <time>2018-03-20T14:26:13Z</time>
      </trkpt>
      <trkpt lat="50.57034" lon="3.25413">
        <ele>39.246208</ele>
        <time>2018-03-20T14:26:15Z</time>
      </trkpt>
      <trkpt lat="50.57028" lon="3.25428">
        <ele>39.248928</ele>
        <time>2018-03-20T14:26:17Z</time>
      </trkpt>
      <trkpt lat="50.57022" lon="3.25444">
        <ele>39.180641</ele>
        <time>2018-03-20T14:26:19Z</time>
      </trkpt>
      <trkpt lat="50.57016" lon="3.25461">
        <ele>39.101795</ele>
        <time>2018-03-20T14:26:21Z</time>
      </trkpt>
      <trkpt lat="50.5701" lon="3.25479">
        <ele>38.959114</ele>
        <time>2018-03-20T14:26:23Z</time>
      </trkpt>
      <trkpt lat="50.57004" lon="3.25498">
        <ele>38.830177</ele>
        <time>2018-03-20T14:26:25Z</time>
      </trkpt>
      <trkpt lat="50.57" lon="3.25518">
        <ele>38.66275</ele>
        <time>2018-03-20T14:26:27Z</time>
      </trkpt>
      <trkpt lat="50.56996" lon="3.25538">
        <ele>38.446072</ele>
        <time>2018-03-20T14:26:29Z</time>
      </trkpt>
      <trkpt lat="50.56993" lon="3.25558">
        <ele>38.222248</ele>
        <time>2018-03-20T14:26:31Z</time>
      </trkpt>
      <trkpt lat="50.56989" lon="3.25577">
        <ele>38.000134</ele>
        <time>2018-03-20T14:26:33Z</time>
      </trkpt>
      <trkpt lat="50.56985" lon="3.25596">
        <ele>37.742027</ele>
        <time>2018-03-20T14:26:35Z</time>
      </trkpt>
      <trkpt lat="50.56981" lon="3.25614">
        <ele>37.523163</ele>
        <time>2018-03-20T14:26:37Z</time>
      </trkpt>
      <trkpt lat="50.56977" lon="3.25632">
        <ele>37.315979</ele>
        <time>2018-03-20T14:26:39Z</time>
      </trkpt>
      <trkpt lat="50.56973" lon="3.25649">
        <ele>37.080666</ele>
        <time>2018-03-20T14:26:41Z</time>
      </trkpt>
      <trkpt lat="50.56968" lon="3.25666">
        <ele>36.941479</ele>
        <time>2018-03-20T14:26:43Z</time>
      </trkpt>
      <trkpt lat="50.56965" lon="3.25682">
        <ele>36.623627</ele>
        <time>2018-03-20T14:26:45Z</time>
      </trkpt>
      <trkpt lat="50.56961" lon="3.25698">
        <ele>36.304939</ele>
        <time>2018-03-20T14:26:47Z</time>
      </trkpt>
      <trkpt lat="50.56957" lon="3.25713">
        <ele>35.977039</ele>
        <time>2018-03-20T14:26:49Z</time>
      </trkpt>
      <trkpt lat="50.56954" lon="3.25729">
        <ele>35.73814</ele>
        <time>2018-03-20T14:26:51Z</time>
      </trkpt>
      <trkpt lat="50.56951" lon="3.25745">
        <ele>35.480122</ele>
        <time>2018-03-20T14:26:53Z</time>
      </trkpt>
      <trkpt lat="50.56947" lon="3.25761">
        <ele>35.169212</ele>
        <time>2018-03-20T14:26:55Z</time>
      </trkpt>
      <trkpt lat="50.56944" lon="3.25777">
        <ele>34.914528</ele>
        <time>2018-03-20T14:26:57Z</time>
      </trkpt>
      <trkpt lat="50.56939" lon="3.25793">
        <ele>34.665253</ele>
        <time>2018-03-20T14:26:59Z</time>
      </trkpt>
      <trkpt lat="50.56936" lon="3.25809">
        <ele>34.422924</ele>
        <time>2018-03-20T14:27:01Z</time>
      </trkpt>
      <trkpt lat="50.56933" lon="3.25825">
        <ele>34.241108</ele>
        <time>2018-03-20T14:27:03Z</time>
      </trkpt>
      <trkpt lat="50.56929" lon="3.2584">
        <ele>34.04076</ele>
        <time>2018-03-20T14:27:05Z</time>
      </trkpt>
      <trkpt lat="50.56926" lon="3.25856">
        <ele>33.832245</ele>
        <time>2018-03-20T14:27:07Z</time>
      </trkpt>
      <trkpt lat="50.56923" lon="3.25872">
        <ele>33.635201</ele>
        <time>2018-03-20T14:27:09Z</time>
      </trkpt>
      <trkpt lat="50.5692" lon="3.25887">
        <ele>33.569824</ele>
        <time>2018-03-20T14:27:11Z</time>
      </trkpt>
      <trkpt lat="50.56916" lon="3.25902">
        <ele>33.38908</ele>
        <time>2018-03-20T14:27:13Z</time>
      </trkpt>
      <trkpt lat="50.56913" lon="3.25917">
        <ele>33.238628</ele>
        <time>2018-03-20T14:27:15Z</time>
      </trkpt>
      <trkpt lat="50.5691" lon="3.25932">
        <ele>33.157448</ele>
        <time>2018-03-20T14:27:17Z</time>
      </trkpt>
      <trkpt lat="50.56907" lon="3.25945">
        <ele>33.016247</ele>
        <time>2018-03-20T14:27:19Z</time>
      </trkpt>
      <trkpt lat="50.56904" lon="3.25959">
        <ele>32.842083</ele>
        <time>2018-03-20T14:27:21Z</time>
      </trkpt>
      <trkpt lat="50.569" lon="3.25974">
        <ele>32.7416</ele>
        <time>2018-03-20T14:27:23Z</time>
      </trkpt>
      <trkpt lat="50.56897" lon="3.25988">
        <ele>32.625759</ele>
        <time>2018-03-20T14:27:25Z</time>
      </trkpt>
      <trkpt lat="50.56894" lon="3.26003">
        <ele>32.547874</ele>
        <time>2018-03-20T14:27:27Z</time>
      </trkpt>
      <trkpt lat="50.56891" lon="3.26018">
        <ele>32.540329</ele>
        <time>2018-03-20T14:27:29Z</time>
      </trkpt>
      <trkpt lat="50.56887" lon="3.26032">
        <ele>32.567516</ele>
        <time>2018-03-20T14:27:31Z</time>
      </trkpt>
      <trkpt lat="50.56884" lon="3.26047">
        <ele>32.539516</ele>
        <time>2018-03-20T14:27:33Z</time>
      </trkpt>
      <trkpt lat="50.56881" lon="3.26061">
        <ele>32.574673</ele>
        <time>2018-03-20T14:27:35Z</time>
      </trkpt>
      <trkpt lat="50.56878" lon="3.26076">
        <ele>32.605488</ele>
        <time>2018-03-20T14:27:37Z</time>
      </trkpt>
      <trkpt lat="50.56874" lon="3.2609">
        <ele>32.649193</ele>
        <time>2018-03-20T14:27:39Z</time>
      </trkpt>
      <trkpt lat="50.5687" lon="3.26104">
        <ele>32.668983</ele>
        <time>2018-03-20T14:27:41Z</time>
      </trkpt>
      <trkpt lat="50.56865" lon="3.26118">
        <ele>32.677639</ele>
        <time>2018-03-20T14:27:43Z</time>
      </trkpt>
      <trkpt lat="50.56861" lon="3.26132">
        <ele>32.683086</ele>
        <time>2018-03-20T14:27:45Z</time>
      </trkpt>
      <trkpt lat="50.56855" lon="3.26144">
        <ele>32.675659</ele>
        <time>2018-03-20T14:27:47Z</time>
      </trkpt>
      <trkpt lat="50.56851" lon="3.26158">
        <ele>32.719555</ele>
        <time>2018-03-20T14:27:49Z</time>
      </trkpt>
      <trkpt lat="50.56846" lon="3.26171">
        <ele>32.749931</ele>
        <time>2018-03-20T14:27:51Z</time>
      </trkpt>
      <trkpt lat="50.56842" lon="3.26184">
        <ele>32.769325</ele>
        <time>2018-03-20T14:27:53Z</time>
      </trkpt>
      <trkpt lat="50.56836" lon="3.26198">
        <ele>32.788811</ele>
        <time>2018-03-20T14:27:55Z</time>
      </trkpt>
      <trkpt lat="50.56832" lon="3.26212">
        <ele>32.797768</ele>
        <time>2018-03-20T14:27:57Z</time>
      </trkpt>
      <trkpt lat="50.56827" lon="3.26225">
        <ele>32.815952</ele>
        <time>2018-03-20T14:27:59Z</time>
      </trkpt>
      <trkpt lat="50.56823" lon="3.26237">
        <ele>32.862267</ele>
        <time>2018-03-20T14:28:01Z</time>
      </trkpt>
      <trkpt lat="50.5682" lon="3.2625">
        <ele>32.909409</ele>
        <time>2018-03-20T14:28:03Z</time>
      </trkpt>
      <trkpt lat="50.56815" lon="3.26263">
        <ele>32.913441</ele>
        <time>2018-03-20T14:28:05Z</time>
      </trkpt>
      <trkpt lat="50.5681" lon="3.26277">
        <ele>32.945438</ele>
        <time>2018-03-20T14:28:07Z</time>
      </trkpt>
      <trkpt lat="50.56805" lon="3.26292">
        <ele>32.977268</ele>
        <time>2018-03-20T14:28:09Z</time>
      </trkpt>
      <trkpt lat="50.56802" lon="3.26307">
        <ele>33.02335</ele>
        <time>2018-03-20T14:28:11Z</time>
      </trkpt>
      <trkpt lat="50.56798" lon="3.26322">
        <ele>33.026833</ele>
        <time>2018-03-20T14:28:13Z</time>
      </trkpt>
      <trkpt lat="50.56796" lon="3.26336">
        <ele>32.99818</ele>
        <time>2018-03-20T14:28:15Z</time>
      </trkpt>
      <trkpt lat="50.56792" lon="3.2635">
        <ele>33.016167</ele>
        <time>2018-03-20T14:28:17Z</time>
      </trkpt>
      <trkpt lat="50.56789" lon="3.26363">
        <ele>33.016705</ele>
        <time>2018-03-20T14:28:19Z</time>
      </trkpt>
      <trkpt lat="50.56786" lon="3.26378">
        <ele>33.000793</ele>
        <time>2018-03-20T14:28:21Z</time>
      </trkpt>
      <trkpt lat="50.56781" lon="3.26393">
        <ele>32.957779</ele>
        <time>2018-03-20T14:28:23Z</time>
      </trkpt>
      <trkpt lat="50.56776" lon="3.26408">
        <ele>32.893524</ele>
        <time>2018-03-20T14:28:25Z</time>
      </trkpt>
      <trkpt lat="50.56772" lon="3.26423">
        <ele>32.911415</ele>
        <time>2018-03-20T14:28:27Z</time>
      </trkpt>
      <trkpt lat="50.56767" lon="3.26437">
        <ele>32.905697</ele>
        <time>2018-03-20T14:28:29Z</time>
      </trkpt>
      <trkpt lat="50.56762" lon="3.26452">
        <ele>32.859554</ele>
        <time>2018-03-20T14:28:31Z</time>
      </trkpt>
      <trkpt lat="50.56759" lon="3.26466">
        <ele>32.852901</ele>
        <time>2018-03-20T14:28:33Z</time>
      </trkpt>
      <trkpt lat="50.56755" lon="3.2648">
        <ele>32.838478</ele>
        <time>2018-03-20T14:28:35Z</time>
      </trkpt>
      <trkpt lat="50.56754" lon="3.26495">
        <ele>32.833755</ele>
        <time>2018-03-20T14:28:37Z</time>
      </trkpt>
      <trkpt lat="50.56755" lon="3.2651">
        <ele>32.798603</ele>
        <time>2018-03-20T14:28:39Z</time>
      </trkpt>
      <trkpt lat="50.56759" lon="3.26525">
        <ele>32.746326</ele>
        <time>2018-03-20T14:28:41Z</time>
      </trkpt>
      <trkpt lat="50.56765" lon="3.26538">
        <ele>32.641235</ele>
        <time>2018-03-20T14:28:43Z</time>
      </trkpt>
      <trkpt lat="50.56772" lon="3.26547">
        <ele>32.602394</ele>
        <time>2018-03-20T14:28:45Z</time>
      </trkpt>
      <trkpt lat="50.56781" lon="3.26553">
        <ele>32.51812</ele>
        <time>2018-03-20T14:28:47Z</time>
      </trkpt>
      <trkpt lat="50.56791" lon="3.26557">
        <ele>32.460701</ele>
        <time>2018-03-20T14:28:49Z</time>
      </trkpt>
      <trkpt lat="50.568" lon="3.26561">
        <ele>32.424194</ele>
        <time>2018-03-20T14:28:51Z</time>
      </trkpt>
      <trkpt lat="50.5681" lon="3.26565">
        <ele>32.32827</ele>
        <time>2018-03-20T14:28:53Z</time>
      </trkpt>
      <trkpt lat="50.5682" lon="3.26569">
        <ele>32.230766</ele>
        <time>2018-03-20T14:28:55Z</time>
      </trkpt>
      <trkpt lat="50.56829" lon="3.26571">
        <ele>32.177471</ele>
        <time>2018-03-20T14:28:57Z</time>
      </trkpt>
      <trkpt lat="50.56838" lon="3.26574">
        <ele>32.124931</ele>
        <time>2018-03-20T14:28:59Z</time>
      </trkpt>
      <trkpt lat="50.56847" lon="3.26575">
        <ele>32.096565</ele>
        <time>2018-03-20T14:29:01Z</time>
      </trkpt>
      <trkpt lat="50.56857" lon="3.26575">
        <ele>32.065441</ele>
        <time>2018-03-20T14:29:03Z</time>
      </trkpt>
      <trkpt lat="50.56867" lon="3.26574">
        <ele>32.096516</ele>
        <time>2018-03-20T14:29:05Z</time>
      </trkpt>
      <trkpt lat="50.56877" lon="3.26572">
        <ele>32.111012</ele>
        <time>2018-03-20T14:29:07Z</time>
      </trkpt>
      <trkpt lat="50.56886" lon="3.2657">
        <ele>32.04142</ele>
        <time>2018-03-20T14:29:09Z</time>
      </trkpt>
      <trkpt lat="50.56896" lon="3.26569">
        <ele>32.054176</ele>
        <time>2018-03-20T14:29:11Z</time>
      </trkpt>
      <trkpt lat="50.56906" lon="3.26567">
        <ele>32.033428</ele>
        <time>2018-03-20T14:29:13Z</time>
      </trkpt>
      <trkpt lat="50.56916" lon="3.26566">
        <ele>32.027195</ele>
        <time>2018-03-20T14:29:15Z</time>
      </trkpt>
      <trkpt lat="50.56925" lon="3.26565">
        <ele>31.999973</ele>
        <time>2018-03-20T14:29:17Z</time>
      </trkpt>
      <trkpt lat="50.56934" lon="3.26566">
        <ele>31.995392</ele>
        <time>2018-03-20T14:29:19Z</time>
      </trkpt>
      <trkpt lat="50.56942" lon="3.26571">
        <ele>32.058609</ele>
        <time>2018-03-20T14:29:21Z</time>
      </trkpt>
      <trkpt lat="50.56949" lon="3.26578">
        <ele>32.067635</ele>
        <time>2018-03-20T14:29:23Z</time>
      </trkpt>
      <trkpt lat="50.56955" lon="3.2659">
        <ele>32.068375</ele>
        <time>2018-03-20T14:29:25Z</time>
      </trkpt>
      <trkpt lat="50.5696" lon="3.26603">
        <ele>32.084763</ele>
        <time>2018-03-20T14:29:27Z</time>
      </trkpt>
      <trkpt lat="50.56961" lon="3.26618">
        <ele>32.081654</ele>
        <time>2018-03-20T14:29:29Z</time>
      </trkpt>
      <trkpt lat="50.56961" lon="3.26634">
        <ele>32.091076</ele>
        <time>2018-03-20T14:29:31Z</time>
      </trkpt>
      <trkpt lat="50.56959" lon="3.26651">
        <ele>32.098858</ele>
        <time>2018-03-20T14:29:33Z</time>
      </trkpt>
      <trkpt lat="50.56957" lon="3.26668">
        <ele>32.110519</ele>
        <time>2018-03-20T14:29:35Z</time>
      </trkpt>
      <trkpt lat="50.56956" lon="3.26685">
        <ele>32.110771</ele>
        <time>2018-03-20T14:29:37Z</time>
      </trkpt>
      <trkpt lat="50.56955" lon="3.26702">
        <ele>32.064812</ele>
        <time>2018-03-20T14:29:39Z</time>
      </trkpt>
      <trkpt lat="50.56954" lon="3.26718">
        <ele>32.024624</ele>
        <time>2018-03-20T14:29:41Z</time>
      </trkpt>
      <trkpt lat="50.56953" lon="3.26732">
        <ele>32.00827</ele>
        <time>2018-03-20T14:29:43Z</time>
      </trkpt>
      <trkpt lat="50.56953" lon="3.26746">
        <ele>31.96521</ele>
        <time>2018-03-20T14:29:45Z</time>
      </trkpt>
      <trkpt lat="50.56955" lon="3.2676">
        <ele>31.913059</ele>
        <time>2018-03-20T14:29:47Z</time>
      </trkpt>
      <trkpt lat="50.56958" lon="3.26772">
        <ele>31.88154</ele>
        <time>2018-03-20T14:29:49Z</time>
      </trkpt>
      <trkpt lat="50.56961" lon="3.26781">
        <ele>31.862015</ele>
        <time>2018-03-20T14:29:51Z</time>
      </trkpt>
      <trkpt lat="50.56965" lon="3.2679">
        <ele>31.77055</ele>
        <time>2018-03-20T14:29:53Z</time>
      </trkpt>
      <trkpt lat="50.56971" lon="3.26798">
        <ele>31.776691</ele>
        <time>2018-03-20T14:29:55Z</time>
      </trkpt>
      <trkpt lat="50.56977" lon="3.26803">
        <ele>31.776516</ele>
        <time>2018-03-20T14:29:57Z</time>
      </trkpt>
      <trkpt lat="50.56984" lon="3.26808">
        <ele>31.826935</ele>
        <time>2018-03-20T14:29:59Z</time>
      </trkpt>
      <trkpt lat="50.56991" lon="3.26811">
        <ele>31.848242</ele>
        <time>2018-03-20T14:30:01Z</time>
      </trkpt>
      <trkpt lat="50.56998" lon="3.26813">
        <ele>31.879669</ele>
        <time>2018-03-20T14:30:03Z</time>
      </trkpt>
      <trkpt lat="50.57006" lon="3.26815">
        <ele>31.934753</ele>
        <time>2018-03-20T14:30:05Z</time>
      </trkpt>
      <trkpt lat="50.57013" lon="3.26816">
        <ele>32.024975</ele>
        <time>2018-03-20T14:30:07Z</time>
      </trkpt>
      <trkpt lat="50.57019" lon="3.26819">
        <ele>32.110085</ele>
        <time>2018-03-20T14:30:09Z</time>
      </trkpt>
      <trkpt lat="50.57026" lon="3.26821">
        <ele>32.202446</ele>
        <time>2018-03-20T14:30:11Z</time>
      </trkpt>
      <trkpt lat="50.57033" lon="3.26823">
        <ele>32.31493</ele>
        <time>2018-03-20T14:30:13Z</time>
      </trkpt>
      <trkpt lat="50.5704" lon="3.26826">
        <ele>32.372456</ele>
        <time>2018-03-20T14:30:15Z</time>
      </trkpt>
      <trkpt lat="50.57047" lon="3.26828">
        <ele>32.554333</ele>
        <time>2018-03-20T14:30:17Z</time>
      </trkpt>
      <trkpt lat="50.57055" lon="3.2683">
        <ele>32.710651</ele>
        <time>2018-03-20T14:30:19Z</time>
      </trkpt>
      <trkpt lat="50.57061" lon="3.26833">
        <ele>32.957359</ele>
        <time>2018-03-20T14:30:21Z</time>
      </trkpt>
      <trkpt lat="50.57068" lon="3.26836">
        <ele>33.203064</ele>
        <time>2018-03-20T14:30:23Z</time>
      </trkpt>
      <trkpt lat="50.57075" lon="3.2684">
        <ele>33.422485</ele>
        <time>2018-03-20T14:30:25Z</time>
      </trkpt>
      <trkpt lat="50.57081" lon="3.26844">
        <ele>33.693623</ele>
        <time>2018-03-20T14:30:27Z</time>
      </trkpt>
      <trkpt lat="50.57087" lon="3.26849">
        <ele>34.026344</ele>
        <time>2018-03-20T14:30:29Z</time>
      </trkpt>
      <trkpt lat="50.57093" lon="3.26855">
        <ele>34.338249</ele>
        <time>2018-03-20T14:30:31Z</time>
      </trkpt>
      <trkpt lat="50.571" lon="3.26861">
        <ele>34.458668</ele>
        <time>2018-03-20T14:30:33Z</time>
      </trkpt>
      <trkpt lat="50.57106" lon="3.26866">
        <ele>34.828316</ele>
        <time>2018-03-20T14:30:35Z</time>
      </trkpt>
      <trkpt lat="50.57112" lon="3.26871">
        <ele>35.107147</ele>
        <time>2018-03-20T14:30:37Z</time>
      </trkpt>
      <trkpt lat="50.57118" lon="3.26875">
        <ele>35.399303</ele>
        <time>2018-03-20T14:30:39Z</time>
      </trkpt>
      <trkpt lat="50.57124" lon="3.26879">
        <ele>35.703899</ele>
        <time>2018-03-20T14:30:41Z</time>
      </trkpt>
      <trkpt lat="50.5713" lon="3.26884">
        <ele>36.024864</ele>
        <time>2018-03-20T14:30:43Z</time>
      </trkpt>
      <trkpt lat="50.57137" lon="3.26887">
        <ele>36.374294</ele>
        <time>2018-03-20T14:30:45Z</time>
      </trkpt>
      <trkpt lat="50.57142" lon="3.26889">
        <ele>36.718704</ele>
        <time>2018-03-20T14:30:47Z</time>
      </trkpt>
      <trkpt lat="50.57148" lon="3.26892">
        <ele>37.101051</ele>
        <time>2018-03-20T14:30:49Z</time>
      </trkpt>
      <trkpt lat="50.57154" lon="3.26895">
        <ele>37.464592</ele>
        <time>2018-03-20T14:30:51Z</time>
      </trkpt>
      <trkpt lat="50.57159" lon="3.26896">
        <ele>37.823017</ele>
        <time>2018-03-20T14:30:53Z</time>
      </trkpt>
      <trkpt lat="50.57165" lon="3.26899">
        <ele>38.251022</ele>
        <time>2018-03-20T14:30:55Z</time>
      </trkpt>
      <trkpt lat="50.57172" lon="3.269">
        <ele>38.653988</ele>
        <time>2018-03-20T14:30:57Z</time>
      </trkpt>
      <trkpt lat="50.57178" lon="3.26902">
        <ele>39.001884</ele>
        <time>2018-03-20T14:30:59Z</time>
      </trkpt>
      <trkpt lat="50.57184" lon="3.26903">
        <ele>39.304104</ele>
        <time>2018-03-20T14:31:01Z</time>
      </trkpt>
      <trkpt lat="50.5719" lon="3.26903">
        <ele>39.648865</ele>
        <time>2018-03-20T14:31:03Z</time>
      </trkpt>
      <trkpt lat="50.57196" lon="3.26904">
        <ele>39.86232</ele>
        <time>2018-03-20T14:31:05Z</time>
      </trkpt>
      <trkpt lat="50.57203" lon="3.26904">
        <ele>40.247459</ele>
        <time>2018-03-20T14:31:07Z</time>
      </trkpt>
      <trkpt lat="50.57209" lon="3.26904">
        <ele>40.613529</ele>
        <time>2018-03-20T14:31:09Z</time>
      </trkpt>
      <trkpt lat="50.57216" lon="3.26904">
        <ele>40.963142</ele>
        <time>2018-03-20T14:31:11Z</time>
      </trkpt>
      <trkpt lat="50.57222" lon="3.26905">
        <ele>41.31292</ele>
        <time>2018-03-20T14:31:13Z</time>
      </trkpt>
      <trkpt lat="50.57229" lon="3.26904">
        <ele>41.734657</ele>
        <time>2018-03-20T14:31:15Z</time>
      </trkpt>
      <trkpt lat="50.57236" lon="3.26903">
        <ele>42.08316</ele>
        <time>2018-03-20T14:31:17Z</time>
      </trkpt>
      <trkpt lat="50.57243" lon="3.26902">
        <ele>42.488075</ele>
        <time>2018-03-20T14:31:19Z</time>
      </trkpt>
      <trkpt lat="50.5725" lon="3.26901">
        <ele>42.887016</ele>
        <time>2018-03-20T14:31:21Z</time>
      </trkpt>
      <trkpt lat="50.57256" lon="3.26899">
        <ele>43.242073</ele>
        <time>2018-03-20T14:31:23Z</time>
      </trkpt>
      <trkpt lat="50.57263" lon="3.26897">
        <ele>43.57653</ele>
        <time>2018-03-20T14:31:25Z</time>
      </trkpt>
      <trkpt lat="50.5727" lon="3.26895">
        <ele>43.880333</ele>
        <time>2018-03-20T14:31:27Z</time>
      </trkpt>
      <trkpt lat="50.57277" lon="3.26894">
        <ele>44.213783</ele>
        <time>2018-03-20T14:31:29Z</time>
      </trkpt>
      <trkpt lat="50.57284" lon="3.26893">
        <ele>44.493702</ele>
        <time>2018-03-20T14:31:31Z</time>
      </trkpt>
      <trkpt lat="50.57291" lon="3.26892">
        <ele>44.757484</ele>
        <time>2018-03-20T14:31:33Z</time>
      </trkpt>
      <trkpt lat="50.57298" lon="3.26891">
        <ele>45.03587</ele>
        <time>2018-03-20T14:31:35Z</time>
      </trkpt>
      <trkpt lat="50.57304" lon="3.26891">
        <ele>45.174706</ele>
        <time>2018-03-20T14:31:37Z</time>
      </trkpt>
      <trkpt lat="50.57311" lon="3.26891">
        <ele>45.426941</ele>
        <time>2018-03-20T14:31:39Z</time>
      </trkpt>
      <trkpt lat="50.57317" lon="3.26892">
        <ele>45.669411</ele>
        <time>2018-03-20T14:31:41Z</time>
      </trkpt>
      <trkpt lat="50.57324" lon="3.26892">
        <ele>45.902008</ele>
        <time>2018-03-20T14:31:43Z</time>
      </trkpt>
      <trkpt lat="50.57331" lon="3.26892">
        <ele>46.117638</ele>
        <time>2018-03-20T14:31:45Z</time>
      </trkpt>
      <trkpt lat="50.57338" lon="3.26893">
        <ele>46.303764</ele>
        <time>2018-03-20T14:31:47Z</time>
      </trkpt>
      <trkpt lat="50.57346" lon="3.26894">
        <ele>46.414104</ele>
        <time>2018-03-20T14:31:49Z</time>
      </trkpt>
      <trkpt lat="50.57353" lon="3.26895">
        <ele>46.504425</ele>
        <time>2018-03-20T14:31:51Z</time>
      </trkpt>
      <trkpt lat="50.57361" lon="3.26895">
        <ele>46.597645</ele>
        <time>2018-03-20T14:31:53Z</time>
      </trkpt>
      <trkpt lat="50.57368" lon="3.26896">
        <ele>46.672436</ele>
        <time>2018-03-20T14:31:55Z</time>
      </trkpt>
      <trkpt lat="50.57375" lon="3.26897">
        <ele>46.694965</ele>
        <time>2018-03-20T14:31:57Z</time>
      </trkpt>
      <trkpt lat="50.57381" lon="3.26898">
        <ele>46.749409</ele>
        <time>2018-03-20T14:31:59Z</time>
      </trkpt>
      <trkpt lat="50.57388" lon="3.269">
        <ele>46.760826</ele>
        <time>2018-03-20T14:32:01Z</time>
      </trkpt>
      <trkpt lat="50.57395" lon="3.26902">
        <ele>46.751911</ele>
        <time>2018-03-20T14:32:03Z</time>
      </trkpt>
      <trkpt lat="50.57402" lon="3.26904">
        <ele>46.683998</ele>
        <time>2018-03-20T14:32:05Z</time>
      </trkpt>
      <trkpt lat="50.5741" lon="3.26907">
        <ele>46.661396</ele>
        <time>2018-03-20T14:32:07Z</time>
      </trkpt>
      <trkpt lat="50.57418" lon="3.26911">
        <ele>46.638405</ele>
        <time>2018-03-20T14:32:09Z</time>
      </trkpt>
      <trkpt lat="50.57427" lon="3.26915">
        <ele>46.564575</ele>
        <time>2018-03-20T14:32:11Z</time>
      </trkpt>
      <trkpt lat="50.57436" lon="3.26919">
        <ele>46.45459</ele>
        <time>2018-03-20T14:32:13Z</time>
      </trkpt>
      <trkpt lat="50.57445" lon="3.26925">
        <ele>46.319328</ele>
        <time>2018-03-20T14:32:15Z</time>
      </trkpt>
      <trkpt lat="50.57454" lon="3.26932">
        <ele>46.129742</ele>
        <time>2018-03-20T14:32:17Z</time>
      </trkpt>
      <trkpt lat="50.57464" lon="3.26939">
        <ele>45.919598</ele>
        <time>2018-03-20T14:32:19Z</time>
      </trkpt>
      <trkpt lat="50.57472" lon="3.26948">
        <ele>45.655994</ele>
        <time>2018-03-20T14:32:21Z</time>
      </trkpt>
      <trkpt lat="50.5748" lon="3.26957">
        <ele>45.329639</ele>
        <time>2018-03-20T14:32:23Z</time>
      </trkpt>
      <trkpt lat="50.57488" lon="3.26966">
        <ele>45.062195</ele>
        <time>2018-03-20T14:32:25Z</time>
      </trkpt>
      <trkpt lat="50.57496" lon="3.26976">
        <ele>44.697765</ele>
        <time>2018-03-20T14:32:27Z</time>
      </trkpt>
      <trkpt lat="50.57505" lon="3.26986">
        <ele>44.325554</ele>
        <time>2018-03-20T14:32:29Z</time>
      </trkpt>
      <trkpt lat="50.57513" lon="3.26995">
        <ele>44.032177</ele>
        <time>2018-03-20T14:32:31Z</time>
      </trkpt>
      <trkpt lat="50.57521" lon="3.27002">
        <ele>43.613159</ele>
        <time>2018-03-20T14:32:33Z</time>
      </trkpt>
      <trkpt lat="50.57529" lon="3.27008">
        <ele>43.230675</ele>
        <time>2018-03-20T14:32:35Z</time>
      </trkpt>
      <trkpt lat="50.57538" lon="3.27014">
        <ele>42.846508</ele>
        <time>2018-03-20T14:32:37Z</time>
      </trkpt>
      <trkpt lat="50.57546" lon="3.2702">
        <ele>42.429054</ele>
        <time>2018-03-20T14:32:39Z</time>
      </trkpt>
      <trkpt lat="50.57554" lon="3.27024">
        <ele>42.029419</ele>
        <time>2018-03-20T14:32:41Z</time>
      </trkpt>
      <trkpt lat="50.57562" lon="3.27028">
        <ele>41.857353</ele>
        <time>2018-03-20T14:32:43Z</time>
      </trkpt>
      <trkpt lat="50.5757" lon="3.27031">
        <ele>41.47633</ele>
        <time>2018-03-20T14:32:45Z</time>
      </trkpt>
      <trkpt lat="50.57579" lon="3.27034">
        <ele>41.095562</ele>
        <time>2018-03-20T14:32:47Z</time>
      </trkpt>
      <trkpt lat="50.57587" lon="3.27038">
        <ele>40.738068</ele>
        <time>2018-03-20T14:32:49Z</time>
      </trkpt>
      <trkpt lat="50.57595" lon="3.27041">
        <ele>40.394085</ele>
        <time>2018-03-20T14:32:51Z</time>
      </trkpt>
      <trkpt lat="50.57603" lon="3.27044">
        <ele>40.107838</ele>
        <time>2018-03-20T14:32:53Z</time>
      </trkpt>
      <trkpt lat="50.57612" lon="3.27047">
        <ele>39.78521</ele>
        <time>2018-03-20T14:32:55Z</time>
      </trkpt>
      <trkpt lat="50.5762" lon="3.27051">
        <ele>39.581352</ele>
        <time>2018-03-20T14:32:57Z</time>
      </trkpt>
      <trkpt lat="50.57629" lon="3.27054">
        <ele>39.35038</ele>
        <time>2018-03-20T14:32:59Z</time>
      </trkpt>
      <trkpt lat="50.57637" lon="3.27057">
        <ele>39.12904</ele>
        <time>2018-03-20T14:33:01Z</time>
      </trkpt>
      <trkpt lat="50.57646" lon="3.2706">
        <ele>39.05072</ele>
        <time>2018-03-20T14:33:03Z</time>
      </trkpt>
      <trkpt lat="50.57655" lon="3.27064">
        <ele>38.902565</ele>
        <time>2018-03-20T14:33:05Z</time>
      </trkpt>
      <trkpt lat="50.57663" lon="3.27067">
        <ele>38.79195</ele>
        <time>2018-03-20T14:33:07Z</time>
      </trkpt>
      <trkpt lat="50.57671" lon="3.2707">
        <ele>38.734344</ele>
        <time>2018-03-20T14:33:09Z</time>
      </trkpt>
      <trkpt lat="50.5768" lon="3.27073">
        <ele>38.68697</ele>
        <time>2018-03-20T14:33:11Z</time>
      </trkpt>
      <trkpt lat="50.57689" lon="3.27076">
        <ele>38.715782</ele>
        <time>2018-03-20T14:33:13Z</time>
      </trkpt>
      <trkpt lat="50.57697" lon="3.27079">
        <ele>38.74044</ele>
        <time>2018-03-20T14:33:15Z</time>
      </trkpt>
      <trkpt lat="50.57705" lon="3.27082">
        <ele>38.780773</ele>
        <time>2018-03-20T14:33:17Z</time>
      </trkpt>
      <trkpt lat="50.57714" lon="3.27085">
        <ele>38.82198</ele>
        <time>2018-03-20T14:33:19Z</time>
      </trkpt>
      <trkpt lat="50.57722" lon="3.27086">
        <ele>38.865089</ele>
        <time>2018-03-20T14:33:21Z</time>
      </trkpt>
      <trkpt lat="50.5773" lon="3.27087">
        <ele>38.901936</ele>
        <time>2018-03-20T14:33:23Z</time>
      </trkpt>
      <trkpt lat="50.57737" lon="3.27087">
        <ele>38.967892</ele>
        <time>2018-03-20T14:33:25Z</time>
      </trkpt>
      <trkpt lat="50.57743" lon="3.27088">
        <ele>39.01265</ele>
        <time>2018-03-20T14:33:27Z</time>
      </trkpt>
      <trkpt lat="50.57748" lon="3.27094">
        <ele>39.105537</ele>
        <time>2018-03-20T14:33:29Z</time>
      </trkpt>
      <trkpt lat="50.5775" lon="3.27104">
        <ele>39.174431</ele>
        <time>2018-03-20T14:33:31Z</time>
      </trkpt>
      <trkpt lat="50.57748" lon="3.27117">
        <ele>39.196453</ele>
        <time>2018-03-20T14:33:33Z</time>
      </trkpt>
      <trkpt lat="50.57747" lon="3.27131">
        <ele>39.147369</ele>
        <time>2018-03-20T14:33:35Z</time>
      </trkpt>
      <trkpt lat="50.57745" lon="3.27145">
        <ele>39.066807</ele>
        <time>2018-03-20T14:33:37Z</time>
      </trkpt>
      <trkpt lat="50.57742" lon="3.27159">
        <ele>39.073997</ele>
        <time>2018-03-20T14:33:39Z</time>
      </trkpt>
      <trkpt lat="50.57741" lon="3.27173">
        <ele>39.02557</ele>
        <time>2018-03-20T14:33:41Z</time>
      </trkpt>
      <trkpt lat="50.57739" lon="3.27186">
        <ele>38.994522</ele>
        <time>2018-03-20T14:33:43Z</time>
      </trkpt>
      <trkpt lat="50.57738" lon="3.272">
        <ele>38.915039</ele>
        <time>2018-03-20T14:33:45Z</time>
      </trkpt>
      <trkpt lat="50.57737" lon="3.27214">
        <ele>38.917812</ele>
        <time>2018-03-20T14:33:47Z</time>
      </trkpt>
      <trkpt lat="50.57736" lon="3.27228">
        <ele>38.891075</ele>
        <time>2018-03-20T14:33:49Z</time>
      </trkpt>
      <trkpt lat="50.57734" lon="3.27242">
        <ele>38.834759</ele>
        <time>2018-03-20T14:33:51Z</time>
      </trkpt>
      <trkpt lat="50.57734" lon="3.27257">
        <ele>38.694496</ele>
        <time>2018-03-20T14:33:53Z</time>
      </trkpt>
      <trkpt lat="50.57733" lon="3.27271">
        <ele>38.536777</ele>
        <time>2018-03-20T14:33:55Z</time>
      </trkpt>
      <trkpt lat="50.57732" lon="3.27285">
        <ele>38.429111</ele>
        <time>2018-03-20T14:33:57Z</time>
      </trkpt>
      <trkpt lat="50.57731" lon="3.27298">
        <ele>38.323586</ele>
        <time>2018-03-20T14:33:59Z</time>
      </trkpt>
      <trkpt lat="50.57731" lon="3.27312">
        <ele>38.258076</ele>
        <time>2018-03-20T14:34:01Z</time>
      </trkpt>
      <trkpt lat="50.5773" lon="3.27326">
        <ele>38.165558</ele>
        <time>2018-03-20T14:34:03Z</time>
      </trkpt>
      <trkpt lat="50.57729" lon="3.2734">
        <ele>38.082699</ele>
        <time>2018-03-20T14:34:05Z</time>
      </trkpt>
      <trkpt lat="50.57729" lon="3.27354">
        <ele>37.939674</ele>
        <time>2018-03-20T14:34:07Z</time>
      </trkpt>
      <trkpt lat="50.57729" lon="3.27368">
        <ele>37.82563</ele>
        <time>2018-03-20T14:34:09Z</time>
      </trkpt>
      <trkpt lat="50.57728" lon="3.27382">
        <ele>37.766365</ele>
        <time>2018-03-20T14:34:11Z</time>
      </trkpt>
      <trkpt lat="50.57729" lon="3.27396">
        <ele>37.75576</ele>
        <time>2018-03-20T14:34:13Z</time>
      </trkpt>
      <trkpt lat="50.57728" lon="3.2741">
        <ele>37.711937</ele>
        <time>2018-03-20T14:34:15Z</time>
      </trkpt>
      <trkpt lat="50.57729" lon="3.27424">
        <ele>37.7593</ele>
        <time>2018-03-20T14:34:17Z</time>
      </trkpt>
      <trkpt lat="50.57729" lon="3.27439">
        <ele>37.770035</ele>
        <time>2018-03-20T14:34:19Z</time>
      </trkpt>
      <trkpt lat="50.57728" lon="3.27453">
        <ele>37.770241</ele>
        <time>2018-03-20T14:34:21Z</time>
      </trkpt>
      <trkpt lat="50.57728" lon="3.27466">
        <ele>37.800125</ele>
        <time>2018-03-20T14:34:23Z</time>
      </trkpt>
      <trkpt lat="50.57728" lon="3.27479">
        <ele>37.803871</ele>
        <time>2018-03-20T14:34:25Z</time>
      </trkpt>
      <trkpt lat="50.57729" lon="3.27492">
        <ele>37.781155</ele>
        <time>2018-03-20T14:34:27Z</time>
      </trkpt>
      <trkpt lat="50.57729" lon="3.27506">
        <ele>37.723965</ele>
        <time>2018-03-20T14:34:29Z</time>
      </trkpt>
      <trkpt lat="50.57729" lon="3.27518">
        <ele>37.692295</ele>
        <time>2018-03-20T14:34:31Z</time>
      </trkpt>
      <trkpt lat="50.5773" lon="3.27532">
        <ele>37.699509</ele>
        <time>2018-03-20T14:34:33Z</time>
      </trkpt>
      <trkpt lat="50.57731" lon="3.27546">
        <ele>37.659142</ele>
        <time>2018-03-20T14:34:35Z</time>
      </trkpt>
      <trkpt lat="50.57731" lon="3.27561">
        <ele>37.69722</ele>
        <time>2018-03-20T14:34:37Z</time>
      </trkpt>
      <trkpt lat="50.57732" lon="3.27576">
        <ele>37.706059</ele>
        <time>2018-03-20T14:34:39Z</time>
      </trkpt>
      <trkpt lat="50.57732" lon="3.2759">
        <ele>37.695065</ele>
        <time>2018-03-20T14:34:41Z</time>
      </trkpt>
      <trkpt lat="50.57732" lon="3.27605">
        <ele>37.680569</ele>
        <time>2018-03-20T14:34:43Z</time>
      </trkpt>
      <trkpt lat="50.57733" lon="3.27619">
        <ele>37.739544</ele>
        <time>2018-03-20T14:34:45Z</time>
      </trkpt>
      <trkpt lat="50.57733" lon="3.27633">
        <ele>37.741962</ele>
        <time>2018-03-20T14:34:47Z</time>
      </trkpt>
      <trkpt lat="50.57734" lon="3.27648">
        <ele>37.783394</ele>
        <time>2018-03-20T14:34:49Z</time>
      </trkpt>
      <trkpt lat="50.57735" lon="3.27662">
        <ele>37.746304</ele>
        <time>2018-03-20T14:34:51Z</time>
      </trkpt>
      <trkpt lat="50.57735" lon="3.27677">
        <ele>37.712959</ele>
        <time>2018-03-20T14:34:53Z</time>
      </trkpt>
      <trkpt lat="50.57736" lon="3.27691">
        <ele>37.686119</ele>
        <time>2018-03-20T14:34:55Z</time>
      </trkpt>
      <trkpt lat="50.57736" lon="3.27706">
        <ele>37.669682</ele>
        <time>2018-03-20T14:34:57Z</time>
      </trkpt>
      <trkpt lat="50.57737" lon="3.27719">
        <ele>37.64846</ele>
        <time>2018-03-20T14:34:59Z</time>
      </trkpt>
      <trkpt lat="50.57737" lon="3.27734">
        <ele>37.613083</ele>
        <time>2018-03-20T14:35:01Z</time>
      </trkpt>
      <trkpt lat="50.57738" lon="3.27748">
        <ele>37.544651</ele>
        <time>2018-03-20T14:35:03Z</time>
      </trkpt>
      <trkpt lat="50.57739" lon="3.27763">
        <ele>37.505947</ele>
        <time>2018-03-20T14:35:05Z</time>
      </trkpt>
      <trkpt lat="50.57739" lon="3.27777">
        <ele>37.484016</ele>
        <time>2018-03-20T14:35:07Z</time>
      </trkpt>
      <trkpt lat="50.5774" lon="3.27792">
        <ele>37.489914</ele>
        <time>2018-03-20T14:35:09Z</time>
      </trkpt>
      <trkpt lat="50.5774" lon="3.27807">
        <ele>37.448849</ele>
        <time>2018-03-20T14:35:11Z</time>
      </trkpt>
      <trkpt lat="50.57741" lon="3.27822">
        <ele>37.421329</ele>
        <time>2018-03-20T14:35:13Z</time>
      </trkpt>
      <trkpt lat="50.57742" lon="3.27837">
        <ele>37.451267</ele>
        <time>2018-03-20T14:35:15Z</time>
      </trkpt>
      <trkpt lat="50.57742" lon="3.27852">
        <ele>37.41198</ele>
        <time>2018-03-20T14:35:17Z</time>
      </trkpt>
      <trkpt lat="50.57743" lon="3.27867">
        <ele>37.410133</ele>
        <time>2018-03-20T14:35:19Z</time>
      </trkpt>
      <trkpt lat="50.57743" lon="3.27881">
        <ele>37.403194</ele>
        <time>2018-03-20T14:35:21Z</time>
      </trkpt>
      <trkpt lat="50.57742" lon="3.27897">
        <ele>37.343941</ele>
        <time>2018-03-20T14:35:23Z</time>
      </trkpt>
      <trkpt lat="50.57742" lon="3.27912">
        <ele>37.253078</ele>
        <time>2018-03-20T14:35:25Z</time>
      </trkpt>
      <trkpt lat="50.57741" lon="3.27927">
        <ele>37.148247</ele>
        <time>2018-03-20T14:35:27Z</time>
      </trkpt>
      <trkpt lat="50.5774" lon="3.27943">
        <ele>37.086983</ele>
        <time>2018-03-20T14:35:29Z</time>
      </trkpt>
      <trkpt lat="50.5774" lon="3.27958">
        <ele>36.988045</ele>
        <time>2018-03-20T14:35:31Z</time>
      </trkpt>
      <trkpt lat="50.57739" lon="3.27973">
        <ele>36.905045</ele>
        <time>2018-03-20T14:35:33Z</time>
      </trkpt>
      <trkpt lat="50.57739" lon="3.27988">
        <ele>36.774818</ele>
        <time>2018-03-20T14:35:35Z</time>
      </trkpt>
      <trkpt lat="50.57738" lon="3.28004">
        <ele>36.65694</ele>
        <time>2018-03-20T14:35:37Z</time>
      </trkpt>
      <trkpt lat="50.57737" lon="3.2802">
        <ele>36.53492</ele>
        <time>2018-03-20T14:35:39Z</time>
      </trkpt>
      <trkpt lat="50.57736" lon="3.28035">
        <ele>36.380543</ele>
        <time>2018-03-20T14:35:41Z</time>
      </trkpt>
      <trkpt lat="50.57735" lon="3.2805">
        <ele>36.284622</ele>
        <time>2018-03-20T14:35:43Z</time>
      </trkpt>
      <trkpt lat="50.57735" lon="3.28066">
        <ele>36.177719</ele>
        <time>2018-03-20T14:35:45Z</time>
      </trkpt>
      <trkpt lat="50.57735" lon="3.28081">
        <ele>36.042912</ele>
        <time>2018-03-20T14:35:47Z</time>
      </trkpt>
      <trkpt lat="50.57734" lon="3.28095">
        <ele>35.952148</ele>
        <time>2018-03-20T14:35:49Z</time>
      </trkpt>
      <trkpt lat="50.57733" lon="3.28109">
        <ele>35.851841</ele>
        <time>2018-03-20T14:35:51Z</time>
      </trkpt>
      <trkpt lat="50.57733" lon="3.28123">
        <ele>35.745392</ele>
        <time>2018-03-20T14:35:53Z</time>
      </trkpt>
      <trkpt lat="50.57732" lon="3.28136">
        <ele>35.598534</ele>
        <time>2018-03-20T14:35:55Z</time>
      </trkpt>
      <trkpt lat="50.57731" lon="3.28148">
        <ele>35.469101</ele>
        <time>2018-03-20T14:35:57Z</time>
      </trkpt>
      <trkpt lat="50.57729" lon="3.28158">
        <ele>35.356804</ele>
        <time>2018-03-20T14:35:59Z</time>
      </trkpt>
      <trkpt lat="50.57725" lon="3.28167">
        <ele>35.164925</ele>
        <time>2018-03-20T14:36:01Z</time>
      </trkpt>
      <trkpt lat="50.57719" lon="3.28175">
        <ele>35.105377</ele>
        <time>2018-03-20T14:36:03Z</time>
      </trkpt>
      <trkpt lat="50.57711" lon="3.28179">
        <ele>34.973442</ele>
        <time>2018-03-20T14:36:05Z</time>
      </trkpt>
      <trkpt lat="50.577" lon="3.28179">
        <ele>34.829086</ele>
        <time>2018-03-20T14:36:07Z</time>
      </trkpt>
      <trkpt lat="50.5769" lon="3.28179">
        <ele>34.744652</ele>
        <time>2018-03-20T14:36:09Z</time>
      </trkpt>
      <trkpt lat="50.57679" lon="3.28179">
        <ele>34.659084</ele>
        <time>2018-03-20T14:36:11Z</time>
      </trkpt>
      <trkpt lat="50.57669" lon="3.28181">
        <ele>34.553448</ele>
        <time>2018-03-20T14:36:13Z</time>
      </trkpt>
      <trkpt lat="50.5766" lon="3.28183">
        <ele>34.458344</ele>
        <time>2018-03-20T14:36:15Z</time>
      </trkpt>
      <trkpt lat="50.5765" lon="3.28186">
        <ele>34.406868</ele>
        <time>2018-03-20T14:36:17Z</time>
      </trkpt>
      <trkpt lat="50.57641" lon="3.2819">
        <ele>34.298866</ele>
        <time>2018-03-20T14:36:19Z</time>
      </trkpt>
      <trkpt lat="50.57632" lon="3.28196">
        <ele>34.245667</ele>
        <time>2018-03-20T14:36:21Z</time>
      </trkpt>
      <trkpt lat="50.57623" lon="3.28203">
        <ele>34.15044</ele>
        <time>2018-03-20T14:36:23Z</time>
      </trkpt>
      <trkpt lat="50.57615" lon="3.28211">
        <ele>34.063683</ele>
        <time>2018-03-20T14:36:25Z</time>
      </trkpt>
      <trkpt lat="50.57606" lon="3.28219">
        <ele>33.956856</ele>
        <time>2018-03-20T14:36:27Z</time>
      </trkpt>
      <trkpt lat="50.57597" lon="3.28227">
        <ele>33.840984</ele>
        <time>2018-03-20T14:36:29Z</time>
      </trkpt>
      <trkpt lat="50.57589" lon="3.28235">
        <ele>33.710217</ele>
        <time>2018-03-20T14:36:31Z</time>
      </trkpt>
      <trkpt lat="50.57581" lon="3.28243">
        <ele>33.621471</ele>
        <time>2018-03-20T14:36:33Z</time>
      </trkpt>
      <trkpt lat="50.57572" lon="3.28252">
        <ele>33.516335</ele>
        <time>2018-03-20T14:36:35Z</time>
      </trkpt>
      <trkpt lat="50.57563" lon="3.2826">
        <ele>33.480419</ele>
        <time>2018-03-20T14:36:37Z</time>
      </trkpt>
      <trkpt lat="50.57555" lon="3.28267">
        <ele>33.384754</ele>
        <time>2018-03-20T14:36:39Z</time>
      </trkpt>
      <trkpt lat="50.57546" lon="3.28275">
        <ele>33.257404</ele>
        <time>2018-03-20T14:36:41Z</time>
      </trkpt>
      <trkpt lat="50.57538" lon="3.28282">
        <ele>33.09832</ele>
        <time>2018-03-20T14:36:43Z</time>
      </trkpt>
      <trkpt lat="50.57529" lon="3.2829">
        <ele>32.938049</ele>
        <time>2018-03-20T14:36:45Z</time>
      </trkpt>
      <trkpt lat="50.57522" lon="3.28298">
        <ele>32.834404</ele>
        <time>2018-03-20T14:36:47Z</time>
      </trkpt>
      <trkpt lat="50.57515" lon="3.28305">
        <ele>32.724854</ele>
        <time>2018-03-20T14:36:49Z</time>
      </trkpt>
      <trkpt lat="50.57508" lon="3.28311">
        <ele>32.642056</ele>
        <time>2018-03-20T14:36:51Z</time>
      </trkpt>
      <trkpt lat="50.57501" lon="3.2832">
        <ele>32.548721</ele>
        <time>2018-03-20T14:36:53Z</time>
      </trkpt>
      <trkpt lat="50.57495" lon="3.28331">
        <ele>32.445854</ele>
        <time>2018-03-20T14:36:55Z</time>
      </trkpt>
      <trkpt lat="50.57489" lon="3.28344">
        <ele>32.367523</ele>
        <time>2018-03-20T14:36:57Z</time>
      </trkpt>
      <trkpt lat="50.57484" lon="3.28357">
        <ele>32.303921</ele>
        <time>2018-03-20T14:36:59Z</time>
      </trkpt>
      <trkpt lat="50.57478" lon="3.2837">
        <ele>32.334545</ele>
        <time>2018-03-20T14:37:01Z</time>
      </trkpt>
      <trkpt lat="50.57473" lon="3.28382">
        <ele>32.30088</ele>
        <time>2018-03-20T14:37:03Z</time>
      </trkpt>
      <trkpt lat="50.57467" lon="3.28395">
        <ele>32.30172</ele>
        <time>2018-03-20T14:37:05Z</time>
      </trkpt>
      <trkpt lat="50.57462" lon="3.28408">
        <ele>32.251701</ele>
        <time>2018-03-20T14:37:07Z</time>
      </trkpt>
      <trkpt lat="50.57456" lon="3.28421">
        <ele>32.31311</ele>
        <time>2018-03-20T14:37:09Z</time>
      </trkpt>
      <trkpt lat="50.57451" lon="3.28434">
        <ele>32.324135</ele>
        <time>2018-03-20T14:37:11Z</time>
      </trkpt>
      <trkpt lat="50.57445" lon="3.28446">
        <ele>32.335514</ele>
        <time>2018-03-20T14:37:13Z</time>
      </trkpt>
      <trkpt lat="50.5744" lon="3.28459">
        <ele>32.330841</ele>
        <time>2018-03-20T14:37:15Z</time>
      </trkpt>
      <trkpt lat="50.57435" lon="3.28472">
        <ele>32.360836</ele>
        <time>2018-03-20T14:37:17Z</time>
      </trkpt>
      <trkpt lat="50.57429" lon="3.28486">
        <ele>32.384983</ele>
        <time>2018-03-20T14:37:19Z</time>
      </trkpt>
      <trkpt lat="50.57423" lon="3.28499">
        <ele>32.450958</ele>
        <time>2018-03-20T14:37:21Z</time>
      </trkpt>
      <trkpt lat="50.57418" lon="3.28511">
        <ele>32.534672</ele>
        <time>2018-03-20T14:37:23Z</time>
      </trkpt>
      <trkpt lat="50.57412" lon="3.28524">
        <ele>32.599598</ele>
        <time>2018-03-20T14:37:25Z</time>
      </trkpt>
      <trkpt lat="50.57407" lon="3.28537">
        <ele>32.691296</ele>
        <time>2018-03-20T14:37:27Z</time>
      </trkpt>
      <trkpt lat="50.57401" lon="3.28549">
        <ele>32.758129</ele>
        <time>2018-03-20T14:37:29Z</time>
      </trkpt>
      <trkpt lat="50.57395" lon="3.28562">
        <ele>32.866814</ele>
        <time>2018-03-20T14:37:31Z</time>
      </trkpt>
      <trkpt lat="50.5739" lon="3.28575">
        <ele>32.918236</ele>
        <time>2018-03-20T14:37:33Z</time>
      </trkpt>
      <trkpt lat="50.57384" lon="3.28588">
        <ele>32.95491</ele>
        <time>2018-03-20T14:37:35Z</time>
      </trkpt>
      <trkpt lat="50.57378" lon="3.28601">
        <ele>33.000786</ele>
        <time>2018-03-20T14:37:37Z</time>
      </trkpt>
      <trkpt lat="50.57372" lon="3.28614">
        <ele>33.041859</ele>
        <time>2018-03-20T14:37:39Z</time>
      </trkpt>
      <trkpt lat="50.57367" lon="3.28627">
        <ele>33.073994</ele>
        <time>2018-03-20T14:37:41Z</time>
      </trkpt>
      <trkpt lat="50.57361" lon="3.28639">
        <ele>33.065315</ele>
        <time>2018-03-20T14:37:43Z</time>
      </trkpt>
      <trkpt lat="50.57355" lon="3.28653">
        <ele>32.984375</ele>
        <time>2018-03-20T14:37:45Z</time>
      </trkpt>
      <trkpt lat="50.5735" lon="3.28666">
        <ele>32.99324</ele>
        <time>2018-03-20T14:37:47Z</time>
      </trkpt>
      <trkpt lat="50.57345" lon="3.2868">
        <ele>32.975025</ele>
        <time>2018-03-20T14:37:49Z</time>
      </trkpt>
      <trkpt lat="50.57341" lon="3.28694">
        <ele>32.975185</ele>
        <time>2018-03-20T14:37:51Z</time>
      </trkpt>
      <trkpt lat="50.5734" lon="3.28708">
        <ele>32.983116</ele>
        <time>2018-03-20T14:37:53Z</time>
      </trkpt>
      <trkpt lat="50.57338" lon="3.28722">
        <ele>33.096535</ele>
        <time>2018-03-20T14:37:55Z</time>
      </trkpt>
      <trkpt lat="50.57339" lon="3.28736">
        <ele>33.173809</ele>
        <time>2018-03-20T14:37:57Z</time>
      </trkpt>
      <trkpt lat="50.57338" lon="3.28751">
        <ele>33.218121</ele>
        <time>2018-03-20T14:37:59Z</time>
      </trkpt>
      <trkpt lat="50.57338" lon="3.28766">
        <ele>33.276711</ele>
        <time>2018-03-20T14:38:01Z</time>
      </trkpt>
      <trkpt lat="50.57337" lon="3.28781">
        <ele>33.361916</ele>
        <time>2018-03-20T14:38:03Z</time>
      </trkpt>
      <trkpt lat="50.57336" lon="3.28795">
        <ele>33.401836</ele>
        <time>2018-03-20T14:38:05Z</time>
      </trkpt>
      <trkpt lat="50.57336" lon="3.2881">
        <ele>33.513306</ele>
        <time>2018-03-20T14:38:07Z</time>
      </trkpt>
      <trkpt lat="50.57334" lon="3.28825">
        <ele>33.561852</ele>
        <time>2018-03-20T14:38:09Z</time>
      </trkpt>
      <trkpt lat="50.57333" lon="3.2884">
        <ele>33.558693</ele>
        <time>2018-03-20T14:38:11Z</time>
      </trkpt>
      <trkpt lat="50.5733" lon="3.28856">
        <ele>33.546276</ele>
        <time>2018-03-20T14:38:13Z</time>
      </trkpt>
      <trkpt lat="50.57329" lon="3.28871">
        <ele>33.597996</ele>
        <time>2018-03-20T14:38:15Z</time>
      </trkpt>
      <trkpt lat="50.57328" lon="3.28887">
        <ele>33.628586</ele>
        <time>2018-03-20T14:38:17Z</time>
      </trkpt>
      <trkpt lat="50.57327" lon="3.28901">
        <ele>33.639763</ele>
        <time>2018-03-20T14:38:19Z</time>
      </trkpt>
      <trkpt lat="50.57325" lon="3.28916">
        <ele>33.722561</ele>
        <time>2018-03-20T14:38:21Z</time>
      </trkpt>
      <trkpt lat="50.57324" lon="3.28931">
        <ele>33.780125</ele>
        <time>2018-03-20T14:38:23Z</time>
      </trkpt>
      <trkpt lat="50.57323" lon="3.28946">
        <ele>33.878426</ele>
        <time>2018-03-20T14:38:25Z</time>
      </trkpt>
      <trkpt lat="50.57322" lon="3.28961">
        <ele>34.007576</ele>
        <time>2018-03-20T14:38:27Z</time>
      </trkpt>
      <trkpt lat="50.57321" lon="3.28976">
        <ele>34.076168</ele>
        <time>2018-03-20T14:38:29Z</time>
      </trkpt>
      <trkpt lat="50.57321" lon="3.2899">
        <ele>34.137486</ele>
        <time>2018-03-20T14:38:31Z</time>
      </trkpt>
      <trkpt lat="50.57322" lon="3.29005">
        <ele>34.137527</ele>
        <time>2018-03-20T14:38:33Z</time>
      </trkpt>
      <trkpt lat="50.57322" lon="3.2902">
        <ele>34.152489</ele>
        <time>2018-03-20T14:38:35Z</time>
      </trkpt>
      <trkpt lat="50.57324" lon="3.29034">
        <ele>34.145035</ele>
        <time>2018-03-20T14:38:37Z</time>
      </trkpt>
      <trkpt lat="50.57327" lon="3.29048">
        <ele>34.168968</ele>
        <time>2018-03-20T14:38:39Z</time>
      </trkpt>
      <trkpt lat="50.5733" lon="3.29062">
        <ele>34.189999</ele>
        <time>2018-03-20T14:38:41Z</time>
      </trkpt>
      <trkpt lat="50.57333" lon="3.29076">
        <ele>34.208469</ele>
        <time>2018-03-20T14:38:43Z</time>
      </trkpt>
      <trkpt lat="50.57336" lon="3.29091">
        <ele>34.177467</ele>
        <time>2018-03-20T14:38:45Z</time>
      </trkpt>
      <trkpt lat="50.5734" lon="3.29106">
        <ele>34.205776</ele>
        <time>2018-03-20T14:38:47Z</time>
      </trkpt>
      <trkpt lat="50.57344" lon="3.2912">
        <ele>34.231712</ele>
        <time>2018-03-20T14:38:49Z</time>
      </trkpt>
      <trkpt lat="50.57347" lon="3.29135">
        <ele>34.326321</ele>
        <time>2018-03-20T14:38:51Z</time>
      </trkpt>
      <trkpt lat="50.5735" lon="3.29149">
        <ele>34.386772</ele>
        <time>2018-03-20T14:38:53Z</time>
      </trkpt>
      <trkpt lat="50.57354" lon="3.29164">
        <ele>34.423775</ele>
        <time>2018-03-20T14:38:55Z</time>
      </trkpt>
      <trkpt lat="50.57357" lon="3.29179">
        <ele>34.490845</ele>
        <time>2018-03-20T14:38:57Z</time>
      </trkpt>
      <trkpt lat="50.57361" lon="3.29194">
        <ele>34.589027</ele>
        <time>2018-03-20T14:38:59Z</time>
      </trkpt>
      <trkpt lat="50.57364" lon="3.29208">
        <ele>34.71442</ele>
        <time>2018-03-20T14:39:01Z</time>
      </trkpt>
      <trkpt lat="50.57367" lon="3.29222">
        <ele>34.771751</ele>
        <time>2018-03-20T14:39:03Z</time>
      </trkpt>
      <trkpt lat="50.5737" lon="3.29236">
        <ele>34.781898</ele>
        <time>2018-03-20T14:39:05Z</time>
      </trkpt>
      <trkpt lat="50.57371" lon="3.29249">
        <ele>34.86985</ele>
        <time>2018-03-20T14:39:07Z</time>
      </trkpt>
      <trkpt lat="50.57372" lon="3.29263">
        <ele>34.830074</ele>
        <time>2018-03-20T14:39:09Z</time>
      </trkpt>
      <trkpt lat="50.57373" lon="3.29278">
        <ele>34.793663</ele>
        <time>2018-03-20T14:39:11Z</time>
      </trkpt>
      <trkpt lat="50.57372" lon="3.29293">
        <ele>34.793999</ele>
        <time>2018-03-20T14:39:13Z</time>
      </trkpt>
      <trkpt lat="50.57371" lon="3.29308">
        <ele>34.819695</ele>
        <time>2018-03-20T14:39:15Z</time>
      </trkpt>
      <trkpt lat="50.5737" lon="3.29324">
        <ele>34.769417</ele>
        <time>2018-03-20T14:39:17Z</time>
      </trkpt>
      <trkpt lat="50.57369" lon="3.29339">
        <ele>34.741123</ele>
        <time>2018-03-20T14:39:19Z</time>
      </trkpt>
      <trkpt lat="50.57367" lon="3.29351">
        <ele>34.704994</ele>
        <time>2018-03-20T14:39:21Z</time>
      </trkpt>
      <trkpt lat="50.57365" lon="3.29363">
        <ele>34.688046</ele>
        <time>2018-03-20T14:39:23Z</time>
      </trkpt>
      <trkpt lat="50.57363" lon="3.29375">
        <ele>34.694229</ele>
        <time>2018-03-20T14:39:25Z</time>
      </trkpt>
      <trkpt lat="50.57357" lon="3.29381">
        <ele>34.686104</ele>
        <time>2018-03-20T14:39:27Z</time>
      </trkpt>
      <trkpt lat="50.57349" lon="3.29381">
        <ele>34.633541</ele>
        <time>2018-03-20T14:39:29Z</time>
      </trkpt>
      <trkpt lat="50.57339" lon="3.2938">
        <ele>34.612816</ele>
        <time>2018-03-20T14:39:31Z</time>
      </trkpt>
      <trkpt lat="50.57328" lon="3.29379">
        <ele>34.525223</ele>
        <time>2018-03-20T14:39:33Z</time>
      </trkpt>
      <trkpt lat="50.57319" lon="3.29379">
        <ele>34.457718</ele>
        <time>2018-03-20T14:39:35Z</time>
      </trkpt>
      <trkpt lat="50.57308" lon="3.29379">
        <ele>34.404396</ele>
        <time>2018-03-20T14:39:37Z</time>
      </trkpt>
      <trkpt lat="50.57298" lon="3.29379">
        <ele>34.187195</ele>
        <time>2018-03-20T14:39:39Z</time>
      </trkpt>
      <trkpt lat="50.57288" lon="3.29378">
        <ele>34.036991</ele>
        <time>2018-03-20T14:39:41Z</time>
      </trkpt>
      <trkpt lat="50.57278" lon="3.29378">
        <ele>33.809151</ele>
        <time>2018-03-20T14:39:43Z</time>
      </trkpt>
      <trkpt lat="50.57269" lon="3.29378">
        <ele>33.697887</ele>
        <time>2018-03-20T14:39:45Z</time>
      </trkpt>
      <trkpt lat="50.57259" lon="3.29377">
        <ele>33.591873</ele>
        <time>2018-03-20T14:39:47Z</time>
      </trkpt>
      <trkpt lat="50.5725" lon="3.29375">
        <ele>33.38179</ele>
        <time>2018-03-20T14:39:49Z</time>
      </trkpt>
      <trkpt lat="50.5724" lon="3.29374">
        <ele>33.295773</ele>
        <time>2018-03-20T14:39:51Z</time>
      </trkpt>
      <trkpt lat="50.57231" lon="3.29372">
        <ele>33.165184</ele>
        <time>2018-03-20T14:39:53Z</time>
      </trkpt>
      <trkpt lat="50.57222" lon="3.2937">
        <ele>33.080357</ele>
        <time>2018-03-20T14:39:55Z</time>
      </trkpt>
      <trkpt lat="50.57212" lon="3.29368">
        <ele>32.96505</ele>
        <time>2018-03-20T14:39:57Z</time>
      </trkpt>
      <trkpt lat="50.57203" lon="3.29366">
        <ele>32.898922</ele>
        <time>2018-03-20T14:39:59Z</time>
      </trkpt>
      <trkpt lat="50.57195" lon="3.29364">
        <ele>32.744053</ele>
        <time>2018-03-20T14:40:01Z</time>
      </trkpt>
      <trkpt lat="50.57185" lon="3.29363">
        <ele>32.64521</ele>
        <time>2018-03-20T14:40:03Z</time>
      </trkpt>
      <trkpt lat="50.57177" lon="3.29361">
        <ele>32.488815</ele>
        <time>2018-03-20T14:40:05Z</time>
      </trkpt>
      <trkpt lat="50.57169" lon="3.29357">
        <ele>32.374706</ele>
        <time>2018-03-20T14:40:07Z</time>
      </trkpt>
      <trkpt lat="50.5716" lon="3.2935">
        <ele>32.2416</ele>
        <time>2018-03-20T14:40:09Z</time>
      </trkpt>
      <trkpt lat="50.57152" lon="3.29344">
        <ele>32.094376</ele>
        <time>2018-03-20T14:40:11Z</time>
      </trkpt>
      <trkpt lat="50.57143" lon="3.29339">
        <ele>31.994467</ele>
        <time>2018-03-20T14:40:13Z</time>
      </trkpt>
      <trkpt lat="50.57134" lon="3.29333">
        <ele>31.896255</ele>
        <time>2018-03-20T14:40:15Z</time>
      </trkpt>
      <trkpt lat="50.57125" lon="3.29328">
        <ele>31.803074</ele>
        <time>2018-03-20T14:40:17Z</time>
      </trkpt>
      <trkpt lat="50.57115" lon="3.29323">
        <ele>31.70521</ele>
        <time>2018-03-20T14:40:19Z</time>
      </trkpt>
      <trkpt lat="50.57106" lon="3.29317">
        <ele>31.641769</ele>
        <time>2018-03-20T14:40:21Z</time>
      </trkpt>
      <trkpt lat="50.57097" lon="3.29311">
        <ele>31.560806</ele>
        <time>2018-03-20T14:40:23Z</time>
      </trkpt>
      <trkpt lat="50.57088" lon="3.29304">
        <ele>31.561703</ele>
        <time>2018-03-20T14:40:25Z</time>
      </trkpt>
      <trkpt lat="50.5708" lon="3.29296">
        <ele>31.549753</ele>
        <time>2018-03-20T14:40:27Z</time>
      </trkpt>
      <trkpt lat="50.57074" lon="3.29286">
        <ele>31.524485</ele>
        <time>2018-03-20T14:40:29Z</time>
      </trkpt>
      <trkpt lat="50.57069" lon="3.29276">
        <ele>31.513327</ele>
        <time>2018-03-20T14:40:31Z</time>
      </trkpt>
      <trkpt lat="50.57063" lon="3.29264">
        <ele>31.535923</ele>
        <time>2018-03-20T14:40:33Z</time>
      </trkpt>
      <trkpt lat="50.57057" lon="3.29251">
        <ele>31.478878</ele>
        <time>2018-03-20T14:40:35Z</time>
      </trkpt>
      <trkpt lat="50.5705" lon="3.29239">
        <ele>31.43898</ele>
        <time>2018-03-20T14:40:37Z</time>
      </trkpt>
      <trkpt lat="50.57043" lon="3.29227">
        <ele>31.427719</ele>
        <time>2018-03-20T14:40:39Z</time>
      </trkpt>
      <trkpt lat="50.57032" lon="3.29217">
        <ele>31.351681</ele>
        <time>2018-03-20T14:40:41Z</time>
      </trkpt>
      <trkpt lat="50.57021" lon="3.29211">
        <ele>31.246939</ele>
        <time>2018-03-20T14:40:43Z</time>
      </trkpt>
      <trkpt lat="50.57008" lon="3.29205">
        <ele>31.216238</ele>
        <time>2018-03-20T14:40:45Z</time>
      </trkpt>
      <trkpt lat="50.56994" lon="3.29202">
        <ele>31.159842</ele>
        <time>2018-03-20T14:40:47Z</time>
      </trkpt>
      <trkpt lat="50.56981" lon="3.29198">
        <ele>31.064219</ele>
        <time>2018-03-20T14:40:49Z</time>
      </trkpt>
      <trkpt lat="50.56968" lon="3.29195">
        <ele>30.960226</ele>
        <time>2018-03-20T14:40:51Z</time>
      </trkpt>
      <trkpt lat="50.56957" lon="3.29192">
        <ele>30.908085</ele>
        <time>2018-03-20T14:40:53Z</time>
      </trkpt>
      <trkpt lat="50.56947" lon="3.29187">
        <ele>30.880106</ele>
        <time>2018-03-20T14:40:55Z</time>
      </trkpt>
      <trkpt lat="50.56937" lon="3.29184">
        <ele>30.920736</ele>
        <time>2018-03-20T14:40:57Z</time>
      </trkpt>
      <trkpt lat="50.56929" lon="3.29179">
        <ele>30.989649</ele>
        <time>2018-03-20T14:40:59Z</time>
      </trkpt>
      <trkpt lat="50.56921" lon="3.29172">
        <ele>31.065928</ele>
        <time>2018-03-20T14:41:01Z</time>
      </trkpt>
      <trkpt lat="50.56915" lon="3.29162">
        <ele>31.113754</ele>
        <time>2018-03-20T14:41:03Z</time>
      </trkpt>
      <trkpt lat="50.56907" lon="3.29152">
        <ele>31.177296</ele>
        <time>2018-03-20T14:41:05Z</time>
      </trkpt>
      <trkpt lat="50.56899" lon="3.29145">
        <ele>31.237665</ele>
        <time>2018-03-20T14:41:07Z</time>
      </trkpt>
      <trkpt lat="50.56889" lon="3.2914">
        <ele>31.262192</ele>
        <time>2018-03-20T14:41:09Z</time>
      </trkpt>
      <trkpt lat="50.56879" lon="3.29137">
        <ele>31.298645</ele>
        <time>2018-03-20T14:41:11Z</time>
      </trkpt>
      <trkpt lat="50.56869" lon="3.29134">
        <ele>31.318203</ele>
        <time>2018-03-20T14:41:13Z</time>
      </trkpt>
      <trkpt lat="50.56859" lon="3.29131">
        <ele>31.36507</ele>
        <time>2018-03-20T14:41:15Z</time>
      </trkpt>
      <trkpt lat="50.56849" lon="3.29129">
        <ele>31.511972</ele>
        <time>2018-03-20T14:41:17Z</time>
      </trkpt>
      <trkpt lat="50.56838" lon="3.29127">
        <ele>31.626186</ele>
        <time>2018-03-20T14:41:19Z</time>
      </trkpt>
      <trkpt lat="50.56828" lon="3.29127">
        <ele>31.73999</ele>
        <time>2018-03-20T14:41:21Z</time>
      </trkpt>
      <trkpt lat="50.56818" lon="3.29127">
        <ele>31.882954</ele>
        <time>2018-03-20T14:41:23Z</time>
      </trkpt>
      <trkpt lat="50.56809" lon="3.29126">
        <ele>32.002323</ele>
        <time>2018-03-20T14:41:25Z</time>
      </trkpt>
      <trkpt lat="50.56799" lon="3.29126">
        <ele>32.159386</ele>
        <time>2018-03-20T14:41:27Z</time>
      </trkpt>
      <trkpt lat="50.56791" lon="3.29125">
        <ele>32.280613</ele>
        <time>2018-03-20T14:41:29Z</time>
      </trkpt>
      <trkpt lat="50.56782" lon="3.29124">
        <ele>32.446377</ele>
        <time>2018-03-20T14:41:31Z</time>
      </trkpt>
      <trkpt lat="50.56774" lon="3.29125">
        <ele>32.585312</ele>
        <time>2018-03-20T14:41:33Z</time>
      </trkpt>
      <trkpt lat="50.56769" lon="3.29132">
        <ele>32.667652</ele>
        <time>2018-03-20T14:41:35Z</time>
      </trkpt>
      <trkpt lat="50.56769" lon="3.29144">
        <ele>32.704475</ele>
        <time>2018-03-20T14:41:37Z</time>
      </trkpt>
      <trkpt lat="50.56773" lon="3.29157">
        <ele>32.748802</ele>
        <time>2018-03-20T14:41:39Z</time>
      </trkpt>
      <trkpt lat="50.56778" lon="3.29169">
        <ele>32.829456</ele>
        <time>2018-03-20T14:41:41Z</time>
      </trkpt>
      <trkpt lat="50.56785" lon="3.29181">
        <ele>32.971508</ele>
        <time>2018-03-20T14:41:43Z</time>
      </trkpt>
      <trkpt lat="50.56792" lon="3.29193">
        <ele>33.018715</ele>
        <time>2018-03-20T14:41:45Z</time>
      </trkpt>
      <trkpt lat="50.56799" lon="3.29206">
        <ele>33.123932</ele>
        <time>2018-03-20T14:41:47Z</time>
      </trkpt>
      <trkpt lat="50.56805" lon="3.29218">
        <ele>33.185791</ele>
        <time>2018-03-20T14:41:49Z</time>
      </trkpt>
      <trkpt lat="50.56812" lon="3.2923">
        <ele>33.254311</ele>
        <time>2018-03-20T14:41:51Z</time>
      </trkpt>
      <trkpt lat="50.56818" lon="3.29242">
        <ele>33.362164</ele>
        <time>2018-03-20T14:41:53Z</time>
      </trkpt>
      <trkpt lat="50.56825" lon="3.29254">
        <ele>33.447639</ele>
        <time>2018-03-20T14:41:55Z</time>
      </trkpt>
      <trkpt lat="50.56831" lon="3.29266">
        <ele>33.517193</ele>
        <time>2018-03-20T14:41:57Z</time>
      </trkpt>
      <trkpt lat="50.56837" lon="3.29278">
        <ele>33.59845</ele>
        <time>2018-03-20T14:41:59Z</time>
      </trkpt>
      <trkpt lat="50.56843" lon="3.29291">
        <ele>33.646404</ele>
        <time>2018-03-20T14:42:01Z</time>
      </trkpt>
      <trkpt lat="50.56849" lon="3.29303">
        <ele>33.770256</ele>
        <time>2018-03-20T14:42:03Z</time>
      </trkpt>
      <trkpt lat="50.56855" lon="3.29314">
        <ele>33.921223</ele>
        <time>2018-03-20T14:42:05Z</time>
      </trkpt>
      <trkpt lat="50.56862" lon="3.29326">
        <ele>33.957916</ele>
        <time>2018-03-20T14:42:07Z</time>
      </trkpt>
      <trkpt lat="50.56867" lon="3.29339">
        <ele>33.992096</ele>
        <time>2018-03-20T14:42:09Z</time>
      </trkpt>
      <trkpt lat="50.56873" lon="3.29351">
        <ele>34.049217</ele>
        <time>2018-03-20T14:42:11Z</time>
      </trkpt>
      <trkpt lat="50.56879" lon="3.29363">
        <ele>34.220783</ele>
        <time>2018-03-20T14:42:13Z</time>
      </trkpt>
      <trkpt lat="50.56885" lon="3.29375">
        <ele>34.313263</ele>
        <time>2018-03-20T14:42:15Z</time>
      </trkpt>
      <trkpt lat="50.5689" lon="3.29387">
        <ele>34.408012</ele>
        <time>2018-03-20T14:42:17Z</time>
      </trkpt>
      <trkpt lat="50.56896" lon="3.29399">
        <ele>34.449959</ele>
        <time>2018-03-20T14:42:19Z</time>
      </trkpt>
      <trkpt lat="50.56902" lon="3.29411">
        <ele>34.517113</ele>
        <time>2018-03-20T14:42:21Z</time>
      </trkpt>
      <trkpt lat="50.56908" lon="3.29424">
        <ele>34.519661</ele>
        <time>2018-03-20T14:42:23Z</time>
      </trkpt>
      <trkpt lat="50.56914" lon="3.29437">
        <ele>34.54731</ele>
        <time>2018-03-20T14:42:25Z</time>
      </trkpt>
      <trkpt lat="50.5692" lon="3.2945">
        <ele>34.535717</ele>
        <time>2018-03-20T14:42:27Z</time>
      </trkpt>
      <trkpt lat="50.56926" lon="3.29463">
        <ele>34.554211</ele>
        <time>2018-03-20T14:42:29Z</time>
      </trkpt>
      <trkpt lat="50.56932" lon="3.29475">
        <ele>34.564125</ele>
        <time>2018-03-20T14:42:31Z</time>
      </trkpt>
      <trkpt lat="50.56937" lon="3.29487">
        <ele>34.542915</ele>
        <time>2018-03-20T14:42:33Z</time>
      </trkpt>
      <trkpt lat="50.56942" lon="3.29499">
        <ele>34.557762</ele>
        <time>2018-03-20T14:42:35Z</time>
      </trkpt>
      <trkpt lat="50.56944" lon="3.29513">
        <ele>34.543617</ele>
        <time>2018-03-20T14:42:37Z</time>
      </trkpt>
      <trkpt lat="50.56938" lon="3.29527">
        <ele>34.496807</ele>
        <time>2018-03-20T14:42:39Z</time>
      </trkpt>
      <trkpt lat="50.56929" lon="3.29537">
        <ele>34.400112</ele>
        <time>2018-03-20T14:42:41Z</time>
      </trkpt>
      <trkpt lat="50.56919" lon="3.29546">
        <ele>34.332478</ele>
        <time>2018-03-20T14:42:43Z</time>
      </trkpt>
      <trkpt lat="50.56909" lon="3.29556">
        <ele>34.214115</ele>
        <time>2018-03-20T14:42:45Z</time>
      </trkpt>
      <trkpt lat="50.569" lon="3.29565">
        <ele>34.107288</ele>
        <time>2018-03-20T14:42:47Z</time>
      </trkpt>
      <trkpt lat="50.56891" lon="3.29575">
        <ele>34.019249</ele>
        <time>2018-03-20T14:42:49Z</time>
      </trkpt>
      <trkpt lat="50.56883" lon="3.29587">
        <ele>33.980816</ele>
        <time>2018-03-20T14:42:51Z</time>
      </trkpt>
      <trkpt lat="50.56877" lon="3.296">
        <ele>33.896458</ele>
        <time>2018-03-20T14:42:53Z</time>
      </trkpt>
      <trkpt lat="50.56871" lon="3.29614">
        <ele>33.76075</ele>
        <time>2018-03-20T14:42:55Z</time>
      </trkpt>
      <trkpt lat="50.56865" lon="3.29628">
        <ele>33.641323</ele>
        <time>2018-03-20T14:42:57Z</time>
      </trkpt>
      <trkpt lat="50.5686" lon="3.29641">
        <ele>33.54179</ele>
        <time>2018-03-20T14:42:59Z</time>
      </trkpt>
      <trkpt lat="50.56855" lon="3.29654">
        <ele>33.447811</ele>
        <time>2018-03-20T14:43:01Z</time>
      </trkpt>
      <trkpt lat="50.5685" lon="3.29668">
        <ele>33.347412</ele>
        <time>2018-03-20T14:43:03Z</time>
      </trkpt>
      <trkpt lat="50.56845" lon="3.29682">
        <ele>33.232967</ele>
        <time>2018-03-20T14:43:05Z</time>
      </trkpt>
      <trkpt lat="50.56841" lon="3.29696">
        <ele>33.144367</ele>
        <time>2018-03-20T14:43:07Z</time>
      </trkpt>
      <trkpt lat="50.56836" lon="3.2971">
        <ele>33.092903</ele>
        <time>2018-03-20T14:43:09Z</time>
      </trkpt>
      <trkpt lat="50.56833" lon="3.29725">
        <ele>33.038811</ele>
        <time>2018-03-20T14:43:11Z</time>
      </trkpt>
      <trkpt lat="50.56829" lon="3.2974">
        <ele>32.977558</ele>
        <time>2018-03-20T14:43:13Z</time>
      </trkpt>
      <trkpt lat="50.56825" lon="3.29755">
        <ele>32.905617</ele>
        <time>2018-03-20T14:43:15Z</time>
      </trkpt>
      <trkpt lat="50.56822" lon="3.2977">
        <ele>32.852757</ele>
        <time>2018-03-20T14:43:17Z</time>
      </trkpt>
      <trkpt lat="50.56818" lon="3.29785">
        <ele>32.807259</ele>
        <time>2018-03-20T14:43:19Z</time>
      </trkpt>
      <trkpt lat="50.56814" lon="3.29799">
        <ele>32.709236</ele>
        <time>2018-03-20T14:43:21Z</time>
      </trkpt>
      <trkpt lat="50.5681" lon="3.29813">
        <ele>32.661495</ele>
        <time>2018-03-20T14:43:23Z</time>
      </trkpt>
      <trkpt lat="50.56807" lon="3.29828">
        <ele>32.618176</ele>
        <time>2018-03-20T14:43:25Z</time>
      </trkpt>
      <trkpt lat="50.56803" lon="3.29843">
        <ele>32.583759</ele>
        <time>2018-03-20T14:43:27Z</time>
      </trkpt>
      <trkpt lat="50.56799" lon="3.29858">
        <ele>32.586685</ele>
        <time>2018-03-20T14:43:29Z</time>
      </trkpt>
      <trkpt lat="50.56796" lon="3.29873">
        <ele>32.568363</ele>
        <time>2018-03-20T14:43:31Z</time>
      </trkpt>
      <trkpt lat="50.56792" lon="3.29888">
        <ele>32.617363</ele>
        <time>2018-03-20T14:43:33Z</time>
      </trkpt>
      <trkpt lat="50.56788" lon="3.29903">
        <ele>32.569633</ele>
        <time>2018-03-20T14:43:35Z</time>
      </trkpt>
      <trkpt lat="50.56784" lon="3.29917">
        <ele>32.531361</ele>
        <time>2018-03-20T14:43:37Z</time>
      </trkpt>
      <trkpt lat="50.5678" lon="3.29933">
        <ele>32.493446</ele>
        <time>2018-03-20T14:43:39Z</time>
      </trkpt>
      <trkpt lat="50.56776" lon="3.29946">
        <ele>32.437695</ele>
        <time>2018-03-20T14:43:41Z</time>
      </trkpt>
      <trkpt lat="50.56772" lon="3.29959">
        <ele>32.410797</ele>
        <time>2018-03-20T14:43:43Z</time>
      </trkpt>
      <trkpt lat="50.56771" lon="3.29974">
        <ele>32.416603</ele>
        <time>2018-03-20T14:43:45Z</time>
      </trkpt>
      <trkpt lat="50.56774" lon="3.29987">
        <ele>32.361973</ele>
        <time>2018-03-20T14:43:47Z</time>
      </trkpt>
      <trkpt lat="50.56778" lon="3.30001">
        <ele>32.346661</ele>
        <time>2018-03-20T14:43:49Z</time>
      </trkpt>
      <trkpt lat="50.56783" lon="3.30014">
        <ele>32.300777</ele>
        <time>2018-03-20T14:43:51Z</time>
      </trkpt>
      <trkpt lat="50.56788" lon="3.30027">
        <ele>32.27457</ele>
        <time>2018-03-20T14:43:53Z</time>
      </trkpt>
      <trkpt lat="50.56793" lon="3.3004">
        <ele>32.207287</ele>
        <time>2018-03-20T14:43:55Z</time>
      </trkpt>
      <trkpt lat="50.56799" lon="3.30054">
        <ele>32.19162</ele>
        <time>2018-03-20T14:43:57Z</time>
      </trkpt>
      <trkpt lat="50.56805" lon="3.30066">
        <ele>32.136528</ele>
        <time>2018-03-20T14:43:59Z</time>
      </trkpt>
      <trkpt lat="50.56812" lon="3.30077">
        <ele>32.144829</ele>
        <time>2018-03-20T14:44:01Z</time>
      </trkpt>
      <trkpt lat="50.56818" lon="3.3009">
        <ele>32.166039</ele>
        <time>2018-03-20T14:44:03Z</time>
      </trkpt>
      <trkpt lat="50.56823" lon="3.30105">
        <ele>32.19046</ele>
        <time>2018-03-20T14:44:05Z</time>
      </trkpt>
      <trkpt lat="50.56825" lon="3.30121">
        <ele>32.189091</ele>
        <time>2018-03-20T14:44:07Z</time>
      </trkpt>
      <trkpt lat="50.56824" lon="3.30137">
        <ele>32.183544</ele>
        <time>2018-03-20T14:44:09Z</time>
      </trkpt>
      <trkpt lat="50.5682" lon="3.30154">
        <ele>32.187508</ele>
        <time>2018-03-20T14:44:11Z</time>
      </trkpt>
      <trkpt lat="50.56817" lon="3.3017">
        <ele>32.177906</ele>
        <time>2018-03-20T14:44:13Z</time>
      </trkpt>
      <trkpt lat="50.56814" lon="3.30185">
        <ele>32.158916</ele>
        <time>2018-03-20T14:44:15Z</time>
      </trkpt>
      <trkpt lat="50.5681" lon="3.302">
        <ele>32.204525</ele>
        <time>2018-03-20T14:44:17Z</time>
      </trkpt>
      <trkpt lat="50.56807" lon="3.30216">
        <ele>32.261635</ele>
        <time>2018-03-20T14:44:19Z</time>
      </trkpt>
      <trkpt lat="50.56804" lon="3.30231">
        <ele>32.295036</ele>
        <time>2018-03-20T14:44:21Z</time>
      </trkpt>
      <trkpt lat="50.56801" lon="3.30247">
        <ele>32.303707</ele>
        <time>2018-03-20T14:44:23Z</time>
      </trkpt>
      <trkpt lat="50.56797" lon="3.30262">
        <ele>32.255806</ele>
        <time>2018-03-20T14:44:25Z</time>
      </trkpt>
      <trkpt lat="50.56794" lon="3.30278">
        <ele>32.249649</ele>
        <time>2018-03-20T14:44:27Z</time>
      </trkpt>
      <trkpt lat="50.5679" lon="3.30293">
        <ele>32.272934</ele>
        <time>2018-03-20T14:44:29Z</time>
      </trkpt>
      <trkpt lat="50.56787" lon="3.30308">
        <ele>32.234493</ele>
        <time>2018-03-20T14:44:31Z</time>
      </trkpt>
      <trkpt lat="50.56784" lon="3.30324">
        <ele>32.258068</ele>
        <time>2018-03-20T14:44:33Z</time>
      </trkpt>
      <trkpt lat="50.5678" lon="3.30339">
        <ele>32.253254</ele>
        <time>2018-03-20T14:44:35Z</time>
      </trkpt>
      <trkpt lat="50.56777" lon="3.30355">
        <ele>32.315315</ele>
        <time>2018-03-20T14:44:37Z</time>
      </trkpt>
      <trkpt lat="50.56774" lon="3.3037">
        <ele>32.333241</ele>
        <time>2018-03-20T14:44:39Z</time>
      </trkpt>
      <trkpt lat="50.56771" lon="3.30385">
        <ele>32.350594</ele>
        <time>2018-03-20T14:44:41Z</time>
      </trkpt>
      <trkpt lat="50.56767" lon="3.304">
        <ele>32.396076</ele>
        <time>2018-03-20T14:44:43Z</time>
      </trkpt>
      <trkpt lat="50.56763" lon="3.30414">
        <ele>32.407074</ele>
        <time>2018-03-20T14:44:45Z</time>
      </trkpt>
      <trkpt lat="50.56758" lon="3.30427">
        <ele>32.41497</ele>
        <time>2018-03-20T14:44:47Z</time>
      </trkpt>
      <trkpt lat="50.5675" lon="3.30439">
        <ele>32.496666</ele>
        <time>2018-03-20T14:44:49Z</time>
      </trkpt>
      <trkpt lat="50.56742" lon="3.30449">
        <ele>32.51162</ele>
        <time>2018-03-20T14:44:51Z</time>
      </trkpt>
      <trkpt lat="50.56732" lon="3.30458">
        <ele>32.558556</ele>
        <time>2018-03-20T14:44:53Z</time>
      </trkpt>
      <trkpt lat="50.56723" lon="3.30467">
        <ele>32.580376</ele>
        <time>2018-03-20T14:44:55Z</time>
      </trkpt>
      <trkpt lat="50.56714" lon="3.30478">
        <ele>32.568623</ele>
        <time>2018-03-20T14:44:57Z</time>
      </trkpt>
      <trkpt lat="50.56706" lon="3.30487">
        <ele>32.596558</ele>
        <time>2018-03-20T14:44:59Z</time>
      </trkpt>
      <trkpt lat="50.56697" lon="3.30497">
        <ele>32.634933</ele>
        <time>2018-03-20T14:45:01Z</time>
      </trkpt>
      <trkpt lat="50.56688" lon="3.30506">
        <ele>32.648117</ele>
        <time>2018-03-20T14:45:03Z</time>
      </trkpt>
      <trkpt lat="50.5668" lon="3.30515">
        <ele>32.714188</ele>
        <time>2018-03-20T14:45:05Z</time>
      </trkpt>
      <trkpt lat="50.56672" lon="3.30526">
        <ele>32.759003</ele>
        <time>2018-03-20T14:45:07Z</time>
      </trkpt>
      <trkpt lat="50.56666" lon="3.30539">
        <ele>32.779266</ele>
        <time>2018-03-20T14:45:09Z</time>
      </trkpt>
      <trkpt lat="50.56662" lon="3.30554">
        <ele>32.820202</ele>
        <time>2018-03-20T14:45:11Z</time>
      </trkpt>
      <trkpt lat="50.56658" lon="3.30569">
        <ele>32.870262</ele>
        <time>2018-03-20T14:45:13Z</time>
      </trkpt>
      <trkpt lat="50.56655" lon="3.30583">
        <ele>32.929543</ele>
        <time>2018-03-20T14:45:15Z</time>
      </trkpt>
      <trkpt lat="50.56651" lon="3.30597">
        <ele>32.961346</ele>
        <time>2018-03-20T14:45:17Z</time>
      </trkpt>
      <trkpt lat="50.56647" lon="3.30611">
        <ele>33.017822</ele>
        <time>2018-03-20T14:45:19Z</time>
      </trkpt>
      <trkpt lat="50.56643" lon="3.30626">
        <ele>33.054726</ele>
        <time>2018-03-20T14:45:21Z</time>
      </trkpt>
      <trkpt lat="50.5664" lon="3.3064">
        <ele>33.17495</ele>
        <time>2018-03-20T14:45:23Z</time>
      </trkpt>
      <trkpt lat="50.56636" lon="3.30654">
        <ele>33.200096</ele>
        <time>2018-03-20T14:45:25Z</time>
      </trkpt>
      <trkpt lat="50.56632" lon="3.30668">
        <ele>33.290886</ele>
        <time>2018-03-20T14:45:27Z</time>
      </trkpt>
      <trkpt lat="50.56628" lon="3.30682">
        <ele>33.375305</ele>
        <time>2018-03-20T14:45:29Z</time>
      </trkpt>
      <trkpt lat="50.56625" lon="3.30696">
        <ele>33.411083</ele>
        <time>2018-03-20T14:45:31Z</time>
      </trkpt>
      <trkpt lat="50.56622" lon="3.3071">
        <ele>33.464905</ele>
        <time>2018-03-20T14:45:33Z</time>
      </trkpt>
      <trkpt lat="50.56618" lon="3.30724">
        <ele>33.521858</ele>
        <time>2018-03-20T14:45:35Z</time>
      </trkpt>
      <trkpt lat="50.56614" lon="3.30737">
        <ele>33.620983</ele>
        <time>2018-03-20T14:45:37Z</time>
      </trkpt>
      <trkpt lat="50.56611" lon="3.30751">
        <ele>33.734459</ele>
        <time>2018-03-20T14:45:39Z</time>
      </trkpt>
      <trkpt lat="50.56607" lon="3.30765">
        <ele>33.814384</ele>
        <time>2018-03-20T14:45:41Z</time>
      </trkpt>
      <trkpt lat="50.56604" lon="3.30779">
        <ele>33.927471</ele>
        <time>2018-03-20T14:45:43Z</time>
      </trkpt>
      <trkpt lat="50.566" lon="3.30793">
        <ele>34.073597</ele>
        <time>2018-03-20T14:45:45Z</time>
      </trkpt>
      <trkpt lat="50.56596" lon="3.30807">
        <ele>34.192394</ele>
        <time>2018-03-20T14:45:47Z</time>
      </trkpt>
      <trkpt lat="50.56593" lon="3.30821">
        <ele>34.350487</ele>
        <time>2018-03-20T14:45:49Z</time>
      </trkpt>
      <trkpt lat="50.56589" lon="3.30834">
        <ele>34.467949</ele>
        <time>2018-03-20T14:45:51Z</time>
      </trkpt>
      <trkpt lat="50.56585" lon="3.30847">
        <ele>34.590256</ele>
        <time>2018-03-20T14:45:53Z</time>
      </trkpt>
      <trkpt lat="50.56582" lon="3.3086">
        <ele>34.736591</ele>
        <time>2018-03-20T14:45:55Z</time>
      </trkpt>
      <trkpt lat="50.56578" lon="3.30873">
        <ele>34.875957</ele>
        <time>2018-03-20T14:45:57Z</time>
      </trkpt>
      <trkpt lat="50.56575" lon="3.30886">
        <ele>34.937912</ele>
        <time>2018-03-20T14:45:59Z</time>
      </trkpt>
      <trkpt lat="50.56572" lon="3.30899">
        <ele>35.099068</ele>
        <time>2018-03-20T14:46:01Z</time>
      </trkpt>
      <trkpt lat="50.56569" lon="3.30912">
        <ele>35.273239</ele>
        <time>2018-03-20T14:46:03Z</time>
      </trkpt>
      <trkpt lat="50.56565" lon="3.30925">
        <ele>35.364296</ele>
        <time>2018-03-20T14:46:05Z</time>
      </trkpt>
      <trkpt lat="50.56562" lon="3.30937">
        <ele>35.508938</ele>
        <time>2018-03-20T14:46:07Z</time>
      </trkpt>
      <trkpt lat="50.56559" lon="3.3095">
        <ele>35.680439</ele>
        <time>2018-03-20T14:46:09Z</time>
      </trkpt>
      <trkpt lat="50.56555" lon="3.30963">
        <ele>35.832821</ele>
        <time>2018-03-20T14:46:11Z</time>
      </trkpt>
      <trkpt lat="50.56552" lon="3.30975">
        <ele>36.039516</ele>
        <time>2018-03-20T14:46:13Z</time>
      </trkpt>
      <trkpt lat="50.56548" lon="3.30987">
        <ele>36.243179</ele>
        <time>2018-03-20T14:46:15Z</time>
      </trkpt>
      <trkpt lat="50.56545" lon="3.30999">
        <ele>36.441612</ele>
        <time>2018-03-20T14:46:17Z</time>
      </trkpt>
      <trkpt lat="50.56541" lon="3.31011">
        <ele>36.619835</ele>
        <time>2018-03-20T14:46:19Z</time>
      </trkpt>
      <trkpt lat="50.56539" lon="3.31023">
        <ele>36.778553</ele>
        <time>2018-03-20T14:46:21Z</time>
      </trkpt>
      <trkpt lat="50.56536" lon="3.31034">
        <ele>36.971718</ele>
        <time>2018-03-20T14:46:23Z</time>
      </trkpt>
      <trkpt lat="50.56533" lon="3.31044">
        <ele>37.13649</ele>
        <time>2018-03-20T14:46:25Z</time>
      </trkpt>
      <trkpt lat="50.56531" lon="3.31052">
        <ele>37.317509</ele>
        <time>2018-03-20T14:46:27Z</time>
      </trkpt>
      <trkpt lat="50.56529" lon="3.31059">
        <ele>37.517159</ele>
        <time>2018-03-20T14:46:29Z</time>
      </trkpt>
      <trkpt lat="50.56526" lon="3.31063">
        <ele>37.771496</ele>
        <time>2018-03-20T14:46:31Z</time>
      </trkpt>
      <trkpt lat="50.56522" lon="3.31066">
        <ele>37.85001</ele>
        <time>2018-03-20T14:46:33Z</time>
      </trkpt>
      <trkpt lat="50.56518" lon="3.31068">
        <ele>38.052505</ele>
        <time>2018-03-20T14:46:35Z</time>
      </trkpt>
      <trkpt lat="50.56511" lon="3.31069">
        <ele>38.20359</ele>
        <time>2018-03-20T14:46:37Z</time>
      </trkpt>
      <trkpt lat="50.56504" lon="3.3107">
        <ele>38.312309</ele>
        <time>2018-03-20T14:46:39Z</time>
      </trkpt>
      <trkpt lat="50.56496" lon="3.31071">
        <ele>38.417645</ele>
        <time>2018-03-20T14:46:41Z</time>
      </trkpt>
      <trkpt lat="50.56488" lon="3.31073">
        <ele>38.48753</ele>
        <time>2018-03-20T14:46:43Z</time>
      </trkpt>
      <trkpt lat="50.5648" lon="3.31077">
        <ele>38.572464</ele>
        <time>2018-03-20T14:46:45Z</time>
      </trkpt>
      <trkpt lat="50.56472" lon="3.31082">
        <ele>38.65057</ele>
        <time>2018-03-20T14:46:47Z</time>
      </trkpt>
      <trkpt lat="50.56465" lon="3.31088">
        <ele>38.690426</ele>
        <time>2018-03-20T14:46:49Z</time>
      </trkpt>
      <trkpt lat="50.56458" lon="3.31094">
        <ele>38.729225</ele>
        <time>2018-03-20T14:46:51Z</time>
      </trkpt>
      <trkpt lat="50.56452" lon="3.31101">
        <ele>38.783943</ele>
        <time>2018-03-20T14:46:53Z</time>
      </trkpt>
      <trkpt lat="50.56445" lon="3.31108">
        <ele>38.812565</ele>
        <time>2018-03-20T14:46:55Z</time>
      </trkpt>
      <trkpt lat="50.56437" lon="3.31112">
        <ele>38.875374</ele>
        <time>2018-03-20T14:46:57Z</time>
      </trkpt>
      <trkpt lat="50.56428" lon="3.31114">
        <ele>38.929333</ele>
        <time>2018-03-20T14:46:59Z</time>
      </trkpt>
      <trkpt lat="50.5642" lon="3.31113">
        <ele>38.956089</ele>
        <time>2018-03-20T14:47:01Z</time>
      </trkpt>
      <trkpt lat="50.56411" lon="3.31109">
        <ele>39.029968</ele>
        <time>2018-03-20T14:47:03Z</time>
      </trkpt>
      <trkpt lat="50.56404" lon="3.31103">
        <ele>39.117622</ele>
        <time>2018-03-20T14:47:05Z</time>
      </trkpt>
      <trkpt lat="50.56398" lon="3.31093">
        <ele>39.127831</ele>
        <time>2018-03-20T14:47:07Z</time>
      </trkpt>
      <trkpt lat="50.56394" lon="3.31082">
        <ele>39.25639</ele>
        <time>2018-03-20T14:47:09Z</time>
      </trkpt>
      <trkpt lat="50.5639" lon="3.3107">
        <ele>39.312019</ele>
        <time>2018-03-20T14:47:11Z</time>
      </trkpt>
      <trkpt lat="50.56385" lon="3.31059">
        <ele>39.30677</ele>
        <time>2018-03-20T14:47:13Z</time>
      </trkpt>
      <trkpt lat="50.56381" lon="3.31046">
        <ele>39.311344</ele>
        <time>2018-03-20T14:47:15Z</time>
      </trkpt>
      <trkpt lat="50.56376" lon="3.31035">
        <ele>39.34449</ele>
        <time>2018-03-20T14:47:17Z</time>
      </trkpt>
      <trkpt lat="50.56371" lon="3.31024">
        <ele>39.485252</ele>
        <time>2018-03-20T14:47:19Z</time>
      </trkpt>
      <trkpt lat="50.56366" lon="3.31013">
        <ele>39.637463</ele>
        <time>2018-03-20T14:47:21Z</time>
      </trkpt>
      <trkpt lat="50.56361" lon="3.31003">
        <ele>39.737453</ele>
        <time>2018-03-20T14:47:23Z</time>
      </trkpt>
      <trkpt lat="50.56355" lon="3.30992">
        <ele>39.893608</ele>
        <time>2018-03-20T14:47:25Z</time>
      </trkpt>
      <trkpt lat="50.56349" lon="3.30983">
        <ele>40.056042</ele>
        <time>2018-03-20T14:47:27Z</time>
      </trkpt>
      <trkpt lat="50.56344" lon="3.30973">
        <ele>40.208672</ele>
        <time>2018-03-20T14:47:29Z</time>
      </trkpt>
      <trkpt lat="50.56337" lon="3.30963">
        <ele>40.423737</ele>
        <time>2018-03-20T14:47:31Z</time>
      </trkpt>
      <trkpt lat="50.56331" lon="3.30954">
        <ele>40.510811</ele>
        <time>2018-03-20T14:47:33Z</time>
      </trkpt>
      <trkpt lat="50.56324" lon="3.30944">
        <ele>40.662682</ele>
        <time>2018-03-20T14:47:35Z</time>
      </trkpt>
      <trkpt lat="50.56317" lon="3.30935">
        <ele>40.80584</ele>
        <time>2018-03-20T14:47:37Z</time>
      </trkpt>
      <trkpt lat="50.5631" lon="3.30925">
        <ele>40.950615</ele>
        <time>2018-03-20T14:47:39Z</time>
      </trkpt>
      <trkpt lat="50.56303" lon="3.30914">
        <ele>41.105228</ele>
        <time>2018-03-20T14:47:41Z</time>
      </trkpt>
      <trkpt lat="50.56297" lon="3.30903">
        <ele>41.260201</ele>
        <time>2018-03-20T14:47:43Z</time>
      </trkpt>
      <trkpt lat="50.56292" lon="3.30891">
        <ele>41.418831</ele>
        <time>2018-03-20T14:47:45Z</time>
      </trkpt>
      <trkpt lat="50.56289" lon="3.30878">
        <ele>41.573471</ele>
        <time>2018-03-20T14:47:47Z</time>
      </trkpt>
      <trkpt lat="50.56287" lon="3.30863">
        <ele>41.758205</ele>
        <time>2018-03-20T14:47:49Z</time>
      </trkpt>
      <trkpt lat="50.56288" lon="3.30848">
        <ele>41.829735</ele>
        <time>2018-03-20T14:47:51Z</time>
      </trkpt>
      <trkpt lat="50.56289" lon="3.30834">
        <ele>41.9655</ele>
        <time>2018-03-20T14:47:53Z</time>
      </trkpt>
      <trkpt lat="50.5629" lon="3.30819">
        <ele>42.068062</ele>
        <time>2018-03-20T14:47:55Z</time>
      </trkpt>
      <trkpt lat="50.56291" lon="3.30804">
        <ele>42.182961</ele>
        <time>2018-03-20T14:47:57Z</time>
      </trkpt>
      <trkpt lat="50.56292" lon="3.30789">
        <ele>42.278492</ele>
        <time>2018-03-20T14:47:59Z</time>
      </trkpt>
      <trkpt lat="50.56295" lon="3.30775">
        <ele>42.39212</ele>
        <time>2018-03-20T14:48:01Z</time>
      </trkpt>
      <trkpt lat="50.56298" lon="3.30761">
        <ele>42.448128</ele>
        <time>2018-03-20T14:48:03Z</time>
      </trkpt>
      <trkpt lat="50.56302" lon="3.30748">
        <ele>42.573868</ele>
        <time>2018-03-20T14:48:05Z</time>
      </trkpt>
      <trkpt lat="50.56306" lon="3.30735">
        <ele>42.653225</ele>
        <time>2018-03-20T14:48:07Z</time>
      </trkpt>
      <trkpt lat="50.5631" lon="3.30721">
        <ele>42.748119</ele>
        <time>2018-03-20T14:48:09Z</time>
      </trkpt>
      <trkpt lat="50.56314" lon="3.30708">
        <ele>42.905388</ele>
        <time>2018-03-20T14:48:11Z</time>
      </trkpt>
      <trkpt lat="50.56318" lon="3.30695">
        <ele>43.004097</ele>
        <time>2018-03-20T14:48:13Z</time>
      </trkpt>
      <trkpt lat="50.5632" lon="3.30681">
        <ele>43.143196</ele>
        <time>2018-03-20T14:48:15Z</time>
      </trkpt>
      <trkpt lat="50.56321" lon="3.30667">
        <ele>43.257435</ele>
        <time>2018-03-20T14:48:17Z</time>
      </trkpt>
      <trkpt lat="50.5632" lon="3.30653">
        <ele>43.38195</ele>
        <time>2018-03-20T14:48:19Z</time>
      </trkpt>
      <trkpt lat="50.56315" lon="3.3064">
        <ele>43.47229</ele>
        <time>2018-03-20T14:48:21Z</time>
      </trkpt>
      <trkpt lat="50.56309" lon="3.30629">
        <ele>43.538593</ele>
        <time>2018-03-20T14:48:23Z</time>
      </trkpt>
      <trkpt lat="50.56302" lon="3.30619">
        <ele>43.638947</ele>
        <time>2018-03-20T14:48:25Z</time>
      </trkpt>
      <trkpt lat="50.56295" lon="3.30609">
        <ele>43.702454</ele>
        <time>2018-03-20T14:48:27Z</time>
      </trkpt>
      <trkpt lat="50.56288" lon="3.30601">
        <ele>43.730381</ele>
        <time>2018-03-20T14:48:29Z</time>
      </trkpt>
      <trkpt lat="50.56279" lon="3.30595">
        <ele>43.795437</ele>
        <time>2018-03-20T14:48:31Z</time>
      </trkpt>
      <trkpt lat="50.5627" lon="3.30588">
        <ele>43.854889</ele>
        <time>2018-03-20T14:48:33Z</time>
      </trkpt>
      <trkpt lat="50.56261" lon="3.30582">
        <ele>43.95977</ele>
        <time>2018-03-20T14:48:35Z</time>
      </trkpt>
      <trkpt lat="50.56252" lon="3.30576">
        <ele>44.041615</ele>
        <time>2018-03-20T14:48:37Z</time>
      </trkpt>
      <trkpt lat="50.56243" lon="3.30569">
        <ele>44.140953</ele>
        <time>2018-03-20T14:48:39Z</time>
      </trkpt>
      <trkpt lat="50.56234" lon="3.30562">
        <ele>44.239536</ele>
        <time>2018-03-20T14:48:41Z</time>
      </trkpt>
      <trkpt lat="50.56226" lon="3.30553">
        <ele>44.318756</ele>
        <time>2018-03-20T14:48:43Z</time>
      </trkpt>
      <trkpt lat="50.56218" lon="3.30544">
        <ele>44.424118</ele>
        <time>2018-03-20T14:48:45Z</time>
      </trkpt>
      <trkpt lat="50.56211" lon="3.30534">
        <ele>44.508018</ele>
        <time>2018-03-20T14:48:47Z</time>
      </trkpt>
      <trkpt lat="50.56204" lon="3.30525">
        <ele>44.582058</ele>
        <time>2018-03-20T14:48:49Z</time>
      </trkpt>
      <trkpt lat="50.56197" lon="3.30516">
        <ele>44.59779</ele>
        <time>2018-03-20T14:48:51Z</time>
      </trkpt>
      <trkpt lat="50.5619" lon="3.30506">
        <ele>44.602612</ele>
        <time>2018-03-20T14:48:53Z</time>
      </trkpt>
      <trkpt lat="50.56182" lon="3.30496">
        <ele>44.587189</ele>
        <time>2018-03-20T14:48:55Z</time>
      </trkpt>
      <trkpt lat="50.56175" lon="3.30487">
        <ele>44.598339</ele>
        <time>2018-03-20T14:48:57Z</time>
      </trkpt>
      <trkpt lat="50.56167" lon="3.30478">
        <ele>44.699894</ele>
        <time>2018-03-20T14:48:59Z</time>
      </trkpt>
      <trkpt lat="50.5616" lon="3.30468">
        <ele>44.748398</ele>
        <time>2018-03-20T14:49:01Z</time>
      </trkpt>
      <trkpt lat="50.56152" lon="3.30458">
        <ele>44.805321</ele>
        <time>2018-03-20T14:49:03Z</time>
      </trkpt>
      <trkpt lat="50.56144" lon="3.30449">
        <ele>44.900982</ele>
        <time>2018-03-20T14:49:05Z</time>
      </trkpt>
      <trkpt lat="50.56137" lon="3.30439">
        <ele>45.007053</ele>
        <time>2018-03-20T14:49:07Z</time>
      </trkpt>
      <trkpt lat="50.56129" lon="3.3043">
        <ele>45.119667</ele>
        <time>2018-03-20T14:49:09Z</time>
      </trkpt>
      <trkpt lat="50.56121" lon="3.30422">
        <ele>45.22979</ele>
        <time>2018-03-20T14:49:11Z</time>
      </trkpt>
      <trkpt lat="50.56113" lon="3.30415">
        <ele>45.268913</ele>
        <time>2018-03-20T14:49:13Z</time>
      </trkpt>
      <trkpt lat="50.56104" lon="3.3041">
        <ele>45.323463</ele>
        <time>2018-03-20T14:49:15Z</time>
      </trkpt>
      <trkpt lat="50.56094" lon="3.30405">
        <ele>45.507378</ele>
        <time>2018-03-20T14:49:17Z</time>
      </trkpt>
      <trkpt lat="50.56085" lon="3.30401">
        <ele>45.632381</ele>
        <time>2018-03-20T14:49:19Z</time>
      </trkpt>
      <trkpt lat="50.56075" lon="3.30398">
        <ele>45.769222</ele>
        <time>2018-03-20T14:49:21Z</time>
      </trkpt>
      <trkpt lat="50.56065" lon="3.30395">
        <ele>45.899727</ele>
        <time>2018-03-20T14:49:23Z</time>
      </trkpt>
      <trkpt lat="50.56056" lon="3.30391">
        <ele>45.963333</ele>
        <time>2018-03-20T14:49:25Z</time>
      </trkpt>
      <trkpt lat="50.56046" lon="3.30388">
        <ele>46.087334</ele>
        <time>2018-03-20T14:49:27Z</time>
      </trkpt>
      <trkpt lat="50.56036" lon="3.30384">
        <ele>46.182091</ele>
        <time>2018-03-20T14:49:29Z</time>
      </trkpt>
      <trkpt lat="50.56026" lon="3.3038">
        <ele>46.314919</ele>
        <time>2018-03-20T14:49:31Z</time>
      </trkpt>
      <trkpt lat="50.56017" lon="3.30376">
        <ele>46.425987</ele>
        <time>2018-03-20T14:49:33Z</time>
      </trkpt>
      <trkpt lat="50.56007" lon="3.30372">
        <ele>46.56971</ele>
        <time>2018-03-20T14:49:35Z</time>
      </trkpt>
      <trkpt lat="50.55997" lon="3.30368">
        <ele>46.686745</ele>
        <time>2018-03-20T14:49:37Z</time>
      </trkpt>
      <trkpt lat="50.55987" lon="3.30363">
        <ele>46.840878</ele>
        <time>2018-03-20T14:49:39Z</time>
      </trkpt>
      <trkpt lat="50.55977" lon="3.30359">
        <ele>46.932713</ele>
        <time>2018-03-20T14:49:41Z</time>
      </trkpt>
      <trkpt lat="50.55967" lon="3.30356">
        <ele>47.027962</ele>
        <time>2018-03-20T14:49:43Z</time>
      </trkpt>
      <trkpt lat="50.55957" lon="3.30352">
        <ele>47.119595</ele>
        <time>2018-03-20T14:49:45Z</time>
      </trkpt>
      <trkpt lat="50.55947" lon="3.30349">
        <ele>47.123589</ele>
        <time>2018-03-20T14:49:47Z</time>
      </trkpt>
      <trkpt lat="50.55937" lon="3.30345">
        <ele>47.115471</ele>
        <time>2018-03-20T14:49:49Z</time>
      </trkpt>
      <trkpt lat="50.55927" lon="3.30342">
        <ele>47.121056</ele>
        <time>2018-03-20T14:49:51Z</time>
      </trkpt>
      <trkpt lat="50.55916" lon="3.30338">
        <ele>47.11261</ele>
        <time>2018-03-20T14:49:53Z</time>
      </trkpt>
      <trkpt lat="50.55906" lon="3.30334">
        <ele>47.143181</ele>
        <time>2018-03-20T14:49:55Z</time>
      </trkpt>
      <trkpt lat="50.55895" lon="3.3033">
        <ele>47.115116</ele>
        <time>2018-03-20T14:49:57Z</time>
      </trkpt>
      <trkpt lat="50.55884" lon="3.30326">
        <ele>47.024452</ele>
        <time>2018-03-20T14:49:59Z</time>
      </trkpt>
      <trkpt lat="50.55872" lon="3.30322">
        <ele>46.926533</ele>
        <time>2018-03-20T14:50:01Z</time>
      </trkpt>
      <trkpt lat="50.55861" lon="3.30317">
        <ele>46.792583</ele>
        <time>2018-03-20T14:50:03Z</time>
      </trkpt>
      <trkpt lat="50.5585" lon="3.30312">
        <ele>46.694592</ele>
        <time>2018-03-20T14:50:05Z</time>
      </trkpt>
      <trkpt lat="50.55839" lon="3.30308">
        <ele>46.59203</ele>
        <time>2018-03-20T14:50:07Z</time>
      </trkpt>
      <trkpt lat="50.55828" lon="3.30303">
        <ele>46.507133</ele>
        <time>2018-03-20T14:50:09Z</time>
      </trkpt>
      <trkpt lat="50.55817" lon="3.30299">
        <ele>46.360558</ele>
        <time>2018-03-20T14:50:11Z</time>
      </trkpt>
      <trkpt lat="50.55807" lon="3.30295">
        <ele>46.22377</ele>
        <time>2018-03-20T14:50:13Z</time>
      </trkpt>
      <trkpt lat="50.55796" lon="3.3029">
        <ele>46.028465</ele>
        <time>2018-03-20T14:50:15Z</time>
      </trkpt>
      <trkpt lat="50.55785" lon="3.30287">
        <ele>45.838463</ele>
        <time>2018-03-20T14:50:17Z</time>
      </trkpt>
      <trkpt lat="50.55776" lon="3.30283">
        <ele>45.638908</ele>
        <time>2018-03-20T14:50:19Z</time>
      </trkpt>
      <trkpt lat="50.55766" lon="3.3028">
        <ele>45.393585</ele>
        <time>2018-03-20T14:50:21Z</time>
      </trkpt>
      <trkpt lat="50.55758" lon="3.30283">
        <ele>45.227722</ele>
        <time>2018-03-20T14:50:23Z</time>
      </trkpt>
      <trkpt lat="50.55751" lon="3.30294">
        <ele>44.965454</ele>
        <time>2018-03-20T14:50:25Z</time>
      </trkpt>
      <trkpt lat="50.55746" lon="3.30308">
        <ele>44.860123</ele>
        <time>2018-03-20T14:50:27Z</time>
      </trkpt>
      <trkpt lat="50.55742" lon="3.30323">
        <ele>44.659199</ele>
        <time>2018-03-20T14:50:29Z</time>
      </trkpt>
      <trkpt lat="50.55735" lon="3.30336">
        <ele>44.475193</ele>
        <time>2018-03-20T14:50:31Z</time>
      </trkpt>
      <trkpt lat="50.55725" lon="3.30347">
        <ele>44.289116</ele>
        <time>2018-03-20T14:50:33Z</time>
      </trkpt>
      <trkpt lat="50.55714" lon="3.30354">
        <ele>44.063591</ele>
        <time>2018-03-20T14:50:35Z</time>
      </trkpt>
      <trkpt lat="50.55702" lon="3.30356">
        <ele>43.808331</ele>
        <time>2018-03-20T14:50:37Z</time>
      </trkpt>
      <trkpt lat="50.5569" lon="3.30358">
        <ele>43.550308</ele>
        <time>2018-03-20T14:50:39Z</time>
      </trkpt>
      <trkpt lat="50.55679" lon="3.30359">
        <ele>43.337963</ele>
        <time>2018-03-20T14:50:41Z</time>
      </trkpt>
      <trkpt lat="50.55669" lon="3.30361">
        <ele>43.128963</ele>
        <time>2018-03-20T14:50:43Z</time>
      </trkpt>
      <trkpt lat="50.55659" lon="3.30365">
        <ele>42.985592</ele>
        <time>2018-03-20T14:50:45Z</time>
      </trkpt>
      <trkpt lat="50.55649" lon="3.30368">
        <ele>42.815109</ele>
        <time>2018-03-20T14:50:47Z</time>
      </trkpt>
      <trkpt lat="50.55639" lon="3.30371">
        <ele>42.62468</ele>
        <time>2018-03-20T14:50:49Z</time>
      </trkpt>
      <trkpt lat="50.55629" lon="3.30375">
        <ele>42.444191</ele>
        <time>2018-03-20T14:50:51Z</time>
      </trkpt>
      <trkpt lat="50.5562" lon="3.30379">
        <ele>42.306309</ele>
        <time>2018-03-20T14:50:53Z</time>
      </trkpt>
      <trkpt lat="50.55611" lon="3.30385">
        <ele>42.179714</ele>
        <time>2018-03-20T14:50:55Z</time>
      </trkpt>
      <trkpt lat="50.55603" lon="3.3039">
        <ele>42.118866</ele>
        <time>2018-03-20T14:50:57Z</time>
      </trkpt>
      <trkpt lat="50.55596" lon="3.30395">
        <ele>42.077454</ele>
        <time>2018-03-20T14:50:59Z</time>
      </trkpt>
      <trkpt lat="50.55589" lon="3.30397">
        <ele>41.997902</ele>
        <time>2018-03-20T14:51:01Z</time>
      </trkpt>
      <trkpt lat="50.55583" lon="3.304">
        <ele>42.007484</ele>
        <time>2018-03-20T14:51:03Z</time>
      </trkpt>
      <trkpt lat="50.55578" lon="3.30402">
        <ele>41.916908</ele>
        <time>2018-03-20T14:51:05Z</time>
      </trkpt>
      <trkpt lat="50.55573" lon="3.30404">
        <ele>41.928997</ele>
        <time>2018-03-20T14:51:07Z</time>
      </trkpt>
      <trkpt lat="50.5557" lon="3.30404">
        <ele>41.917595</ele>
        <time>2018-03-20T14:51:09Z</time>
      </trkpt>
      <trkpt lat="50.55568" lon="3.30399">
        <ele>41.912525</ele>
        <time>2018-03-20T14:51:11Z</time>
      </trkpt>
    </trkseg>
  </trk>
</gpx>